Station Meteo
datetemperaturepression humidite en % pluviometrie en mm
 04/02/2016 07h45 37,31034,6990,0
 04/02/2016 06h45 39,91034,4990,0
 25/01/2016 18h45 36,61026,5990,0
 25/01/2016 17h45 29,11026,1400,0
 25/01/2016 16h45 29,91026,11100,0
 25/01/2016 15h45 33,21026,11100,0
 25/01/2016 14h45 44,91026,21100,0
 24/01/2016 17h45 45,51027,11100,0
 24/01/2016 16h45 46,21027,31100,0
 10/01/2016 17h45 47,8999,4990,0
 10/01/2016 16h45 35,1999990,0
 10/01/2016 15h45 41,9998,5990,0
 09/01/2016 18h45 43,31000,2990,0
 09/01/2016 17h45 30,71000,2990,0
 09/01/2016 16h45 29,61000,5990,0
 09/01/2016 15h45 31,21000,3990,0
 09/01/2016 14h45 37,41001990,0
 09/01/2016 13h45 42,21001,8990,0
 08/01/2016 19h45 42,91000,6990,0
 08/01/2016 18h45 33,31001990,0
 08/01/2016 17h45 28,11001,2990,0
 08/01/2016 16h45 26,81000,8990,0
 08/01/2016 15h45 29,11001990,0
 08/01/2016 14h45 33,11001,2990,0
 08/01/2016 13h45 49,11002,1990,0
 07/01/2016 21h45 49,41005,9990,0
 07/01/2016 20h45 44,21005,7990,0
 07/01/2016 19h45 41,31005990,0
 07/01/2016 18h45 37,31004,8990,0
 07/01/2016 17h45 33,11004,1990,0
 07/01/2016 16h45 25,31003,2990,0
 07/01/2016 15h45 26,41002,3950,0
 07/01/2016 14h45 31,11001,8990,0
 07/01/2016 13h45 42,11001,3990,0
 04/01/2016 13h45 49,4998,6990,0
 08/12/2015 13h45 17,61027,8680,0
 08/12/2015 12h45 15,51028,1930,0
 08/12/2015 11h45 13,61027,6990,0
 08/12/2015 10h45 17,31027,2990,0
 08/12/2015 09h45 19,31026,8990,0
 08/12/2015 08h45 15,71026,7990,0
 08/12/2015 07h45 17,11026,2990,0
 08/12/2015 06h45 15,41025,8990,0
 08/12/2015 05h45 12,41025,9990,0
 08/12/2015 04h45 10,81025,9990,0
 08/12/2015 03h45 10,11025,8990,0
 08/12/2015 02h45 10,51025,3950,0
 08/12/2015 01h45 12,11025,4880,0
 08/12/2015 00h45 12,11025,7870,0
 07/12/2015 23h45 12,41025,4840,0
 07/12/2015 22h45 12,11025,5850,0
 07/12/2015 21h45 12,51025,1820,0
 07/12/2015 20h45 12,51025,1810,0
 07/12/2015 19h45 12,61024,5780,0
 07/12/2015 18h45 13,11024,4750,0
 07/12/2015 17h45 14,21023,8690,0
 07/12/2015 16h45 15,81023,9630,0
 07/12/2015 15h45 18,21023,8570,0
 07/12/2015 14h45 18,11024,5600,0
 07/12/2015 13h45 17,21025650,0
 07/12/2015 12h45 15,81025,7710,0
 07/12/2015 11h45 13,91026,2840,0
 07/12/2015 10h45 13,21026,1990,0
 07/12/2015 09h45 22,31025,9990,0
 07/12/2015 08h45 25,71025,8990,0
 07/12/2015 07h45 22,91025,9990,0
 07/12/2015 06h45 18,91025,8990,0
 07/12/2015 05h45 18,71025,9990,0
 07/12/2015 04h45 17,11026990,0
 07/12/2015 03h45 15,11026,1990,0
 07/12/2015 02h45 13,51026,2990,0
 07/12/2015 01h45 11,71026,7990,0
 07/12/2015 00h45 10,91026,8990,0
 06/12/2015 23h45 9,61026,4990,0
 06/12/2015 22h45 9,91026,3990,0
 06/12/2015 21h45 9,11026,3990,0
 06/12/2015 20h45 9,81026,6920,0
 06/12/2015 19h45 11,31026,2860,0
 06/12/2015 18h45 11,61026,1810,0
 06/12/2015 17h45 14,11025,5720,0
 06/12/2015 16h45 16,11025,3640,0
 06/12/2015 15h45 18,91025,8560,0
 06/12/2015 14h45 18,31025,7590,0
 06/12/2015 13h45 17,11026,3630,0
 06/12/2015 12h45 15,41026,8750,0
 06/12/2015 11h45 14,51027,2990,0
 06/12/2015 10h45 26,41026,9990,0
 06/12/2015 09h45 40,61026,7990,0
 06/12/2015 08h45 37,81026,3990,0
 06/12/2015 07h45 34,21026,3990,0
 06/12/2015 06h45 38,61026,1990,0
 06/12/2015 05h45 29,31025,9990,0
 06/12/2015 04h45 25,81026,2990,0
 06/12/2015 03h45 26,51026,4990,0
 06/12/2015 02h45 21,21026,7990,0
 06/12/2015 01h45 18,31027,1990,0
 06/12/2015 00h45 15,11027,6990,0
 05/12/2015 23h45 12,11027,6990,0
 05/12/2015 22h45 101027,8990,0
 05/12/2015 21h45 9,11027,8990,0
 05/12/2015 20h45 9,51027,7990,0
 05/12/2015 19h45 8,91027,3970,0
 05/12/2015 18h45 10,21027,5880,0
 05/12/2015 17h45 12,81026,9780,0
 05/12/2015 16h45 14,81026,6710,0
 05/12/2015 15h45 17,81026,9630,0
 05/12/2015 14h45 17,21027,8670,0
 05/12/2015 13h45 15,41028,9810,0
 05/12/2015 12h45 14,31030990,0
 05/12/2015 11h45 16,61030,2990,0
 05/12/2015 10h45 21,41029,8990,0
 05/12/2015 09h45 19,91029,9990,0
 05/12/2015 08h45 17,61030,1990,0
 05/12/2015 07h45 15,11030,2990,0
 05/12/2015 06h45 11,91029,8990,0
 05/12/2015 05h45 10,21029,9990,0
 05/12/2015 04h45 10,41030,8990,0
 05/12/2015 03h45 10,11031,1990,0
 05/12/2015 02h45 10,31031,1990,0
 05/12/2015 01h45 9,91031,4990,0
 05/12/2015 00h45 9,91031,4990,0
 04/12/2015 23h45 9,81031,7990,0
 04/12/2015 22h45 9,91031,8990,0
 04/12/2015 21h45 9,81032,2990,0
 04/12/2015 20h45 10,11031,8970,0
 04/12/2015 19h45 10,31031,9930,0
 04/12/2015 18h45 10,31031,7880,0
 04/12/2015 17h45 11,91031,7800,0
 04/12/2015 16h45 13,81031,2730,0
 04/12/2015 15h45 13,91031,5730,0
 04/12/2015 14h45 16,21031,4630,0
 04/12/2015 13h45 14,91031,5770,0
 04/12/2015 12h45 14,71031,9990,0
 04/12/2015 11h45 22,81031,8990,0
 04/12/2015 10h45 42,81031,7990,0
 04/12/2015 04h45 44,71027,9990,0
 04/12/2015 03h45 39,11028,1990,0
 04/12/2015 02h45 36,31027,7990,0
 04/12/2015 01h45 32,11027,6990,0
 04/12/2015 00h45 23,61027,6990,0
 03/12/2015 23h45 18,11027,4990,0
 03/12/2015 22h45 13,91027,2990,0
 03/12/2015 21h45 10,11026,9990,0
 03/12/2015 20h45 8,91026,7990,0
 03/12/2015 19h45 9,11026,4900,0
 03/12/2015 18h45 9,41026,3820,0
 03/12/2015 17h45 11,11025,9710,0
 03/12/2015 16h45 14,91025,3530,0
 03/12/2015 15h45 17,11025,2440,0
 03/12/2015 14h45 15,21025,7500,0
 03/12/2015 13h45 15,91026,5990,0
 03/12/2015 12h45 33,11027,4990,0
 30/11/2015 16h45 14,51029,9690,0
 30/11/2015 15h45 17,91030,2620,0
 30/11/2015 14h45 14,41030,7720,0
 30/11/2015 13h45 12,81031,5850,0
 30/11/2015 12h45 11,31032,3990,0
 30/11/2015 11h45 11,91033990,0
 30/11/2015 10h45 18,21032,7990,0
 30/11/2015 09h45 19,31032,2990,0
 30/11/2015 08h45 18,61031,7990,0
 30/11/2015 07h45 13,51031,6990,0
 30/11/2015 06h45 10,11031,7990,0
 30/11/2015 05h45 8,41031,7990,0
 30/11/2015 04h45 8,11031,9990,0
 30/11/2015 03h45 8,21031,7990,0
 30/11/2015 02h45 8,11031,8990,0
 30/11/2015 01h45 8,11032990,0
 30/11/2015 00h45 8,11031,7990,0
 29/11/2015 23h45 8,11031,7990,0
 29/11/2015 22h45 7,41031,5990,0
 29/11/2015 21h45 7,61031,3980,0
 29/11/2015 20h45 7,91031,1920,0
 29/11/2015 19h45 9,31030,2840,0
 29/11/2015 18h45 11,11029,7770,0
 29/11/2015 17h45 12,61029,3720,0
 29/11/2015 16h45 14,21029650,0
 29/11/2015 15h45 13,91029670,0
 29/11/2015 14h45 14,31029,4640,0
 29/11/2015 13h45 14,21029,5670,0
 29/11/2015 12h45 11,51029,5780,0
 29/11/2015 11h45 10,31029,7960,0
 29/11/2015 10h45 9,91029,4990,0
 29/11/2015 09h45 10,51028,7990,0
 29/11/2015 08h45 10,91028,2990,0
 29/11/2015 07h45 11,61027,6990,0
 29/11/2015 06h45 12,51027,2990,0
 29/11/2015 05h45 131027,6990,0
 29/11/2015 04h45 11,21027,1990,0
 29/11/2015 03h45 10,11027,1990,0
 29/11/2015 02h45 9,91026,9990,0
 29/11/2015 01h45 9,31026,7990,0
 29/11/2015 00h45 8,71026,6990,0
 28/11/2015 23h45 8,61026,4990,0
 28/11/2015 22h45 9,21026,1990,0
 28/11/2015 21h45 8,61025,6990,0
 28/11/2015 20h45 7,91025,2990,0
 28/11/2015 19h45 7,41024,9960,0
 28/11/2015 18h45 7,21024,5840,0
 28/11/2015 17h45 8,31023,6810,0
 28/11/2015 16h45 9,71023720,0
 28/11/2015 15h45 10,11022,4790,0
 28/11/2015 14h45 9,11021,8960,0
 28/11/2015 13h45 8,71021,6990,0
 28/11/2015 12h45 8,51021,4990,0
 28/11/2015 11h45 8,91020,1990,0
 28/11/2015 10h45 9,11018,6990,0
 28/11/2015 09h45 8,81017,3991,0
 28/11/2015 08h45 8,21015,9991,0
 28/11/2015 07h45 8,21015,2990,0
 28/11/2015 06h45 8,21014,9990,0
 28/11/2015 05h45 8,21014,5990,0
 28/11/2015 04h45 81014,6990,0
 28/11/2015 03h45 8,11014,9990,0
 28/11/2015 02h45 8,11015,1990,0
 28/11/2015 01h45 7,91015,3990,0
 28/11/2015 00h45 7,91015,5990,0
 27/11/2015 23h45 7,81015,3990,0
 27/11/2015 22h45 7,81015,6990,0
 27/11/2015 21h45 7,81015,7990,0
 27/11/2015 20h45 71015,9990,0
 27/11/2015 19h45 6,41015,7990,0
 27/11/2015 18h45 61015,2880,0
 27/11/2015 17h45 7,91014,8740,0
 27/11/2015 16h45 9,61015640,0
 27/11/2015 15h45 12,91015,3580,0
 27/11/2015 14h45 111015,5660,0
 27/11/2015 13h45 10,61016,3780,0
 27/11/2015 12h45 9,91017,2990,0
 27/11/2015 11h45 15,11017,5990,0
 27/11/2015 10h45 25,31017,2990,0
 27/11/2015 09h45 25,21017,3990,0
 27/11/2015 08h45 33,91016,7990,0
 27/11/2015 07h45 30,31016,7990,0
 27/11/2015 06h45 25,91016,4990,0
 27/11/2015 05h45 27,51016,6990,0
 27/11/2015 04h45 25,11016,8990,0
 27/11/2015 03h45 18,81016,9990,0
 27/11/2015 02h45 13,11017990,0
 27/11/2015 01h45 101017,2990,0
 27/11/2015 00h45 9,31017,5990,0
 26/11/2015 23h45 81017,9990,0
 26/11/2015 22h45 7,21017,7990,0
 26/11/2015 21h45 6,91017,1990,0
 26/11/2015 20h45 6,61016,7990,0
 26/11/2015 19h45 6,41016990,0
 26/11/2015 18h45 6,81015,2920,0
 26/11/2015 17h45 8,71014,8820,0
 26/11/2015 16h45 9,31014,3790,0
 26/11/2015 15h45 9,41014,5800,0
 26/11/2015 14h45 8,91014,9810,0
 26/11/2015 13h45 8,91015,4780,0
 26/11/2015 12h45 8,41015,8820,0
 26/11/2015 11h45 8,91015,5830,0
 26/11/2015 10h45 8,31015,4910,0
 26/11/2015 09h45 8,11014,7910,0
 26/11/2015 08h45 7,91014,1940,0
 26/11/2015 07h45 8,31013,2930,0
 26/11/2015 06h45 8,61013,2920,0
 26/11/2015 05h45 8,61012,7940,0
 26/11/2015 04h45 8,61012,1940,0
 26/11/2015 03h45 9,41012,3910,0
 26/11/2015 02h45 9,11011,8920,0
 26/11/2015 01h45 9,11011,7920,0
 26/11/2015 00h45 91010,9940,0
 25/11/2015 23h45 9,11011,5940,0
 25/11/2015 22h45 9,11011,6930,0
 25/11/2015 21h45 9,11011,7950,0
 25/11/2015 20h45 9,41011,3940,0
 25/11/2015 19h45 9,51010,6940,0
 25/11/2015 18h45 9,51010,6941,0
 25/11/2015 17h45 9,51010,7941,0
 25/11/2015 16h45 101010,8910,0
 25/11/2015 15h45 10,81011,5890,0
 25/11/2015 14h45 10,41012900,0
 25/11/2015 13h45 10,51012,6940,0
 25/11/2015 12h45 9,81013,1970,0
 25/11/2015 11h45 8,91013,5990,0
 25/11/2015 10h45 7,61013,6990,0
 25/11/2015 09h45 6,91013,9990,0
 25/11/2015 08h45 6,91014991,0
 25/11/2015 07h45 6,91014,3990,0
 25/11/2015 06h45 71014,6990,0
 25/11/2015 05h45 7,11015991,0
 25/11/2015 04h45 7,21015,5990,0
 25/11/2015 03h45 7,21016,1990,0
 25/11/2015 02h45 7,31016,7990,0
 25/11/2015 01h45 7,31017,1990,0
 25/11/2015 00h45 7,11017990,0
 24/11/2015 23h45 7,11017,4990,0
 24/11/2015 22h45 7,31018,3990,0
 24/11/2015 21h45 6,61019,4990,0
 24/11/2015 20h45 6,51020,3990,0
 24/11/2015 19h45 6,41021,4940,0
 24/11/2015 18h45 6,21022920,0
 24/11/2015 17h45 6,61022,3830,0
 24/11/2015 16h45 8,21022,7740,0
 24/11/2015 15h45 9,41023,3730,0
 24/11/2015 14h45 9,51023,9860,0
 24/11/2015 13h45 9,61024,4990,0
 24/11/2015 12h45 12,11025,1990,0
 24/11/2015 11h45 16,41025,5990,0
 24/11/2015 10h45 22,81025,1990,0
 24/11/2015 09h45 26,41024,9990,0
 24/11/2015 08h45 26,91024,4990,0
 24/11/2015 07h45 27,41024,1990,0
 24/11/2015 06h45 30,31023,8990,0
 24/11/2015 05h45 37,31023,5990,0
 24/11/2015 02h45 43,91023,6990,0
 24/11/2015 01h45 29,51023,5990,0
 24/11/2015 00h45 23,91023,2990,0
 23/11/2015 23h45 17,31023990,0
 23/11/2015 22h45 13,81022,4990,0
 23/11/2015 21h45 10,41022990,0
 23/11/2015 20h45 8,41021,6990,0
 23/11/2015 19h45 6,41021,3990,0
 23/11/2015 18h45 5,21020,9850,0
 23/11/2015 17h45 5,81020,6680,0
 23/11/2015 16h45 7,51020,3550,0
 23/11/2015 15h45 9,91020,3470,0
 23/11/2015 14h45 9,11020,5520,0
 23/11/2015 13h45 8,91020,7610,0
 23/11/2015 12h45 8,41021830,0
 23/11/2015 11h45 10,31021,1990,0
 23/11/2015 10h45 21,41020,6990,0
 23/11/2015 09h45 37,21019,9990,0
 23/11/2015 08h45 39,81019,2990,0
 23/11/2015 07h45 42,21018,6990,0
 23/11/2015 06h45 39,81017,8990,0
 23/11/2015 05h45 36,61017,3990,0
 23/11/2015 04h45 32,31016,9990,0
 23/11/2015 03h45 33,71016,5990,0
 23/11/2015 02h45 28,81015,9990,0
 23/11/2015 01h45 23,41015,6990,0
 23/11/2015 00h45 20,21015,1990,0
 22/11/2015 23h45 161014,7990,0
 22/11/2015 22h45 12,11014,1990,0
 22/11/2015 21h45 10,31013,5990,0
 22/11/2015 20h45 7,61012,8890,0
 22/11/2015 19h45 5,41012730,0
 22/11/2015 18h45 51010,7690,0
 22/11/2015 17h45 5,81010,6590,0
 22/11/2015 16h45 7,81010,4540,0
 22/11/2015 15h45 7,11010,3570,0
 22/11/2015 14h45 10,51010,3490,0
 22/11/2015 13h45 8,51010,4570,0
 22/11/2015 12h45 7,81010,8610,0
 22/11/2015 11h45 7,91010,8800,0
 22/11/2015 10h45 11,41011,1990,0
 22/11/2015 09h45 15,61011,1990,0
 22/11/2015 08h45 12,51010,4990,0
 22/11/2015 07h45 9,91009,6990,0
 22/11/2015 06h45 91009,2990,0
 22/11/2015 05h45 8,81009,2990,0
 22/11/2015 04h45 7,81009,2990,0
 22/11/2015 03h45 6,91009,3990,0
 22/11/2015 02h45 6,91009,2990,0
 22/11/2015 01h45 5,91009,5940,0
 22/11/2015 00h45 5,91010890,0
 21/11/2015 23h45 6,51009,5890,0
 21/11/2015 22h45 6,21008,9900,0
 21/11/2015 21h45 6,51008,5900,0
 21/11/2015 20h45 6,11008,3930,0
 21/11/2015 19h45 6,31007,4860,0
 21/11/2015 18h45 6,41007,2770,0
 21/11/2015 17h45 7,61006,7610,0
 21/11/2015 16h45 8,81006,6560,0
 21/11/2015 15h45 10,11006,1540,0
 21/11/2015 14h45 9,41006630,0
 21/11/2015 13h45 9,91005,3741,0
 21/11/2015 12h45 7,81005,5871,0
 21/11/2015 11h45 8,91004,9860,0
 21/11/2015 10h45 8,51005900,0
 21/11/2015 09h45 8,41004,5900,0
 21/11/2015 08h45 8,91004,6940,0
 21/11/2015 07h45 9,21004,5932,0
 21/11/2015 06h45 9,91004,1911,0
 21/11/2015 05h45 11,11002,7913,0
 21/11/2015 04h45 12,31002,6932,0
 21/11/2015 03h45 12,31003,2921,0
 21/11/2015 02h45 12,21004,7921,0
 21/11/2015 01h45 11,91006,8922,0
 21/11/2015 00h45 11,81008,7910,0
 20/11/2015 23h45 11,81010,5890,0
 20/11/2015 22h45 151011,9660,0
 20/11/2015 21h45 13,41012,3730,0
 20/11/2015 20h45 16,61013,5530,0
 20/11/2015 19h45 16,41014,2550,0
 20/11/2015 18h45 171015,4530,0
 20/11/2015 17h45 17,51015,9540,0
 20/11/2015 16h45 18,61016,9500,0
 20/11/2015 15h45 20,71017,8470,0
 20/11/2015 14h45 19,91018,9540,0
 20/11/2015 13h45 19,31020,1620,0
 20/11/2015 12h45 17,41021,7750,0
 20/11/2015 11h45 16,11022,5830,0
 20/11/2015 10h45 14,41023,1900,0
 20/11/2015 09h45 13,21023,2920,0
 20/11/2015 08h45 12,91023930,0
 20/11/2015 07h45 12,81023,5930,0
 20/11/2015 06h45 13,11024,1930,0
 20/11/2015 05h45 13,31024940,0
 20/11/2015 04h45 131025940,0
 20/11/2015 03h45 13,41025,1930,0
 20/11/2015 02h45 13,41025,2930,0
 20/11/2015 01h45 13,81025,5930,0
 20/11/2015 00h45 13,91026930,0
 19/11/2015 23h45 14,11026,4920,0
 19/11/2015 22h45 14,91026,6890,0
 19/11/2015 21h45 14,81026,2900,0
 19/11/2015 20h45 14,61026,4900,0
 19/11/2015 19h45 14,61025,9880,0
 19/11/2015 18h45 15,91025,9850,0
 19/11/2015 17h45 17,31025,4810,0
 19/11/2015 16h45 18,51024,9740,0
 19/11/2015 15h45 19,61024,9710,0
 19/11/2015 14h45 22,41025,1630,0
 19/11/2015 13h45 18,41025,7790,0
 19/11/2015 12h45 20,11026,2780,0
 19/11/2015 11h45 16,41026,6920,0
 19/11/2015 10h45 15,31026,2940,0
 19/11/2015 09h45 13,11026,3940,0
 19/11/2015 08h45 12,71025,5940,0
 19/11/2015 07h45 12,61025,1940,0
 19/11/2015 06h45 11,81024,7940,0
 19/11/2015 05h45 11,11024,5940,0
 19/11/2015 04h45 10,91024,8940,0
 19/11/2015 03h45 10,81024,9930,0
 19/11/2015 02h45 10,51024,6930,0
 19/11/2015 01h45 10,31024,7930,0
 19/11/2015 00h45 9,61024,7930,0
 18/11/2015 23h45 9,41024,6930,0
 18/11/2015 22h45 9,81024,3920,0
 18/11/2015 21h45 10,21024,3910,0
 18/11/2015 20h45 10,61024,4900,0
 18/11/2015 19h45 12,21024,4880,0
 18/11/2015 18h45 14,11024850,0
 18/11/2015 17h45 17,11023,8800,0
 18/11/2015 16h45 17,11023,8810,0
 18/11/2015 15h45 18,31023,8760,0
 18/11/2015 14h45 18,41024,1780,0
 18/11/2015 13h45 18,31024,5780,0
 18/11/2015 12h45 17,91024,7780,0
 18/11/2015 11h45 15,81025,1800,0
 18/11/2015 10h45 13,41024,9880,0
 18/11/2015 09h45 121024,7910,0
 18/11/2015 08h45 11,11024,3910,0
 18/11/2015 07h45 10,91024,1910,0
 18/11/2015 06h45 10,81024900,0
 18/11/2015 05h45 11,21024880,0
 18/11/2015 04h45 11,21023,8870,0
 18/11/2015 03h45 11,31023,8860,0
 18/11/2015 02h45 11,21023,8860,0
 18/11/2015 01h45 11,11024860,0
 18/11/2015 00h45 10,81024,1860,0
 17/11/2015 23h45 10,61023,8860,0
 17/11/2015 22h45 10,11023,8860,0
 17/11/2015 21h45 9,21023,6870,0
 17/11/2015 20h45 8,91023,3860,0
 17/11/2015 19h45 111022,8820,0
 17/11/2015 18h45 11,81022,4780,0
 17/11/2015 17h45 14,91022700,0
 17/11/2015 16h45 18,61022590,0
 17/11/2015 15h45 21,71021,9530,0
 17/11/2015 14h45 20,31022,1580,0
 17/11/2015 13h45 16,21022,5710,0
 17/11/2015 12h45 10,91023,2890,0
 17/11/2015 11h45 8,31023,3960,0
 17/11/2015 10h45 7,21023,3980,0
 17/11/2015 09h45 5,81023990,0
 17/11/2015 08h45 5,31022,5990,0
 17/11/2015 07h45 5,31022,6990,0
 17/11/2015 06h45 4,71022,9990,0
 17/11/2015 05h45 4,21022,2990,0
 17/11/2015 04h45 3,91021,5990,0
 17/11/2015 03h45 3,51021,5990,0
 17/11/2015 02h45 3,41021,6990,0
 17/11/2015 01h45 3,61021,8990,0
 17/11/2015 00h45 4,11021,9960,0
 16/11/2015 23h45 5,51021,9930,0
 16/11/2015 22h45 7,31021,7910,0
 16/11/2015 21h45 7,51021,8900,0
 16/11/2015 20h45 8,81021,7880,0
 16/11/2015 19h45 8,91021,3870,0
 16/11/2015 18h45 9,21021,3860,0
 16/11/2015 17h45 9,81021,3870,0
 16/11/2015 16h45 9,91021,1880,0
 16/11/2015 15h45 10,21021,3880,0
 16/11/2015 14h45 10,11021,6880,0
 16/11/2015 13h45 10,31022910,0
 16/11/2015 12h45 10,31022,7940,0
 16/11/2015 11h45 8,61022,8940,0
 16/11/2015 10h45 7,41022,5950,0
 16/11/2015 09h45 5,81022970,0
 16/11/2015 08h45 4,71021,1990,0
 16/11/2015 07h45 3,11020,6990,0
 16/11/2015 06h45 3,61020,3980,0
 16/11/2015 05h45 3,61020,1970,0
 16/11/2015 04h45 4,11020,1960,0
 16/11/2015 03h45 4,41020,3950,0
 16/11/2015 02h45 4,91020,3940,0
 16/11/2015 01h45 5,41020,4930,0
 16/11/2015 00h45 6,61020,2910,0
 15/11/2015 23h45 7,91020,2890,0
 15/11/2015 22h45 8,61020,1890,0
 15/11/2015 21h45 9,61020890,0
 15/11/2015 20h45 9,61019,6830,0
 15/11/2015 19h45 11,31019,1790,0
 15/11/2015 18h45 14,21019700,0
 15/11/2015 17h45 18,21019600,0
 15/11/2015 16h45 23,61019,3480,0
 15/11/2015 15h45 24,31019,8490,0
 15/11/2015 14h45 20,91020,6580,0
 15/11/2015 13h45 16,11021,6700,0
 15/11/2015 12h45 14,61022,5770,0
 15/11/2015 11h45 10,11023,4940,0
 15/11/2015 10h45 7,61023,8960,0
 15/11/2015 09h45 6,81023,8960,0
 15/11/2015 08h45 7,21023,8950,0
 15/11/2015 07h45 7,81024,2950,0
 15/11/2015 06h45 8,11024,6950,0
 15/11/2015 05h45 8,41024,9940,0
 15/11/2015 04h45 8,51025,4940,0
 15/11/2015 03h45 8,91025,9940,0
 15/11/2015 02h45 8,91026,6940,0
 15/11/2015 01h45 91026,9930,0
 15/11/2015 00h45 8,91027,2930,0
 14/11/2015 23h45 7,31027,8930,0
 14/11/2015 22h45 6,31028,1920,0
 14/11/2015 21h45 7,61028,1900,0
 14/11/2015 20h45 8,81028,1900,0
 14/11/2015 19h45 101028,1880,0
 14/11/2015 18h45 11,51028840,0
 14/11/2015 17h45 14,71027,9760,0
 14/11/2015 16h45 16,11028,1720,0
 14/11/2015 15h45 20,41028,7600,0
 14/11/2015 14h45 16,81029,5740,0
 14/11/2015 13h45 15,81030,1770,0
 14/11/2015 12h45 13,91030,8840,0
 14/11/2015 11h45 14,31030,9860,0
 14/11/2015 10h45 12,11031,1940,0
 14/11/2015 09h45 10,31031950,0
 14/11/2015 08h45 9,61030,7940,0
 14/11/2015 07h45 9,51030,6940,0
 14/11/2015 06h45 9,11030,6940,0
 14/11/2015 05h45 9,81030,4940,0
 14/11/2015 04h45 9,91030,9940,0
 14/11/2015 03h45 10,11031,4940,0
 14/11/2015 02h45 9,91031,5940,0
 14/11/2015 01h45 9,81031,6940,0
 14/11/2015 00h45 9,81031,6930,0
 13/11/2015 23h45 9,11031,8930,0
 13/11/2015 22h45 10,31031,3930,0
 13/11/2015 21h45 10,51031,5920,0
 13/11/2015 20h45 10,41031,3920,0
 13/11/2015 19h45 10,61030,9910,0
 13/11/2015 18h45 10,71030,5910,0
 13/11/2015 17h45 11,11030,3890,0
 13/11/2015 16h45 11,51029,7890,0
 13/11/2015 15h45 121029,3870,0
 13/11/2015 14h45 11,61029,2890,0
 13/11/2015 13h45 11,21029,4900,0
 13/11/2015 12h45 10,51029,6930,0
 13/11/2015 11h45 9,51029,4940,0
 13/11/2015 10h45 8,21028,8950,0
 13/11/2015 09h45 7,41028950,0
 13/11/2015 08h45 7,11026,9950,0
 13/11/2015 07h45 6,91026,3950,0
 13/11/2015 06h45 6,91026,1950,0
 13/11/2015 05h45 7,11025,8940,0
 13/11/2015 04h45 7,31025,8940,0
 13/11/2015 03h45 7,61025,5940,0
 13/11/2015 02h45 8,11025,1940,0
 13/11/2015 01h45 8,41024,6930,0
 13/11/2015 00h45 8,51024,3930,0
 12/11/2015 23h45 8,81024,1930,0
 12/11/2015 22h45 8,81023,7930,0
 12/11/2015 21h45 8,91023,5930,0
 12/11/2015 20h45 91023,3920,0
 12/11/2015 19h45 91022,9920,0
 12/11/2015 18h45 9,51022,5910,0
 12/11/2015 17h45 10,11022,1890,0
 12/11/2015 16h45 11,11022860,0
 12/11/2015 15h45 11,61021,9850,0
 12/11/2015 14h45 11,31022,5860,0
 12/11/2015 13h45 10,61023880,0
 12/11/2015 12h45 10,11023,7900,0
 12/11/2015 11h45 9,11024,1930,0
 12/11/2015 10h45 8,11024940,0
 12/11/2015 09h45 7,81024940,0
 12/11/2015 08h45 7,61023,9940,0
 12/11/2015 07h45 7,51023,9940,0
 12/11/2015 06h45 7,51023,8940,0
 12/11/2015 05h45 7,61023,7930,0
 12/11/2015 04h45 7,91023,8930,0
 12/11/2015 03h45 8,31023,6930,0
 12/11/2015 02h45 8,61023,6930,0
 12/11/2015 01h45 8,61023,4920,0
 12/11/2015 00h45 8,91023,5920,0
 11/11/2015 23h45 9,11023,5920,0
 11/11/2015 22h45 9,31023,6910,0
 11/11/2015 21h45 10,31023900,0
 11/11/2015 20h45 10,91022,8900,0
 11/11/2015 19h45 11,51022,6890,0
 11/11/2015 18h45 11,51022,2860,0
 11/11/2015 17h45 15,61021,7730,0
 11/11/2015 16h45 22,81021,5550,0
 11/11/2015 15h45 21,71022600,0
 11/11/2015 14h45 19,91022,8640,0
 11/11/2015 13h45 17,21023,6740,0
 11/11/2015 12h45 14,31024,3820,0
 11/11/2015 11h45 121024,5920,0
 11/11/2015 10h45 9,31024,6940,0
 11/11/2015 09h45 7,41024,4940,0
 11/11/2015 08h45 6,61024,1940,0
 11/11/2015 07h45 6,21024,1940,0
 11/11/2015 06h45 6,61023,9940,0
 11/11/2015 05h45 6,41023,9940,0
 11/11/2015 04h45 6,41024,1940,0
 11/11/2015 03h45 6,31024,6940,0
 11/11/2015 02h45 6,31024,8930,0
 11/11/2015 01h45 5,61024,8920,0
 11/11/2015 00h45 7,11025,1920,0
 10/11/2015 23h45 7,31025,1920,0
 10/11/2015 22h45 7,91025,2910,0
 10/11/2015 21h45 8,91025,1900,0
 10/11/2015 20h45 10,31025880,0
 10/11/2015 19h45 11,51024,9850,0
 10/11/2015 18h45 13,91024,4790,0
 10/11/2015 17h45 17,31024,5690,0
 10/11/2015 16h45 21,81024,8570,0
 10/11/2015 15h45 21,91024,9580,0
 10/11/2015 14h45 19,71025,7660,0
 10/11/2015 13h45 16,61026,6770,0
 10/11/2015 12h45 15,61027,3810,0
 10/11/2015 11h45 14,61027,6850,0
 10/11/2015 10h45 13,51027,5890,0
 10/11/2015 09h45 12,61027,6910,0
 10/11/2015 08h45 12,31027,2910,0
 10/11/2015 07h45 12,51027,3910,0
 10/11/2015 06h45 12,81027,4900,0
 10/11/2015 05h45 12,91027,6910,0
 10/11/2015 04h45 12,91028900,0
 10/11/2015 03h45 13,11028,8900,0
 10/11/2015 02h45 13,41029890,0
 10/11/2015 01h45 13,71029,3890,0
 10/11/2015 00h45 13,81029,4900,0
 09/11/2015 23h45 13,81029,6890,0
 09/11/2015 22h45 13,91029,5890,0
 09/11/2015 21h45 14,11029,5890,0
 09/11/2015 20h45 14,11029,5880,0
 09/11/2015 19h45 14,41029,3860,0
 09/11/2015 18h45 15,11028,9840,0
 09/11/2015 17h45 16,21028,7810,0
 09/11/2015 16h45 17,11029,1790,0
 09/11/2015 15h45 17,51029,6780,0
 09/11/2015 14h45 17,11030,2800,0
 09/11/2015 13h45 16,21030,2840,0
 09/11/2015 12h45 15,31030,6870,0
 09/11/2015 11h45 13,61030,6920,0
 09/11/2015 10h45 11,11030930,0
 09/11/2015 09h45 9,91029,8930,0
 09/11/2015 08h45 8,11029,2930,0
 09/11/2015 07h45 6,41028,4930,0
 09/11/2015 06h45 6,81028,1920,0
 09/11/2015 05h45 71027,7920,0
 09/11/2015 04h45 7,61027,2920,0
 09/11/2015 03h45 8,51027,1910,0
 09/11/2015 02h45 9,41026,5920,0
 09/11/2015 01h45 9,51026,3910,0
 09/11/2015 00h45 9,61026,3910,0
 08/11/2015 23h45 10,21026,3900,0
 08/11/2015 22h45 10,91026,3880,0
 08/11/2015 21h45 12,11025,9860,0
 08/11/2015 20h45 13,81025,5820,0
 08/11/2015 19h45 15,21024,9780,0
 08/11/2015 18h45 16,51024710,0
 08/11/2015 17h45 19,41023,7620,0
 08/11/2015 16h45 24,81023,4500,0
 08/11/2015 15h45 26,91023460,0
 08/11/2015 14h45 25,91023,1480,0
 08/11/2015 13h45 25,11023,4520,0
 08/11/2015 12h45 21,91023,9640,0
 08/11/2015 11h45 16,71024,3870,0
 08/11/2015 10h45 11,31024,4940,0
 08/11/2015 09h45 7,81024,5930,0
 08/11/2015 08h45 7,61024930,0
 08/11/2015 07h45 7,31023,7920,0
 08/11/2015 06h45 7,71024,2920,0
 08/11/2015 05h45 8,21024,3920,0
 08/11/2015 04h45 8,31024,7910,0
 08/11/2015 03h45 9,11025,2910,0
 08/11/2015 02h45 9,91025,1900,0
 08/11/2015 01h45 11,11025,1900,0
 08/11/2015 00h45 11,31025,1890,0
 07/11/2015 23h45 12,21025,3870,0
 07/11/2015 22h45 12,71025,4840,0
 07/11/2015 21h45 14,31025,2810,0
 07/11/2015 20h45 15,81025750,0
 07/11/2015 19h45 17,51024,7700,0
 07/11/2015 18h45 20,21024,2620,0
 07/11/2015 17h45 23,41023,8540,0
 07/11/2015 16h45 28,51023,4440,0
 07/11/2015 15h45 31,31022,8380,0
 07/11/2015 14h45 30,21022,6410,0
 07/11/2015 13h45 25,61022,5500,0
 07/11/2015 12h45 24,11022,6570,0
 07/11/2015 11h45 20,61023,1780,0
 07/11/2015 10h45 13,81022,7930,0
 07/11/2015 09h45 10,51022,5930,0
 07/11/2015 08h45 9,51022,1920,0
 07/11/2015 07h45 9,31022,1920,0
 07/11/2015 06h45 9,61022,1920,0
 07/11/2015 05h45 9,91021,8920,0
 07/11/2015 04h45 9,91021,7910,0
 07/11/2015 03h45 10,51022,4910,0
 07/11/2015 02h45 111022,6900,0
 07/11/2015 01h45 11,61023890,0
 07/11/2015 00h45 11,71023880,0
 06/11/2015 23h45 12,31023,4870,0
 06/11/2015 22h45 12,91023,1840,0
 06/11/2015 21h45 13,91022,9810,0
 06/11/2015 20h45 15,41022,8770,0
 06/11/2015 19h45 17,21022,4720,0
 06/11/2015 18h45 19,81022,1630,0
 06/11/2015 17h45 22,91021,9530,0
 06/11/2015 16h45 27,81021,7420,0
 06/11/2015 15h45 29,51021,5400,0
 06/11/2015 14h45 27,81021,8460,0
 06/11/2015 13h45 24,51022,2550,0
 06/11/2015 12h45 21,61022,8630,0
 06/11/2015 11h45 18,91023,1740,0
 06/11/2015 10h45 12,81023930,0
 06/11/2015 09h45 9,51022,7930,0
 06/11/2015 08h45 8,81022,2920,0
 06/11/2015 07h45 9,11021,5920,0
 06/11/2015 06h45 8,41021,5910,0
 06/11/2015 05h45 9,31021910,0
 06/11/2015 04h45 10,11021900,0
 06/11/2015 03h45 11,11021,3900,0
 06/11/2015 02h45 11,51020,9880,0
 06/11/2015 01h45 11,91021880,0
 06/11/2015 00h45 12,51020,4870,0
 05/11/2015 23h45 11,91020,2870,0
 05/11/2015 22h45 13,11019,6840,0
 05/11/2015 21h45 13,81019,4820,0
 05/11/2015 20h45 14,41019,3790,0
 05/11/2015 19h45 15,81018,7740,0
 05/11/2015 18h45 18,11018,1660,0
 05/11/2015 17h45 21,21017,5580,0
 05/11/2015 16h45 23,81016,7520,0
 05/11/2015 15h45 25,71016,8460,0
 05/11/2015 14h45 24,81017,1490,0
 05/11/2015 13h45 22,91017,7560,0
 05/11/2015 12h45 19,91018,6670,0
 05/11/2015 11h45 15,31018,7840,0
 05/11/2015 10h45 11,31019,1930,0
 05/11/2015 09h45 7,41018,7920,0
 05/11/2015 08h45 6,21018920,0
 05/11/2015 07h45 6,11017,6920,0
 05/11/2015 06h45 6,81017,6920,0
 05/11/2015 05h45 7,11017,6920,0
 05/11/2015 04h45 8,11017,2910,0
 05/11/2015 03h45 8,81017,2910,0
 05/11/2015 02h45 9,21016,9900,0
 05/11/2015 01h45 9,91016,9890,0
 05/11/2015 00h45 10,51017,1890,0
 04/11/2015 23h45 11,61017,1860,0
 04/11/2015 22h45 13,61017820,0
 04/11/2015 21h45 14,61016,4800,0
 04/11/2015 20h45 15,11016,3790,0
 04/11/2015 19h45 15,91016,2740,0
 04/11/2015 18h45 17,61015,4670,0
 04/11/2015 17h45 21,81015,4540,0
 04/11/2015 16h45 26,81015,7450,0
 04/11/2015 15h45 26,41016470,0
 04/11/2015 14h45 24,91016,5510,0
 04/11/2015 13h45 23,11017,3590,0
 04/11/2015 12h45 20,31017,9670,0
 04/11/2015 11h45 17,81018,3760,0
 04/11/2015 10h45 12,51018,3920,0
 04/11/2015 09h45 8,81018,5920,0
 04/11/2015 08h45 7,61018,2920,0
 04/11/2015 07h45 8,21018910,0
 04/11/2015 06h45 8,41018900,0
 04/11/2015 05h45 8,91017,8900,0
 04/11/2015 04h45 9,31017,5880,0
 04/11/2015 03h45 10,21017,4860,0
 04/11/2015 02h45 12,11016,9850,0
 04/11/2015 01h45 12,51016,6820,0
 04/11/2015 00h45 14,91016,2770,0
 03/11/2015 23h45 15,11015,8760,0
 03/11/2015 22h45 15,61015,9750,0
 03/11/2015 21h45 15,91014,8730,0
 03/11/2015 20h45 15,71014,3730,0
 03/11/2015 19h45 15,81013,5720,0
 03/11/2015 18h45 16,81012,6690,0
 03/11/2015 17h45 17,81012660,0
 03/11/2015 16h45 20,11011,6590,0
 03/11/2015 15h45 19,11011,4640,0
 03/11/2015 14h45 19,21011,5620,0
 03/11/2015 13h45 18,91011,4640,0
 03/11/2015 12h45 19,81011,7660,0
 03/11/2015 11h45 18,11011,9700,0
 03/11/2015 10h45 17,31011,9750,0
 03/11/2015 09h45 14,61011,9830,0
 03/11/2015 08h45 13,61011,1910,0
 03/11/2015 07h45 12,61010,4900,0
 03/11/2015 06h45 13,51009,9901,0
 03/11/2015 05h45 14,21009,8891,0
 03/11/2015 04h45 14,61010,6892,0
 03/11/2015 03h45 15,41012860,0
 03/11/2015 02h45 16,91011,4790,0
 03/11/2015 01h45 16,81011,7770,0
 03/11/2015 00h45 16,81012,4750,0
 02/11/2015 23h45 16,51013,2720,0
 02/11/2015 22h45 16,11013730,0
 02/11/2015 21h45 16,61013,3690,0
 02/11/2015 20h45 16,91013,7690,0
 02/11/2015 19h45 16,81014,7670,0
 02/11/2015 18h45 16,91014,5670,0
 02/11/2015 17h45 17,31015,6660,0
 02/11/2015 16h45 18,11015640,0
 02/11/2015 15h45 18,81015,6620,0
 02/11/2015 14h45 19,61016,5560,0
 02/11/2015 13h45 18,51017,8600,0
 02/11/2015 12h45 17,41018,7650,0
 02/11/2015 11h45 17,81018,6640,0
 02/11/2015 10h45 17,11018,3590,0
 02/11/2015 09h45 15,21017,9690,0
 02/11/2015 08h45 13,51018,6720,0
 02/11/2015 07h45 13,61018,9700,0
 02/11/2015 06h45 13,51019,3670,0
 02/11/2015 05h45 13,61019,1670,0
 02/11/2015 04h45 141019,4710,0
 02/11/2015 03h45 14,41019,5710,0
 02/11/2015 02h45 14,11019,7710,0
 02/11/2015 01h45 13,61020,3700,0
 02/11/2015 00h45 11,91021,1730,0
 01/11/2015 23h45 9,31021,5750,0
 01/11/2015 22h45 8,91021,9710,0
 01/11/2015 21h45 12,81022,2620,0
 01/11/2015 20h45 141022,3590,0
 01/11/2015 19h45 15,21022,2570,0
 01/11/2015 18h45 16,51022,2490,0
 01/11/2015 17h45 18,91022430,0
 01/11/2015 16h45 23,81022,2340,0
 01/11/2015 15h45 23,91022,4340,0
 01/11/2015 14h45 23,21022,9340,0
 01/11/2015 13h45 22,11023350,0
 01/11/2015 12h45 20,81023,7430,0
 01/11/2015 11h45 19,31023,9500,0
 01/11/2015 10h45 17,51023,9580,0
 01/11/2015 09h45 14,51023,7680,0
 01/11/2015 08h45 13,61022,9700,0
 01/11/2015 07h45 13,61022,5690,0
 01/11/2015 06h45 13,81021,9700,0
 01/11/2015 05h45 13,71022,1700,0
 01/11/2015 04h45 13,41022,3710,0
 01/11/2015 03h45 11,51022,8720,0
 01/11/2015 02h45 12,11022,4670,0
 01/11/2015 01h45 13,31022,3620,0
 01/11/2015 00h45 13,31022,2620,0
 31/10/2015 23h45 12,31022590,0
 31/10/2015 22h45 14,21021,4540,0
 31/10/2015 21h45 15,31020,5510,0
 31/10/2015 20h45 15,61020,1500,0
 31/10/2015 19h45 16,51019,2470,0
 31/10/2015 18h45 18,11018,5410,0
 31/10/2015 17h45 20,21017,8350,0
 31/10/2015 16h45 23,91017,1300,0
 31/10/2015 15h45 241017330,0
 31/10/2015 14h45 23,91016,8360,0
 31/10/2015 13h45 23,51016,8380,0
 31/10/2015 12h45 22,91016,6380,0
 31/10/2015 11h45 21,51016450,0
 31/10/2015 10h45 19,81015,5510,0
 31/10/2015 09h45 16,81015580,0
 31/10/2015 08h45 151014,4620,0
 31/10/2015 07h45 14,51014630,0
 31/10/2015 06h45 14,21014640,0
 31/10/2015 05h45 14,31013,9630,0
 31/10/2015 04h45 141014640,0
 31/10/2015 03h45 14,41014,2630,0
 31/10/2015 02h45 12,21014,5680,0
 31/10/2015 01h45 9,81014,7740,0
 31/10/2015 00h45 9,11015750,0
 30/10/2015 23h45 9,61015,3730,0
 30/10/2015 22h45 11,31015,8680,0
 30/10/2015 21h45 13,31015,9610,0
 30/10/2015 20h45 15,31015,7560,0
 30/10/2015 19h45 16,11015,6550,0
 30/10/2015 18h45 18,11015,6500,0
 30/10/2015 17h45 20,81015,3440,0
 30/10/2015 16h45 24,41015,3380,0
 30/10/2015 15h45 271015,3340,0
 30/10/2015 14h45 25,61015,2360,0
 30/10/2015 13h45 24,31015,8430,0
 30/10/2015 12h45 20,91016,4540,0
 30/10/2015 11h45 16,61016,6760,0
 30/10/2015 10h45 10,91016,7890,0
 30/10/2015 09h45 5,81016,4930,0
 30/10/2015 08h45 4,21015,7920,0
 30/10/2015 07h45 4,91015,3920,0
 30/10/2015 06h45 4,81015,4920,0
 30/10/2015 05h45 4,81015,3920,0
 30/10/2015 04h45 5,11015,4920,0
 30/10/2015 03h45 5,61015,6910,0
 30/10/2015 02h45 6,21016910,0
 30/10/2015 01h45 6,81016910,0
 30/10/2015 00h45 7,41016900,0
 29/10/2015 23h45 7,91016,2900,0
 29/10/2015 22h45 7,91016,2880,0
 29/10/2015 21h45 9,11016,1870,0
 29/10/2015 20h45 10,61016,2840,0
 29/10/2015 19h45 12,31015,8790,0
 29/10/2015 18h45 15,11014,9710,0
 29/10/2015 17h45 17,41015620,0
 29/10/2015 16h45 20,51014,6520,0
 29/10/2015 15h45 22,41014,5500,0
 29/10/2015 14h45 21,21014,8570,0
 29/10/2015 13h45 211015,4590,0
 29/10/2015 12h45 19,11015,9650,0
 29/10/2015 11h45 15,21015,8840,0
 29/10/2015 10h45 10,11015,9910,0
 29/10/2015 09h45 61015,5930,0
 29/10/2015 08h45 3,81015,2930,0
 29/10/2015 07h45 3,51014,8930,0
 29/10/2015 06h45 3,81014,5920,0
 29/10/2015 05h45 4,11014,4920,0
 29/10/2015 04h45 4,61014,2920,0
 29/10/2015 03h45 4,91014,4920,0
 29/10/2015 02h45 5,81014,5920,0
 29/10/2015 01h45 6,41014,2920,0
 29/10/2015 00h45 6,11014910,0
 28/10/2015 23h45 7,21013,9900,0
 28/10/2015 22h45 7,41013,6890,0
 28/10/2015 21h45 8,91013,6870,0
 28/10/2015 20h45 10,21012,9840,0
 28/10/2015 19h45 10,91012,1830,0
 28/10/2015 18h45 13,91011,3690,0
 28/10/2015 17h45 16,71010,1650,0
 28/10/2015 16h45 20,81009,7540,0
 28/10/2015 15h45 22,81009,3521,0
 28/10/2015 14h45 21,21009,2660,0
 28/10/2015 13h45 12,31009,8881,0
 28/10/2015 12h45 13,61010870,0
 28/10/2015 11h45 171009780,0
 28/10/2015 10h45 14,61008,5890,0
 28/10/2015 09h45 11,41008930,0
 28/10/2015 08h45 9,81007,6920,0
 28/10/2015 07h45 10,81007,3920,0
 28/10/2015 06h45 11,41007,4920,0
 28/10/2015 05h45 12,31007,5920,0
 28/10/2015 04h45 12,51007,5910,0
 28/10/2015 03h45 12,91008,4910,0
 28/10/2015 02h45 131008,3903,0
 28/10/2015 01h45 13,11008,1883,0
 28/10/2015 00h45 16,11007,7830,0
 27/10/2015 23h45 15,81007,2830,0
 27/10/2015 22h45 17,31006,5780,0
 27/10/2015 21h45 17,91005,8770,0
 27/10/2015 20h45 17,51005,3780,0
 27/10/2015 19h45 17,61005,1770,0
 27/10/2015 18h45 18,61005,2740,0
 27/10/2015 17h45 20,41005,6680,0
 27/10/2015 16h45 20,51005,9670,0
 27/10/2015 15h45 21,61006,1640,0
 27/10/2015 14h45 22,21006,4620,0
 27/10/2015 13h45 23,11006,8600,0
 27/10/2015 12h45 21,71006,9630,0
 27/10/2015 11h45 20,51007670,0
 27/10/2015 10h45 18,91007,3720,0
 27/10/2015 09h45 18,91007,5740,0
 27/10/2015 08h45 16,91006,8770,0
 27/10/2015 07h45 16,61007770,0
 27/10/2015 06h45 16,41007,1780,0
 27/10/2015 05h45 15,91007,3780,0
 27/10/2015 04h45 16,11007,9760,0
 27/10/2015 03h45 15,91008,5770,0
 27/10/2015 02h45 15,91008,5770,0
 27/10/2015 01h45 15,81008,6770,0
 27/10/2015 00h45 15,51008,9760,0
 26/10/2015 23h45 15,61009,5730,0
 26/10/2015 22h45 15,81009,2730,0
 26/10/2015 21h45 15,81009,4750,0
 26/10/2015 20h45 15,81009,5750,0
 26/10/2015 19h45 16,41009,6740,0
 26/10/2015 18h45 17,61009,1700,0
 26/10/2015 17h45 18,31009,1680,0
 26/10/2015 16h45 19,41009,2630,0
 26/10/2015 15h45 22,31009,1570,0
 26/10/2015 14h45 21,31009,7610,0
 26/10/2015 13h45 19,91010,5640,0
 26/10/2015 12h45 18,81011,2660,0
 26/10/2015 11h45 19,41011630,0
 26/10/2015 10h45 18,11010,9670,0
 26/10/2015 09h45 15,61011,2740,0
 26/10/2015 08h45 14,81011770,0
 26/10/2015 07h45 14,21011,1780,0
 26/10/2015 06h45 13,61011780,0
 26/10/2015 05h45 12,61011,8810,0
 26/10/2015 04h45 11,81012,1900,0
 26/10/2015 03h45 8,91013,4920,0
 26/10/2015 02h45 8,91013,9910,0
 26/10/2015 01h45 9,71014,2910,0
 26/10/2015 00h45 10,11014,9900,0
 25/10/2015 23h45 10,41015,7910,0
 25/10/2015 22h45 10,61016,3910,0
 25/10/2015 21h45 10,91016,5890,0
 25/10/2015 20h45 11,91016,7870,0
 25/10/2015 19h45 13,81016,9820,0
 25/10/2015 18h45 16,81016,6720,0
 25/10/2015 17h45 21,91016,9610,0
 25/10/2015 16h45 22,21017,4600,0
 25/10/2015 15h45 22,91017,9610,0
 25/10/2015 14h45 22,91018,7630,0
 25/10/2015 13h45 20,31019,5730,0
 25/10/2015 12h45 16,71020,1830,0
 25/10/2015 11h45 14,91020,5900,0
 25/10/2015 10h45 13,61021930,0
 25/10/2015 09h45 11,91020,8930,0
 25/10/2015 08h45 11,11020,3930,0
 25/10/2015 07h45 10,81020,3930,0
 25/10/2015 06h45 10,31020,3930,0
 25/10/2015 05h45 9,81020,3920,0
 25/10/2015 04h45 9,81020,6920,0
 25/10/2015 03h45 10,11020,6910,0
 25/10/2015 02h45 10,31020,5910,0
 25/10/2015 01h45 10,51020,2910,0
 25/10/2015 00h45 11,21020,1910,0
 24/10/2015 23h45 11,31020,2890,0
 24/10/2015 22h45 12,21019,6880,0
 24/10/2015 21h45 12,81019,1860,0
 24/10/2015 20h45 13,51018,8840,0
 24/10/2015 19h45 14,81018,6820,0
 24/10/2015 18h45 16,11018760,0
 24/10/2015 17h45 191017,4700,0
 24/10/2015 16h45 19,31017,1680,0
 24/10/2015 15h45 20,11016,7650,0
 24/10/2015 14h45 21,41016,6620,0
 24/10/2015 13h45 221016,8600,0
 24/10/2015 12h45 19,81016,6670,0
 24/10/2015 11h45 17,81016,2770,0
 24/10/2015 10h45 11,51015,7940,0
 24/10/2015 09h45 7,91014,9930,0
 24/10/2015 08h45 6,81014,3930,0
 24/10/2015 07h45 5,91013,7920,0
 24/10/2015 06h45 5,81013,6920,0
 24/10/2015 05h45 6,21012,9920,0
 24/10/2015 04h45 6,11013,2910,0
 24/10/2015 03h45 5,61013,7910,0
 24/10/2015 02h45 6,61014,2910,0
 24/10/2015 01h45 6,71014,9910,0
 24/10/2015 00h45 6,91015,5900,0
 23/10/2015 23h45 7,41015,9900,0
 23/10/2015 22h45 8,11015,9880,0
 23/10/2015 21h45 91016,1870,0
 23/10/2015 20h45 10,11015,9830,0
 23/10/2015 19h45 12,21015,6780,0
 23/10/2015 18h45 15,11015,6680,0
 23/10/2015 17h45 19,61015,6560,0
 23/10/2015 16h45 23,41015,8470,0
 23/10/2015 15h45 22,91016,2490,0
 23/10/2015 14h45 20,91017,1560,0
 23/10/2015 13h45 19,71018,6600,0
 23/10/2015 12h45 17,11019,4680,0
 23/10/2015 11h45 15,21020,3780,0
 23/10/2015 10h45 13,21020,9870,0
 23/10/2015 09h45 11,41021,2920,0
 23/10/2015 08h45 10,31020,9930,0
 23/10/2015 07h45 10,21020,9930,0
 23/10/2015 06h45 10,21020,7930,0
 23/10/2015 05h45 10,31020,7930,0
 23/10/2015 04h45 9,51020,9920,0
 23/10/2015 03h45 111021,4930,0
 23/10/2015 02h45 11,21021,3930,0
 23/10/2015 01h45 11,41021,3920,0
 23/10/2015 00h45 11,31021,4920,0
 22/10/2015 23h45 11,41021,7910,0
 22/10/2015 22h45 11,61021,6900,0
 22/10/2015 21h45 11,51021,4890,0
 22/10/2015 20h45 11,41021,3890,0
 22/10/2015 19h45 11,31021,1900,0
 22/10/2015 18h45 11,31020,3900,0
 22/10/2015 17h45 11,81020,3880,0
 22/10/2015 16h45 11,91020890,0
 22/10/2015 15h45 10,91020,2890,0
 22/10/2015 14h45 10,91020,3860,0
 22/10/2015 13h45 11,51020,6800,0
 22/10/2015 12h45 11,51020,9820,0
 22/10/2015 11h45 11,11020,8830,0
 22/10/2015 10h45 10,71020,5840,0
 22/10/2015 09h45 9,31020880,0
 22/10/2015 08h45 7,91019,5900,0
 22/10/2015 07h45 7,41018,8900,0
 22/10/2015 06h45 7,41018,8890,0
 22/10/2015 05h45 7,91018,6880,0
 22/10/2015 04h45 7,61018,4890,0
 22/10/2015 03h45 7,41018,3860,0
 22/10/2015 02h45 9,61018,6830,0
 22/10/2015 01h45 9,91018,7810,0
 22/10/2015 00h45 10,11018,8810,0
 21/10/2015 23h45 10,31019790,0
 21/10/2015 22h45 10,41018,9790,0
 21/10/2015 21h45 10,31018,6790,0
 21/10/2015 20h45 10,71018,7790,0
 21/10/2015 19h45 10,81018,3780,0
 21/10/2015 18h45 11,31018,1750,0
 21/10/2015 17h45 15,21018610,0
 21/10/2015 16h45 16,61018,1550,0
 21/10/2015 15h45 16,41017,9560,0
 21/10/2015 14h45 16,21018,6590,0
 21/10/2015 13h45 13,81019,1650,0
 21/10/2015 12h45 121019,3710,0
 21/10/2015 11h45 10,11019,6800,0
 21/10/2015 10h45 7,61019,8870,0
 21/10/2015 09h45 5,71019,5930,0
 21/10/2015 08h45 3,61018,8920,0
 21/10/2015 07h45 3,61018,7920,0
 21/10/2015 06h45 3,61018,5910,0
 21/10/2015 05h45 4,31018,1900,0
 21/10/2015 04h45 5,11017,8910,0
 21/10/2015 03h45 5,31018900,0
 21/10/2015 02h45 61018900,0
 21/10/2015 01h45 6,51018,2890,0
 21/10/2015 00h45 7,21018,2890,0
 20/10/2015 23h45 7,61018,3880,0
 20/10/2015 22h45 8,21018,2850,0
 20/10/2015 21h45 8,61018840,0
 20/10/2015 20h45 9,31018820,0
 20/10/2015 19h45 10,11017,6790,0
 20/10/2015 18h45 12,21017,2710,0
 20/10/2015 17h45 14,91016,9630,0
 20/10/2015 16h45 171016,2570,0
 20/10/2015 15h45 17,81015,9570,0
 20/10/2015 14h45 171016600,0
 20/10/2015 13h45 15,41016,2640,0
 20/10/2015 12h45 13,31016,2730,0
 20/10/2015 11h45 14,51015,9760,0
 20/10/2015 10h45 11,81015,5830,0
 20/10/2015 09h45 9,61015930,0
 20/10/2015 08h45 7,11014,2930,0
 20/10/2015 07h45 7,21013,7920,0
 20/10/2015 06h45 8,41013,1920,0
 20/10/2015 05h45 7,41012,5920,0
 20/10/2015 04h45 7,51012,6910,0
 20/10/2015 03h45 8,81012,6910,0
 20/10/2015 02h45 9,91012,2920,0
 20/10/2015 01h45 11,31011,8910,0
 20/10/2015 00h45 11,31011,6910,0
 19/10/2015 23h45 11,91011,6900,0
 19/10/2015 22h45 131011,2900,0
 19/10/2015 21h45 14,41011880,0
 19/10/2015 20h45 14,91010,9870,0
 19/10/2015 19h45 15,91010,4830,0
 19/10/2015 18h45 18,21009,6750,0
 19/10/2015 17h45 20,81009,4680,0
 19/10/2015 16h45 22,91009,3620,0
 19/10/2015 15h45 24,31009,6610,0
 19/10/2015 14h45 23,91009,7600,0
 19/10/2015 13h45 24,11010,1640,0
 19/10/2015 12h45 21,41010,6720,0
 19/10/2015 11h45 18,21010,7820,0
 19/10/2015 10h45 15,81010,9930,0
 19/10/2015 09h45 13,21011930,0
 19/10/2015 08h45 12,61010,8940,0
 19/10/2015 07h45 12,51010,1930,0
 19/10/2015 06h45 12,51010,1930,0
 19/10/2015 05h45 12,71010,3930,0
 19/10/2015 04h45 12,41010,2930,0
 19/10/2015 03h45 131010,5930,0
 19/10/2015 02h45 13,11010,8930,0
 19/10/2015 01h45 13,51010,7930,0
 19/10/2015 00h45 13,61011,2920,0
 18/10/2015 23h45 13,81011,2920,0
 18/10/2015 22h45 13,91011920,0
 18/10/2015 21h45 14,11010,8910,0
 18/10/2015 20h45 14,31010,6910,0
 18/10/2015 19h45 14,81010,2900,0
 18/10/2015 18h45 15,71009,9890,0
 18/10/2015 17h45 17,41010860,0
 18/10/2015 16h45 17,91010,2840,0
 18/10/2015 15h45 17,41010,1871,0
 18/10/2015 14h45 14,51010,4922,0
 18/10/2015 13h45 13,61011,4912,0
 18/10/2015 12h45 131011,6910,0
 18/10/2015 11h45 12,21011,6910,0
 18/10/2015 10h45 11,31011,5901,0
 18/10/2015 09h45 10,41011,2910,0
 18/10/2015 08h45 9,81011,1900,0
 18/10/2015 07h45 9,51010,8890,0
 18/10/2015 06h45 9,61011,2880,0
 18/10/2015 05h45 9,71010,8860,0
 18/10/2015 04h45 9,61010,5870,0
 18/10/2015 03h45 9,61011870,0
 18/10/2015 02h45 9,51011,7860,0
 18/10/2015 01h45 9,61011,6840,0
 18/10/2015 00h45 10,11011,1780,0
 17/10/2015 23h45 10,61011,4720,0
 17/10/2015 22h45 10,81011,3690,0
 17/10/2015 21h45 12,11010,8660,0
 17/10/2015 20h45 11,91010,8660,0
 17/10/2015 19h45 13,11010,8620,0
 17/10/2015 18h45 15,81010,7540,0
 17/10/2015 17h45 19,61010,6460,0
 17/10/2015 16h45 22,51011,1390,0
 17/10/2015 15h45 22,11011,4390,0
 17/10/2015 14h45 21,81011,8390,0
 17/10/2015 13h45 20,81012,7420,0
 17/10/2015 12h45 17,81013,5480,0
 17/10/2015 11h45 14,21014,2580,0
 17/10/2015 10h45 10,21014,4740,0
 17/10/2015 09h45 6,51014,5870,0
 17/10/2015 08h45 -0,21014,2910,0
 17/10/2015 07h45 -0,41013,4900,0
 17/10/2015 06h45 -0,21013,9900,0
 17/10/2015 05h45 01013,9900,0
 17/10/2015 04h45 0,81014,5890,0
 17/10/2015 03h45 1,11015,1890,0
 17/10/2015 02h45 1,11015,3880,0
 17/10/2015 01h45 1,61015,6870,0
 17/10/2015 00h45 1,91016850,0
 16/10/2015 23h45 2,41016,2820,0
 16/10/2015 22h45 3,51016,3790,0
 16/10/2015 21h45 4,91016,2730,0
 16/10/2015 20h45 6,51015,9670,0
 16/10/2015 19h45 8,91015,6590,0
 16/10/2015 18h45 12,61015,1470,0
 16/10/2015 17h45 19,11014,9360,0
 16/10/2015 16h45 21,41015330,0
 16/10/2015 15h45 20,81015,1330,0
 16/10/2015 14h45 19,51015,3370,0
 16/10/2015 13h45 14,91015,9440,0
 16/10/2015 12h45 13,41016,3490,0
 16/10/2015 11h45 13,31016,4580,0
 16/10/2015 10h45 9,21016,5790,0
 16/10/2015 09h45 4,61016,5890,0
 16/10/2015 08h45 -1,31016,2910,0
 16/10/2015 07h45 -1,11015,9910,0
 16/10/2015 06h45 -0,91015,8910,0
 16/10/2015 05h45 -0,71015,9900,0
 16/10/2015 04h45 0,51015,7900,0
 16/10/2015 03h45 0,91015,9880,0
 16/10/2015 02h45 1,81016870,0
 16/10/2015 01h45 2,91015,9870,0
 16/10/2015 00h45 5,41016,1810,0
 15/10/2015 23h45 6,71016800,0
 15/10/2015 22h45 7,81015,9760,0
 15/10/2015 21h45 8,81015,2760,0
 15/10/2015 20h45 10,61014,5700,0
 15/10/2015 19h45 11,11013,9670,0
 15/10/2015 18h45 12,31013,4610,0
 15/10/2015 17h45 13,41013560,0
 15/10/2015 16h45 14,41013,2520,0
 15/10/2015 15h45 19,31013,3430,0
 15/10/2015 14h45 13,91013,7570,0
 15/10/2015 13h45 15,41014520,0
 15/10/2015 12h45 13,11014,6580,0
 15/10/2015 11h45 9,21014,6680,0
 15/10/2015 10h45 7,41015720,0
 15/10/2015 09h45 5,51015,3810,0
 15/10/2015 08h45 2,91015,1870,0
 15/10/2015 07h45 1,91014,9840,0
 15/10/2015 06h45 3,91015,3810,0
 15/10/2015 05h45 3,91015,3810,0
 15/10/2015 04h45 3,91015,6810,0
 15/10/2015 03h45 3,91015,8810,0
 15/10/2015 02h45 3,21015,7840,0
 15/10/2015 01h45 1,81015,7830,0
 15/10/2015 00h45 2,81015,8790,0
 14/10/2015 23h45 4,31015,8740,0
 14/10/2015 22h45 6,11015,6670,0
 14/10/2015 21h45 7,31015600,0
 14/10/2015 20h45 7,91014,8600,0
 14/10/2015 19h45 8,21013,7600,0
 14/10/2015 18h45 9,81013,2590,0
 14/10/2015 17h45 11,31012,5540,0
 14/10/2015 16h45 11,81012,7540,0
 14/10/2015 15h45 12,71012,6530,0
 14/10/2015 14h45 12,21012,9580,0
 14/10/2015 13h45 13,91013,5590,0
 14/10/2015 12h45 13,81013,9630,0
 14/10/2015 11h45 10,81014,4770,0
 14/10/2015 10h45 10,11014,8800,0
 14/10/2015 09h45 7,11014,5910,0
 14/10/2015 08h45 2,91014,1930,0
 14/10/2015 07h45 2,61014,1920,0
 14/10/2015 06h45 3,21013,7930,0
 14/10/2015 05h45 3,81013,6920,0
 14/10/2015 04h45 4,21013,6920,0
 14/10/2015 03h45 5,31013,7910,0
 14/10/2015 02h45 5,91013,9910,0
 14/10/2015 01h45 6,91013,9910,0
 14/10/2015 00h45 8,91014,1890,0
 13/10/2015 23h45 10,21014,3900,0
 13/10/2015 22h45 10,81014,1900,0
 13/10/2015 21h45 10,91013,8900,0
 13/10/2015 20h45 10,91013,4900,0
 13/10/2015 19h45 10,91013,1900,0
 13/10/2015 18h45 11,41012,9890,0
 13/10/2015 17h45 12,21012,4870,0
 13/10/2015 16h45 12,21012,2880,0
 13/10/2015 15h45 12,91012,2890,0
 13/10/2015 14h45 131012,5890,0
 13/10/2015 13h45 12,81012,5910,0
 13/10/2015 12h45 12,71012,9920,0
 13/10/2015 11h45 12,71012,7920,0
 13/10/2015 10h45 13,11012,6920,0
 13/10/2015 09h45 13,41012920,0
 13/10/2015 08h45 13,61011,5910,0
 13/10/2015 07h45 13,81011,2910,0
 13/10/2015 06h45 14,31011890,0
 13/10/2015 05h45 14,31010,6900,0
 13/10/2015 04h45 14,11010,2900,0
 13/10/2015 03h45 13,51010,5880,0
 13/10/2015 02h45 14,81010,4820,0
 13/10/2015 01h45 15,41010,4800,0
 13/10/2015 00h45 15,71010,3770,0
 12/10/2015 23h45 16,41009,9730,0
 12/10/2015 22h45 16,91009,4700,0
 12/10/2015 21h45 17,51008,6660,0
 12/10/2015 20h45 18,41008,3630,0
 12/10/2015 19h45 19,81007,9590,0
 12/10/2015 18h45 21,91007,6520,0
 12/10/2015 17h45 25,21007,2420,0
 12/10/2015 16h45 26,61007,1390,0
 12/10/2015 15h45 27,51007,2380,0
 12/10/2015 14h45 26,91007,6400,0
 12/10/2015 13h45 26,11008,1430,0
 12/10/2015 12h45 24,61008,3470,0
 12/10/2015 11h45 21,71008,3580,0
 12/10/2015 10h45 18,41008,2690,0
 12/10/2015 09h45 14,71007,9790,0
 12/10/2015 08h45 12,81007,4830,0
 12/10/2015 07h45 12,11006,8830,0
 12/10/2015 06h45 12,11006,7820,0
 12/10/2015 05h45 11,91006,1800,0
 12/10/2015 04h45 12,81005,6790,0
 12/10/2015 03h45 12,31006770,0
 12/10/2015 02h45 11,61005,9760,0
 12/10/2015 01h45 12,41005,7730,0
 12/10/2015 00h45 14,11005,3700,0
 11/10/2015 23h45 15,31005,2610,0
 11/10/2015 22h45 15,51004,8560,0
 11/10/2015 21h45 16,61004,4520,0
 11/10/2015 20h45 17,91004,4460,0
 11/10/2015 19h45 20,11003,7410,0
 11/10/2015 18h45 23,31003,1340,0
 11/10/2015 17h45 25,41002,8280,0
 11/10/2015 16h45 33,91002,7200,0
 11/10/2015 15h45 34,11002,6230,0
 11/10/2015 14h45 32,71003,2240,0
 11/10/2015 13h45 27,91003,8340,0
 11/10/2015 12h45 25,91004,1390,0
 11/10/2015 11h45 23,21004,6500,0
 11/10/2015 10h45 16,81004,5650,0
 11/10/2015 09h45 12,61004,6830,0
 11/10/2015 08h45 5,31004,4910,0
 11/10/2015 07h45 5,31004,2900,0
 11/10/2015 06h45 6,51004,3900,0
 11/10/2015 05h45 6,51004,3890,0
 11/10/2015 04h45 8,11004,2880,0
 11/10/2015 03h45 7,91004,7870,0
 11/10/2015 02h45 7,91004,9870,0
 11/10/2015 01h45 7,91004,9850,0
 11/10/2015 00h45 8,91005830,0
 10/10/2015 23h45 10,11005,2780,0
 10/10/2015 22h45 11,31005,4740,0
 10/10/2015 21h45 12,71005,2660,0
 10/10/2015 20h45 15,31005580,0
 10/10/2015 19h45 17,81005500,0
 10/10/2015 18h45 23,71004,8370,0
 10/10/2015 17h45 27,81005310,0
 10/10/2015 16h45 30,11005,2290,0
 10/10/2015 15h45 31,81005,4280,0
 10/10/2015 14h45 29,91006,1330,0
 10/10/2015 13h45 27,21006,7400,0
 10/10/2015 12h45 25,21007,5490,0
 10/10/2015 11h45 231008,2550,0
 10/10/2015 10h45 18,31008,7670,0
 10/10/2015 09h45 13,11009850,0
 10/10/2015 08h45 5,21009,3910,0
 10/10/2015 07h45 4,91009,3910,0
 10/10/2015 06h45 5,91009,3910,0
 10/10/2015 05h45 6,11009,5900,0
 10/10/2015 04h45 5,91009,8900,0
 10/10/2015 03h45 6,61010,2890,0
 10/10/2015 02h45 6,91010,7880,0
 10/10/2015 01h45 6,81010,8860,0
 10/10/2015 00h45 7,81011,2840,0
 09/10/2015 23h45 9,11011,4790,0
 09/10/2015 22h45 9,31011,7760,0
 09/10/2015 21h45 10,91011,5700,0
 09/10/2015 20h45 12,91011,5630,0
 09/10/2015 19h45 15,91011,1530,0
 09/10/2015 18h45 21,71010,7410,0
 09/10/2015 17h45 27,41010,8320,0
 09/10/2015 16h45 27,91011,1310,0
 09/10/2015 15h45 27,51011,5320,0
 09/10/2015 14h45 27,41012,2330,0
 09/10/2015 13h45 23,41013,1400,0
 09/10/2015 12h45 21,31013,6470,0
 09/10/2015 11h45 20,31014,1520,0
 09/10/2015 10h45 16,71014,7650,0
 09/10/2015 09h45 12,11014,7840,0
 09/10/2015 08h45 3,91014,3920,0
 09/10/2015 07h45 31014,2910,0
 09/10/2015 06h45 3,21014,2900,0
 09/10/2015 05h45 3,41014,4890,0
 09/10/2015 04h45 4,41014,8890,0
 09/10/2015 03h45 4,91015880,0
 09/10/2015 02h45 5,21015,3860,0
 09/10/2015 01h45 6,11015,8840,0
 09/10/2015 00h45 7,21016820,0
 08/10/2015 23h45 8,61016,3770,0
 08/10/2015 22h45 10,91016,5690,0
 08/10/2015 21h45 11,61016,3650,0
 08/10/2015 20h45 12,61016,6620,0
 08/10/2015 19h45 15,21016540,0
 08/10/2015 18h45 19,91015,7440,0
 08/10/2015 17h45 19,61015,5450,0
 08/10/2015 16h45 22,31015,6430,0
 08/10/2015 15h45 20,91015,9450,0
 08/10/2015 14h45 20,31016,1470,0
 08/10/2015 13h45 22,11016,7490,0
 08/10/2015 12h45 20,21017,5580,0
 08/10/2015 11h45 15,21018,1740,0
 08/10/2015 10h45 13,81018,2800,0
 08/10/2015 09h45 11,11017,9900,0
 08/10/2015 08h45 9,21017,3910,0
 08/10/2015 07h45 8,41016,7890,0
 08/10/2015 06h45 9,71016,4890,0
 08/10/2015 05h45 10,91016840,0
 08/10/2015 04h45 12,71016,2810,0
 08/10/2015 03h45 12,41016,6810,0
 08/10/2015 02h45 12,61016,9800,0
 08/10/2015 01h45 12,61016,9790,0
 08/10/2015 00h45 13,91017,1750,0
 07/10/2015 23h45 13,81017,1730,0
 07/10/2015 22h45 14,31017,4710,0
 07/10/2015 21h45 15,11016,9670,0
 07/10/2015 20h45 15,31016,6650,0
 07/10/2015 19h45 15,61016,2630,0
 07/10/2015 18h45 17,61015,8560,0
 07/10/2015 17h45 22,51015,7430,0
 07/10/2015 16h45 22,41015,7440,0
 07/10/2015 15h45 22,31016470,0
 07/10/2015 14h45 21,31016,2490,0
 07/10/2015 13h45 21,31016,6510,0
 07/10/2015 12h45 19,91016,8590,0
 07/10/2015 11h45 18,61016,9610,0
 07/10/2015 10h45 17,11016,7740,0
 07/10/2015 09h45 13,51016,3840,0
 07/10/2015 08h45 11,31016,1910,0
 07/10/2015 07h45 10,71015,7910,0
 07/10/2015 06h45 11,81015,5890,0
 07/10/2015 05h45 12,91015,3880,0
 07/10/2015 04h45 12,31015,3860,0
 07/10/2015 03h45 13,81015,1830,0
 07/10/2015 02h45 14,61014,8820,0
 07/10/2015 01h45 14,81014,4810,0
 07/10/2015 00h45 15,31013,7840,0
 06/10/2015 23h45 15,61013810,0
 06/10/2015 22h45 16,41012,5780,0
 06/10/2015 21h45 17,11011,7740,0
 06/10/2015 20h45 17,81010,6710,0
 06/10/2015 19h45 18,11009,2750,0
 06/10/2015 18h45 22,41007,7550,0
 06/10/2015 17h45 25,21006,6490,0
 06/10/2015 16h45 27,81005,4390,0
 06/10/2015 15h45 28,11005,2390,0
 06/10/2015 14h45 30,31005,5410,0
 06/10/2015 13h45 31,11005,7410,0
 06/10/2015 12h45 25,31005,9500,0
 06/10/2015 11h45 25,21005,7620,0
 06/10/2015 10h45 23,31005,8710,0
 06/10/2015 09h45 18,51005,6850,0
 06/10/2015 08h45 15,81005910,0
 06/10/2015 07h45 14,41003,7900,0
 06/10/2015 06h45 15,81003,6870,0
 06/10/2015 05h45 16,81003,3850,0
 06/10/2015 04h45 18,41003,6820,0
 06/10/2015 03h45 17,11003,8880,0
 06/10/2015 02h45 151004,5890,0
 06/10/2015 01h45 14,71004,8880,0
 06/10/2015 00h45 15,91005,4850,0
 05/10/2015 23h45 16,81005,9820,0
 05/10/2015 22h45 17,81006,4820,0
 05/10/2015 21h45 17,11006,9830,0
 05/10/2015 20h45 18,81007770,0
 05/10/2015 19h45 21,31007,3680,0
 05/10/2015 18h45 251007,2600,0
 05/10/2015 17h45 26,81007,4550,0
 05/10/2015 16h45 29,11007,7500,0
 05/10/2015 15h45 29,41007,8500,0
 05/10/2015 14h45 29,61008,5490,0
 05/10/2015 13h45 22,81009,3640,0
 05/10/2015 12h45 26,51009,8560,0
 05/10/2015 11h45 21,11009,7740,0
 05/10/2015 10h45 17,81008,7830,0
 05/10/2015 09h45 15,51009,3870,0
 05/10/2015 08h45 14,11009,4900,0
 05/10/2015 07h45 12,81010,2890,0
 05/10/2015 06h45 12,91010,6860,0
 05/10/2015 05h45 14,21011,2850,0
 05/10/2015 04h45 13,81011,8820,0
 05/10/2015 03h45 14,31012,8820,0
 05/10/2015 02h45 14,81013,3780,0
 05/10/2015 01h45 14,91013,1770,0
 05/10/2015 00h45 14,91013,2750,0
 04/10/2015 23h45 15,51013,1700,0
 04/10/2015 22h45 15,81012,6700,0
 04/10/2015 21h45 16,11012,3680,0
 04/10/2015 20h45 16,61011,4640,0
 04/10/2015 19h45 16,91010,3610,0
 04/10/2015 18h45 17,91010,3580,0
 04/10/2015 17h45 20,31010,5540,0
 04/10/2015 16h45 19,61009,6550,0
 04/10/2015 15h45 20,41011,7540,0
 04/10/2015 14h45 211012,2510,0
 04/10/2015 13h45 22,21013510,0
 04/10/2015 12h45 20,71013,6610,0
 04/10/2015 11h45 17,81014,5730,0
 04/10/2015 10h45 11,41015,1880,0
 04/10/2015 09h45 8,41015,4930,0
 04/10/2015 08h45 5,81015,7930,0
 04/10/2015 07h45 4,41016920,0
 04/10/2015 06h45 4,21016,3920,0
 04/10/2015 05h45 4,81016,5920,0
 04/10/2015 04h45 51016,6920,0
 04/10/2015 03h45 51016,6920,0
 04/10/2015 02h45 5,61016,4920,0
 04/10/2015 01h45 6,81016,4910,0
 04/10/2015 00h45 7,11016,2910,0
 03/10/2015 23h45 71016900,0
 03/10/2015 22h45 7,91015,6900,0
 03/10/2015 21h45 8,81015880,0
 03/10/2015 20h45 10,11014,6830,0
 03/10/2015 19h45 12,81014,1750,0
 03/10/2015 18h45 17,61013,8580,0
 03/10/2015 17h45 20,41013,7560,0
 03/10/2015 16h45 191013,7640,0
 03/10/2015 15h45 17,91013,3690,0
 03/10/2015 14h45 15,51013,3810,0
 03/10/2015 13h45 13,91012,9860,0
 03/10/2015 12h45 12,91012,9880,0
 03/10/2015 11h45 13,21012,5880,0
 03/10/2015 10h45 12,91012900,0
 03/10/2015 09h45 13,51011,3910,0
 03/10/2015 08h45 12,51011,1900,0
 03/10/2015 07h45 12,91010,6910,0
 03/10/2015 06h45 12,61009,2920,0
 03/10/2015 05h45 10,91009,9920,0
 03/10/2015 04h45 10,81011,2920,0
 03/10/2015 03h45 10,21012,2920,0
 03/10/2015 02h45 10,81012,8910,0
 03/10/2015 01h45 10,91013,5910,0
 03/10/2015 00h45 11,41014,4900,0
 02/10/2015 23h45 12,61014,3892,0
 02/10/2015 22h45 13,61014,4882,0
 02/10/2015 21h45 151014,7800,0
 02/10/2015 20h45 17,11014,3710,0
 02/10/2015 19h45 19,51013550,0
 02/10/2015 18h45 22,61012,7460,0
 02/10/2015 17h45 23,61012,7450,0
 02/10/2015 16h45 27,81012,5350,0
 02/10/2015 15h45 32,11013,1300,0
 02/10/2015 14h45 29,61013,8340,0
 02/10/2015 13h45 26,11014,8420,0
 02/10/2015 12h45 24,41015,4460,0
 02/10/2015 11h45 23,61016500,0
 02/10/2015 10h45 19,81016,5610,0
 02/10/2015 09h45 15,91016,7750,0
 02/10/2015 08h45 8,61016,7920,0
 02/10/2015 07h45 7,51016910,0
 02/10/2015 06h45 7,91015,9900,0
 02/10/2015 05h45 8,81015,8890,0
 02/10/2015 04h45 9,71016870,0
 02/10/2015 03h45 10,91016,3870,0
 02/10/2015 02h45 11,21016,6860,0
 02/10/2015 01h45 10,91016,7840,0
 02/10/2015 00h45 13,81016,9790,0
 01/10/2015 23h45 13,61017,3800,0
 01/10/2015 22h45 13,91017,3780,0
 01/10/2015 21h45 15,31016,8710,0
 01/10/2015 20h45 17,91016600,0
 01/10/2015 19h45 19,11015,1510,0
 01/10/2015 18h45 22,11015420,0
 01/10/2015 17h45 26,81015,1350,0
 01/10/2015 16h45 26,51015,4300,0
 01/10/2015 15h45 25,31015,7360,0
 01/10/2015 14h45 26,81016,1320,0
 01/10/2015 13h45 26,41016,3360,0
 01/10/2015 12h45 25,61016,9370,0
 01/10/2015 11h45 23,61017,4450,0
 01/10/2015 10h45 18,51017,6600,0
 01/10/2015 09h45 13,21017,6830,0
 01/10/2015 08h45 7,41017,4910,0
 01/10/2015 07h45 6,11017,1910,0
 01/10/2015 06h45 5,91017,2900,0
 01/10/2015 05h45 6,41017,5900,0
 01/10/2015 04h45 7,11017,7890,0
 01/10/2015 03h45 7,91018,1880,0
 01/10/2015 02h45 8,11018,5870,0
 01/10/2015 01h45 8,51018,8850,0
 01/10/2015 00h45 91018,9830,0
 30/09/2015 23h45 9,81018,7810,0
 30/09/2015 22h45 10,91018,5760,0
 30/09/2015 21h45 12,91018,6680,0
 30/09/2015 20h45 14,81018,2630,0
 30/09/2015 19h45 171018,1550,0
 30/09/2015 18h45 19,41017,9490,0
 30/09/2015 17h45 20,91018460,0
 30/09/2015 16h45 23,91017,9410,0
 30/09/2015 15h45 25,91018380,0
 30/09/2015 14h45 25,11017,9390,0
 30/09/2015 13h45 24,21017,9420,0
 30/09/2015 12h45 22,81017,8450,0
 30/09/2015 11h45 221017,8480,0
 30/09/2015 10h45 19,91017,4530,0
 30/09/2015 09h45 16,61017,4650,0
 30/09/2015 08h45 14,11017740,0
 30/09/2015 07h45 12,21016,6750,0
 30/09/2015 06h45 14,21016,3700,0
 30/09/2015 05h45 14,51016,4690,0
 30/09/2015 04h45 15,11016,3680,0
 30/09/2015 03h45 15,81016,7650,0
 30/09/2015 02h45 16,31017,2650,0
 30/09/2015 01h45 16,41017,2670,0
 30/09/2015 00h45 16,31017,6650,0
 29/09/2015 23h45 15,91017,5660,0
 29/09/2015 22h45 15,91017,5650,0
 29/09/2015 21h45 15,91017,2640,0
 29/09/2015 20h45 16,11017,2630,0
 29/09/2015 19h45 16,41017,1610,0
 29/09/2015 18h45 19,11016,8530,0
 29/09/2015 17h45 21,81016,6440,0
 29/09/2015 16h45 24,81016,5390,0
 29/09/2015 15h45 25,31016,4370,0
 29/09/2015 14h45 24,11016,8380,0
 29/09/2015 13h45 23,31017,3440,0
 29/09/2015 12h45 21,91017,5470,0
 29/09/2015 11h45 21,81017,5500,0
 29/09/2015 10h45 16,91017,2680,0
 29/09/2015 09h45 12,81017,1830,0
 29/09/2015 08h45 10,71016,8900,0
 29/09/2015 07h45 9,21016,8910,0
 29/09/2015 06h45 9,41016,7900,0
 29/09/2015 05h45 9,91016,8900,0
 29/09/2015 04h45 9,61016,9890,0
 29/09/2015 03h45 11,11017,5880,0
 29/09/2015 02h45 11,31018870,0
 29/09/2015 01h45 11,81018,1860,0
 29/09/2015 00h45 11,61018,4860,0
 28/09/2015 23h45 12,21018,5820,0
 28/09/2015 22h45 13,91018,5760,0
 28/09/2015 21h45 15,91018,4700,0
 28/09/2015 20h45 17,61018,4640,0
 28/09/2015 19h45 20,91018,4540,0
 28/09/2015 18h45 25,81018,3430,0
 28/09/2015 17h45 31,21018,6330,0
 28/09/2015 16h45 30,41019,2350,0
 28/09/2015 15h45 32,71019,5330,0
 28/09/2015 14h45 31,31020,2360,0
 28/09/2015 13h45 27,51021450,0
 28/09/2015 12h45 26,81021,3470,0
 28/09/2015 11h45 25,21021,8520,0
 28/09/2015 10h45 21,81022610,0
 28/09/2015 09h45 16,91021,8800,0
 28/09/2015 08h45 9,61021,5930,0
 28/09/2015 07h45 8,11021920,0
 28/09/2015 06h45 7,91020,6910,0
 28/09/2015 05h45 8,11020,4910,0
 28/09/2015 04h45 9,31020,6910,0
 28/09/2015 03h45 9,31020,6900,0
 28/09/2015 02h45 101020,9900,0
 28/09/2015 01h45 10,31020,6880,0
 28/09/2015 00h45 11,21020,4860,0
 27/09/2015 23h45 12,11020,1820,0
 27/09/2015 22h45 13,31019,9780,0
 27/09/2015 21h45 15,21019,6710,0
 27/09/2015 20h45 17,81019,1640,0
 27/09/2015 19h45 19,61018,6570,0
 27/09/2015 18h45 23,71018,1460,0
 27/09/2015 17h45 28,81017,9380,0
 27/09/2015 16h45 32,41018330,0
 27/09/2015 15h45 28,21018,1410,0
 27/09/2015 14h45 29,71018,1390,0
 27/09/2015 13h45 25,91018,7480,0
 27/09/2015 12h45 23,31019560,0
 27/09/2015 11h45 20,31019650,0
 27/09/2015 10h45 17,81018,9760,0
 27/09/2015 09h45 12,51018,7900,0
 27/09/2015 08h45 9,91018,3920,0
 27/09/2015 07h45 8,81017,8920,0
 27/09/2015 06h45 8,81017,4910,0
 27/09/2015 05h45 8,61017,2910,0
 27/09/2015 04h45 9,11016,9900,0
 27/09/2015 03h45 9,21016,9890,0
 27/09/2015 02h45 9,91016,9890,0
 27/09/2015 01h45 10,31016,7880,0
 27/09/2015 00h45 10,91016,8860,0
 26/09/2015 23h45 11,91016,7820,0
 26/09/2015 22h45 13,61016,6760,0
 26/09/2015 21h45 15,41016,5700,0
 26/09/2015 20h45 16,51015,9640,0
 26/09/2015 19h45 19,81015,4540,0
 26/09/2015 18h45 23,91015,3440,0
 26/09/2015 17h45 28,61015,2350,0
 26/09/2015 16h45 30,81015,2340,0
 26/09/2015 15h45 28,51015,4380,0
 26/09/2015 14h45 26,91015,8400,0
 26/09/2015 13h45 26,21016,2450,0
 26/09/2015 12h45 241016,6520,0
 26/09/2015 11h45 21,61017610,0
 26/09/2015 10h45 19,31017,2720,0
 26/09/2015 09h45 11,81017,2900,0
 26/09/2015 08h45 8,11017920,0
 26/09/2015 07h45 6,91016,5910,0
 26/09/2015 06h45 7,61016,2910,0
 26/09/2015 05h45 8,21016,2900,0
 26/09/2015 04h45 91016,2900,0
 26/09/2015 03h45 10,31016,5890,0
 26/09/2015 02h45 10,31016,7880,0
 26/09/2015 01h45 10,61016,9850,0
 26/09/2015 00h45 12,21016,9820,0
 25/09/2015 23h45 13,71017,2780,0
 25/09/2015 22h45 151017,2760,0
 25/09/2015 21h45 15,31017,2730,0
 25/09/2015 20h45 16,31017680,0
 25/09/2015 19h45 18,81016,7600,0
 25/09/2015 18h45 21,81016,4520,0
 25/09/2015 17h45 26,81016,3410,0
 25/09/2015 16h45 291016,6380,0
 25/09/2015 15h45 28,61017390,0
 25/09/2015 14h45 26,71017,5410,0
 25/09/2015 13h45 24,11018460,0
 25/09/2015 12h45 22,51018,4490,0
 25/09/2015 11h45 20,31019,1580,0
 25/09/2015 10h45 21,41018,9530,0
 25/09/2015 09h45 16,91018,7740,0
 25/09/2015 08h45 12,81018,7840,0
 25/09/2015 07h45 10,41018,7860,0
 25/09/2015 06h45 10,21018,5860,0
 25/09/2015 05h45 9,91018,2860,0
 25/09/2015 04h45 10,11018,6870,0
 25/09/2015 03h45 9,41018,6860,0
 25/09/2015 02h45 10,81018,9850,0
 25/09/2015 01h45 10,41019,1820,0
 25/09/2015 00h45 10,41019,5790,0
 24/09/2015 23h45 11,41019,7750,0
 24/09/2015 22h45 12,41019,5710,0
 24/09/2015 21h45 13,31019670,0
 24/09/2015 20h45 14,91018,4620,0
 24/09/2015 19h45 17,31017,9540,0
 24/09/2015 18h45 20,81017,7470,0
 24/09/2015 17h45 25,21017,3370,0
 24/09/2015 16h45 26,41017,3370,0
 24/09/2015 15h45 26,11017,7380,0
 24/09/2015 14h45 24,31018400,0
 24/09/2015 13h45 22,41018,8460,0
 24/09/2015 12h45 20,91018,9490,0
 24/09/2015 11h45 22,21019,4500,0
 24/09/2015 10h45 20,21019,2550,0
 24/09/2015 09h45 14,71018,8780,0
 24/09/2015 08h45 6,11018,5920,0
 24/09/2015 07h45 4,41018,2920,0
 24/09/2015 06h45 4,61018920,0
 24/09/2015 05h45 4,41018,3910,0
 24/09/2015 04h45 4,71018,3900,0
 24/09/2015 03h45 5,21018,1890,0
 24/09/2015 02h45 61018,4890,0
 24/09/2015 01h45 6,81018,4870,0
 24/09/2015 00h45 6,91018840,0
 23/09/2015 23h45 8,21017,7800,0
 23/09/2015 22h45 91017,3770,0
 23/09/2015 21h45 9,91017730,0
 23/09/2015 20h45 11,81016,5650,0
 23/09/2015 19h45 15,61015,9530,0
 23/09/2015 18h45 18,71015,5470,0
 23/09/2015 17h45 23,81015,2390,0
 23/09/2015 16h45 24,81014,8390,0
 23/09/2015 15h45 19,91014,7530,0
 23/09/2015 14h45 21,91014,4480,0
 23/09/2015 13h45 18,81014,5590,0
 23/09/2015 12h45 19,51014,5600,0
 23/09/2015 11h45 19,91014,3620,0
 23/09/2015 10h45 18,11014700,0
 23/09/2015 09h45 15,41013,6801,0
 23/09/2015 08h45 11,61013,3921,0
 23/09/2015 07h45 11,31013910,0
 23/09/2015 06h45 11,41012,5910,0
 23/09/2015 05h45 11,41012,3920,0
 23/09/2015 04h45 11,41011,9920,0
 23/09/2015 03h45 11,41011,8910,0
 23/09/2015 02h45 11,61011,7920,0
 23/09/2015 01h45 121011,9920,0
 23/09/2015 00h45 11,91012,3920,0
 22/09/2015 23h45 11,81012,2921,0
 22/09/2015 22h45 12,31011,8901,0
 22/09/2015 21h45 131011,3901,0
 22/09/2015 20h45 13,41010,7891,0
 22/09/2015 19h45 14,61009,8880,0
 22/09/2015 18h45 17,51009,7720,0
 22/09/2015 17h45 20,31009580,0
 22/09/2015 16h45 23,11008,8490,0
 22/09/2015 15h45 25,11009,5470,0
 22/09/2015 14h45 21,71010,1560,0
 22/09/2015 13h45 21,31010,7610,0
 22/09/2015 12h45 201011,2660,0
 22/09/2015 11h45 17,31011,5800,0
 22/09/2015 10h45 15,91011,7860,0
 22/09/2015 09h45 14,81011,7860,0
 22/09/2015 08h45 13,21011,6890,0
 22/09/2015 07h45 12,11011,9900,0
 22/09/2015 06h45 12,41012890,0
 22/09/2015 05h45 12,61012,4880,0
 22/09/2015 04h45 13,11012,7880,0
 22/09/2015 03h45 13,31012,8870,0
 22/09/2015 02h45 12,31013,2870,0
 22/09/2015 01h45 13,51013,5850,0
 22/09/2015 00h45 13,91013,5820,0
 21/09/2015 23h45 11,81013,5820,0
 21/09/2015 22h45 12,81013,3770,0
 21/09/2015 21h45 14,91013,3720,0
 21/09/2015 20h45 16,51013,1650,0
 21/09/2015 19h45 21,11012,7520,0
 21/09/2015 18h45 24,51012,6450,0
 21/09/2015 17h45 29,11012,7370,0
 21/09/2015 16h45 29,51013350,0
 21/09/2015 15h45 29,11013,5360,0
 21/09/2015 14h45 26,71014,1410,0
 21/09/2015 13h45 251014,5460,0
 21/09/2015 12h45 24,11015,3460,0
 21/09/2015 11h45 23,41015,6540,0
 21/09/2015 10h45 20,51016620,0
 21/09/2015 09h45 18,81016,1790,0
 21/09/2015 08h45 81016,2930,0
 21/09/2015 07h45 6,61015,9920,0
 21/09/2015 06h45 6,51015,7920,0
 21/09/2015 05h45 6,61015,8910,0
 21/09/2015 04h45 7,51016910,0
 21/09/2015 03h45 8,41016,4910,0
 21/09/2015 02h45 8,91016,8890,0
 21/09/2015 01h45 9,91017880,0
 21/09/2015 00h45 10,51017,3870,0
 20/09/2015 23h45 11,41017,4830,0
 20/09/2015 22h45 12,51017,7780,0
 20/09/2015 21h45 13,91017,7710,0
 20/09/2015 20h45 15,91017,7650,0
 20/09/2015 19h45 21,31017,9490,0
 20/09/2015 18h45 23,81018440,0
 20/09/2015 17h45 27,91018370,0
 20/09/2015 16h45 28,61018,4360,0
 20/09/2015 15h45 29,31018,9350,0
 20/09/2015 14h45 27,11019,7390,0
 20/09/2015 13h45 24,91020,5450,0
 20/09/2015 12h45 23,51021,2490,0
 20/09/2015 11h45 23,21021,3560,0
 20/09/2015 10h45 21,91021,8610,0
 20/09/2015 09h45 14,81022,1900,0
 20/09/2015 08h45 8,91021,8920,0
 20/09/2015 07h45 7,31021,7920,0
 20/09/2015 06h45 7,31021,8910,0
 20/09/2015 05h45 7,61021,8900,0
 20/09/2015 04h45 8,41021,8900,0
 20/09/2015 03h45 9,51022,1890,0
 20/09/2015 02h45 10,71022,3870,0
 20/09/2015 01h45 11,41022,2860,0
 20/09/2015 00h45 11,91022,4850,0
 19/09/2015 23h45 12,71022,7830,0
 19/09/2015 22h45 13,31022,5810,0
 19/09/2015 21h45 15,61022,5760,0
 19/09/2015 20h45 16,91022,1720,0
 19/09/2015 19h45 18,11021,7670,0
 19/09/2015 18h45 19,31021,6630,0
 19/09/2015 17h45 21,71021,2550,0
 19/09/2015 16h45 24,91021,2460,0
 19/09/2015 15h45 23,21021,8540,0
 19/09/2015 14h45 19,11022,3710,0
 19/09/2015 13h45 20,91022,8660,0
 19/09/2015 12h45 17,41022,6760,0
 19/09/2015 11h45 22,31022,5630,0
 19/09/2015 10h45 21,51022,5640,0
 19/09/2015 09h45 15,61022,2840,0
 19/09/2015 08h45 121021,9920,0
 19/09/2015 07h45 9,91021,8910,0
 19/09/2015 06h45 91021,4910,0
 19/09/2015 05h45 9,41021,4900,0
 19/09/2015 04h45 9,81021,1890,0
 19/09/2015 03h45 10,81021880,0
 19/09/2015 02h45 11,61021,1850,0
 19/09/2015 01h45 12,81021,1820,0
 19/09/2015 00h45 13,81021,2780,0
 18/09/2015 23h45 14,91021750,0
 18/09/2015 22h45 14,21020,5770,0
 18/09/2015 21h45 15,51020,2740,0
 18/09/2015 20h45 16,31019,2700,0
 18/09/2015 19h45 20,81018,3560,0
 18/09/2015 18h45 23,21018500,0
 18/09/2015 17h45 23,21017,9510,0
 18/09/2015 16h45 30,91018370,0
 18/09/2015 15h45 241018,3500,0
 18/09/2015 14h45 281018,8460,0
 18/09/2015 13h45 23,61019580,0
 18/09/2015 12h45 24,81019,5590,0
 18/09/2015 11h45 22,31019,4660,0
 18/09/2015 10h45 171019790,0
 18/09/2015 09h45 16,41018,4870,0
 18/09/2015 08h45 12,51017,6930,0
 18/09/2015 07h45 11,41017,1930,0
 18/09/2015 06h45 11,11016,5930,0
 18/09/2015 05h45 111016,3930,0
 18/09/2015 04h45 11,51015,8930,0
 18/09/2015 03h45 11,91015,4920,0
 18/09/2015 02h45 12,81015,7921,0
 18/09/2015 01h45 12,81015,6920,0
 18/09/2015 00h45 13,21015,4921,0
 17/09/2015 23h45 13,41014,8910,0
 17/09/2015 22h45 13,61014,1890,0
 17/09/2015 21h45 14,21013,2860,0
 17/09/2015 20h45 14,61012,4820,0
 17/09/2015 19h45 17,91011,2700,0
 17/09/2015 18h45 21,11010,3580,0
 17/09/2015 17h45 20,81010,2610,0
 17/09/2015 16h45 20,81009,8600,0
 17/09/2015 15h45 24,81009480,0
 17/09/2015 14h45 22,51009510,0
 17/09/2015 13h45 21,41008,6580,0
 17/09/2015 12h45 20,41007,9650,0
 17/09/2015 11h45 24,21007,1600,0
 17/09/2015 10h45 24,61006,2680,0
 17/09/2015 09h45 15,11004,5920,0
 17/09/2015 08h45 14,81003,7920,0
 17/09/2015 07h45 14,91002920,0
 17/09/2015 06h45 14,91001,1910,0
 17/09/2015 05h45 151000,7910,0
 17/09/2015 04h45 15,51000,2901,0
 17/09/2015 03h45 15,91000,2900,0
 17/09/2015 02h45 16,51000,7881,0
 17/09/2015 01h45 19998,8790,0
 17/09/2015 00h45 19,8998,2750,0
 16/09/2015 23h45 21997,7680,0
 16/09/2015 22h45 21,4998,1670,0
 16/09/2015 21h45 22,3997,5640,0
 16/09/2015 20h45 25,7995,8520,0
 16/09/2015 19h45 27,9994,2480,0
 16/09/2015 18h45 32,5993,6360,0
 16/09/2015 17h45 35,3993310,0
 16/09/2015 16h45 36,6992,8300,0
 16/09/2015 15h45 36,9993,4290,0
 16/09/2015 14h45 35,9993,4260,0
 16/09/2015 13h45 35,5993,2290,0
 16/09/2015 12h45 34,4993,6320,0
 16/09/2015 11h45 32,6994400,0
 16/09/2015 10h45 29,9994,2460,0
 16/09/2015 09h45 25,7994,5630,0
 16/09/2015 08h45 18,4995,2830,0
 16/09/2015 07h45 16,3995,4880,0
 16/09/2015 06h45 16,4995,4870,0
 16/09/2015 05h45 16,1996,2860,0
 16/09/2015 04h45 17,3996,2850,0
 16/09/2015 03h45 18,1996,7800,0
 16/09/2015 02h45 18,3997,5760,0
 16/09/2015 01h45 20,3997,6660,0
 16/09/2015 00h45 20,9997,1650,0
 15/09/2015 23h45 21,4997,6640,0
 15/09/2015 22h45 21,7998,1640,0
 15/09/2015 21h45 21,6998,5650,0
 15/09/2015 20h45 21,8998,4670,0
 15/09/2015 19h45 22,3998,5650,0
 15/09/2015 18h45 24,6998,8570,0
 15/09/2015 17h45 26,6999,4510,0
 15/09/2015 16h45 24,21000,4550,0
 15/09/2015 15h45 25,11001,3530,0
 15/09/2015 14h45 27,41002470,0
 15/09/2015 13h45 26,41003,1500,0
 15/09/2015 12h45 23,41004,2580,0
 15/09/2015 11h45 21,21005,2650,0
 15/09/2015 10h45 17,31006,2800,0
 15/09/2015 09h45 15,41006,6890,0
 15/09/2015 08h45 12,41006,6930,0
 15/09/2015 07h45 11,61006,5930,0
 15/09/2015 06h45 11,31007,3920,0
 15/09/2015 05h45 11,11008,2920,0
 15/09/2015 04h45 11,11009,4920,0
 15/09/2015 03h45 11,11010910,0
 15/09/2015 02h45 11,31010,5910,0
 15/09/2015 01h45 11,41010,8900,0
 15/09/2015 00h45 11,11011,4890,0
 14/09/2015 23h45 12,11011,6870,0
 14/09/2015 22h45 14,51011,6830,0
 14/09/2015 21h45 14,91011,4810,0
 14/09/2015 20h45 15,61010,9760,0
 14/09/2015 19h45 17,31010,7680,0
 14/09/2015 18h45 18,51010,7620,0
 14/09/2015 17h45 20,31010,8580,0
 14/09/2015 16h45 21,21010,8600,0
 14/09/2015 15h45 21,31011,2590,0
 14/09/2015 14h45 19,81011,2590,0
 14/09/2015 13h45 21,61011570,0
 14/09/2015 12h45 19,41011,1630,0
 14/09/2015 11h45 21,91010,4620,0
 14/09/2015 10h45 191010,2770,0
 14/09/2015 09h45 15,51009,8930,0
 14/09/2015 08h45 13,91008,9930,0
 14/09/2015 07h45 131008,2930,0
 14/09/2015 06h45 12,11007930,0
 14/09/2015 05h45 11,81006,3930,0
 14/09/2015 04h45 12,11005,7930,0
 14/09/2015 03h45 12,41005,5930,0
 14/09/2015 02h45 12,91005,4930,0
 14/09/2015 01h45 13,41005,8920,0
 14/09/2015 00h45 13,81005,3920,0
 13/09/2015 23h45 14,81005910,0
 13/09/2015 22h45 15,91004,9901,0
 13/09/2015 21h45 16,61004,3891,0
 13/09/2015 20h45 18,41004,1862,0
 13/09/2015 19h45 22,41003,4690,0
 13/09/2015 18h45 23,81003,4650,0
 13/09/2015 17h45 26,71003,2540,0
 13/09/2015 16h45 26,31003,1560,0
 13/09/2015 15h45 29,61003,2490,0
 13/09/2015 14h45 33,91003,4420,0
 13/09/2015 13h45 33,21003,8430,0
 13/09/2015 12h45 31,51004,4490,0
 13/09/2015 11h45 31,21005530,0
 13/09/2015 10h45 23,81004,8730,0
 13/09/2015 09h45 24,81004,8710,0
 13/09/2015 08h45 15,61004,8940,0
 13/09/2015 07h45 13,71004,4930,0
 13/09/2015 06h45 13,61004,7930,0
 13/09/2015 05h45 14,41004,9930,0
 13/09/2015 04h45 14,21005,5920,0
 13/09/2015 03h45 14,81006,1920,0
 13/09/2015 02h45 15,61006,6910,0
 13/09/2015 01h45 16,71007,9900,0
 13/09/2015 00h45 17,41008,5860,0
 12/09/2015 23h45 18,21008,9880,0
 12/09/2015 22h45 18,61009,5890,0
 12/09/2015 21h45 18,91009,4870,0
 12/09/2015 20h45 20,71009,3780,0
 12/09/2015 19h45 21,61009740,0
 12/09/2015 18h45 24,51009,1620,0
 12/09/2015 17h45 26,51010,1580,0
 12/09/2015 16h45 25,61010,9620,0
 12/09/2015 15h45 26,11010,9620,0
 12/09/2015 14h45 26,51011690,0
 12/09/2015 13h45 19,91012,2830,0
 12/09/2015 12h45 23,51012,1680,0
 12/09/2015 11h45 25,61011,7630,0
 12/09/2015 10h45 25,11010,7660,0
 12/09/2015 09h45 25,61009,9630,0
 12/09/2015 08h45 22,81009,4710,0
 12/09/2015 07h45 21,51008,4740,0
 12/09/2015 06h45 21,31008,2750,0
 12/09/2015 05h45 21,41008,5740,0
 12/09/2015 04h45 20,61009,1770,0
 12/09/2015 03h45 20,31009,4770,0
 12/09/2015 02h45 19,91009,8780,0
 12/09/2015 01h45 20,31010,2780,0
 12/09/2015 00h45 19,91010,8780,0
 11/09/2015 23h45 19,81011,2780,0
 11/09/2015 22h45 19,81011,4760,0
 11/09/2015 21h45 19,91011,3740,0
 11/09/2015 20h45 20,61010,8710,0
 11/09/2015 19h45 23,21010,6610,0
 11/09/2015 18h45 26,61010,6500,0
 11/09/2015 17h45 29,91010,5410,0
 11/09/2015 16h45 31,31010,5350,0
 11/09/2015 15h45 34,61010,8300,0
 11/09/2015 14h45 31,91011,2350,0
 11/09/2015 13h45 311011,3360,0
 11/09/2015 12h45 29,61012380,0
 11/09/2015 11h45 28,31012,5460,0
 11/09/2015 10h45 26,81013530,0
 11/09/2015 09h45 21,41012,9700,0
 11/09/2015 08h45 14,11013,2930,0
 11/09/2015 07h45 10,11013920,0
 11/09/2015 06h45 10,11012,8920,0
 11/09/2015 05h45 10,21012,7920,0
 11/09/2015 04h45 10,91012,8920,0
 11/09/2015 03h45 11,21012,9910,0
 11/09/2015 02h45 11,61013,1910,0
 11/09/2015 01h45 12,11013,2900,0
 11/09/2015 00h45 12,71013,4890,0
 10/09/2015 23h45 13,51013,2860,0
 10/09/2015 22h45 14,91013,3840,0
 10/09/2015 21h45 16,51013,2790,0
 10/09/2015 20h45 18,71012,7730,0
 10/09/2015 19h45 20,81012,4650,0
 10/09/2015 18h45 25,51012,1520,0
 10/09/2015 17h45 25,11012,2540,0
 10/09/2015 16h45 24,71012,6560,0
 10/09/2015 15h45 23,51012,9600,0
 10/09/2015 14h45 21,51013,2660,0
 10/09/2015 13h45 21,11013,3660,0
 10/09/2015 12h45 20,31013,6690,0
 10/09/2015 11h45 20,21013,8680,0
 10/09/2015 10h45 20,41013,8650,0
 10/09/2015 09h45 18,21013,5700,0
 10/09/2015 08h45 14,91013,4780,0
 10/09/2015 07h45 13,21013810,0
 10/09/2015 06h45 131012,9810,0
 10/09/2015 05h45 12,41012,7810,0
 10/09/2015 04h45 12,11012,6810,0
 10/09/2015 03h45 11,91012,4790,0
 10/09/2015 02h45 12,41012,2770,0
 10/09/2015 01h45 13,11012,1750,0
 10/09/2015 00h45 14,21012,1710,0
 09/09/2015 23h45 15,41012640,0
 09/09/2015 22h45 17,11011,8580,0
 09/09/2015 21h45 19,41011,3520,0
 09/09/2015 20h45 21,11010,8470,0
 09/09/2015 19h45 27,11010,6350,0
 09/09/2015 18h45 31,21010,4280,0
 09/09/2015 17h45 34,31010,5250,0
 09/09/2015 16h45 36,51010,8210,0
 09/09/2015 15h45 35,91011,2250,0
 09/09/2015 14h45 34,51011,6260,0
 09/09/2015 13h45 31,61012,2310,0
 09/09/2015 12h45 30,51012,7330,0
 09/09/2015 11h45 29,41013,2360,0
 09/09/2015 10h45 251013,4450,0
 09/09/2015 09h45 20,31013,4610,0
 09/09/2015 08h45 13,81013,7810,0
 09/09/2015 07h45 7,21013,6900,0
 09/09/2015 06h45 7,31013890,0
 09/09/2015 05h45 8,11012,9890,0
 09/09/2015 04h45 8,81013,2870,0
 09/09/2015 03h45 9,81013,3850,0
 09/09/2015 02h45 111013,5820,0
 09/09/2015 01h45 11,31014,1790,0
 09/09/2015 00h45 12,41014,5770,0
 08/09/2015 23h45 13,71014,7700,0
 08/09/2015 22h45 15,41014,9630,0
 08/09/2015 21h45 17,51014,6560,0
 08/09/2015 20h45 20,51013,8470,0
 08/09/2015 19h45 27,81013,5330,0
 08/09/2015 18h45 29,91013,6300,0
 08/09/2015 17h45 33,61013,5250,0
 08/09/2015 16h45 33,81013,8260,0
 08/09/2015 15h45 34,61014,4260,0
 08/09/2015 14h45 32,21015,1290,0
 08/09/2015 13h45 28,91015,7340,0
 08/09/2015 12h45 27,11016370,0
 08/09/2015 11h45 26,61016,8400,0
 08/09/2015 10h45 24,91017460,0
 08/09/2015 09h45 20,21016,8590,0
 08/09/2015 08h45 13,71016,9840,0
 08/09/2015 07h45 7,61017910,0
 08/09/2015 06h45 7,51016,6900,0
 08/09/2015 05h45 7,91016,8880,0
 08/09/2015 04h45 8,71017,2860,0
 08/09/2015 03h45 9,11017,2850,0
 08/09/2015 02h45 9,81017,6820,0
 08/09/2015 01h45 10,71017,9780,0
 08/09/2015 00h45 11,61018,4720,0
 07/09/2015 23h45 13,51018,3660,0
 07/09/2015 22h45 15,31018,7600,0
 07/09/2015 21h45 16,41018,4550,0
 07/09/2015 20h45 18,41017,8470,0
 07/09/2015 19h45 25,11017,8320,0
 07/09/2015 18h45 27,61017,8280,0
 07/09/2015 17h45 30,11018250,0
 07/09/2015 16h45 30,21018,1250,0
 07/09/2015 15h45 32,91018,7240,0
 07/09/2015 14h45 28,51019,2300,0
 07/09/2015 13h45 26,11019,9340,0
 07/09/2015 12h45 24,51020,2370,0
 07/09/2015 11h45 25,91020,7380,0
 07/09/2015 10h45 23,61020,9440,0
 07/09/2015 09h45 18,71020,7590,0
 07/09/2015 08h45 12,51020,6830,0
 07/09/2015 07h45 6,91020,4910,0
 07/09/2015 06h45 61020,1890,0
 07/09/2015 05h45 6,81020880,0
 07/09/2015 04h45 7,51020860,0
 07/09/2015 03h45 8,41020,2830,0
 07/09/2015 02h45 9,61020,4780,0
 07/09/2015 01h45 11,51020,7730,0
 07/09/2015 00h45 12,11020,9730,0
 06/09/2015 23h45 12,91020,7710,0
 06/09/2015 22h45 14,11020,5660,0
 06/09/2015 21h45 15,61020,5600,0
 06/09/2015 20h45 18,21019,7510,0
 06/09/2015 19h45 24,11019,5380,0
 06/09/2015 18h45 23,31019,4390,0
 06/09/2015 17h45 28,31019,4310,0
 06/09/2015 16h45 24,91019,6350,0
 06/09/2015 15h45 28,21019,9300,0
 06/09/2015 14h45 28,11020310,0
 06/09/2015 13h45 26,51020,5340,0
 06/09/2015 12h45 26,21021,2350,0
 06/09/2015 11h45 27,11021,6380,0
 06/09/2015 10h45 24,31021,5470,0
 06/09/2015 09h45 19,31021,4630,0
 06/09/2015 08h45 131021,3870,0
 06/09/2015 07h45 7,81020,8920,0
 06/09/2015 06h45 6,61020,3910,0
 06/09/2015 05h45 7,31020900,0
 06/09/2015 04h45 7,91020,1890,0
 06/09/2015 03h45 8,41020880,0
 06/09/2015 02h45 9,81020,2850,0
 06/09/2015 01h45 10,41020,3800,0
 06/09/2015 00h45 11,41020,4750,0
 05/09/2015 23h45 131020,1700,0
 05/09/2015 22h45 13,91019,8670,0
 05/09/2015 21h45 15,91019,5610,0
 05/09/2015 20h45 18,11018,8550,0
 05/09/2015 19h45 19,61018,4500,0
 05/09/2015 18h45 23,21018400,0
 05/09/2015 17h45 24,31018,1380,0
 05/09/2015 16h45 23,21018,4440,0
 05/09/2015 15h45 25,51018,6390,0
 05/09/2015 14h45 22,81018,5440,0
 05/09/2015 13h45 21,81018,5480,0
 05/09/2015 12h45 231018,8470,0
 05/09/2015 11h45 20,91019,2550,0
 05/09/2015 10h45 19,41018,8620,0
 05/09/2015 09h45 16,11018,3760,0
 05/09/2015 08h45 13,51018820,0
 05/09/2015 07h45 12,91017,1840,0
 05/09/2015 06h45 12,61016,4860,0
 05/09/2015 05h45 12,61016860,0
 05/09/2015 04h45 12,31015,7860,0
 05/09/2015 03h45 12,41015,6870,0
 05/09/2015 02h45 11,91015,6860,0
 05/09/2015 01h45 12,51015,7840,0
 05/09/2015 00h45 13,41015,5800,0
 04/09/2015 23h45 13,91015,6760,0
 04/09/2015 22h45 14,61015,4650,0
 04/09/2015 21h45 15,91015,1600,0
 04/09/2015 20h45 16,91014,3560,0
 04/09/2015 19h45 18,51014,3530,0
 04/09/2015 18h45 20,11013,9510,0
 04/09/2015 17h45 21,91013,7470,0
 04/09/2015 16h45 22,81013,7450,0
 04/09/2015 15h45 22,91013,8470,0
 04/09/2015 14h45 23,51013,9470,0
 04/09/2015 13h45 25,11014,6440,0
 04/09/2015 12h45 26,61015,2480,0
 04/09/2015 11h45 24,11015,6550,0
 04/09/2015 10h45 18,81016,1700,0
 04/09/2015 09h45 16,11015,4740,0
 04/09/2015 08h45 14,41015,1830,0
 04/09/2015 07h45 12,31014,8880,0
 04/09/2015 06h45 12,61014,5880,0
 04/09/2015 05h45 14,11014,1860,0
 04/09/2015 04h45 14,61014,3860,0
 04/09/2015 03h45 14,91014,5880,0
 04/09/2015 02h45 15,11014,7890,0
 04/09/2015 01h45 14,91014,8890,0
 04/09/2015 00h45 15,31014,7880,0
 03/09/2015 23h45 16,21014,5860,0
 03/09/2015 22h45 17,31014,5800,0
 03/09/2015 21h45 17,31014,2780,0
 03/09/2015 20h45 18,91013,4730,0
 03/09/2015 19h45 20,11013,1690,0
 03/09/2015 18h45 21,71012,9640,0
 03/09/2015 17h45 23,21012,7580,0
 03/09/2015 16h45 23,51012,6570,0
 03/09/2015 15h45 24,91012,8510,0
 03/09/2015 14h45 27,11013,1480,0
 03/09/2015 13h45 26,31013,2520,0
 03/09/2015 12h45 23,41013,6640,0
 03/09/2015 11h45 20,21013,7730,0
 03/09/2015 10h45 19,31013,4780,0
 03/09/2015 09h45 18,11012,9800,0
 03/09/2015 08h45 15,11012,8860,0
 03/09/2015 07h45 14,31011,9860,0
 03/09/2015 06h45 14,31012,2860,0
 03/09/2015 05h45 14,61012,6860,0
 03/09/2015 04h45 14,61013,1840,0
 03/09/2015 03h45 14,11013,6840,0
 03/09/2015 02h45 14,31013830,0
 03/09/2015 01h45 14,31013,1820,0
 03/09/2015 00h45 14,51013,1780,0
 02/09/2015 23h45 14,61013,2730,0
 02/09/2015 22h45 15,51013,3690,0
 02/09/2015 21h45 16,71013,1650,0
 02/09/2015 20h45 18,91012,7570,0
 02/09/2015 19h45 23,91012,5460,0
 02/09/2015 18h45 26,11012,8410,0
 02/09/2015 17h45 27,81012,9390,0
 02/09/2015 16h45 29,61013,1360,0
 02/09/2015 15h45 29,31013,6370,0
 02/09/2015 14h45 27,31014410,0
 02/09/2015 13h45 25,91014,4430,0
 02/09/2015 12h45 25,31015490,0
 02/09/2015 11h45 26,81015,3520,0
 02/09/2015 10h45 24,61015,2590,0
 02/09/2015 09h45 21,21015,1680,0
 02/09/2015 08h45 16,61015,2920,0
 02/09/2015 07h45 12,51014,7920,0
 02/09/2015 06h45 12,11014,8920,0
 02/09/2015 05h45 12,61014,8920,0
 02/09/2015 04h45 11,51014,7910,0
 02/09/2015 03h45 12,31014,8900,0
 02/09/2015 02h45 12,91015,3890,0
 02/09/2015 01h45 13,41015,6870,0
 02/09/2015 00h45 14,61016830,0
 01/09/2015 23h45 15,21015,9800,0
 01/09/2015 22h45 15,91015,9780,0
 01/09/2015 21h45 17,11015,9750,0
 01/09/2015 20h45 19,81015,5660,0
 01/09/2015 19h45 24,21015,3560,0
 01/09/2015 18h45 24,61015,1570,0
 01/09/2015 17h45 24,41015580,0
 01/09/2015 16h45 29,31015,3490,0
 01/09/2015 15h45 28,91015,5520,0
 01/09/2015 14h45 25,61016,1630,0
 01/09/2015 13h45 23,51016,4700,0
 01/09/2015 12h45 23,21016,5750,0
 01/09/2015 11h45 20,91016,4790,0
 01/09/2015 10h45 19,51016,2860,0
 01/09/2015 09h45 18,31015,6900,0
 01/09/2015 08h45 18,31014,7910,0
 01/09/2015 07h45 17,91013,8930,0
 27/08/2015 09h45 28,61010,6590,0
 27/08/2015 08h45 25,81010,3680,0
 27/08/2015 07h45 22,91009,8780,0
 27/08/2015 06h45 21,81009,7780,0
 27/08/2015 05h45 21,91009,7760,0
 27/08/2015 04h45 22,11010,2760,0
 27/08/2015 03h45 22,11010,8730,0
 27/08/2015 02h45 22,11010,7730,0
 27/08/2015 01h45 221011720,0
 27/08/2015 00h45 21,61011,2720,0
 26/08/2015 23h45 21,91011,8690,0
 26/08/2015 22h45 22,11011,6610,0
 26/08/2015 21h45 23,51011,4530,0
 26/08/2015 20h45 25,31011,2470,0
 26/08/2015 19h45 27,41010,7420,0
 26/08/2015 18h45 33,11010,6320,0
 26/08/2015 17h45 35,91010,8270,0
 26/08/2015 16h45 38,41010,7250,0
 26/08/2015 15h45 37,81010,8260,0
 26/08/2015 14h45 35,11011,3300,0
 26/08/2015 13h45 33,81011,6310,0
 26/08/2015 12h45 32,41011,5340,0
 26/08/2015 11h45 31,61012,1350,0
 26/08/2015 10h45 29,81012,3410,0
 26/08/2015 09h45 25,41012,7520,0
 26/08/2015 08h45 18,91012,5680,0
 26/08/2015 07h45 13,81012,9850,0
 26/08/2015 06h45 11,81013,3870,0
 26/08/2015 05h45 12,21013,9860,0
 26/08/2015 04h45 12,41014,5850,0
 26/08/2015 03h45 12,91014,8820,0
 26/08/2015 02h45 13,91015,4790,0
 26/08/2015 01h45 14,61016770,0
 26/08/2015 00h45 15,91016,4720,0
 25/08/2015 23h45 16,71016,4670,0
 25/08/2015 22h45 18,81016,4590,0
 25/08/2015 21h45 20,61016530,0
 25/08/2015 20h45 25,31015,5410,0
 25/08/2015 19h45 30,71015,3320,0
 25/08/2015 18h45 33,41015,5270,0
 25/08/2015 17h45 34,91015,8250,0
 25/08/2015 16h45 37,41015,8220,0
 25/08/2015 15h45 36,31016,2240,0
 25/08/2015 14h45 34,51016,6270,0
 25/08/2015 13h45 30,61016,8330,0
 25/08/2015 12h45 29,81017,2350,0
 25/08/2015 11h45 29,51017,3390,0
 25/08/2015 10h45 26,61017,4460,0
 25/08/2015 09h45 22,71017,3580,0
 25/08/2015 08h45 16,21017,4820,0
 25/08/2015 07h45 10,51017,2930,0
 25/08/2015 06h45 8,91016,6920,0
 25/08/2015 05h45 9,31016,5910,0
 25/08/2015 04h45 9,41016,6900,0
 25/08/2015 03h45 9,91016,7890,0
 25/08/2015 02h45 10,71016,8870,0
 25/08/2015 00h46 11,31016,8850,0
 24/08/2015 23h46 12,11016,6800,0
 24/08/2015 22h46 13,31016750,0
 24/08/2015 21h46 14,61015,6700,0
 24/08/2015 20h46 171014,8600,0
 24/08/2015 19h46 19,31014590,0
 24/08/2015 18h46 22,31012,8480,0
 24/08/2015 17h46 23,31012,2470,0
 24/08/2015 16h46 22,91011,6520,0
 24/08/2015 15h46 25,81010,7430,0
 24/08/2015 14h46 26,81010,5420,0
 24/08/2015 13h46 22,81010,2510,0
 24/08/2015 12h46 24,61009,5490,0
 24/08/2015 11h46 24,61009,4530,0
 24/08/2015 10h46 22,51009,3590,0
 24/08/2015 09h46 19,61009690,0
 24/08/2015 08h46 19,11008750,0
 24/08/2015 07h46 18,21006,9830,0
 24/08/2015 06h46 17,31005,6890,0
 24/08/2015 05h46 16,61004,2910,0
 24/08/2015 04h46 16,41002,7910,0
 24/08/2015 03h46 16,31001,6900,0
 24/08/2015 02h46 16,21001,2910,0
 24/08/2015 01h46 15,41001,3900,0
 24/08/2015 00h46 161001,8900,0
 23/08/2015 23h46 16,31002,9880,0
 23/08/2015 22h46 16,71003,4850,0
 23/08/2015 21h46 17,21003,9800,0
 23/08/2015 20h46 18,51004,3770,0
 23/08/2015 19h46 21,41004,3680,0
 23/08/2015 18h46 25,11004,5600,0
 23/08/2015 17h46 23,81004,9650,0
 23/08/2015 16h46 22,11005,3720,0
 23/08/2015 15h46 22,11005,4690,0
 23/08/2015 14h46 23,41005,7650,0
 23/08/2015 13h46 22,31006,2700,0
 23/08/2015 12h46 22,71006,1690,0
 23/08/2015 11h46 26,11006,3600,0
 23/08/2015 10h46 23,91006,7700,0
 23/08/2015 09h46 24,21006,4730,0
 23/08/2015 08h46 23,81005,3750,0
 23/08/2015 07h46 23,51004,7810,0
 23/08/2015 06h46 19,11004,3910,0
 23/08/2015 05h46 19,91004,7890,0
 23/08/2015 04h46 19,61005890,0
 23/08/2015 03h46 19,91005,2880,0
 23/08/2015 02h46 20,11005,9870,0
 23/08/2015 01h46 21,31006810,0
 23/08/2015 00h46 21,81005,3800,0
 22/08/2015 23h46 22,31005,7810,0
 22/08/2015 22h46 22,41006,2810,0
 22/08/2015 21h46 22,41007,3780,0
 22/08/2015 20h46 22,81008,1740,0
 22/08/2015 19h46 24,11007,6700,0
 22/08/2015 18h46 261007,2650,0
 22/08/2015 17h46 29,31008560,0
 22/08/2015 16h46 29,71008,8530,0
 22/08/2015 15h46 32,11009460,0
 22/08/2015 14h46 34,81009,2420,0
 22/08/2015 13h46 33,91009,9430,0
 22/08/2015 12h46 32,41010,4440,0
 22/08/2015 11h46 31,61011460,0
 22/08/2015 10h46 32,41011,5400,0
 22/08/2015 09h46 31,31011,9420,0
 22/08/2015 08h46 28,41012,2460,0
 22/08/2015 07h46 24,41012,4570,0
 22/08/2015 06h46 17,11012,4810,0
 22/08/2015 05h46 13,31012,4830,0
 22/08/2015 04h46 14,41012,5830,0
 22/08/2015 03h46 151013800,0
 22/08/2015 02h46 16,31013,3790,0
 22/08/2015 01h46 17,11013,7770,0
 22/08/2015 00h46 17,31014740,0
 21/08/2015 23h46 18,61014,5700,0
 21/08/2015 22h46 19,41014,8650,0
 21/08/2015 21h46 20,71014,5560,0
 21/08/2015 20h46 23,81014,6490,0
 21/08/2015 19h46 30,71014,5340,0
 21/08/2015 18h46 35,61014,2250,0
 21/08/2015 17h46 38,41014,4230,0
 21/08/2015 16h46 39,81014,7220,0
 21/08/2015 15h46 40,11015,3220,0
 21/08/2015 14h46 40,91015,9220,0
 21/08/2015 13h46 38,91016,5250,0
 21/08/2015 12h46 35,91017,2290,0
 21/08/2015 11h46 36,11017,8310,0
 21/08/2015 10h46 33,91018,1360,0
 21/08/2015 09h46 311018,4420,0
 21/08/2015 08h46 25,11018,5550,0
 21/08/2015 07h46 19,81018,5730,0
 21/08/2015 06h46 14,51018,4910,0
 21/08/2015 05h46 12,11018,2900,0
 21/08/2015 04h46 12,81018,3880,0
 21/08/2015 03h46 13,21018880,0
 21/08/2015 02h46 13,51018,2850,0
 21/08/2015 01h46 14,51018,3830,0
 21/08/2015 00h46 15,31018,7780,0
 20/08/2015 23h46 16,21018,7740,0
 20/08/2015 22h46 17,91018,6680,0
 20/08/2015 21h46 19,91018,6610,0
 20/08/2015 20h46 21,81018,3540,0
 20/08/2015 19h46 26,11018440,0
 20/08/2015 18h46 32,71017,8330,0
 20/08/2015 17h46 35,31017,9290,0
 20/08/2015 16h46 34,31018280,0
 20/08/2015 15h46 37,61018,3240,0
 20/08/2015 14h46 37,61018,8250,0
 20/08/2015 13h46 35,91019,1260,0
 20/08/2015 12h46 32,51019,5300,0
 20/08/2015 11h46 32,71019,8350,0
 20/08/2015 10h46 31,81020370,0
 20/08/2015 09h46 27,91020,2450,0
 20/08/2015 08h46 24,41020,1550,0
 20/08/2015 07h46 19,51019,9700,0
 20/08/2015 06h46 13,91019,7920,0
 20/08/2015 05h46 10,81019,2910,0
 20/08/2015 04h46 10,91018,7890,0
 20/08/2015 03h46 12,11018,7880,0
 20/08/2015 02h46 12,11018,7860,0
 20/08/2015 01h46 13,31018,5820,0
 20/08/2015 00h46 13,91018,5790,0
 19/08/2015 23h46 15,41018,3720,0
 19/08/2015 22h46 17,11018,3660,0
 19/08/2015 21h46 18,21017,8620,0
 19/08/2015 20h46 19,91017,2560,0
 19/08/2015 19h46 24,41016,6440,0
 19/08/2015 18h46 27,91016,3370,0
 19/08/2015 17h46 31,31016,2330,0
 19/08/2015 16h46 311016,1330,0
 19/08/2015 15h46 35,61016,4290,0
 19/08/2015 14h46 34,71016,7280,0
 19/08/2015 13h46 29,21016,8380,0
 19/08/2015 12h46 29,61017390,0
 19/08/2015 11h46 29,31017,4420,0
 19/08/2015 10h46 28,61017,6460,0
 19/08/2015 09h46 25,91017,6510,0
 19/08/2015 08h46 21,41017,4620,0
 19/08/2015 07h46 16,51017,3770,0
 19/08/2015 06h46 12,41016,7920,0
 19/08/2015 05h46 10,41016,2890,0
 19/08/2015 04h46 10,91015,9870,0
 19/08/2015 03h46 11,61015,9860,0
 19/08/2015 02h46 13,21015,5820,0
 19/08/2015 01h46 13,91015,6780,0
 19/08/2015 00h46 13,91015,3770,0
 18/08/2015 23h46 14,51015,2740,0
 18/08/2015 22h46 15,91015660,0
 18/08/2015 21h46 17,11014,5620,0
 18/08/2015 20h46 18,61014,1570,0
 18/08/2015 19h46 21,91013,4480,0
 18/08/2015 18h46 26,71012,9370,0
 18/08/2015 17h46 28,81012,6340,0
 18/08/2015 16h46 291012,4340,0
 18/08/2015 15h46 27,91012,4370,0
 18/08/2015 14h46 33,11012,5300,0
 18/08/2015 13h46 29,11012,7350,0
 18/08/2015 12h46 28,61012,8370,0
 18/08/2015 11h46 291013,1380,0
 18/08/2015 10h46 30,11013,2410,0
 18/08/2015 09h46 25,51013,3490,0
 18/08/2015 08h46 23,61012,9570,0
 18/08/2015 07h46 19,81012,4690,0
 18/08/2015 06h46 13,41012,1910,0
 18/08/2015 05h46 10,91012,2900,0
 18/08/2015 04h46 11,11012,2890,0
 18/08/2015 03h46 11,51012,3860,0
 18/08/2015 02h46 12,31012840,0
 18/08/2015 01h46 13,31012800,0
 18/08/2015 00h46 14,31012,2750,0
 17/08/2015 23h46 15,81012,2690,0
 17/08/2015 22h46 17,91012,1640,0
 17/08/2015 21h46 19,41012,4590,0
 17/08/2015 20h46 20,21012550,0
 17/08/2015 19h46 21,81011,3490,0
 17/08/2015 18h46 251010,8430,0
 17/08/2015 17h46 28,41010,8360,0
 17/08/2015 16h46 28,71010,8370,0
 17/08/2015 15h46 32,31010,9320,0
 17/08/2015 14h46 33,11011,2320,0
 17/08/2015 13h46 29,81011,8370,0
 17/08/2015 12h46 27,51011,8420,0
 17/08/2015 11h46 27,71012,2420,0
 17/08/2015 10h46 27,11012,3460,0
 17/08/2015 09h46 24,71012,4530,0
 17/08/2015 08h46 21,91012,1620,0
 17/08/2015 07h46 18,61011,9770,0
 17/08/2015 06h46 12,61011,7930,0
 17/08/2015 05h46 10,31011,8910,0
 17/08/2015 04h46 10,91011,8900,0
 17/08/2015 03h46 11,11011,8890,0
 17/08/2015 02h46 11,61011,5880,0
 17/08/2015 01h46 131011,4860,0
 17/08/2015 00h46 131011,8830,0
 16/08/2015 23h46 14,11011,7810,0
 16/08/2015 22h46 14,31011,4770,0
 16/08/2015 21h46 15,31011,2710,0
 16/08/2015 20h46 17,51011,1630,0
 16/08/2015 19h46 21,21010,3540,0
 16/08/2015 18h46 26,71010,3420,0
 16/08/2015 17h46 28,41010,3380,0
 16/08/2015 16h46 281010,5380,0
 16/08/2015 15h46 30,31010,6360,0
 16/08/2015 14h46 27,91011,1380,0
 16/08/2015 13h46 28,31011,3400,0
 16/08/2015 12h46 26,31011,7470,0
 16/08/2015 11h46 26,41012,3470,0
 16/08/2015 10h46 27,41012,5510,0
 16/08/2015 09h46 25,41012,7580,0
 16/08/2015 08h46 21,91013680,0
 16/08/2015 07h46 16,91013830,0
 16/08/2015 06h46 12,61012,9930,0
 16/08/2015 05h46 10,21012,6920,0
 16/08/2015 04h46 10,81012,7920,0
 16/08/2015 03h46 11,81012,6910,0
 16/08/2015 02h46 12,31012,6910,0
 16/08/2015 01h46 12,81012,8880,0
 16/08/2015 00h46 13,61013,3880,0
 15/08/2015 23h46 151013,4830,0
 15/08/2015 22h46 16,11013,3800,0
 15/08/2015 21h46 16,61013,2770,0
 15/08/2015 20h46 17,61013,2720,0
 15/08/2015 19h46 20,11012,8650,0
 15/08/2015 18h46 21,91011,9600,0
 15/08/2015 17h46 23,61011,8540,0
 15/08/2015 16h46 25,71012,1500,0
 15/08/2015 15h46 24,41012,5550,0
 15/08/2015 14h46 26,41012,5500,0
 15/08/2015 13h46 23,81013,1560,0
 15/08/2015 12h46 21,51013,2660,0
 15/08/2015 11h46 22,41013,2630,0
 15/08/2015 10h46 21,81013,2670,0
 15/08/2015 09h46 19,91012,9810,0
 15/08/2015 08h46 16,11012,9900,0
 15/08/2015 07h46 15,71013,1890,0
 15/08/2015 06h46 15,11012,9920,0
 15/08/2015 05h46 14,41013920,0
 15/08/2015 04h46 13,91012,8920,0
 15/08/2015 03h46 14,11013920,0
 15/08/2015 02h46 13,81013,3920,0
 15/08/2015 01h46 14,11013,6910,0
 15/08/2015 00h46 14,51014900,0
 14/08/2015 23h46 15,51014,5880,0
 14/08/2015 22h46 15,51014,3870,0
 14/08/2015 21h46 15,81014,6870,0
 14/08/2015 20h46 15,41014,3870,0
 14/08/2015 19h46 16,61014,1820,0
 14/08/2015 18h46 17,61013,8780,0
 14/08/2015 17h46 18,91013,8720,0
 14/08/2015 16h46 19,11013,7710,0
 14/08/2015 15h46 22,61013,5590,0
 14/08/2015 14h46 22,81013,7630,0
 14/08/2015 13h46 24,61013,6671,0
 14/08/2015 12h46 22,61013,6731,0
 14/08/2015 11h46 19,91013,6770,0
 14/08/2015 10h46 19,61013,7820,0
 14/08/2015 09h46 17,91013,3890,0
 14/08/2015 08h46 18,51013,1840,0
 14/08/2015 07h46 17,91012,7870,0
 14/08/2015 06h46 17,11012,5920,0
 14/08/2015 05h46 16,51012,3930,0
 14/08/2015 04h46 16,51012,3930,0
 14/08/2015 03h46 16,51012,3930,0
 14/08/2015 02h46 16,21012,3930,0
 14/08/2015 01h46 15,81012,5930,0
 14/08/2015 00h46 15,91013930,0
 13/08/2015 23h46 16,91013920,0
 13/08/2015 22h46 17,41013,1920,0
 13/08/2015 21h46 17,61013,1910,0
 13/08/2015 20h46 17,81013901,0
 13/08/2015 19h46 17,91012,2892,0
 13/08/2015 18h46 18,21012,3883,0
 13/08/2015 17h46 22,21011,5700,0
 13/08/2015 16h46 27,31010,8560,0
 13/08/2015 15h46 28,91010,8560,0
 13/08/2015 14h46 33,11010,9470,0
 13/08/2015 13h46 30,61011,1540,0
 13/08/2015 12h46 26,41011,6670,0
 13/08/2015 11h46 231011,2802,0
 13/08/2015 10h46 18,51010,5912,0
 13/08/2015 09h46 19,61012893,0
 13/08/2015 08h46 20,11011,9921,0
 13/08/2015 07h46 21,31012912,0
 13/08/2015 06h46 21,21011,3920,0
 13/08/2015 05h46 21,21011,8911,0
 13/08/2015 04h46 21,61011,2907,0
 13/08/2015 03h46 21,71010,4888,0
 13/08/2015 02h46 22,41010,2720,0
 13/08/2015 01h46 21,11009,7710,0
 13/08/2015 00h46 21,31009,9710,0
 12/08/2015 23h46 21,41010,4720,0
 12/08/2015 22h46 22,81010,9660,0
 12/08/2015 21h46 24,91011,6610,0
 12/08/2015 20h46 26,71011,5540,0
 12/08/2015 19h46 28,91011,2460,0
 12/08/2015 18h46 33,41011,2340,0
 12/08/2015 17h46 36,61011,1270,0
 12/08/2015 16h46 35,91011,5270,0
 12/08/2015 15h46 39,71011,6240,0
 12/08/2015 14h46 39,91011,9270,0
 12/08/2015 13h46 37,81012,3300,0
 12/08/2015 12h46 35,81012,7340,0
 12/08/2015 11h46 34,91013,2390,0
 12/08/2015 10h46 34,21013,5420,0
 12/08/2015 09h46 31,11014480,0
 12/08/2015 08h46 27,31013,9570,0
 12/08/2015 07h46 23,31014680,0
 12/08/2015 06h46 18,11013,2840,0
 12/08/2015 05h46 14,41012,7890,0
 12/08/2015 04h46 14,51012,1860,0
 12/08/2015 03h46 14,91012870,0
 12/08/2015 02h46 15,81011,9840,0
 12/08/2015 01h46 16,91011,5820,0
 12/08/2015 00h46 18,11011,5820,0
 11/08/2015 23h46 18,91011,7780,0
 11/08/2015 22h46 20,61011,7730,0
 11/08/2015 21h46 22,61011,3660,0
 11/08/2015 20h46 25,11010,9570,0
 11/08/2015 19h46 30,31009,8450,0
 11/08/2015 18h46 371009,4370,0
 11/08/2015 17h46 35,51009,2370,0
 11/08/2015 16h46 38,21009,5350,0
 11/08/2015 15h46 41,71009,9310,0
 11/08/2015 14h46 39,41010,3340,0
 11/08/2015 13h46 37,31010,5370,0
 11/08/2015 12h46 33,91010,8450,0
 11/08/2015 11h46 33,11011460,0
 11/08/2015 10h46 32,61011,4470,0
 11/08/2015 09h46 29,91011,6540,0
 11/08/2015 08h46 26,21011,7650,0
 11/08/2015 07h46 211011,7830,0
 11/08/2015 06h46 17,11011,5940,0
 11/08/2015 05h46 14,41011,4930,0
 11/08/2015 04h46 14,81011,5920,0
 11/08/2015 03h46 15,21011,8920,0
 11/08/2015 02h46 15,41011,9910,0
 11/08/2015 01h46 15,81012,4910,0
 11/08/2015 00h46 16,81012,9890,0
 10/08/2015 23h46 17,21013,4860,0
 10/08/2015 22h46 18,11013,5840,0
 10/08/2015 21h46 19,61013,2780,0
 10/08/2015 20h46 21,41013,1710,0
 10/08/2015 19h46 261012,8590,0
 10/08/2015 18h46 29,71012,8500,0
 10/08/2015 17h46 31,41013460,0
 10/08/2015 16h46 31,21013,3490,0
 10/08/2015 15h46 32,91013,8450,0
 10/08/2015 14h46 31,81014,3490,0
 10/08/2015 13h46 26,91015,2590,0
 10/08/2015 12h46 25,91015,5620,0
 10/08/2015 11h46 24,41016,2650,0
 10/08/2015 10h46 23,81016,5710,0
 10/08/2015 09h46 23,51016,9730,0
 10/08/2015 08h46 20,11017830,0
 10/08/2015 07h46 17,91017950,0
 10/08/2015 06h46 16,41017,1950,0
 10/08/2015 05h46 15,81016,9950,0
 10/08/2015 04h46 15,91017,1940,0
 10/08/2015 03h46 15,61017,5940,0
 10/08/2015 02h46 14,91017,7940,0
 10/08/2015 01h46 15,21018940,0
 10/08/2015 00h46 14,81018,3940,0
 09/08/2015 23h46 15,51018,7940,0
 09/08/2015 22h46 15,91018,8930,0
 09/08/2015 21h46 16,11018,6930,0
 09/08/2015 20h46 16,11017,7921,0
 09/08/2015 19h46 16,21017,5920,0
 09/08/2015 18h46 16,61017,7911,0
 09/08/2015 17h46 17,31017,9891,0
 09/08/2015 16h46 17,81018,1871,0
 09/08/2015 15h46 21,81018,4690,0
 09/08/2015 14h46 21,31018,6710,0
 09/08/2015 13h46 21,11018,7740,0
 09/08/2015 12h46 21,91018,6720,0
 09/08/2015 11h46 18,51019,3830,0
 09/08/2015 10h46 17,91019,5890,0
 09/08/2015 09h46 16,91019,4870,0
 09/08/2015 08h46 17,81019,5860,0
 09/08/2015 07h46 16,61019,4920,0
 09/08/2015 06h46 15,31019,4940,0
 09/08/2015 05h46 14,91019,3940,0
 09/08/2015 04h46 14,91019,5940,0
 09/08/2015 03h46 151019,5940,0
 09/08/2015 02h46 15,11019,6930,0
 09/08/2015 01h46 15,31019,7930,0
 09/08/2015 00h46 15,21019,8930,0
 08/08/2015 23h46 15,31019,6930,0
 08/08/2015 22h46 15,61019,9931,0
 08/08/2015 21h46 16,31019,6931,0
 08/08/2015 20h46 16,91018,8910,0
 08/08/2015 19h46 17,31018,1910,0
 08/08/2015 18h46 18,21018910,0
 08/08/2015 17h46 18,91018,2900,0
 08/08/2015 16h46 18,91017,5921,0
 08/08/2015 15h46 18,61018912,0
 08/08/2015 14h46 18,21018,9901,0
 08/08/2015 13h46 17,81020912,0
 08/08/2015 12h46 19,71019,7861,0
 08/08/2015 11h46 18,61019,5871,0
 08/08/2015 10h46 20,41019,7820,0
 08/08/2015 09h46 18,31019,7850,0
 08/08/2015 08h46 211019,3740,0
 08/08/2015 07h46 20,11018,7790,0
 08/08/2015 06h46 19,31017,5790,0
 08/08/2015 05h46 19,41016,9750,0
 08/08/2015 04h46 20,81016,2680,0
 08/08/2015 03h46 21,71017,4660,0
 08/08/2015 02h46 22,41016,6640,0
 08/08/2015 01h46 23,41016,1630,0
 08/08/2015 00h46 24,11016,4640,0
 07/08/2015 23h46 24,91016,2620,0
 07/08/2015 22h46 25,51016,1630,0
 07/08/2015 21h46 26,11015,4630,0
 07/08/2015 20h46 26,81014,6630,0
 07/08/2015 19h46 29,61014,1550,0
 07/08/2015 18h46 33,51013,9470,0
 07/08/2015 17h46 31,91014500,0
 07/08/2015 16h46 34,91014,3450,0
 07/08/2015 15h46 36,51014410,0
 07/08/2015 14h46 37,71013,9400,0
 07/08/2015 13h46 35,61013,8430,0
 07/08/2015 12h46 34,91013,7460,0
 07/08/2015 11h46 30,81013,7560,0
 07/08/2015 10h46 31,91013,3540,0
 07/08/2015 09h46 34,11013490,0
 07/08/2015 08h46 25,81012,6730,0
 07/08/2015 07h46 27,41011,8690,0
 07/08/2015 06h46 21,81011,2880,0
 07/08/2015 05h46 19,21010,7910,0
 07/08/2015 04h46 19,61010,7890,0
 07/08/2015 03h46 20,91010,6860,0
 07/08/2015 02h46 20,71010,6870,0
 07/08/2015 01h46 21,41010,3850,0
 07/08/2015 00h46 22,21010,3810,0
 06/08/2015 23h46 231010,7780,0
 06/08/2015 22h46 24,41010,8740,0
 06/08/2015 21h46 261011670,0
 06/08/2015 20h46 27,91010,7620,0
 06/08/2015 19h46 33,11010,1480,0
 06/08/2015 18h46 36,31009,7420,0
 06/08/2015 17h46 38,61009,7380,0
 06/08/2015 16h46 38,41010,1380,0
 06/08/2015 15h46 42,11010,4330,0
 06/08/2015 14h46 42,11011330,0
 06/08/2015 13h46 38,31011,8380,0
 06/08/2015 12h46 35,51012,4420,0
 06/08/2015 11h46 35,51012,7420,0
 06/08/2015 10h46 34,61013440,0
 06/08/2015 09h46 29,21013,4600,0
 06/08/2015 08h46 24,21013,7730,0
 06/08/2015 07h46 22,31013,8790,0
 06/08/2015 06h46 20,81013,9820,0
 06/08/2015 05h46 20,61013,8830,0
 06/08/2015 04h46 20,71013,8830,0
 06/08/2015 03h46 20,81013,9830,0
 06/08/2015 02h46 20,81013,8830,0
 06/08/2015 01h46 20,91013,7820,0
 06/08/2015 00h46 22,81013,4770,0
 05/08/2015 23h46 23,81013670,0
 05/08/2015 22h46 24,91011,8600,0
 05/08/2015 21h46 261011,1570,0
 05/08/2015 20h46 281010,3510,0
 05/08/2015 19h46 32,81009400,0
 05/08/2015 18h46 37,41008,2330,0
 05/08/2015 17h46 40,11007,7280,0
 05/08/2015 16h46 41,21007,5250,0
 05/08/2015 15h46 44,41007,7230,0
 05/08/2015 14h46 42,81008,1250,0
 05/08/2015 13h46 40,41008,6290,0
 05/08/2015 12h46 38,61009,2360,0
 05/08/2015 11h46 37,11009,8380,0
 05/08/2015 10h46 33,91010,5460,0
 05/08/2015 09h46 32,11011,3510,0
 05/08/2015 08h46 26,91011,6660,0
 05/08/2015 07h46 23,21011,9770,0
 05/08/2015 06h46 18,31011,9940,0
 05/08/2015 05h46 15,51012,1930,0
 05/08/2015 04h46 15,91012930,0
 05/08/2015 03h46 16,11012,1920,0
 05/08/2015 02h46 16,61012,7910,0
 05/08/2015 01h46 16,81013,2910,0
 05/08/2015 00h46 17,31013,8890,0
 04/08/2015 23h46 18,11014,2870,0
 04/08/2015 22h46 19,41014,4820,0
 04/08/2015 21h46 20,71014,6790,0
 04/08/2015 20h46 22,31014,5720,0
 04/08/2015 19h46 26,81014,4590,0
 04/08/2015 18h46 31,31014,5490,0
 04/08/2015 17h46 28,91014,7570,0
 04/08/2015 16h46 30,31015,1540,0
 04/08/2015 15h46 30,91015,4490,0
 04/08/2015 14h46 26,91016,1630,0
 04/08/2015 13h46 25,51016,6680,0
 04/08/2015 12h46 25,21016,6680,0
 04/08/2015 11h46 241017,2730,0
 04/08/2015 10h46 20,71017,1830,0
 04/08/2015 09h46 19,41017,1840,0
 04/08/2015 08h46 19,41016,4850,0
 04/08/2015 07h46 18,81016870,0
 04/08/2015 06h46 18,31015,5900,0
 04/08/2015 05h46 17,71014,4900,0
 04/08/2015 04h46 18,51013,5890,0
 04/08/2015 03h46 19,31013,7901,0
 04/08/2015 02h46 19,31012,5881,0
 04/08/2015 01h46 20,11014,4810,0
 04/08/2015 00h46 231012,6690,0
 03/08/2015 23h46 21,91011,1790,0
 03/08/2015 22h46 22,71014710,0
 03/08/2015 21h46 28,21013450,0
 03/08/2015 20h46 29,41010,8330,0
 03/08/2015 19h46 30,91009,5310,0
 03/08/2015 18h46 36,11009,6270,0
 03/08/2015 17h46 40,51009,6270,0
 03/08/2015 16h46 41,21009,5240,0
 03/08/2015 15h46 44,21010,2190,0
 03/08/2015 14h46 44,31011190,0
 03/08/2015 13h46 41,11011,5230,0
 03/08/2015 12h46 38,61012,2230,0
 03/08/2015 11h46 37,11012,7300,0
 03/08/2015 10h46 36,31013,6330,0
 03/08/2015 09h46 34,41013,8350,0
 03/08/2015 08h46 28,71013,6450,0
 03/08/2015 07h46 24,51013,6580,0
 03/08/2015 06h46 19,21013,5750,0
 03/08/2015 05h46 14,11013860,0
 03/08/2015 04h46 14,61012,9830,0
 03/08/2015 03h46 15,61013790,0
 03/08/2015 02h46 16,11013,1780,0
 03/08/2015 01h46 17,41012,9750,0
 03/08/2015 00h46 18,41013,1690,0
 02/08/2015 23h46 19,91013610,0
 02/08/2015 22h46 21,91012,7540,0
 02/08/2015 21h46 23,91012,3490,0
 02/08/2015 20h46 25,51011,9450,0
 02/08/2015 19h46 34,21011,4280,0
 02/08/2015 18h46 37,91011,2230,0
 02/08/2015 17h46 38,41011,3200,0
 02/08/2015 16h46 35,81011,5240,0
 02/08/2015 15h46 40,81011,7190,0
 02/08/2015 14h46 40,81012,2210,0
 02/08/2015 13h46 35,31012,8300,0
 02/08/2015 12h46 32,91013,3350,0
 02/08/2015 11h46 30,31013,8410,0
 02/08/2015 10h46 28,91014,3440,0
 02/08/2015 09h46 28,11014,3480,0
 02/08/2015 08h46 23,51014,6620,0
 02/08/2015 07h46 19,51014,9710,0
 02/08/2015 06h46 14,41014,8920,0
 02/08/2015 05h46 10,11014,7920,0
 02/08/2015 04h46 10,51014,9910,0
 02/08/2015 03h46 10,91015,3910,0
 02/08/2015 02h46 11,51015,4890,0
 02/08/2015 01h46 12,11015,6880,0
 02/08/2015 00h46 13,21015,7840,0
 01/08/2015 23h46 14,41015,7780,0
 01/08/2015 22h46 151015,7740,0
 01/08/2015 21h46 171015,3640,0
 01/08/2015 20h46 19,31014,7560,0
 01/08/2015 19h46 25,41014,1420,0
 01/08/2015 18h46 27,81013,7370,0
 01/08/2015 17h46 27,51013,7410,0
 01/08/2015 16h46 27,41013,7450,0
 01/08/2015 15h46 31,21013,8360,0
 01/08/2015 14h46 30,41014410,0
 01/08/2015 13h46 27,41014,5510,0
 01/08/2015 12h46 25,31015,1560,0
 01/08/2015 11h46 22,41015670,0
 01/08/2015 10h46 21,61014,5720,0
 01/08/2015 09h46 17,61014,4860,0
 01/08/2015 08h46 16,31014,1890,0
 01/08/2015 07h46 16,11013,2910,0
 01/08/2015 06h46 15,91012,5930,0
 01/08/2015 05h46 15,91012,1930,0
 01/08/2015 04h46 15,91012930,0
 01/08/2015 03h46 15,61011,6930,0
 01/08/2015 02h46 15,61011,2930,0
 01/08/2015 01h46 15,81011,6930,0
 01/08/2015 00h46 16,31011,4930,0
 31/07/2015 23h46 15,81010,8930,0
 31/07/2015 22h46 15,81010,1930,0
 31/07/2015 21h46 15,51009,6920,0
 31/07/2015 20h46 15,61009,4912,0
 31/07/2015 19h46 16,21008,9901,0
 31/07/2015 18h46 16,41009,5871,0
 31/07/2015 17h46 18,41009,2760,0
 31/07/2015 16h46 21,81008,6610,0
 31/07/2015 15h46 24,11008,1550,0
 31/07/2015 14h46 21,31008,2640,0
 31/07/2015 13h46 18,11008,4780,0
 31/07/2015 12h46 24,61010,9480,0
 31/07/2015 11h46 26,61009,4510,0
 31/07/2015 10h46 22,61009640,0
 31/07/2015 09h46 16,11008,9850,0
 31/07/2015 08h46 14,51011,4920,0
 31/07/2015 07h46 13,91011930,0
 31/07/2015 06h46 12,31010,4940,0
 31/07/2015 05h46 10,51010,9930,0
 31/07/2015 04h46 10,41011930,0
 31/07/2015 03h46 11,41011,3930,0
 31/07/2015 02h46 11,21012920,0
 31/07/2015 01h46 11,51012,9920,0
 31/07/2015 00h46 11,51013,2910,0
 30/07/2015 23h46 12,11013,2910,0
 30/07/2015 22h46 12,91013,6900,0
 30/07/2015 21h46 14,21013,6870,0
 30/07/2015 20h46 15,91013,5810,0
 30/07/2015 19h46 22,11013650,0
 30/07/2015 18h46 24,61012,9600,0
 30/07/2015 17h46 21,51012,8670,0
 30/07/2015 16h46 20,61013,6700,0
 30/07/2015 15h46 22,21013,9650,0
 30/07/2015 14h46 22,11013,9670,0
 30/07/2015 13h46 20,91014,3750,0
 30/07/2015 12h46 18,51014,5800,0
 30/07/2015 11h46 18,51014,4830,0
 30/07/2015 10h46 17,91014,6840,0
 30/07/2015 09h46 17,41014,3880,0
 30/07/2015 08h46 15,81014,5930,0
 30/07/2015 07h46 15,31014930,0
 30/07/2015 06h46 15,41013,6930,0
 30/07/2015 05h46 15,31013,6930,0
 30/07/2015 04h46 15,41013,7931,0
 30/07/2015 03h46 15,41013,4920,0
 30/07/2015 02h46 15,61013,8931,0
 30/07/2015 01h46 15,61014921,0
 30/07/2015 00h46 15,91014920,0
 29/07/2015 23h46 16,21014,4911,0
 29/07/2015 22h46 16,51013,9890,0
 29/07/2015 21h46 171013,6880,0
 29/07/2015 20h46 17,61013,3860,0
 29/07/2015 19h46 19,41013,1800,0
 29/07/2015 18h46 23,21012,3660,0
 29/07/2015 17h46 25,11011,8590,0
 29/07/2015 16h46 28,41011,6530,0
 29/07/2015 15h46 27,91011,7550,0
 29/07/2015 14h46 27,71011,5550,0
 29/07/2015 13h46 26,61011,8600,0
 29/07/2015 12h46 28,31011,1550,0
 29/07/2015 11h46 30,61010,9450,0
 29/07/2015 10h46 32,81010,9420,0
 29/07/2015 09h46 30,51010,9460,0
 29/07/2015 08h46 28,31010,9500,0
 29/07/2015 07h46 25,31010,9580,0
 29/07/2015 06h46 18,91010,6800,0
 29/07/2015 05h46 13,31010,5900,0
 29/07/2015 04h46 13,71010,7880,0
 29/07/2015 03h46 13,91010,7870,0
 29/07/2015 02h46 151010,8850,0
 29/07/2015 01h46 15,61011,1820,0
 29/07/2015 00h46 16,11011,3790,0
 28/07/2015 23h46 17,31011,7750,0
 28/07/2015 22h46 18,61011,5690,0
 28/07/2015 21h46 20,21011,7630,0
 28/07/2015 20h46 22,91011530,0
 28/07/2015 19h46 28,71010,9410,0
 28/07/2015 18h46 31,91010,6350,0
 28/07/2015 17h46 31,81010,5350,0
 28/07/2015 16h46 31,61010,8350,0
 28/07/2015 15h46 34,11011300,0
 28/07/2015 14h46 33,81011,4300,0
 28/07/2015 13h46 31,91011,8330,0
 28/07/2015 12h46 29,31012,6360,0
 28/07/2015 11h46 28,51013,3410,0
 28/07/2015 10h46 27,81014450,0
 28/07/2015 09h46 24,51014,3510,0
 28/07/2015 08h46 23,91014,8590,0
 28/07/2015 07h46 22,41014,6630,0
 28/07/2015 06h46 19,61014,3740,0
 28/07/2015 05h46 14,81014,3850,0
 28/07/2015 04h46 14,81014,2850,0
 28/07/2015 03h46 14,91014,1830,0
 28/07/2015 02h46 15,61013,9800,0
 28/07/2015 01h46 16,51014,2740,0
 28/07/2015 00h46 17,81014,2690,0
 27/07/2015 23h46 19,21014,3640,0
 27/07/2015 22h46 19,41014,1620,0
 27/07/2015 21h46 20,11013,7600,0
 27/07/2015 20h46 21,81013,1550,0
 27/07/2015 19h46 24,61012,5460,0
 27/07/2015 18h46 28,11012,2410,0
 27/07/2015 17h46 29,71011,8410,0
 27/07/2015 16h46 29,61011,7400,0
 27/07/2015 15h46 29,91011,9370,0
 27/07/2015 14h46 29,51012410,0
 27/07/2015 13h46 29,21012,4420,0
 27/07/2015 12h46 27,61012,7490,0
 27/07/2015 11h46 25,11013,2590,0
 27/07/2015 10h46 23,81013,2640,0
 27/07/2015 09h46 21,91013700,0
 27/07/2015 08h46 20,81012,8720,0
 27/07/2015 07h46 20,31012,4750,0
 27/07/2015 06h46 19,81012770,0
 27/07/2015 05h46 19,31011,7790,0
 27/07/2015 04h46 19,91011,7770,0
 27/07/2015 03h46 19,51011,6800,0
 27/07/2015 02h46 22,31011,1700,0
 27/07/2015 01h46 22,91010,8670,0
 27/07/2015 00h46 23,31010,8650,0
 26/07/2015 23h46 23,31010,6590,0
 26/07/2015 22h46 23,11010,6540,0
 26/07/2015 21h46 23,91010490,0
 26/07/2015 20h46 25,61009,4430,0
 26/07/2015 19h46 30,11009,4350,0
 26/07/2015 18h46 33,11009280,0
 26/07/2015 17h46 34,81009240,0
 26/07/2015 16h46 351009,5260,0
 26/07/2015 15h46 37,91009,6220,0
 26/07/2015 14h46 37,31010,1230,0
 26/07/2015 13h46 34,91010,4240,0
 26/07/2015 12h46 34,11011280,0
 26/07/2015 11h46 32,71011,5300,0
 26/07/2015 10h46 30,61012330,0
 26/07/2015 09h46 29,31012,7400,0
 26/07/2015 08h46 26,81013,1470,0
 26/07/2015 07h46 22,81013,1570,0
 26/07/2015 06h46 17,11013750,0
 26/07/2015 05h46 10,31013,5880,0
 26/07/2015 04h46 11,31013,6870,0
 26/07/2015 03h46 11,81014,1830,0
 26/07/2015 02h46 131014,6790,0
 26/07/2015 01h46 13,91015,4740,0
 26/07/2015 00h46 15,61015,7700,0
 25/07/2015 23h46 16,31016,1660,0
 25/07/2015 22h46 17,51016,2600,0
 25/07/2015 21h46 18,41016,2580,0
 25/07/2015 20h46 19,91015,8520,0
 25/07/2015 19h46 25,61015,5410,0
 25/07/2015 18h46 28,11015,3350,0
 25/07/2015 17h46 27,51015,2360,0
 25/07/2015 16h46 29,51015,3320,0
 25/07/2015 15h46 30,31015,2300,0
 25/07/2015 14h46 32,81015,4280,0
 25/07/2015 13h46 29,11015,9350,0
 25/07/2015 12h46 27,31016,4400,0
 25/07/2015 11h46 25,41016,6440,0
 25/07/2015 10h46 25,61016,8490,0
 25/07/2015 09h46 22,41016,7620,0
 25/07/2015 08h46 19,31016,4720,0
 25/07/2015 07h46 18,51015,9790,0
 25/07/2015 06h46 18,11015,3800,0
 25/07/2015 05h46 17,41014,9820,0
 25/07/2015 04h46 17,91014,5790,0
 25/07/2015 03h46 18,31013,8780,0
 25/07/2015 02h46 18,91013,5760,0
 25/07/2015 01h46 20,41012,7710,0
 25/07/2015 00h46 21,61012,4710,0
 24/07/2015 23h46 21,41012,1740,0
 24/07/2015 22h46 21,81011,7730,0
 24/07/2015 21h46 20,51010,8870,0
 24/07/2015 20h46 21,31009,9820,0
 24/07/2015 19h46 22,91009740,0
 24/07/2015 18h46 28,41007,8480,0
 24/07/2015 17h46 29,91007,2440,0
 24/07/2015 16h46 30,91006,6420,0
 24/07/2015 15h46 34,31005,7350,0
 24/07/2015 14h46 391005,7270,0
 24/07/2015 13h46 39,11006,1280,0
 24/07/2015 12h46 38,61006,5280,0
 24/07/2015 11h46 36,11007330,0
 24/07/2015 10h46 33,91007,7380,0
 24/07/2015 09h46 31,61008,3440,0
 24/07/2015 08h46 281008,8540,0
 24/07/2015 07h46 23,31009680,0
 24/07/2015 06h46 20,21009780,0
 24/07/2015 05h46 14,51009,1920,0
 24/07/2015 04h46 14,81009,1910,0
 24/07/2015 03h46 151009,3900,0
 24/07/2015 02h46 15,61009,9860,0
 24/07/2015 01h46 16,41010830,0
 24/07/2015 00h46 17,31010,3800,0
 23/07/2015 23h46 18,41010,7760,0
 23/07/2015 22h46 19,81010,7700,0
 23/07/2015 21h46 21,71011620,0
 23/07/2015 20h46 24,11010,6520,0
 23/07/2015 19h46 31,11010,9380,0
 23/07/2015 18h46 33,61011340,0
 23/07/2015 17h46 34,31011,2350,0
 23/07/2015 16h46 33,51011,9380,0
 23/07/2015 15h46 35,31012,5340,0
 23/07/2015 14h46 34,51013,3360,0
 23/07/2015 13h46 32,91013,8400,0
 23/07/2015 12h46 31,31014,4430,0
 23/07/2015 11h46 30,31015,1460,0
 23/07/2015 10h46 29,31015,6510,0
 23/07/2015 09h46 25,51016,1580,0
 23/07/2015 08h46 23,41016660,0
 23/07/2015 07h46 20,81015,8740,0
 23/07/2015 06h46 19,61015,9790,0
 23/07/2015 05h46 19,61015,8800,0
 23/07/2015 04h46 19,91015,7780,0
 23/07/2015 03h46 20,51015,7770,0
 23/07/2015 02h46 21,11015,8770,0
 23/07/2015 01h46 21,61016790,0
 23/07/2015 00h46 21,61016800,0
 22/07/2015 23h46 21,81016,1790,0
 22/07/2015 22h46 22,31016,1790,0
 22/07/2015 21h46 23,41015,8750,0
 22/07/2015 20h46 24,81014,9700,0
 22/07/2015 19h46 26,71014,6650,0
 22/07/2015 18h46 27,41014,5620,0
 22/07/2015 17h46 29,41014,5600,0
 22/07/2015 16h46 30,91014,5550,0
 22/07/2015 15h46 31,41014,5570,0
 22/07/2015 14h46 30,81015640,0
 22/07/2015 13h46 26,21015,3772,0
 22/07/2015 12h46 22,41015,6892,0
 22/07/2015 11h46 211016,2901,0
 22/07/2015 10h46 20,61015,4893,0
 22/07/2015 09h46 21,31014,8860,0
 22/07/2015 08h46 22,41014,7800,0
 22/07/2015 07h46 26,31014,2650,0
 22/07/2015 06h46 24,91013,5720,0
 22/07/2015 05h46 20,91012,8840,0
 22/07/2015 04h46 21,41012,4830,0
 22/07/2015 03h46 22,41012,3800,0
 22/07/2015 02h46 23,51012,7770,0
 22/07/2015 01h46 24,81012,7770,0
 22/07/2015 00h46 251012,8750,0
 21/07/2015 23h46 25,51012700,0
 21/07/2015 22h46 26,41011,5630,0
 21/07/2015 21h46 28,11011,4540,0
 21/07/2015 20h46 30,21011,2460,0
 21/07/2015 19h46 32,81010,7410,0
 21/07/2015 18h46 35,91010,5330,0
 21/07/2015 17h46 42,91009,9210,0
 21/07/2015 16h46 44,81010,2170,0
 21/07/2015 15h46 44,81010,4200,0
 21/07/2015 14h46 45,31010,7210,0
 21/07/2015 13h46 41,61011,5270,0
 21/07/2015 12h46 39,21011,9310,0
 21/07/2015 11h46 37,51012,6350,0
 21/07/2015 10h46 36,81012,9360,0
 21/07/2015 09h46 34,31013,1400,0
 21/07/2015 08h46 32,51013,3470,0
 21/07/2015 07h46 29,11013,4550,0
 21/07/2015 06h46 24,41013,4680,0
 21/07/2015 05h46 17,81013,4860,0
 21/07/2015 04h46 18,41013,1810,0
 21/07/2015 03h46 19,91013,1770,0
 21/07/2015 02h46 20,91013730,0
 21/07/2015 01h46 21,61013,4710,0
 21/07/2015 00h46 22,61013,7680,0
 20/07/2015 23h46 23,81013,8640,0
 20/07/2015 22h46 25,31013,7590,0
 20/07/2015 21h46 26,91013,2530,0
 20/07/2015 20h46 29,21012,7470,0
 20/07/2015 19h46 34,81012,2370,0
 20/07/2015 18h46 37,61011,9320,0
 20/07/2015 17h46 39,31011,7290,0
 20/07/2015 16h46 40,61011,9280,0
 20/07/2015 15h46 41,91012,5260,0
 20/07/2015 14h46 40,11012,9280,0
 20/07/2015 13h46 38,31013,5310,0
 20/07/2015 12h46 37,11013,9330,0
 20/07/2015 11h46 35,31014,2350,0
 20/07/2015 10h46 34,41014,5370,0
 20/07/2015 09h46 34,31014,7390,0
 20/07/2015 08h46 32,11014,6460,0
 20/07/2015 07h46 28,91014,7560,0
 20/07/2015 06h46 23,81014,6730,0
 20/07/2015 05h46 16,91014,3870,0
 20/07/2015 04h46 17,31013,8860,0
 20/07/2015 03h46 18,11013,9840,0
 20/07/2015 02h46 18,51013,9820,0
 20/07/2015 01h46 19,11014800,0
 20/07/2015 00h46 20,11014,1750,0
 19/07/2015 23h46 20,91014,3710,0
 19/07/2015 22h46 22,41014,3660,0
 19/07/2015 21h46 23,81014,1610,0
 19/07/2015 20h46 25,61013,7560,0
 19/07/2015 19h46 31,11013,5430,0
 19/07/2015 18h46 33,91013,1360,0
 19/07/2015 17h46 35,61013340,0
 19/07/2015 16h46 35,91013,4360,0
 19/07/2015 15h46 38,41013,6330,0
 19/07/2015 14h46 37,41014360,0
 19/07/2015 13h46 32,61014,6450,0
 19/07/2015 12h46 32,31014,9470,0
 19/07/2015 11h46 29,21015,4540,0
 19/07/2015 10h46 28,61015,5570,0
 19/07/2015 09h46 26,11015660,0
 19/07/2015 08h46 24,61014,9740,0
 19/07/2015 07h46 25,31014,6670,0
 19/07/2015 06h46 23,31014,2800,0
 19/07/2015 05h46 19,31014880,0
 19/07/2015 04h46 19,51013,7870,0
 19/07/2015 03h46 19,91013,7870,0
 19/07/2015 02h46 20,11013,7860,0
 19/07/2015 01h46 20,51013,8850,0
 19/07/2015 00h46 21,21014,1841,0
 18/07/2015 23h46 21,61014801,0
 18/07/2015 22h46 26,11012,7610,0
 18/07/2015 21h46 26,21011,4550,0
 18/07/2015 20h46 29,31010,4490,0
 18/07/2015 19h46 32,91009,7420,0
 18/07/2015 18h46 38,11009,1330,0
 18/07/2015 17h46 40,81009,2320,0
 18/07/2015 16h46 41,11010340,0
 18/07/2015 15h46 45,11010,8290,0
 18/07/2015 14h46 41,61011,8340,0
 18/07/2015 13h46 40,11012,5370,0
 18/07/2015 12h46 36,91013,7420,0
 18/07/2015 11h46 36,11014,3420,0
 18/07/2015 10h46 36,91013,6410,0
 18/07/2015 09h46 35,81012,7440,0
 18/07/2015 08h46 32,91013,5520,0
 18/07/2015 07h46 28,11013,1620,0
 18/07/2015 06h46 22,21014810,0
 18/07/2015 05h46 21,41013,6840,0
 18/07/2015 04h46 22,11013,9790,0
 18/07/2015 03h46 22,41014,3780,0
 18/07/2015 02h46 22,81015,3740,0
 18/07/2015 01h46 23,41015,2730,0
 18/07/2015 00h46 22,81015,1740,0
 17/07/2015 23h46 26,51016,8640,0
 17/07/2015 22h46 27,31016,8650,0
 17/07/2015 21h46 28,11015,7620,0
 17/07/2015 20h46 29,31014,8570,0
 17/07/2015 19h46 33,61014410,0
 17/07/2015 18h46 37,31012,6380,0
 17/07/2015 17h46 41,71012,2300,0
 17/07/2015 16h46 43,51012,3280,0
 17/07/2015 15h46 45,31012,7270,0
 17/07/2015 14h46 46,61013,1270,0
 17/07/2015 13h46 41,21013,7330,0
 17/07/2015 12h46 39,91014,3340,0
 17/07/2015 11h46 38,61014,4360,0
 17/07/2015 10h46 35,61014,8410,0
 17/07/2015 09h46 33,31014,9470,0
 17/07/2015 08h46 31,21015,3530,0
 17/07/2015 07h46 27,81015,2630,0
 17/07/2015 06h46 21,81015,4830,0
 17/07/2015 05h46 19,21014,8890,0
 17/07/2015 04h46 18,81014,5860,0
 17/07/2015 03h46 19,81014,4800,0
 17/07/2015 02h46 21,11014750,0
 17/07/2015 01h46 22,61014,1700,0
 17/07/2015 00h46 24,41013,2620,0
 16/07/2015 23h46 24,71013,4630,0
 16/07/2015 22h46 25,31014,6620,0
 16/07/2015 21h46 26,11014,9570,0
 16/07/2015 20h46 27,61014,3500,0
 16/07/2015 19h46 301013,4360,0
 16/07/2015 18h46 34,21011,3300,0
 16/07/2015 17h46 35,41010,8290,0
 16/07/2015 16h46 36,31011,1260,0
 16/07/2015 15h46 40,11010,6220,0
 16/07/2015 14h46 421010,5180,0
 16/07/2015 13h46 41,61010,8180,0
 16/07/2015 12h46 39,81011,3180,0
 16/07/2015 11h46 38,61011,8220,0
 16/07/2015 10h46 38,71011,7280,0
 16/07/2015 09h46 36,11012330,0
 16/07/2015 08h46 31,41012,5400,0
 16/07/2015 07h46 24,51012,5520,0
 16/07/2015 06h46 20,51012,4650,0
 16/07/2015 05h46 16,91012,3740,0
 16/07/2015 04h46 16,11012,1710,0
 16/07/2015 03h46 16,91012,1710,0
 16/07/2015 02h46 17,51012,3710,0
 16/07/2015 01h46 18,41012,5670,0
 16/07/2015 00h46 19,71012,7640,0
 15/07/2015 23h46 20,41013590,0
 15/07/2015 22h46 22,71013,1550,0
 15/07/2015 21h46 24,61013490,0
 15/07/2015 20h46 28,41012,4400,0
 15/07/2015 19h46 33,81012310,0
 15/07/2015 18h46 41,61012,1210,0
 15/07/2015 17h46 42,81012,6190,0
 15/07/2015 16h46 41,91013220,0
 15/07/2015 15h46 43,61013,5210,0
 15/07/2015 14h46 41,51014,3240,0
 15/07/2015 13h46 38,41014,8280,0
 15/07/2015 12h46 36,91015,4310,0
 15/07/2015 11h46 36,91016,2330,0
 15/07/2015 10h46 33,51016,4400,0
 15/07/2015 09h46 30,51016,6440,0
 15/07/2015 08h46 26,91016,7530,0
 15/07/2015 07h46 25,31016,9590,0
 15/07/2015 06h46 20,91016,7730,0
 15/07/2015 05h46 151016,4870,0
 15/07/2015 04h46 15,21016,2840,0
 15/07/2015 03h46 15,91016,4810,0
 15/07/2015 02h46 17,31016,5750,0
 15/07/2015 01h46 18,91016,8710,0
 15/07/2015 00h46 20,21017,2650,0
 14/07/2015 23h46 22,31017,5610,0
 14/07/2015 22h46 23,21017,5580,0
 14/07/2015 21h46 24,21017540,0
 14/07/2015 20h46 26,41016,3470,0
 14/07/2015 19h46 31,41015,9380,0
 14/07/2015 18h46 33,41015,9340,0
 14/07/2015 17h46 36,31016,1300,0
 14/07/2015 16h46 37,11016,6290,0
 14/07/2015 15h46 37,61017270,0
 14/07/2015 14h46 38,21017,4260,0
 14/07/2015 13h46 34,61018300,0
 14/07/2015 12h46 32,81018,6310,0
 14/07/2015 11h46 33,11018,9310,0
 14/07/2015 10h46 30,21019,3350,0
 14/07/2015 09h46 28,61019,4460,0
 14/07/2015 08h46 25,91019,7520,0
 14/07/2015 07h46 23,21019,7590,0
 14/07/2015 06h46 20,21019,4690,0
 14/07/2015 05h46 14,91019,1850,0
 14/07/2015 04h46 13,51018,8810,0
 14/07/2015 03h46 14,41018,6770,0
 14/07/2015 02h46 16,31018,9700,0
 14/07/2015 01h46 17,61019,1660,0
 14/07/2015 00h46 18,91019600,0
 13/07/2015 23h46 20,81018,9550,0
 13/07/2015 22h46 21,41018,8550,0
 13/07/2015 21h46 22,41018,6520,0
 13/07/2015 20h46 24,51017,9450,0
 13/07/2015 19h46 30,41017,6340,0
 13/07/2015 18h46 32,91017,3310,0
 13/07/2015 17h46 34,31017,2270,0
 13/07/2015 16h46 34,61017,6270,0
 13/07/2015 15h46 36,61017,9240,0
 13/07/2015 14h46 36,31018,4230,0
 13/07/2015 13h46 33,91018,7260,0
 13/07/2015 12h46 31,91019,3260,0
 13/07/2015 11h46 31,41019,6260,0
 13/07/2015 10h46 29,61019,9340,0
 13/07/2015 09h46 28,91020,1440,0
 13/07/2015 08h46 24,71020,3530,0
 13/07/2015 07h46 21,91020600,0
 13/07/2015 06h46 17,81019,6740,0
 13/07/2015 05h46 13,41019,2830,0
 13/07/2015 04h46 13,31019,1790,0
 13/07/2015 03h46 14,11019,1760,0
 13/07/2015 02h46 15,21019,1710,0
 13/07/2015 01h46 17,21019,5670,0
 13/07/2015 00h46 18,11019,3620,0
 12/07/2015 23h46 18,41019,5600,0
 12/07/2015 22h46 19,91019,4550,0
 12/07/2015 21h46 21,91019,3490,0
 12/07/2015 20h46 23,51018,5470,0
 12/07/2015 19h46 29,61018,1360,0
 12/07/2015 18h46 32,61017,6330,0
 12/07/2015 17h46 33,91017,5320,0
 12/07/2015 16h46 33,61017,8350,0
 12/07/2015 15h46 34,51018,1330,0
 12/07/2015 14h46 34,31018,6330,0
 12/07/2015 13h46 33,21018,9350,0
 12/07/2015 12h46 31,11019,3400,0
 12/07/2015 11h46 30,91019,8410,0
 12/07/2015 10h46 27,11020,1510,0
 12/07/2015 09h46 24,11020,3600,0
 12/07/2015 08h46 21,11020680,0
 12/07/2015 07h46 20,11019,9700,0
 12/07/2015 06h46 211019,3690,0
 12/07/2015 05h46 16,81018,8830,0
 12/07/2015 04h46 16,61018,5820,0
 12/07/2015 03h46 17,51018,6800,0
 12/07/2015 02h46 18,31018,6800,0
 12/07/2015 01h46 18,91018,7790,0
 12/07/2015 00h46 19,81019,2760,0
 11/07/2015 23h46 20,81019,1710,0
 11/07/2015 22h46 21,31019,1670,0
 11/07/2015 21h46 21,91019,1640,0
 11/07/2015 20h46 23,91018,6580,0
 11/07/2015 19h46 28,41018,4470,0
 11/07/2015 18h46 31,11018,4420,0
 11/07/2015 17h46 32,51018,2390,0
 11/07/2015 16h46 32,81018,3400,0
 11/07/2015 15h46 32,91019390,0
 11/07/2015 14h46 32,81019,2390,0
 11/07/2015 13h46 33,11019,6370,0
 11/07/2015 12h46 29,91020,2440,0
 11/07/2015 11h46 28,21020,7480,0
 11/07/2015 10h46 25,51021570,0
 11/07/2015 09h46 24,41020,9610,0
 11/07/2015 08h46 21,61021,1720,0
 11/07/2015 07h46 20,51021750,0
 11/07/2015 06h46 20,31020,4720,0
 11/07/2015 05h46 20,21020720,0
 11/07/2015 04h46 20,41019,7710,0
 11/07/2015 03h46 20,61019,3700,0
 11/07/2015 02h46 211018,8690,0
 11/07/2015 01h46 21,21018,3720,0
 11/07/2015 00h46 21,11018730,0
 10/07/2015 23h46 21,61017,4710,0
 10/07/2015 22h46 24,21016,1460,0
 10/07/2015 21h46 25,11013,9440,0
 10/07/2015 20h46 27,71013,1350,0
 10/07/2015 19h46 35,21012,2240,0
 10/07/2015 18h46 38,51011,4200,0
 10/07/2015 17h46 40,61011190,0
 10/07/2015 16h46 41,61011,1170,0
 10/07/2015 15h46 42,11011,2140,0
 10/07/2015 14h46 42,91011,7140,0
 10/07/2015 13h46 39,91012,1160,0
 10/07/2015 12h46 371012,6190,0
 10/07/2015 11h46 35,81013230,0
 10/07/2015 10h46 33,91013,3280,0
 10/07/2015 09h46 31,41013,8300,0
 10/07/2015 08h46 27,21014,2400,0
 10/07/2015 07h46 24,71014,6480,0
 10/07/2015 06h46 20,81014,6610,0
 10/07/2015 05h46 11,91014,6870,0
 10/07/2015 04h46 11,81014,8840,0
 10/07/2015 03h46 12,81015,1800,0
 10/07/2015 02h46 13,81015,8760,0
 10/07/2015 01h46 14,91016,3720,0
 10/07/2015 00h46 16,51016,4650,0
 09/07/2015 23h46 18,51016,5580,0
 09/07/2015 22h46 19,81016,7540,0
 09/07/2015 21h46 21,41016,6500,0
 09/07/2015 20h46 23,31016,2440,0
 09/07/2015 19h46 29,51015,9330,0
 09/07/2015 18h46 31,81015,9290,0
 09/07/2015 17h46 32,11016300,0
 09/07/2015 16h46 32,81016,4300,0
 09/07/2015 15h46 33,21016,9300,0
 09/07/2015 14h46 33,21017,5300,0
 09/07/2015 13h46 29,91018,2350,0
 09/07/2015 12h46 28,21018,9380,0
 09/07/2015 11h46 271019,6400,0
 09/07/2015 10h46 26,21019,7410,0
 09/07/2015 09h46 24,21019,7440,0
 09/07/2015 08h46 22,61019,8500,0
 09/07/2015 07h46 22,41019,7540,0
 09/07/2015 06h46 201019,5590,0
 09/07/2015 05h46 14,61019,1750,0
 09/07/2015 04h46 14,91018,9730,0
 09/07/2015 03h46 14,21018,5740,0
 09/07/2015 02h46 15,11018,7690,0
 09/07/2015 01h46 17,21019640,0
 09/07/2015 00h46 17,21019640,0
 08/07/2015 23h46 17,91019620,0
 08/07/2015 22h46 17,41018,7600,0
 08/07/2015 21h46 19,31018,2540,0
 08/07/2015 20h46 21,71017,4480,0
 08/07/2015 19h46 27,11017370,0
 08/07/2015 18h46 28,51016,9340,0
 08/07/2015 17h46 30,51016,6320,0
 08/07/2015 16h46 30,91016,6330,0
 08/07/2015 15h46 30,21017,1360,0
 08/07/2015 14h46 27,31017,5430,0
 08/07/2015 13h46 291017,9400,0
 08/07/2015 12h46 25,41018,3500,0
 08/07/2015 11h46 25,31018,6550,0
 08/07/2015 10h46 23,11018,2580,0
 08/07/2015 09h46 23,21018600,0
 08/07/2015 08h46 20,61017,8730,0
 08/07/2015 07h46 20,31017,5790,0
 08/07/2015 06h46 18,91017,3870,0
 08/07/2015 05h46 18,11016,8890,0
 08/07/2015 04h46 19,81016,4790,0
 08/07/2015 03h46 20,51016,5760,0
 08/07/2015 02h46 20,81016,4750,0
 08/07/2015 01h46 20,91016,1740,0
 08/07/2015 00h46 22,11016,2690,0
 07/07/2015 23h46 22,91016,1670,0
 07/07/2015 22h46 23,91015,7660,0
 07/07/2015 21h46 24,71015,2640,0
 07/07/2015 20h46 26,31014,4600,0
 07/07/2015 19h46 30,31013,8510,0
 07/07/2015 18h46 33,51013,4460,0
 07/07/2015 17h46 36,51013,1400,0
 07/07/2015 16h46 37,91013,1360,0
 07/07/2015 15h46 39,91013,1340,0
 07/07/2015 14h46 41,11012,9340,0
 07/07/2015 13h46 37,91012,9390,0
 07/07/2015 12h46 36,91013410,0
 07/07/2015 11h46 371012,9410,0
 07/07/2015 10h46 36,21012,6430,0
 07/07/2015 09h46 34,81012,7470,0
 07/07/2015 08h46 32,61012,7540,0
 07/07/2015 07h46 30,51012,5590,0
 07/07/2015 06h46 25,61012,4730,0
 07/07/2015 05h46 21,81012,1850,0
 07/07/2015 04h46 20,91011,6860,0
 07/07/2015 03h46 21,81011,6840,0
 07/07/2015 02h46 22,71011,6810,0
 07/07/2015 01h46 23,41012,1780,0
 07/07/2015 00h46 24,41012,7750,0
 06/07/2015 23h46 25,41012,6700,0
 06/07/2015 22h46 26,61012,6660,0
 06/07/2015 21h46 28,51012,6600,0
 06/07/2015 20h46 31,51012,3520,0
 06/07/2015 19h46 38,11012,2380,0
 06/07/2015 18h46 42,51012,5300,0
 06/07/2015 17h46 44,91012,6270,0
 06/07/2015 16h46 44,71012,7270,0
 06/07/2015 15h46 44,81013,3270,0
 06/07/2015 14h46 44,41013,8280,0
 06/07/2015 13h46 43,91014,2290,0
 06/07/2015 12h46 40,21014,8340,0
 06/07/2015 11h46 38,31015,3370,0
 06/07/2015 10h46 38,21016360,0
 06/07/2015 09h46 34,71016,3430,0
 06/07/2015 08h46 31,61017480,0
 06/07/2015 07h46 27,91017,3560,0
 06/07/2015 06h46 24,31017,5670,0
 06/07/2015 05h46 19,11017,5810,0
 06/07/2015 04h46 191017,6800,0
 06/07/2015 03h46 20,11017,5780,0
 06/07/2015 02h46 20,81017,8760,0
 06/07/2015 01h46 21,61018,2730,0
 06/07/2015 00h46 22,61018,6710,0
 05/07/2015 23h46 23,61018,5680,0
 05/07/2015 22h46 24,61018,2660,0
 05/07/2015 21h46 25,91017,8640,0
 05/07/2015 20h46 27,31017610,0
 05/07/2015 19h46 29,91016,6550,0
 05/07/2015 18h46 331016,3460,0
 05/07/2015 17h46 36,31016,1400,0
 05/07/2015 16h46 39,11016350,0
 05/07/2015 15h46 38,21016,1370,0
 05/07/2015 14h46 39,21016350,0
 05/07/2015 13h46 38,31015,9360,0
 05/07/2015 12h46 36,11016400,0
 05/07/2015 11h46 35,41015,9410,0
 05/07/2015 10h46 34,51015,5400,0
 05/07/2015 09h46 34,11014,8430,0
 05/07/2015 08h46 31,41014,1520,0
 05/07/2015 07h46 26,91013,8650,0
 05/07/2015 06h46 21,81013,5810,0
 05/07/2015 05h46 19,31013,3850,0
 05/07/2015 04h46 18,81013,1830,0
 05/07/2015 03h46 19,91013,3790,0
 05/07/2015 02h46 211013,8770,0
 05/07/2015 01h46 21,41014,6770,0
 05/07/2015 00h46 22,41015720,0
 04/07/2015 23h46 23,81015670,0
 04/07/2015 22h46 25,51015,5630,0
 04/07/2015 21h46 27,31015,8570,0
 04/07/2015 20h46 30,31015,2500,0
 04/07/2015 19h46 36,61015,3370,0
 04/07/2015 18h46 40,11015,5300,0
 04/07/2015 17h46 43,31015,8260,0
 04/07/2015 16h46 43,61016,3240,0
 04/07/2015 15h46 41,21017,1270,0
 04/07/2015 14h46 42,91017,6260,0
 04/07/2015 13h46 40,11018,2290,0
 04/07/2015 12h46 37,21018,7330,0
 04/07/2015 11h46 36,61019,3350,0
 04/07/2015 10h46 35,11019,6390,0
 04/07/2015 09h46 33,41020440,0
 04/07/2015 08h46 30,31019,9500,0
 04/07/2015 07h46 28,31019,6540,0
 04/07/2015 06h46 24,31019,3590,0
 04/07/2015 05h46 18,51018,4730,0
 04/07/2015 04h46 18,81017,4690,0
 04/07/2015 03h46 18,71016,5680,0
 04/07/2015 02h46 19,91016,2640,0
 04/07/2015 01h46 20,71015,9610,0
 04/07/2015 00h46 22,11015,9580,0
 03/07/2015 23h46 24,41016500,0
 03/07/2015 22h46 26,81015,7460,0
 03/07/2015 21h46 27,81015,4440,0
 03/07/2015 20h46 28,61014,6430,0
 03/07/2015 19h46 30,61014,5390,0
 03/07/2015 18h46 32,51014,3350,0
 03/07/2015 17h46 37,31014,3280,0
 03/07/2015 16h46 38,21014,5250,0
 03/07/2015 15h46 38,91014,7240,0
 03/07/2015 14h46 39,81014,8240,0
 03/07/2015 13h46 39,51015,4250,0
 03/07/2015 12h46 37,31016,2280,0
 03/07/2015 11h46 37,31016,7260,0
 03/07/2015 10h46 35,81016,5300,0
 03/07/2015 09h46 35,41017,1340,0
 03/07/2015 08h46 29,91017,3450,0
 03/07/2015 07h46 24,11017,3640,0
 03/07/2015 06h46 19,11017,4730,0
 03/07/2015 05h46 17,21017,4760,0
 03/07/2015 04h46 16,51017,7770,0
 03/07/2015 03h46 16,51018730,0
 03/07/2015 02h46 17,71018,3690,0
 03/07/2015 01h46 18,91018,9640,0
 03/07/2015 00h46 20,11019640,0
 02/07/2015 23h46 21,71019,4590,0
 02/07/2015 22h46 23,11020540,0
 02/07/2015 21h46 23,41019,7510,0
 02/07/2015 20h46 25,61019,2460,0
 02/07/2015 19h46 28,51018,8440,0
 02/07/2015 18h46 28,91018,4490,0
 02/07/2015 17h46 30,41018510,0
 02/07/2015 16h46 33,31018,4440,0
 02/07/2015 15h46 33,71018440,0
 02/07/2015 14h46 33,51017,9450,0
 02/07/2015 13h46 29,61017,7520,0
 02/07/2015 12h46 29,11017,1450,0
 02/07/2015 11h46 33,91016,4350,0
 02/07/2015 10h46 32,61015,7360,0
 02/07/2015 09h46 32,11015350,0
 02/07/2015 08h46 30,91014,9340,0
 02/07/2015 07h46 28,71014,5350,0
 02/07/2015 06h46 28,31014340,0
 02/07/2015 05h46 24,41013,6370,0
 02/07/2015 04h46 23,91012,9370,0
 02/07/2015 03h46 23,91012,6370,0
 02/07/2015 02h46 251012,1370,0
 02/07/2015 01h46 24,61012,6380,0
 02/07/2015 00h46 25,31012,6390,0
 01/07/2015 23h46 24,91012,5420,0
 01/07/2015 22h46 25,11012,8420,0
 01/07/2015 21h46 25,61012,7450,0
 01/07/2015 20h46 27,11012,4430,0
 01/07/2015 19h46 30,61012,2360,0
 01/07/2015 18h46 33,91012,2330,0
 01/07/2015 17h46 35,51012,1330,0
 01/07/2015 16h46 36,21012,1320,0
 01/07/2015 15h46 37,11012,4290,0
 01/07/2015 14h46 38,91012,7270,0
 01/07/2015 13h46 37,81012,6290,0
 01/07/2015 12h46 36,11012,7320,0
 01/07/2015 11h46 35,61012,6310,0
 01/07/2015 10h46 34,11012,4310,0
 01/07/2015 09h46 33,51012,1320,0
 01/07/2015 08h46 31,71011,9340,0
 01/07/2015 07h46 29,51011,6380,0
 01/07/2015 06h46 26,21011,2440,0
 01/07/2015 05h46 241011,2480,0
 01/07/2015 04h46 24,11010,9480,0
 01/07/2015 03h46 20,21011,1580,0
 01/07/2015 02h46 20,11011590,0
 01/07/2015 01h46 20,61011,1600,0
 01/07/2015 00h46 21,81011,6560,0
 30/06/2015 23h46 221011,9550,0
 30/06/2015 22h46 24,21012480,0
 30/06/2015 21h46 25,41012,1450,0
 30/06/2015 20h46 27,61011,8400,0
 30/06/2015 19h46 31,91011,7340,0
 30/06/2015 18h46 36,91011,4290,0
 30/06/2015 17h46 36,11011,1290,0
 30/06/2015 16h46 38,71011,3280,0
 30/06/2015 15h46 40,31011,5270,0
 30/06/2015 14h46 41,81011,7240,0
 30/06/2015 13h46 39,31012,2270,0
 30/06/2015 12h46 38,31012,6280,0
 30/06/2015 11h46 36,91013270,0
 30/06/2015 10h46 36,41012,9290,0
 30/06/2015 09h46 35,91013300,0
 30/06/2015 08h46 34,11013,2410,0
 30/06/2015 07h46 27,91013,3510,0
 30/06/2015 06h46 23,41013,5640,0
 30/06/2015 05h46 171013,5850,0
 30/06/2015 04h46 15,51013,5850,0
 30/06/2015 03h46 16,41013,5840,0
 30/06/2015 02h46 16,61014,1830,0
 30/06/2015 01h46 17,51014,3800,0
 30/06/2015 00h46 18,51014,9760,0
 29/06/2015 23h46 20,51015,3700,0
 29/06/2015 22h46 21,81015,5640,0
 29/06/2015 21h46 24,51015,7560,0
 29/06/2015 20h46 29,71015,2430,0
 29/06/2015 19h46 38,11015,1290,0
 29/06/2015 18h46 39,61015,2260,0
 29/06/2015 17h46 41,71015,6240,0
 29/06/2015 16h46 41,61016240,0
 29/06/2015 15h46 41,11016,6240,0
 29/06/2015 14h46 41,51017,1250,0
 29/06/2015 13h46 39,81017,8280,0
 29/06/2015 12h46 35,91018,6340,0
 29/06/2015 11h46 36,41019340,0
 29/06/2015 10h46 34,11019,3390,0
 29/06/2015 09h46 32,81019,5420,0
 29/06/2015 08h46 29,61019,8500,0
 29/06/2015 07h46 27,41019,5550,0
 29/06/2015 06h46 24,11019,3660,0
 29/06/2015 05h46 17,61019870,0
 29/06/2015 04h46 15,61019860,0
 29/06/2015 03h46 15,51018,9800,0
 29/06/2015 02h46 16,21018,9750,0
 29/06/2015 01h46 17,21018,8730,0
 29/06/2015 00h46 18,81018,8660,0
 28/06/2015 23h46 20,41018,8600,0
 28/06/2015 22h46 21,91018,6540,0
 28/06/2015 21h46 23,91018,2460,0
 28/06/2015 20h46 26,61017,5390,0
 28/06/2015 19h46 34,11017260,0
 28/06/2015 18h46 36,61016,6240,0
 28/06/2015 17h46 37,41016,2230,0
 28/06/2015 16h46 38,31016,1220,0
 28/06/2015 15h46 37,31016,2240,0
 28/06/2015 14h46 38,81016,6230,0
 28/06/2015 13h46 37,81016,8250,0
 28/06/2015 12h46 35,31016,8290,0
 28/06/2015 11h46 34,51017,1320,0
 28/06/2015 10h46 32,91017,5340,0
 28/06/2015 09h46 32,81017,4420,0
 28/06/2015 08h46 29,81017,6470,0
 28/06/2015 07h46 26,51017,5560,0
 28/06/2015 06h46 22,11017,3690,0
 28/06/2015 05h46 14,91017,3920,0
 28/06/2015 04h46 13,31017,1890,0
 28/06/2015 03h46 14,11017,2880,0
 28/06/2015 02h46 14,91017,4860,0
 28/06/2015 01h46 15,91017,7820,0
 28/06/2015 00h46 17,61017,8770,0
 27/06/2015 23h46 18,41018,3740,0
 27/06/2015 22h46 19,81018,3690,0
 27/06/2015 21h46 21,41018,1630,0
 27/06/2015 20h46 24,31017,8530,0
 27/06/2015 19h46 30,61017,6390,0
 27/06/2015 18h46 32,61017,3340,0
 27/06/2015 17h46 33,31017,7340,0
 27/06/2015 16h46 33,91018350,0
 27/06/2015 15h46 32,31018,6400,0
 27/06/2015 14h46 30,91019430,0
 27/06/2015 13h46 30,41019,3450,0
 27/06/2015 12h46 28,91020490,0
 27/06/2015 11h46 26,31020,2550,0
 27/06/2015 10h46 24,61020,2590,0
 27/06/2015 09h46 22,31020,3650,0
 27/06/2015 08h46 21,91020,2660,0
 27/06/2015 07h46 20,51020,4700,0
 27/06/2015 06h46 22,41020680,0
 27/06/2015 05h46 17,51019,9820,0
 27/06/2015 04h46 17,61019,5820,0
 27/06/2015 03h46 17,31019770,0
 27/06/2015 02h46 18,51018,9730,0
 27/06/2015 01h46 20,31018,2700,0
 27/06/2015 00h46 21,31017,8680,0
 26/06/2015 23h46 19,91017,6570,0
 26/06/2015 22h46 21,41017480,0
 26/06/2015 21h46 23,31016,8450,0
 26/06/2015 20h46 27,21016,2350,0
 26/06/2015 19h46 36,31016230,0
 26/06/2015 18h46 38,61016190,0
 26/06/2015 17h46 39,51016,3180,0
 26/06/2015 16h46 40,61016,2140,0
 26/06/2015 15h46 40,41016,6160,0
 26/06/2015 14h46 42,91016,8160,0
 26/06/2015 13h46 39,91017,1190,0
 26/06/2015 12h46 37,41017,5240,0
 26/06/2015 11h46 37,81018,2240,0
 26/06/2015 10h46 34,51018,7310,0
 26/06/2015 09h46 33,81018,9320,0
 26/06/2015 08h46 29,91019,1390,0
 26/06/2015 07h46 251018,9520,0
 26/06/2015 06h46 19,21018,4670,0
 26/06/2015 05h46 12,61018,1870,0
 26/06/2015 04h46 11,71017,8850,0
 26/06/2015 03h46 12,81017,6830,0
 26/06/2015 02h46 14,11017,7780,0
 26/06/2015 01h46 14,71017,9730,0
 26/06/2015 00h46 16,21018,2700,0
 25/06/2015 23h46 16,91018,3580,0
 25/06/2015 22h46 18,71018,3510,0
 25/06/2015 21h46 21,21018,1450,0
 25/06/2015 20h46 25,51017,6360,0
 25/06/2015 19h46 30,61017,3280,0
 25/06/2015 18h46 35,41017,2230,0
 25/06/2015 17h46 38,41017,2200,0
 25/06/2015 16h46 39,41017,5190,0
 25/06/2015 15h46 38,91017,8220,0
 25/06/2015 14h46 40,91017,9200,0
 25/06/2015 13h46 37,81018,3240,0
 25/06/2015 12h46 36,81018,6240,0
 25/06/2015 11h46 36,31019,1220,0
 25/06/2015 10h46 33,21019,3280,0
 25/06/2015 09h46 31,81019,4320,0
 25/06/2015 08h46 28,11019,6410,0
 25/06/2015 07h46 21,91019,2550,0
 25/06/2015 06h46 19,61019630,0
 25/06/2015 05h46 13,41018,4850,0
 25/06/2015 04h46 11,31018,1850,0
 25/06/2015 03h46 12,41018,1810,0
 25/06/2015 02h46 12,41018,2800,0
 25/06/2015 01h46 13,21018,1760,0
 25/06/2015 00h46 14,51018,1690,0
 24/06/2015 23h46 15,51017,9610,0
 24/06/2015 22h46 171017,8560,0
 24/06/2015 21h46 19,61017,5470,0
 24/06/2015 20h46 24,41016,7360,0
 24/06/2015 19h46 32,61016,1250,0
 24/06/2015 18h46 35,11015,7210,0
 24/06/2015 17h46 36,11015,3200,0
 24/06/2015 16h46 37,51015,3200,0
 24/06/2015 15h46 36,81015,5210,0
 24/06/2015 14h46 37,31015,8220,0
 24/06/2015 13h46 34,41016240,0
 24/06/2015 12h46 31,81016,3270,0
 24/06/2015 11h46 30,91016,5310,0
 24/06/2015 10h46 29,91016,6360,0
 24/06/2015 09h46 27,91016,6400,0
 24/06/2015 08h46 25,91016,5440,0
 24/06/2015 07h46 23,51016,3530,0
 24/06/2015 06h46 19,81015,9670,0
 24/06/2015 05h46 12,41015,5920,0
 24/06/2015 04h46 10,41015880,0
 24/06/2015 03h46 11,21014,9870,0
 24/06/2015 02h46 11,81014,8840,0
 24/06/2015 01h46 131014,7820,0
 24/06/2015 00h46 14,81014,6750,0
 23/06/2015 23h46 16,11014,5720,0
 23/06/2015 22h46 16,91014,2710,0
 23/06/2015 21h46 18,81014640,0
 23/06/2015 20h46 21,81013,4560,0
 23/06/2015 19h46 25,81012,7460,0
 23/06/2015 18h46 29,61012380,0
 23/06/2015 17h46 30,61011,5350,0
 23/06/2015 16h46 32,51011,4280,0
 23/06/2015 15h46 32,21011,5280,0
 23/06/2015 14h46 33,71011,8240,0
 23/06/2015 13h46 32,31012,1240,0
 23/06/2015 12h46 29,11012,4270,0
 23/06/2015 11h46 30,11012,7300,0
 23/06/2015 10h46 27,91012,7340,0
 23/06/2015 09h46 271012,6370,0
 23/06/2015 08h46 25,11012,5410,0
 23/06/2015 07h46 23,81012,4450,0
 23/06/2015 06h46 21,91012,1510,0
 23/06/2015 05h46 16,61011,7660,0
 23/06/2015 04h46 16,31011,7650,0
 23/06/2015 03h46 18,41011,6630,0
 23/06/2015 02h46 19,51011,4670,0
 23/06/2015 01h46 19,91010,8670,0
 23/06/2015 00h46 191010,6700,0
 22/06/2015 23h46 20,11010,5660,0
 22/06/2015 22h46 21,51010,1640,0
 22/06/2015 21h46 23,61009,4540,0
 22/06/2015 20h46 27,61009440,0
 22/06/2015 19h46 34,41008,8320,0
 22/06/2015 18h46 36,21008,7260,0
 22/06/2015 17h46 38,91008,6230,0
 22/06/2015 16h46 41,31009210,0
 22/06/2015 15h46 40,51009,5230,0
 22/06/2015 14h46 42,51010,1210,0
 22/06/2015 13h46 39,91010,7250,0
 22/06/2015 12h46 36,91011,4280,0
 22/06/2015 11h46 35,61012320,0
 22/06/2015 10h46 33,61012,5360,0
 22/06/2015 09h46 32,81013400,0
 22/06/2015 08h46 30,11013,3460,0
 22/06/2015 07h46 25,11013,5570,0
 22/06/2015 06h46 20,41013,7710,0
 22/06/2015 05h46 14,61013,7920,0
 22/06/2015 04h46 13,31013,8900,0
 22/06/2015 03h46 13,71014,1880,0
 22/06/2015 02h46 14,71014,4850,0
 22/06/2015 01h46 15,51014,5820,0
 22/06/2015 00h46 16,41014,8770,0
 21/06/2015 23h46 17,21015,3740,0
 21/06/2015 22h46 19,21015,3660,0
 21/06/2015 21h46 21,51015,3580,0
 21/06/2015 20h46 25,41014,9460,0
 21/06/2015 19h46 32,31014,5340,0
 21/06/2015 18h46 34,91014,5300,0
 21/06/2015 17h46 35,51014,7290,0
 21/06/2015 16h46 36,31015,1290,0
 21/06/2015 15h46 361015,3290,0
 21/06/2015 14h46 38,41015,8250,0
 21/06/2015 13h46 36,11016,1290,0
 21/06/2015 12h46 32,91016,5320,0
 19/06/2015 16h46 27,51016,2510,0
 19/06/2015 15h46 27,61016,6520,0
 19/06/2015 14h46 28,21017530,0
 19/06/2015 13h46 26,31017,4600,0
 19/06/2015 12h46 23,61018710,0
 19/06/2015 11h46 19,51018,3860,0
 19/06/2015 10h46 17,11018,5890,0
 19/06/2015 09h46 17,61018,4840,0
 19/06/2015 08h46 16,91018,5850,0
 19/06/2015 07h46 16,21018,2850,0
 19/06/2015 06h46 15,91018,3840,0
 19/06/2015 05h46 15,71018,2820,0
 19/06/2015 04h46 15,91018,1820,0
 19/06/2015 03h46 16,51018810,0
 19/06/2015 02h46 17,41017,9770,0
 19/06/2015 01h46 18,51017,9760,0
 19/06/2015 00h46 19,21018,1760,0
 18/06/2015 23h46 19,61018,1740,0
 18/06/2015 22h46 201018,2710,0
 18/06/2015 21h46 20,61018,2690,0
 18/06/2015 20h46 21,41017,7650,0
 18/06/2015 19h46 23,21017,3600,0
 18/06/2015 18h46 27,11017,2500,0
 18/06/2015 17h46 27,51017,4480,0
 18/06/2015 16h46 27,91017,8470,0
 18/06/2015 15h46 29,81018,1440,0
 18/06/2015 14h46 281019460,0
 18/06/2015 13h46 28,61019,4460,0
 18/06/2015 12h46 27,61019,9460,0
 18/06/2015 11h46 27,21020,4500,0
 18/06/2015 10h46 26,41020,8540,0
 18/06/2015 09h46 23,31021,1630,0
 18/06/2015 08h46 19,91020,8690,0
 18/06/2015 07h46 211020,9660,0
 18/06/2015 06h46 16,21020,9800,0
 18/06/2015 05h46 13,41020,6870,0
 18/06/2015 04h46 12,21020,6860,0
 18/06/2015 03h46 12,81020,5830,0
 18/06/2015 02h46 13,91020,6800,0
 18/06/2015 01h46 14,91020,6770,0
 18/06/2015 00h46 15,51020,6740,0
 17/06/2015 23h46 16,11020,5730,0
 17/06/2015 22h46 17,21020,5690,0
 17/06/2015 21h46 17,81020,4660,0
 17/06/2015 20h46 19,61019,8590,0
 17/06/2015 19h46 25,81019,4430,0
 17/06/2015 18h46 27,51019,1400,0
 17/06/2015 17h46 27,81019,3390,0
 17/06/2015 16h46 25,41019,4440,0
 17/06/2015 15h46 26,71019,7430,0
 17/06/2015 14h46 29,21019,9410,0
 17/06/2015 13h46 26,41020,4470,0
 17/06/2015 12h46 24,81020,5520,0
 17/06/2015 11h46 24,81020,3510,0
 17/06/2015 10h46 23,21020,4630,0
 17/06/2015 09h46 22,41021650,0
 17/06/2015 07h46 151021,3890,0
 17/06/2015 06h46 13,81021,2910,0
 17/06/2015 05h46 12,81020,6920,0
 17/06/2015 04h46 12,81020,3910,0
 17/06/2015 03h46 12,61020920,0
 17/06/2015 02h46 12,91020,1930,0
 17/06/2015 01h46 14,61020,1940,0
 17/06/2015 00h46 15,11020940,0
 16/06/2015 23h46 15,31019,4930,0
 16/06/2015 22h46 15,61019,2930,0
 16/06/2015 21h46 16,41019920,0
 16/06/2015 20h46 17,21018,1900,0
 16/06/2015 19h46 18,31017,6860,0
 16/06/2015 18h46 18,31017,2880,0
 16/06/2015 17h46 19,11017860,0
 16/06/2015 16h46 20,41016,7830,0
 16/06/2015 15h46 20,41017850,0
 16/06/2015 14h46 18,21017,6891,0
 16/06/2015 13h46 17,21017,6910,0
 16/06/2015 12h46 16,61017,8921,0
 16/06/2015 11h46 15,81017,9920,0
 16/06/2015 10h46 15,71018921,0
 16/06/2015 09h46 15,31017,8921,0
 16/06/2015 07h46 15,31017,6880,0
 16/06/2015 06h46 14,81017,4890,0
 16/06/2015 05h46 15,41017,1880,0
 16/06/2015 02h46 16,11016,7880,0
 15/06/2015 20h46 21,21014,9540,0
 15/06/2015 19h46 27,11014420,0
 15/06/2015 18h46 28,41013,6390,0
 15/06/2015 17h46 28,41013,6410,0
 15/06/2015 16h46 26,91014450,0
 15/06/2015 15h46 28,11014,2470,0
 15/06/2015 14h46 27,31014,3480,0
 15/06/2015 12h46 25,91014,9560,0
 15/06/2015 10h46 22,81015,1630,0
 15/06/2015 08h46 21,61014,3700,0
 15/06/2015 07h46 18,91014810,0
 15/06/2015 06h46 15,21013,5930,0
 15/06/2015 05h46 14,31012,9930,0
 15/06/2015 04h46 14,51012,3930,0
 15/06/2015 03h46 13,91012,1930,0
 15/06/2015 02h46 13,41012,1920,0
 15/06/2015 01h46 13,91011,8920,0
 15/06/2015 00h46 15,21012910,0
 14/06/2015 23h46 15,41011,8910,0
 14/06/2015 22h46 15,81011,6901,0
 14/06/2015 21h46 16,31011,2861,0
 14/06/2015 20h46 19,81010,5720,0
 14/06/2015 19h46 22,11009,7620,0
 14/06/2015 18h46 24,31009,4540,0
 14/06/2015 17h46 28,81008,9470,0
 14/06/2015 16h46 27,41008,9490,0
 14/06/2015 15h46 26,41009530,0
 14/06/2015 14h46 26,61009,1540,0
 14/06/2015 13h46 25,91009,4580,0
 14/06/2015 12h46 24,31009,7600,0
 14/06/2015 11h46 25,51009,8580,0
 14/06/2015 10h46 20,41009,9740,0
 14/06/2015 09h46 18,11009,4830,0
 14/06/2015 08h46 17,41009840,0
 14/06/2015 07h46 16,41008,2920,0
 14/06/2015 06h46 16,51007,6930,0
 14/06/2015 05h46 16,11007930,0
 14/06/2015 04h46 15,61006,8930,0
 14/06/2015 03h46 15,61006,8930,0
 14/06/2015 02h46 15,61007,3930,0
 14/06/2015 01h46 15,61007,9924,0
 14/06/2015 00h46 15,81007,69111,0
 13/06/2015 23h46 16,61008,29115,0
 13/06/2015 22h46 17,51008,3880,0
 13/06/2015 21h46 18,51008,1820,0
 13/06/2015 20h46 19,51008760,0
 13/06/2015 19h46 20,91007770,0
 13/06/2015 18h46 22,61006,4710,0
 13/06/2015 17h46 24,61006,3620,0
 13/06/2015 16h46 26,91005,6540,0
 13/06/2015 15h46 30,41005,4480,0
 13/06/2015 14h46 30,91006,4450,0
 13/06/2015 13h46 331006,8460,0
 13/06/2015 12h46 30,71007,5520,0
 13/06/2015 11h46 29,91007,8520,0
 13/06/2015 10h46 29,61008,3560,0
 13/06/2015 09h46 27,41008,8600,0
 13/06/2015 08h46 23,41009750,0
 13/06/2015 07h46 17,61008,9920,0
 13/06/2015 06h46 15,61008,8930,0
 13/06/2015 05h46 15,31008,7940,0
 13/06/2015 04h46 14,71008,6930,0
 13/06/2015 03h46 14,61008,5930,0
 13/06/2015 02h46 14,71009920,0
 13/06/2015 01h46 15,11009,5920,0
 13/06/2015 00h46 15,21009,3910,0
 12/06/2015 23h46 16,51009,5910,0
 12/06/2015 22h46 16,41009,6890,0
 12/06/2015 21h46 18,21009,4850,0
 12/06/2015 20h46 19,31008,9840,0
 12/06/2015 19h46 21,51008,1790,0
 12/06/2015 18h46 23,41007,8720,0
 12/06/2015 17h46 26,91007,8650,0
 12/06/2015 16h46 24,61008690,0
 12/06/2015 15h46 29,31008620,0
 12/06/2015 14h46 20,91008,1840,0
 12/06/2015 13h46 19,81008,7873,0
 12/06/2015 12h46 18,61009,5891,0
 12/06/2015 11h46 18,51009,8852,0
 12/06/2015 10h46 20,51010,1770,0
 12/06/2015 09h46 23,31009,5720,0
 12/06/2015 08h46 18,91009,4880,0
 12/06/2015 07h46 16,51008,9920,0
 12/06/2015 06h46 16,41008,1930,0
 12/06/2015 05h46 15,91007,9930,0
 12/06/2015 04h46 15,81007,7920,0
 12/06/2015 03h46 16,61007,5920,0
 12/06/2015 02h46 17,11007,7921,0
 12/06/2015 01h46 17,41007,8900,0
 12/06/2015 00h46 17,81007,4900,0
 11/06/2015 23h46 17,81008871,0
 11/06/2015 22h46 18,81006,6812,0
 11/06/2015 21h46 17,81006,5822,0
 11/06/2015 20h46 23,81006,4490,0
 11/06/2015 19h46 24,61005,6460,0
 11/06/2015 18h46 26,11005,3440,0
 11/06/2015 17h46 28,51005,2410,0
 11/06/2015 16h46 31,91006,3360,0
 11/06/2015 15h46 31,31007,5380,0
 11/06/2015 14h46 33,51007,8350,0
 11/06/2015 13h46 33,31008,4360,0
 11/06/2015 12h46 31,61009,6430,0
 11/06/2015 11h46 30,31010,1450,0
 11/06/2015 10h46 29,71010,3460,0
 11/06/2015 09h46 30,31010,2470,0
 11/06/2015 08h46 27,91010,4500,0
 11/06/2015 07h46 25,91010,4570,0
 11/06/2015 06h46 22,81010,1660,0
 10/06/2015 22h46 20,91012700,0
 10/06/2015 21h46 20,81012690,0
 10/06/2015 20h46 21,81011,3670,0
 10/06/2015 19h46 24,31010,4580,0
 10/06/2015 18h46 27,51010,6510,0
 10/06/2015 17h46 27,81010,7520,0
 10/06/2015 16h46 27,81011,2530,0
 10/06/2015 15h46 26,41010,7580,0
 10/06/2015 14h46 29,81011,2490,0
 10/06/2015 13h46 29,51011,4490,0
 10/06/2015 12h46 29,51011,4490,0
 10/06/2015 11h46 31,11011,6450,0
 10/06/2015 10h46 29,31012,2480,0
 10/06/2015 09h46 21,91012,2640,0
 10/06/2015 08h46 23,11012,2620,0
 10/06/2015 07h46 19,91012,2700,0
 10/06/2015 06h46 18,81011,9760,0
 10/06/2015 05h46 17,21012800,0
 10/06/2015 04h46 17,21011,8800,0
 10/06/2015 03h46 17,21011,5760,0
 10/06/2015 02h46 18,51012,1720,0
 10/06/2015 01h46 19,41012,9750,0
 10/06/2015 00h46 19,51012,7750,0
 09/06/2015 23h46 20,31013730,0
 09/06/2015 22h46 20,91012,6700,0
 09/06/2015 21h46 21,11012,2690,0
 09/06/2015 20h46 21,91011,8650,0
 09/06/2015 19h46 24,51011,5580,0
 09/06/2015 18h46 25,61011,4550,0
 09/06/2015 17h46 28,31011,5460,0
 09/06/2015 16h46 35,11011,4310,0
 09/06/2015 15h46 34,51011,7330,0
 09/06/2015 14h46 36,21012,5330,0
 09/06/2015 13h46 32,91013,1400,0
 09/06/2015 12h46 31,71013,9430,0
 09/06/2015 11h46 29,81014,4470,0
 09/06/2015 10h46 27,91014,7530,0
 09/06/2015 09h46 25,31014,8610,0
 09/06/2015 08h46 22,61015690,0
 09/06/2015 07h46 19,11014,9810,0
 09/06/2015 06h46 18,31014,5900,0
 09/06/2015 05h46 15,11014,3920,0
 09/06/2015 04h46 14,81013,9920,0
 09/06/2015 03h46 15,31014920,0
 09/06/2015 02h46 15,81014,2910,0
 09/06/2015 01h46 15,91014,6900,0
 09/06/2015 00h46 16,91014,9880,0
 08/06/2015 23h46 17,51015860,0
 08/06/2015 22h46 17,61015,1860,0
 08/06/2015 21h46 18,31014,3860,0
 08/06/2015 20h46 19,21013,8842,0
 08/06/2015 19h46 20,11013,1812,0
 08/06/2015 18h46 24,91013,1560,0
 08/06/2015 17h46 30,11012,2410,0
 08/06/2015 16h46 36,31012,2320,0
 08/06/2015 15h46 37,11012,7310,0
 08/06/2015 14h46 38,11013,7300,0
 08/06/2015 13h46 37,11014,4320,0
 08/06/2015 12h46 34,91015,4370,0
 08/06/2015 11h46 34,41016380,0
 08/06/2015 10h46 31,41016,6420,0
 08/06/2015 09h46 30,81016,9470,0
 08/06/2015 08h46 29,31017,2510,0
 08/06/2015 07h46 25,81017,4590,0
 08/06/2015 06h46 21,71017,1710,0
 08/06/2015 05h46 15,81016,8920,0
 08/06/2015 04h46 14,41016,7900,0
 08/06/2015 03h46 15,41016,9880,0
 08/06/2015 02h46 15,61017,3850,0
 08/06/2015 01h46 17,61017,3800,0
 08/06/2015 00h46 18,61017,8790,0
 07/06/2015 23h46 19,81018,2780,0
 07/06/2015 22h46 19,81018,3760,0
 07/06/2015 21h46 19,91016,5781,0
 07/06/2015 20h46 19,41017,9761,0
 07/06/2015 19h46 28,21018,2410,0
 07/06/2015 18h46 35,31017,4390,0
 07/06/2015 17h46 35,91016,9370,0
 07/06/2015 16h46 40,91017,1290,0
 07/06/2015 15h46 40,81017,8290,0
 07/06/2015 14h46 40,41018,3280,0
 07/06/2015 13h46 391018,8320,0
 07/06/2015 12h46 36,81019,8360,0
 07/06/2015 11h46 35,61020,5370,0
 07/06/2015 10h46 31,91020,8430,0
 07/06/2015 09h46 30,91021440,0
 07/06/2015 08h46 27,11021,4510,0
 07/06/2015 07h46 24,81021,3570,0
 07/06/2015 06h46 21,81021,1680,0
 07/06/2015 05h46 16,31021,2840,0
 07/06/2015 04h46 16,61020,6820,0
 07/06/2015 03h46 17,61020,4810,0
 07/06/2015 02h46 18,41020,5790,0
 07/06/2015 01h46 20,21020,5740,0
 07/06/2015 00h46 20,21020,3690,0
 06/06/2015 23h46 20,91020,6670,0
 06/06/2015 22h46 21,91019,8620,0
 06/06/2015 21h46 22,91019,6590,0
 06/06/2015 20h46 24,91019,2550,0
 06/06/2015 19h46 31,21019420,0
 06/06/2015 18h46 34,31018,8370,0
 06/06/2015 17h46 36,51018,6330,0
 06/06/2015 16h46 37,51018,2320,0
 06/06/2015 15h46 37,11018,8320,0
 06/06/2015 14h46 37,81019,8310,0
 06/06/2015 13h46 34,91020,1350,0
 06/06/2015 12h46 30,81020,8410,0
 06/06/2015 11h46 30,11021,5430,0
 06/06/2015 10h46 27,91021,7490,0
 06/06/2015 09h46 21,51021,9630,0
 06/06/2015 08h46 20,41021,7670,0
 06/06/2015 07h46 18,51021,4720,0
 06/06/2015 06h46 171021,1760,0
 06/06/2015 05h46 16,51020,8790,0
 06/06/2015 04h46 17,11020,4790,0
 06/06/2015 03h46 17,81020,1790,0
 06/06/2015 02h46 18,61019,5800,0
 06/06/2015 01h46 19,51019,1780,0
 06/06/2015 00h46 211018,4660,0
 05/06/2015 23h46 20,41017,8490,0
 05/06/2015 22h46 21,81017,4460,0
 05/06/2015 21h46 231016,8410,0
 05/06/2015 20h46 25,31015,7360,0
 05/06/2015 19h46 31,11014,9280,0
 05/06/2015 18h46 37,71014,6220,0
 05/06/2015 17h46 38,81014,2200,0
 05/06/2015 16h46 39,81014,4190,0
 05/06/2015 15h46 39,61014,5190,0
 05/06/2015 14h46 41,51015190,0
 05/06/2015 13h46 38,71015,2200,0
 05/06/2015 12h46 37,31015,6220,0
 05/06/2015 11h46 36,91016230,0
 05/06/2015 10h46 34,91016,1280,0
 05/06/2015 09h46 32,41016,4370,0
 05/06/2015 08h46 27,81016,7470,0
 05/06/2015 07h46 25,21016,4530,0
 05/06/2015 06h46 23,51016540,0
 05/06/2015 05h46 17,41015,4720,0
 05/06/2015 04h46 15,91015,1710,0
 05/06/2015 03h46 16,61015680,0
 05/06/2015 02h46 16,21015,3710,0
 05/06/2015 01h46 17,11015,8680,0
 05/06/2015 00h46 18,41016590,0
 04/06/2015 23h46 21,11016,3510,0
 04/06/2015 22h46 23,21016,2460,0
 04/06/2015 21h46 23,21016490,0
 04/06/2015 20h46 25,71015,4430,0
 04/06/2015 19h46 32,31015,1330,0
 04/06/2015 18h46 34,11014,8310,0
 04/06/2015 17h46 36,71014,9280,0
 04/06/2015 16h46 37,51015,2260,0
 04/06/2015 15h46 38,81015,6260,0
 04/06/2015 14h46 41,41016,2230,0
 04/06/2015 13h46 39,61016,7240,0
 04/06/2015 12h46 37,51017,3290,0
 04/06/2015 11h46 37,51017,6300,0
 04/06/2015 10h46 37,31017,8330,0
 04/06/2015 09h46 34,71018,3390,0
 04/06/2015 08h46 31,61018,4470,0
 04/06/2015 07h46 28,11018,3570,0
 04/06/2015 06h46 23,61018,3700,0
 04/06/2015 01h46 18,51018,2820,0
 04/06/2015 00h46 19,61018,4780,0
 03/06/2015 23h46 20,71018,7740,0
 03/06/2015 22h46 22,51018,5670,0
 03/06/2015 21h46 24,41018,2610,0
 03/06/2015 20h46 27,71017,6500,0
 03/06/2015 19h46 34,91017,3350,0
 03/06/2015 18h46 38,81017300,0
 03/06/2015 17h46 40,11017270,0
 03/06/2015 16h46 40,31017,4250,0
 03/06/2015 15h46 39,11017,7280,0
 03/06/2015 14h46 41,31018,5270,0
 03/06/2015 13h46 37,91019,1320,0
 03/06/2015 12h46 36,11019,4370,0
 03/06/2015 11h46 35,31019,9390,0
 03/06/2015 10h46 31,91020,2450,0
 03/06/2015 09h46 31,11020,3470,0
 03/06/2015 08h46 28,11020,2540,0
 03/06/2015 07h46 26,41019,8570,0
 03/06/2015 06h46 23,51019,3680,0
 03/06/2015 05h46 15,51018,7900,0
 03/06/2015 04h46 14,41018,1880,0
 03/06/2015 03h46 15,31018870,0
 03/06/2015 02h46 15,81018,1850,0
 03/06/2015 01h46 16,81017,8810,0
 03/06/2015 00h46 17,81017,9770,0
 02/06/2015 23h46 191017,6730,0
 02/06/2015 22h46 20,81017,4660,0
 02/06/2015 21h46 23,11017,1570,0
 02/06/2015 20h46 26,11016,6500,0
 02/06/2015 19h46 33,61016,2340,0
 02/06/2015 18h46 36,61015,7290,0
 02/06/2015 17h46 38,31015,7250,0
 02/06/2015 16h46 39,41015,7260,0
 02/06/2015 15h46 39,21015,9260,0
 02/06/2015 14h46 42,11015,9230,0
 02/06/2015 13h46 37,81016,2290,0
 02/06/2015 12h46 33,61016,6360,0
 02/06/2015 11h46 33,21017,1390,0
 02/06/2015 10h46 32,31017,4400,0
 02/06/2015 09h46 30,81017,4460,0
 02/06/2015 08h46 27,81017,5520,0
 02/06/2015 07h46 24,71017,1600,0
 02/06/2015 06h46 21,11016,7710,0
 02/06/2015 03h46 35,11014,5320,0
 29/05/2015 10h32 19,21014,9640
 29/05/2015 09h32 17,31014,9690
 29/05/2015 08h32 17,91014,3650
 29/05/2015 07h32 15,81013,9730
 29/05/2015 06h32 8,21013880
 29/05/2015 05h32 8,51012,8860
 29/05/2015 04h32 9,31012,9840
 29/05/2015 03h32 10,41013800
 29/05/2015 02h32 11,31013,3770
 29/05/2015 01h32 12,21013,9740
 29/05/2015 00h32 13,31014660
 28/05/2015 23h32 151014,2600
 28/05/2015 22h32 17,21014,1540
 28/05/2015 21h32 21,81013,6400
 28/05/2015 20h32 29,71013,5260
 28/05/2015 19h32 32,71013,6220
 28/05/2015 18h32 34,11013,9200
 28/05/2015 17h32 33,81014,4230
 28/05/2015 15h32 35,81015,7230
 28/05/2015 14h32 31,81016,2280
 28/05/2015 13h32 29,41016,9310
 28/05/2015 12h32 27,91017,1330
 28/05/2015 11h32 27,81017,6380
 28/05/2015 10h32 26,21018,1400
 28/05/2015 09h32 22,61018480
 28/05/2015 08h32 18,81018600
 28/05/2015 07h32 12,61017,7810
 28/05/2015 06h32 5,91017,5890
 28/05/2015 05h32 6,91017,1880
 28/05/2015 04h32 7,21017,1860
 28/05/2015 03h32 8,11017,1840
 28/05/2015 02h32 9,41017,3790
 28/05/2015 01h32 11,21017,6730
 28/05/2015 00h32 12,41017,7650
 27/05/2015 23h32 14,51017,7580
 27/05/2015 22h32 15,91017,6530
 27/05/2015 21h32 18,51017,3460
 27/05/2015 20h32 25,61017,2320
 27/05/2015 19h32 27,51017,1290
 27/05/2015 18h32 29,91017,4260
 27/05/2015 17h32 28,61017,8270
 27/05/2015 16h32 29,91018,3230
 27/05/2015 15h32 30,11018,6250
 27/05/2015 14h32 27,31019,1280
 27/05/2015 13h32 25,61019,7300
 27/05/2015 12h32 251020,1300
 27/05/2015 11h32 23,61020,6360
 27/05/2015 10h32 22,21020,7390
 27/05/2015 09h32 19,71020,8470
 27/05/2015 08h32 18,31020,5550
 27/05/2015 07h32 14,41020,5700
 27/05/2015 06h32 7,31020,4850
 27/05/2015 05h32 7,51020,2820
 27/05/2015 04h32 9,61020760
 27/05/2015 03h32 10,91019,8720
 27/05/2015 02h32 11,31019,9700
 27/05/2015 01h32 11,91020,1640
 27/05/2015 00h32 12,91020,1610
 26/05/2015 23h32 13,91019,8570
 26/05/2015 22h32 15,41019,5570
 26/05/2015 21h32 16,71018,5550
 26/05/2015 20h32 19,91017,8480
 26/05/2015 19h32 22,11017,2440
 26/05/2015 18h32 24,91017370
 26/05/2015 17h32 25,21016,8380
 26/05/2015 16h32 23,91016,9400
 26/05/2015 15h32 23,81017,2420
 26/05/2015 14h32 23,31017,4530
 26/05/2015 13h32 17,91017,4700
 26/05/2015 12h32 16,81017,8740
 26/05/2015 11h32 17,11017,8740
 26/05/2015 10h32 13,11017,4850
 26/05/2015 09h32 12,71017,2850
 26/05/2015 08h32 12,21016,8870
 26/05/2015 07h32 11,81016,8870
 26/05/2015 06h32 11,91016,3860
 26/05/2015 05h32 12,51016910,6
 26/05/2015 04h32 13,31016,1880
 26/05/2015 03h32 14,21016,2840
 26/05/2015 02h32 14,21016,3840
 26/05/2015 01h32 14,41016,3830
 26/05/2015 00h32 14,61016,3830
 25/05/2015 23h32 14,81016,2820
 25/05/2015 22h32 15,11016,3820
 25/05/2015 21h32 15,61015,8820
 25/05/2015 20h32 16,61015,5840,5
 25/05/2015 19h32 17,51015,2780
 25/05/2015 18h32 19,41015,2670
 25/05/2015 17h32 19,31015,4680
 25/05/2015 16h32 20,41015,4620
 25/05/2015 15h32 20,71015,9580
 25/05/2015 14h32 25,51016,1480
 25/05/2015 13h32 22,31016,5550
 25/05/2015 12h32 23,61016,9540
 25/05/2015 11h32 201017,1660
 25/05/2015 10h32 17,11017,1750
 25/05/2015 09h32 15,91017810
 25/05/2015 08h32 15,91016,5820
 25/05/2015 07h32 14,41016,5880
 25/05/2015 06h32 13,91015,9900
 25/05/2015 05h32 13,41015,6900
 25/05/2015 04h32 13,81015,7890
 25/05/2015 03h32 14,41015,5850
 25/05/2015 02h32 15,31015,6800
 25/05/2015 01h32 16,31015,6730
 25/05/2015 00h32 16,41015,7690
 24/05/2015 23h32 16,11015,6700
 24/05/2015 22h32 16,61015,5690
 24/05/2015 21h32 18,51015610
 24/05/2015 20h32 21,91014,6510
 24/05/2015 19h32 24,31014,4450
 24/05/2015 18h32 28,51014,2330
 24/05/2015 17h32 28,11014,5310
 24/05/2015 16h32 31,61014,8280
 24/05/2015 15h32 28,61015,3310
 24/05/2015 14h32 25,61015,3390
 24/05/2015 13h32 25,81015,6440
 24/05/2015 12h32 25,31016,2450
 24/05/2015 11h32 23,61016,5530
 24/05/2015 10h32 20,31016,8630
 24/05/2015 09h32 17,61016,9740
 24/05/2015 08h32 15,51016,4820
 24/05/2015 07h32 14,11016860
 24/05/2015 06h32 13,11015,7890
 24/05/2015 05h32 13,11015,3880
 24/05/2015 04h32 12,61015,3880
 24/05/2015 03h32 13,81015,6850
 24/05/2015 02h32 14,31015,9830
 24/05/2015 01h32 14,61016,2810
 24/05/2015 00h32 15,11016,3780
 23/05/2015 23h32 15,61016,2740
 23/05/2015 22h32 16,31016,1700
 23/05/2015 21h32 171015,4660
 23/05/2015 20h32 18,11015620
 23/05/2015 19h32 18,41014,8590
 23/05/2015 18h32 19,51014,9540
 23/05/2015 17h32 20,51015480
 23/05/2015 16h32 25,11015,3390
 23/05/2015 15h32 231015,4450
 23/05/2015 14h32 21,31015,9480
 23/05/2015 13h32 25,11016,3400
 23/05/2015 12h32 22,91016,7460
 23/05/2015 11h32 21,21017,4500
 23/05/2015 10h32 19,31017,9570
 23/05/2015 09h32 18,21018,2580
 23/05/2015 08h32 13,51018,1730
 23/05/2015 07h32 11,91017,9820
 23/05/2015 06h32 9,61017,4840
 23/05/2015 05h32 10,31017,4780
 23/05/2015 04h32 11,61017,6720
 23/05/2015 03h32 13,61017,8650
 23/05/2015 02h32 13,91018620
 23/05/2015 01h32 14,41018,6600
 23/05/2015 00h32 14,81019590
 22/05/2015 23h32 14,91019,1580
 22/05/2015 22h32 15,41019,1570
 22/05/2015 21h32 15,81018,9540
 22/05/2015 20h32 17,11018,6500
 22/05/2015 19h32 19,61018,7420
 22/05/2015 18h32 21,91019350
 22/05/2015 17h32 22,91019,4340
 22/05/2015 16h32 23,91019,9310
 22/05/2015 15h32 261020,1280
 22/05/2015 14h32 25,21020,4290
 22/05/2015 13h32 22,21021,5390
 22/05/2015 12h32 23,31022370
 22/05/2015 11h32 21,31022,8440
 22/05/2015 10h32 19,31023,3520
 22/05/2015 09h32 16,91023,5580
 22/05/2015 08h32 14,91023,9640
 22/05/2015 07h32 11,31023,8760
 22/05/2015 06h32 6,11023,5860
 22/05/2015 05h32 6,81023,6820
 22/05/2015 04h32 7,61023,8770
 22/05/2015 03h32 7,61024750
 22/05/2015 02h32 8,11024,3720
 22/05/2015 01h32 8,31024,5690
 22/05/2015 00h32 9,41024,8640
 21/05/2015 23h32 11,21024,5600
 21/05/2015 22h32 12,11024,5550
 21/05/2015 21h32 14,31023,9480
 21/05/2015 20h32 16,11023,5430
 21/05/2015 19h32 17,61023390
 21/05/2015 18h32 21,61022,8310
 21/05/2015 17h32 20,41022,8350
 21/05/2015 16h32 21,81022,8330
 21/05/2015 15h32 22,61022,9330
 21/05/2015 14h32 22,41023,4340
 21/05/2015 13h32 18,71023,7410
 21/05/2015 12h32 18,71023,8460
 21/05/2015 11h32 18,11023,9490
 21/05/2015 10h32 19,21024540
 21/05/2015 09h32 15,61024680
 21/05/2015 08h32 131023,9720
 21/05/2015 07h32 9,91023,4890
 21/05/2015 06h32 6,11022,9920
 21/05/2015 05h32 5,91022,5910
 21/05/2015 04h32 5,91022,2900
 21/05/2015 03h32 7,11022890
 21/05/2015 02h32 7,51021,7900
 21/05/2015 01h32 7,91021,4890
 21/05/2015 00h32 8,11021,1890
 20/05/2015 23h32 7,61020,6890
 20/05/2015 22h32 7,21019,9860
 20/05/2015 21h32 9,51018,9820,5
 20/05/2015 20h32 14,81017,9620
 20/05/2015 19h32 13,81017,7620
 20/05/2015 18h32 16,41017570
 20/05/2015 17h32 18,21016,7590
 20/05/2015 16h32 18,11017610,5
 20/05/2015 15h32 15,91017,1630,5
 20/05/2015 14h32 15,91017,7630
 20/05/2015 13h32 15,81017,6670
 20/05/2015 12h32 16,61017,5550
 20/05/2015 11h32 15,61017,5640
 20/05/2015 10h32 16,51017,2680,6
 20/05/2015 08h32 11,11016,3830
 20/05/2015 07h32 9,81016,1890
 20/05/2015 06h32 8,11015,8890
 20/05/2015 05h32 9,41015,8850
 20/05/2015 04h32 9,71015,9840
 20/05/2015 03h32 9,91016,1830
 20/05/2015 02h32 10,21016,2820
 20/05/2015 01h32 10,31016,3820
 20/05/2015 00h32 11,11016790
 19/05/2015 23h32 11,81015,6810
 19/05/2015 22h32 11,91015,3830
 19/05/2015 21h32 12,31014,3810
 19/05/2015 20h32 13,31014760
 19/05/2015 19h32 15,31013,6660
 19/05/2015 18h32 15,21013,5690
 19/05/2015 17h32 17,31013,5620
 19/05/2015 16h32 16,21013,5660
 19/05/2015 15h32 16,21013,9710
 19/05/2015 14h32 161014720
 19/05/2015 13h32 14,71013,9810
 19/05/2015 12h32 13,81013,6870
 19/05/2015 11h32 11,81013,6900,5
 19/05/2015 10h32 11,91013,5890
 19/05/2015 09h32 11,31012,9900,5
 19/05/2015 08h32 10,91013901,5
 19/05/2015 07h32 10,61012,8891,1
 19/05/2015 06h32 11,31012,8830
 19/05/2015 05h32 11,21012,3840
 19/05/2015 04h32 12,61011,8770
 19/05/2015 03h32 13,51011,7730
 19/05/2015 02h32 14,31012710
 19/05/2015 01h32 14,81011,5700
 19/05/2015 00h32 15,61010,8720
 18/05/2015 23h32 15,21010,3680
 18/05/2015 22h32 16,61010,1630
 18/05/2015 21h32 18,41009,4570
 18/05/2015 20h32 22,91009,1450
 18/05/2015 19h32 28,31009350
 18/05/2015 18h32 29,71009,1320
 18/05/2015 17h32 29,21009,4330
 18/05/2015 16h32 33,41009,7280
 18/05/2015 15h32 33,71010,4310
 18/05/2015 14h32 30,21011,1350
 18/05/2015 13h32 27,91012380
 18/05/2015 12h32 28,91012,7390
 18/05/2015 11h32 27,11013,5430
 18/05/2015 10h32 25,11014490
 18/05/2015 09h32 20,21014,4600
 18/05/2015 08h32 19,31014,7640
 18/05/2015 07h32 12,41014,9910
 18/05/2015 06h32 7,31015,1910
 18/05/2015 05h32 7,61015,3900
 18/05/2015 04h32 8,21015,7890
 18/05/2015 03h32 9,31016,3870
 18/05/2015 02h32 10,61017840
 18/05/2015 01h32 11,91017,7790
 18/05/2015 00h32 13,41018,3740
 17/05/2015 23h32 14,51018,6710
 17/05/2015 22h32 15,51018,9680
 17/05/2015 21h32 17,71018,7610
 17/05/2015 20h32 23,91018,8460
 17/05/2015 19h32 26,11019400
 17/05/2015 18h32 27,91019,4380
 17/05/2015 17h32 26,41019,7400
 17/05/2015 16h32 28,91020,5390
 17/05/2015 15h32 271021,1430
 17/05/2015 14h32 25,31021,9460
 17/05/2015 13h32 22,61022,6540
 17/05/2015 12h32 21,61023,2600
 17/05/2015 11h32 21,11023,7630
 17/05/2015 10h32 18,71024,2720
 17/05/2015 09h32 15,31024,6830
 17/05/2015 08h32 14,31024,9850
 17/05/2015 07h32 13,91024,9860
 17/05/2015 06h32 13,91024,8850
 17/05/2015 05h32 14,11025840
 17/05/2015 04h32 14,21025,4830
 17/05/2015 03h32 14,31025,6810
 17/05/2015 02h32 14,51025,8810
 17/05/2015 01h32 14,51026,1800
 17/05/2015 00h32 14,61026,4790
 16/05/2015 23h32 14,71026,6780
 16/05/2015 22h32 13,91026,5780
 16/05/2015 21h32 14,71026740
 16/05/2015 20h32 18,41025,5610
 16/05/2015 19h32 21,91025,3510
 16/05/2015 18h32 21,91025,5520
 16/05/2015 17h32 21,11025,4530
 16/05/2015 16h32 22,81025,8510
 16/05/2015 15h32 21,51026520
 16/05/2015 14h32 20,11026,2550
 16/05/2015 13h32 20,31026,3560
 16/05/2015 12h32 16,61026,5700
 16/05/2015 11h32 14,81026,3760
 16/05/2015 10h32 14,81025,9770
 16/05/2015 09h32 13,31025,7820
 16/05/2015 08h32 12,11024,8850
 16/05/2015 07h32 11,81023,9860
 16/05/2015 06h32 10,91023870
 16/05/2015 05h32 11,11022,4850
 16/05/2015 04h32 11,51022,6830
 16/05/2015 03h32 11,61022,2800
 16/05/2015 02h32 11,91021,5770
 16/05/2015 01h32 12,41021,2740
 16/05/2015 00h32 13,11021,2690
 15/05/2015 23h32 13,41020,7660
 15/05/2015 22h32 13,91020,4630
 15/05/2015 21h32 14,31019,2620
 15/05/2015 20h32 15,31018,2580
 15/05/2015 19h32 18,61017,5510
 15/05/2015 18h32 19,41016,7490
 15/05/2015 17h32 18,11016,4560
 15/05/2015 16h32 18,41016,2540
 15/05/2015 15h32 20,11016510
 15/05/2015 14h32 18,41015,4550
 15/05/2015 13h32 17,91015,3600
 15/05/2015 12h32 17,41015670,5
 15/05/2015 11h32 16,21014,1740
 15/05/2015 10h32 14,31013,1803,1
 15/05/2015 09h32 10,71012,8901
 15/05/2015 08h32 9,91012,4920,6
 15/05/2015 07h32 9,41012,7910
 15/05/2015 06h32 9,11013920
 15/05/2015 05h32 8,91013,6910
 15/05/2015 04h32 8,91014,3891,5
 15/05/2015 03h32 9,81014,3840
 15/05/2015 02h32 10,91014,3830
 15/05/2015 01h32 111014,8780
 15/05/2015 00h32 11,81015,1800
 14/05/2015 23h32 11,81015,5800
 14/05/2015 22h32 121015,8790
 14/05/2015 21h32 12,71015,3800
 14/05/2015 20h32 131015,1800
 14/05/2015 19h32 14,51014,4800
 14/05/2015 18h32 17,41013,4640
 14/05/2015 17h32 20,51012,7560
 14/05/2015 16h32 22,91012,8500
 14/05/2015 15h32 24,11013470
 14/05/2015 14h32 261013440
 14/05/2015 13h32 27,21013450
 14/05/2015 12h32 24,61012,7560
 14/05/2015 11h32 26,51012,1540
 14/05/2015 10h32 26,41011,8570
 14/05/2015 09h32 22,81011,8700
 14/05/2015 08h32 19,21012,6820
 14/05/2015 07h32 15,31012,3900
 14/05/2015 06h32 14,91011,8900
 14/05/2015 05h32 15,31012,6890
 14/05/2015 04h32 15,81013,3880
 14/05/2015 03h32 161014880
 14/05/2015 02h32 16,91015,5860
 14/05/2015 01h32 17,11015,9860
 14/05/2015 00h32 17,61015,3820
 13/05/2015 23h32 19,31015,8790
 13/05/2015 22h32 20,61016,1760
 13/05/2015 21h32 21,91016720
 13/05/2015 20h32 24,11015,8640
 13/05/2015 19h32 28,61015,5520
 13/05/2015 18h32 28,91015,6510
 13/05/2015 17h32 29,31015,6510
 13/05/2015 16h32 30,91015,9470
 13/05/2015 15h32 30,91016,1460
 13/05/2015 14h32 33,41015,6430
 13/05/2015 13h32 33,91015,2420
 13/05/2015 12h32 31,61016,2450
 13/05/2015 11h32 31,21016450
 13/05/2015 10h32 28,41016,3520
 13/05/2015 09h32 24,51016,2630
 13/05/2015 08h32 17,61016,2860
 13/05/2015 07h32 13,91016,2920
 13/05/2015 06h32 13,21016,4920
 13/05/2015 05h32 13,61016,8910
 13/05/2015 04h32 13,41017,4910
 13/05/2015 03h32 14,41017,8890
 13/05/2015 02h32 14,41018,5880
 13/05/2015 01h32 15,51018,9860
 13/05/2015 00h32 16,31019,3840
 12/05/2015 23h32 17,31019,3790
 12/05/2015 22h32 18,91019,2730
 12/05/2015 21h32 21,11018,8660
 12/05/2015 20h32 26,31018,6530
 12/05/2015 19h32 31,11018,5430
 12/05/2015 18h32 32,61018,7400
 12/05/2015 17h32 33,51018,2380
 12/05/2015 16h32 36,31018,4330
 12/05/2015 15h32 37,31018,2320
 12/05/2015 14h32 34,11018,2340
 12/05/2015 13h32 34,41018,1320
 12/05/2015 12h32 33,51018320
 12/05/2015 11h32 30,81017,8370
 12/05/2015 10h32 271017,6420
 12/05/2015 09h32 22,91017,4470
 12/05/2015 08h32 22,31017540
 12/05/2015 07h32 14,71016,5770
 12/05/2015 06h32 9,41016,2840
 12/05/2015 05h32 9,81016,6810
 12/05/2015 04h32 10,81016,7790
 12/05/2015 03h32 12,41016,9760
 12/05/2015 02h32 13,31017,5730
 12/05/2015 01h32 14,41017,8710
 12/05/2015 00h32 15,71017,8660
 11/05/2015 23h32 17,41018,1570
 11/05/2015 22h32 20,21017,8480
 11/05/2015 21h32 22,91017,3400
 11/05/2015 20h32 291016,9320
 11/05/2015 19h32 34,81016,7270
 11/05/2015 18h32 34,71016,7260
 11/05/2015 17h32 35,81017240
 11/05/2015 16h32 39,21017,3220
 11/05/2015 15h32 39,91017,6220
 11/05/2015 14h32 36,21018,1270
 11/05/2015 13h32 34,61018,6280
 11/05/2015 12h32 33,61018,8280
 11/05/2015 11h32 33,61019,1330
 11/05/2015 10h32 28,61019,1410
 11/05/2015 09h32 23,11019,1470
 11/05/2015 08h32 17,21019,1630
 11/05/2015 07h32 13,31018,8800
 11/05/2015 06h32 91018,4820
 11/05/2015 05h32 101018,2800
 11/05/2015 04h32 11,21018,3770
 11/05/2015 03h32 11,81018,5800
 11/05/2015 02h32 12,91018,6730
 11/05/2015 01h32 14,11018,9690
 11/05/2015 00h32 15,61019630
 10/05/2015 23h32 18,71019510
 10/05/2015 22h32 21,31018,8440
 10/05/2015 21h32 22,11018,4420
 10/05/2015 20h32 31,91017,9330
 10/05/2015 19h32 36,81017,5240
 10/05/2015 18h32 37,31017,7240
 10/05/2015 17h32 35,81018250
 10/05/2015 16h32 40,31018,6190
 10/05/2015 15h32 40,51019,2190
 10/05/2015 14h32 34,81020250
 10/05/2015 13h32 30,91020,7320
 10/05/2015 12h32 30,21021,4370
 10/05/2015 11h32 27,31021,7440
 10/05/2015 10h32 23,31022,1570
 10/05/2015 09h32 171022,5730
 10/05/2015 08h32 13,21022,9900
 10/05/2015 07h32 9,11022,9920
 10/05/2015 06h32 8,31022,7910
 10/05/2015 05h32 8,41023910
 10/05/2015 04h32 8,81023,6910
 10/05/2015 03h32 9,41023,7900
 10/05/2015 02h32 10,11024,1890
 10/05/2015 01h32 10,51024,6860
 10/05/2015 00h32 11,91024,4840
 09/05/2015 23h32 13,11024,6810
 09/05/2015 22h32 14,11024,5770
 09/05/2015 21h32 16,31023,9690
 09/05/2015 20h32 221023,4540
 09/05/2015 19h32 21,91023,4510
 09/05/2015 18h32 26,71023,3410
 09/05/2015 17h32 23,51023,3480
 09/05/2015 16h32 25,81023,1420
 09/05/2015 15h32 25,71023,3430
 09/05/2015 14h32 26,61023,1410
 09/05/2015 13h32 23,41023,5490
 09/05/2015 12h32 25,11023,7470
 09/05/2015 11h32 24,11023,5490
 09/05/2015 10h32 22,11023,7560
 09/05/2015 09h32 18,51023,4700
 09/05/2015 08h32 15,61023,5800
 09/05/2015 07h32 14,11023830
 09/05/2015 06h32 13,61022,5840
 09/05/2015 05h32 13,81022,3830
 09/05/2015 04h32 12,81022,1840
 09/05/2015 03h32 13,61021,4810
 09/05/2015 02h32 14,31021,3780
 09/05/2015 01h32 14,41020,9770
 09/05/2015 00h32 14,81020,6750
 08/05/2015 23h32 14,81020,2720
 08/05/2015 22h32 15,91019,5680
 08/05/2015 21h32 17,71018,4600
 08/05/2015 20h32 21,61017,4500
 08/05/2015 19h32 251016,6420
 08/05/2015 18h32 27,41015,9380
 08/05/2015 17h32 25,81015,2400
 08/05/2015 16h32 27,11014,8400
 08/05/2015 15h32 27,41014,7410
 08/05/2015 14h32 28,91014,5360
 08/05/2015 13h32 28,31014,4370
 08/05/2015 12h32 22,91014520
 08/05/2015 11h32 23,21013420
 08/05/2015 10h32 19,61011,6470
 08/05/2015 09h32 18,71010,8470
 08/05/2015 08h32 17,31009,5490
 08/05/2015 07h32 16,81007,7520
 08/05/2015 06h32 12,81006,4670
 08/05/2015 05h32 10,41006,9740
 08/05/2015 04h32 10,41007,9740
 08/05/2015 03h32 10,61008,9740
 08/05/2015 02h32 12,11009,9690
 08/05/2015 01h32 12,11010,7700
 08/05/2015 00h32 13,11011,2630
 07/05/2015 23h32 15,41011,6580
 07/05/2015 22h32 17,61012,2500
 07/05/2015 21h32 19,31011,9480
 07/05/2015 20h32 28,31011,6330
 07/05/2015 19h32 29,91011,4250
 07/05/2015 18h32 30,91011,9240
 07/05/2015 17h32 29,51012,2260
 07/05/2015 16h32 32,41013220
 07/05/2015 15h32 30,21014230
 07/05/2015 14h32 28,21014,6280
 07/05/2015 13h32 26,11015,5320
 07/05/2015 12h32 24,41016,2380
 07/05/2015 11h32 20,31016,9540
 07/05/2015 10h32 17,81017,1580
 07/05/2015 09h32 16,61017,4670
 07/05/2015 08h32 9,41017,7860
 07/05/2015 07h32 7,81017,7910
 07/05/2015 06h32 5,21018910
 07/05/2015 05h32 5,81018,2900
 07/05/2015 04h32 6,41018,7900
 07/05/2015 03h32 6,81018,8900
 07/05/2015 02h32 7,31019,1880
 07/05/2015 01h32 8,41019,2850
 07/05/2015 00h32 9,51019790
 06/05/2015 23h32 10,61018,5770
 06/05/2015 22h32 12,51018,3710
 06/05/2015 21h32 13,81017,6620
 06/05/2015 20h32 17,91017,3500
 06/05/2015 19h32 23,81016,7370
 06/05/2015 18h32 241016,6380
 06/05/2015 17h32 22,21016,6410
 06/05/2015 16h32 24,11016,5370
 06/05/2015 15h32 26,31016,4370
 06/05/2015 14h32 25,31016,6390
 06/05/2015 13h32 231016,9440
 06/05/2015 12h32 21,51017,6480
 06/05/2015 11h32 18,51017,6550
 06/05/2015 10h32 17,61016,9630
 06/05/2015 09h32 19,51016,1620
 06/05/2015 08h32 16,31015,6800
 06/05/2015 07h32 101014,7920
 06/05/2015 06h32 8,11013,9910
 06/05/2015 05h32 8,91013,4900
 06/05/2015 04h32 10,21013900
 06/05/2015 03h32 10,41012,8890
 06/05/2015 02h32 10,91012,5870
 06/05/2015 01h32 11,21012,8850
 06/05/2015 00h32 12,91012,6790
 05/05/2015 23h32 14,91012,8720
 05/05/2015 22h32 15,61012,5700
 05/05/2015 21h32 16,61012,2650
 05/05/2015 20h32 18,31011,5590
 05/05/2015 19h32 20,11011,2530
 05/05/2015 18h32 23,61010,8440
 05/05/2015 17h32 23,81010,8460
 05/05/2015 16h32 25,81011410
 05/05/2015 15h32 24,31011,6440
 05/05/2015 14h32 21,51011,5550
 05/05/2015 13h32 18,41011,9650
 05/05/2015 12h32 18,91011,2670
 05/05/2015 11h32 17,61011,1690
 05/05/2015 10h32 19,91009,7620
 05/05/2015 09h32 20,41007,9660
 05/05/2015 08h32 21,11006,6660
 05/05/2015 07h32 15,61004,6770
 05/05/2015 06h32 16,31002,8710
 05/05/2015 05h32 16,91001,1690
 05/05/2015 04h32 18,8999,7620
 05/05/2015 03h32 18,41000630
 05/05/2015 02h32 18,31000,5650
 05/05/2015 01h32 18,11000,4680
 05/05/2015 00h32 18,31000,5680
 04/05/2015 23h32 18,9999,6650
 04/05/2015 22h32 20,2999,4600
 04/05/2015 21h32 20,5998,9610
 04/05/2015 20h32 21,11000620
 04/05/2015 19h32 22,21000,4620
 04/05/2015 18h32 23,41001,2590
 04/05/2015 17h32 25,41001,1550
 04/05/2015 16h32 24,21001,1570
 04/05/2015 15h32 25,81001,8540
 04/05/2015 14h32 25,91002,4530
 04/05/2015 13h32 25,61003,4560
 04/05/2015 12h32 271003,7530
 04/05/2015 11h32 27,11004,1520
 04/05/2015 09h32 19,31005,3780
 04/05/2015 08h32 18,31005,3900
 04/05/2015 07h32 16,61005,4920
 04/05/2015 06h32 16,31005,8920
 04/05/2015 05h32 16,11006,2910
 04/05/2015 04h32 16,41007,5890
 04/05/2015 03h32 17,41007,8870
 04/05/2015 02h32 17,41008,4870
 04/05/2015 01h32 17,91008,6870
 04/05/2015 00h32 18,51008,7880
 03/05/2015 23h32 19,31008,1840
 03/05/2015 22h32 19,81008830
 03/05/2015 21h32 20,41007,3810
 03/05/2015 20h32 22,11006,9780
 03/05/2015 19h32 23,61006,8750
 03/05/2015 18h32 25,81006,7670
 03/05/2015 17h32 27,21006,3600
 03/05/2015 16h32 30,51006,1510
 03/05/2015 15h32 35,61006,2420
 03/05/2015 14h32 32,31006500
 03/05/2015 13h32 28,91006,2590
 03/05/2015 12h32 27,91005,8600
 03/05/2015 11h32 29,41006,1560
 03/05/2015 10h32 28,41006,1580
 03/05/2015 09h32 21,41006,1750
 03/05/2015 08h32 17,11005,7890
 03/05/2015 07h32 14,61005,2920
 03/05/2015 06h32 14,61004,8920
 03/05/2015 05h32 14,91004,6920
 03/05/2015 04h32 14,81005,1910
 03/05/2015 03h32 15,41005,2910
 03/05/2015 02h32 15,61006,2900
 03/05/2015 01h32 15,91006,6890
 03/05/2015 00h32 16,21007880
 02/05/2015 23h32 16,91007,4850
 02/05/2015 22h32 18,41007,9810
 02/05/2015 21h32 19,81008,1780
 02/05/2015 20h32 21,61007,8720
 02/05/2015 19h32 23,51007,6700
 02/05/2015 18h32 251007,7650
 02/05/2015 17h32 26,11007,8610
 02/05/2015 16h32 28,11008540
 02/05/2015 15h32 28,81008,3560
 02/05/2015 14h32 26,81008,3590
 02/05/2015 13h32 28,41008,7550
 02/05/2015 12h32 25,31008,9610
 02/05/2015 11h32 22,91009,2640
 02/05/2015 10h32 20,21010,3690
 02/05/2015 09h32 17,91011,1750
 02/05/2015 08h32 14,61011,5900
 02/05/2015 07h32 13,11011,8930
 02/05/2015 06h32 12,81012930
 02/05/2015 05h32 12,61012,6930
 02/05/2015 04h32 12,51012,7930
 02/05/2015 03h32 12,11012,7930
 02/05/2015 02h32 11,61013920
 02/05/2015 01h32 13,21012,9930
 02/05/2015 00h32 13,31012,9920
 01/05/2015 23h32 13,91012,3910
 01/05/2015 22h32 15,61011,7900
 01/05/2015 21h32 15,91011,1900
 01/05/2015 20h32 16,41010,7900
 01/05/2015 19h32 16,91010,6890
 01/05/2015 18h32 16,31010,2911,6
 01/05/2015 17h32 16,61010901
 01/05/2015 16h32 17,81009,9860,5
 01/05/2015 15h32 20,91009,6730
 01/05/2015 14h32 20,81009,7770
 01/05/2015 13h32 16,91010,2871,1
 01/05/2015 12h32 15,91010,7861,5
 01/05/2015 11h32 15,51010,2840
 01/05/2015 10h32 17,31009,7750
 01/05/2015 09h32 171008,9730
 01/05/2015 08h32 15,11008,5810
 01/05/2015 07h32 13,31008,3850
 01/05/2015 06h32 12,91008,1840
 01/05/2015 05h32 12,91008,6840
 01/05/2015 04h32 12,71009830
 01/05/2015 03h32 12,61010840
 01/05/2015 02h32 11,91010,4850
 01/05/2015 01h32 12,21011,4840
 01/05/2015 00h32 13,31011,8800
 30/04/2015 23h32 15,11012,3760
 30/04/2015 22h32 14,81012,8740
 30/04/2015 21h32 17,11012,8670
 30/04/2015 20h32 19,91012,9610
 30/04/2015 19h32 22,91013,1500
 30/04/2015 18h32 231013,4470
 30/04/2015 17h32 251013,3420
 30/04/2015 16h32 29,31013,6360
 30/04/2015 15h32 26,91014410
 30/04/2015 14h32 26,21014,4410
 30/04/2015 13h32 24,41014,8470
 30/04/2015 10h32 18,71016,3600
 30/04/2015 07h32 5,91017,4920
 30/04/2015 06h32 4,51017,1910
 30/04/2015 05h32 4,91017,4900
 30/04/2015 04h32 6,11017,2890
 30/04/2015 03h32 6,61017,5880
 30/04/2015 02h32 8,11017,8830
 30/04/2015 01h32 9,31017,9830
 30/04/2015 00h32 10,31017,8780
 29/04/2015 23h32 9,91017,7770
 29/04/2015 22h32 10,51017,5690
 29/04/2015 21h32 13,11016,9630
 29/04/2015 20h32 15,51016,8530
 29/04/2015 19h32 21,21016,2410
 29/04/2015 18h32 22,11015,9400
 29/04/2015 17h32 21,31015,8410
 29/04/2015 16h32 25,91015,9330
 29/04/2015 15h32 23,61016,2390
 29/04/2015 14h32 20,31016,4440
 29/04/2015 13h32 19,81016,4460
 29/04/2015 12h32 17,91016,8590
 29/04/2015 08h32 6,61015,9930
 29/04/2015 02h32 4,41016,6880
 29/04/2015 01h32 5,21016,9870
 29/04/2015 00h32 5,81017,4830
 28/04/2015 23h32 6,91017,4800
 28/04/2015 22h32 7,91017,5740
 28/04/2015 21h32 9,31017,5670
 28/04/2015 20h32 13,61017,5530
 28/04/2015 19h32 18,11017,9440
 28/04/2015 18h32 19,41018420
 28/04/2015 17h32 19,31018,1420
 28/04/2015 16h32 17,61018,2460
 28/04/2015 15h32 19,91018,5410
 28/04/2015 14h32 18,41018,7470
 28/04/2015 13h32 18,11018,8490
 28/04/2015 12h32 17,91018,8510
 28/04/2015 09h32 10,51017,6850
 28/04/2015 05h32 8,11014,7910
 28/04/2015 04h32 91014,2900
 28/04/2015 03h32 9,61013,8900
 27/04/2015 23h32 12,11010,7770
 27/04/2015 21h32 11,41008,9780
 27/04/2015 20h32 14,31007,3720
 27/04/2015 19h32 15,91006,4680
 27/04/2015 18h32 17,51005,8660
 27/04/2015 15h32 15,21004780
 27/04/2015 14h32 13,71003,1901,6
 27/04/2015 13h32 12,61002,6910
 27/04/2015 12h32 12,61002,4922
 27/04/2015 11h32 12,31001,7935,7
 27/04/2015 09h32 11,81000,7942,1
 27/04/2015 08h32 11,41000,4941,5
 27/04/2015 07h32 11,31000,1941,6
 27/04/2015 06h32 11,61000,2943,6
 27/04/2015 05h32 11,61000,3930,5
 27/04/2015 04h32 11,61000,1931,6
 27/04/2015 03h32 11,91000932,6
 27/04/2015 02h32 12,61000,3920,5
 27/04/2015 01h32 12,81000,7930
 27/04/2015 00h32 12,71000,7920
 26/04/2015 23h32 12,71001,2920
 26/04/2015 22h32 13,11001920,5
 26/04/2015 21h32 13,31000,6914,7
 26/04/2015 20h32 13,71000,3903,1
 26/04/2015 19h32 14,81000,2860,5
 26/04/2015 18h32 17,61000,3750
 26/04/2015 17h32 20,11000,5700
 26/04/2015 16h32 18,71000,9730
 26/04/2015 15h32 21,31000,9590
 26/04/2015 14h32 24,91001,3500
 26/04/2015 13h32 22,91002,1570
 26/04/2015 12h32 23,61002,8550
 26/04/2015 11h32 23,21003,2560
 26/04/2015 10h32 22,31003,4600
 26/04/2015 09h32 19,51003,7700
 26/04/2015 08h32 13,91004,6870
 26/04/2015 07h32 11,61005930
 26/04/2015 06h32 9,51005920
 26/04/2015 05h32 10,31005,6910
 26/04/2015 04h32 111006,3900
 26/04/2015 03h32 12,11006,8880
 26/04/2015 02h32 13,11007,7840
 26/04/2015 01h32 15,41008,1790
 26/04/2015 00h32 15,91008,6780
 25/04/2015 23h32 16,61009,1750
 25/04/2015 22h32 17,11009740
 25/04/2015 21h32 18,31008,5720
 25/04/2015 20h32 21,51007,9580
 25/04/2015 19h32 25,61007,9440
 25/04/2015 18h32 28,11007,9410
 25/04/2015 17h32 26,71008,2430
 25/04/2015 16h32 32,61008,4350
 25/04/2015 15h32 30,61009,3390
 25/04/2015 14h32 27,91009,7450
 25/04/2015 13h32 28,41010,2450
 25/04/2015 12h32 24,91010,9530
 25/04/2015 11h32 24,91011,2520
 25/04/2015 10h32 22,31011620
 25/04/2015 09h32 18,61010,9670
 25/04/2015 08h32 18,21010720
 25/04/2015 07h32 12,41009,3840
 25/04/2015 06h32 13,31008,4810
 25/04/2015 05h32 14,41009,3770
 25/04/2015 04h32 14,51009,6760
 25/04/2015 03h32 15,21009,5760
 25/04/2015 02h32 151009,1800
 25/04/2015 01h32 15,31009,6810
 25/04/2015 00h32 15,61009,8780
 24/04/2015 23h32 16,21010740
 24/04/2015 22h32 16,71009,8730
 24/04/2015 21h32 18,11009,7680
 24/04/2015 20h32 21,41009,3580
 24/04/2015 19h32 25,81009,3440
 24/04/2015 18h32 26,61009,5430
 24/04/2015 17h32 30,91009,6370
 24/04/2015 16h32 28,81010,1420
 24/04/2015 15h32 30,51010,9410
 24/04/2015 14h32 28,21011,9450
 24/04/2015 13h32 26,11012,4530
 24/04/2015 12h32 23,61013,1570
 24/04/2015 11h32 23,11013,8610
 24/04/2015 10h32 17,61014810
 24/04/2015 09h32 12,41014,4930
 24/04/2015 08h32 9,91014,5930
 24/04/2015 07h32 8,41014,4930
 24/04/2015 06h32 7,81014,3930,5
 24/04/2015 05h32 7,61014,5930
 24/04/2015 04h32 7,51014,5920
 24/04/2015 03h32 8,11015920
 24/04/2015 02h32 81015,4910
 24/04/2015 01h32 8,91015,9910
 24/04/2015 00h32 9,61015,8900
 23/04/2015 23h32 10,71016880
 23/04/2015 22h32 12,41016870
 23/04/2015 21h32 13,51015,6830
 23/04/2015 20h32 17,41015,2710
 23/04/2015 19h32 20,41015,1650
 23/04/2015 18h32 21,51014,9640
 23/04/2015 17h32 21,41015,3670
 23/04/2015 16h32 16,21015,5820,5
 23/04/2015 15h32 21,41015,6600
 23/04/2015 14h32 20,11016,2640
 23/04/2015 13h32 19,81016,6700
 23/04/2015 12h32 17,41017,2780
 23/04/2015 11h32 15,61017,1850
 23/04/2015 10h32 14,21016,9890
 23/04/2015 09h32 12,91017,1880
 23/04/2015 08h32 11,91016,8890
 23/04/2015 07h32 11,51016,8880
 23/04/2015 06h32 11,11016,4870
 23/04/2015 05h32 11,21016,2870
 23/04/2015 04h32 11,71016,4870
 23/04/2015 03h32 11,81016,5880
 23/04/2015 02h32 11,61016,4860,5
 23/04/2015 01h32 11,91017850
 23/04/2015 00h32 12,71017,3800
 22/04/2015 23h32 12,91017,2790
 22/04/2015 22h32 13,21017,1770
 22/04/2015 21h32 131016,4770
 22/04/2015 20h32 16,11016,1550
 22/04/2015 19h32 17,81015,4490
 22/04/2015 18h32 19,61015,2440
 22/04/2015 17h32 22,91014,7380
 22/04/2015 16h32 25,51014,4320
 22/04/2015 15h32 25,51014,9350
 22/04/2015 14h32 25,11015330
 22/04/2015 13h32 22,91015,6330
 22/04/2015 12h32 23,91016,3370
 22/04/2015 11h32 23,41016,7330
 22/04/2015 10h32 21,61017390
 22/04/2015 09h32 151016,9640
 22/04/2015 08h32 14,21017,3700
 22/04/2015 07h32 9,11017,4790
 22/04/2015 06h32 8,61017,3780
 22/04/2015 05h32 8,41017,8780
 22/04/2015 04h32 8,31018,3810
 22/04/2015 03h32 7,81018,7830
 22/04/2015 02h32 7,91019,1840
 22/04/2015 01h32 10,11019,8800
 22/04/2015 00h32 11,41019,8760
 21/04/2015 23h32 13,31019,9680
 21/04/2015 22h32 16,71020590
 21/04/2015 21h32 18,21019,4570
 21/04/2015 20h32 22,41018,8520
 21/04/2015 19h32 251018,4430
 21/04/2015 18h32 27,51018,9390
 21/04/2015 17h32 28,11019,3400
 21/04/2015 16h32 33,31019,5310
 21/04/2015 15h32 30,81020,4360
 21/04/2015 14h32 27,31020,6430
 21/04/2015 13h32 25,11021,1440
 21/04/2015 12h32 24,21021,7500
 21/04/2015 11h32 22,11021,8560
 21/04/2015 10h32 21,81021,8590
 21/04/2015 09h32 16,61021,7750
 21/04/2015 08h32 11,61021,5920
 21/04/2015 07h32 6,41021,3940
 21/04/2015 06h32 5,51020,7930
 21/04/2015 05h32 6,21020,5930
 21/04/2015 04h32 6,81020,7920
 21/04/2015 03h32 7,41020,6920
 21/04/2015 02h32 8,11020,8920
 21/04/2015 01h32 8,81021900
 21/04/2015 00h32 9,61020,9890
 20/04/2015 23h32 10,61020,9870
 20/04/2015 22h32 11,81020,8830
 20/04/2015 21h32 13,81020,3760
 20/04/2015 20h32 19,41019,8590
 20/04/2015 19h32 22,31019,3520
 20/04/2015 18h32 23,81019,2470
 20/04/2015 17h32 24,91019,3450
 20/04/2015 16h32 25,81019,8440
 20/04/2015 15h32 24,11020,3500
 20/04/2015 14h32 22,51020,6570
 20/04/2015 08h32 10,51019,4950
 20/04/2015 07h32 10,11018,7950
 20/04/2015 06h32 9,81018940,6
 20/04/2015 05h32 9,91017,7942,5
 20/04/2015 04h32 10,11017,8952,1
 20/04/2015 03h32 10,21017,4942,1
 20/04/2015 02h32 10,51017,5941,5
 20/04/2015 01h32 10,61017,4940
 20/04/2015 00h32 10,51016,9940,6
 19/04/2015 23h32 10,61016,6940
 19/04/2015 22h32 10,61016,2930
 19/04/2015 21h32 10,91015,4930
 19/04/2015 20h32 11,11014,7920
 19/04/2015 19h32 11,41014,2913,1
 19/04/2015 18h32 11,91014914,1
 19/04/2015 17h32 13,31013,1900,5
 19/04/2015 16h32 13,81012,8870
 19/04/2015 15h32 13,91012,6880,6
 19/04/2015 14h32 13,11012,3890
 19/04/2015 13h32 14,21011,7890,5
 19/04/2015 12h32 12,61011,2901,5
 19/04/2015 11h32 13,71010,7900
 19/04/2015 10h32 11,31010,7931,6
 19/04/2015 09h32 111010,3930,5
 19/04/2015 08h32 10,61010,2932,1
 19/04/2015 07h32 10,71009,9932
 19/04/2015 06h32 11,21009,4930,6
 19/04/2015 05h32 11,31009,2920
 19/04/2015 04h32 11,41009,2925,7
 19/04/2015 03h32 12,81009,5923,1
 19/04/2015 02h32 12,91010920
 19/04/2015 01h32 12,91010,4910,5
 19/04/2015 00h32 12,91010,6900
 18/04/2015 23h32 131010,3892,1
 18/04/2015 22h32 13,31010881,5
 18/04/2015 21h32 15,51009,4780
 18/04/2015 20h32 19,51006,1540
 18/04/2015 19h32 22,61005,7490
 18/04/2015 18h32 25,31006,5400
 18/04/2015 17h32 26,91007,1420
 18/04/2015 16h32 29,21008,2390
 18/04/2015 15h32 29,31009,1440
 18/04/2015 14h32 26,61009,9520
 18/04/2015 13h32 23,41010,6580
 18/04/2015 12h32 22,11011,2580
 18/04/2015 11h32 22,31012,3590
 18/04/2015 10h32 19,91012,6680
 18/04/2015 09h32 12,11012,6900
 18/04/2015 08h32 8,91013,1940
 18/04/2015 07h32 71012,9930
 18/04/2015 06h32 7,11013,2930
 18/04/2015 05h32 7,61013,4930
 18/04/2015 04h32 7,61014930
 18/04/2015 03h32 8,61014,3930
 18/04/2015 02h32 8,81015,5920
 18/04/2015 01h32 9,51015,8920
 18/04/2015 00h32 10,31015,9900
 17/04/2015 23h32 11,91015,8880
 17/04/2015 22h32 12,31016880
 17/04/2015 21h32 12,91015,6830
 17/04/2015 20h32 161015,1750
 17/04/2015 19h32 17,11015,3750
 17/04/2015 18h32 20,61014,9650
 17/04/2015 17h32 20,11014,7650
 17/04/2015 16h32 25,31014,7510
 17/04/2015 15h32 24,31015,5590
 17/04/2015 14h32 18,81015,7720
 17/04/2015 13h32 20,31015,7720
 17/04/2015 12h32 16,41015,8840
 17/04/2015 11h32 15,21015,5830
 17/04/2015 10h32 15,81015,3820
 17/04/2015 09h32 13,81014,9900
 17/04/2015 08h32 12,81014,3930
 17/04/2015 07h32 12,11013,7930
 17/04/2015 06h32 12,41013,3930
 17/04/2015 05h32 12,41013,1930
 17/04/2015 04h32 12,31013930
 17/04/2015 03h32 12,41013930,5
 17/04/2015 02h32 12,41012,9920
 17/04/2015 01h32 12,31013,1920
 17/04/2015 00h32 11,91013,1920
 16/04/2015 23h32 12,31012,7911,1
 16/04/2015 22h32 12,91012,9912
 16/04/2015 21h32 12,61012,2902,6
 16/04/2015 20h32 13,31011,98822,3
 16/04/2015 19h32 15,11011,1841
 16/04/2015 18h32 15,91010,4780,6
 16/04/2015 17h32 19,61009,5630
 16/04/2015 16h32 21,61009,5621,5
 16/04/2015 15h32 20,31009,8610
 16/04/2015 14h32 27,51010410
 16/04/2015 13h32 26,11010,3420
 16/04/2015 12h32 25,91010,5420
 16/04/2015 11h32 25,31011,1430
 16/04/2015 10h32 19,41010,9570
 16/04/2015 09h32 16,91011610
 16/04/2015 08h32 15,41011590
 16/04/2015 07h32 14,81010,3580
 16/04/2015 06h32 151010,2540
 16/04/2015 05h32 14,91010,2480
 16/04/2015 04h32 15,81010,7430
 16/04/2015 03h32 16,41011,4400
 16/04/2015 02h32 17,11011,9390
 16/04/2015 01h32 17,41012,1380
 16/04/2015 00h32 16,81012,4390
 15/04/2015 23h32 17,31012,3380
 15/04/2015 22h32 16,91012,6360
 15/04/2015 21h32 17,81012,3340
 15/04/2015 20h32 18,61012,2310
 15/04/2015 19h32 20,41012,2260
 15/04/2015 18h32 22,81012,4260
 15/04/2015 17h32 23,51012,5260
 15/04/2015 16h32 26,91012,6230
 15/04/2015 15h32 26,81013,1230
 15/04/2015 14h32 27,81013,4220
 15/04/2015 13h32 27,81014,3220
 15/04/2015 12h32 27,21014,5210
 15/04/2015 11h32 281014,8200
 15/04/2015 10h32 27,61015,2240
 15/04/2015 09h32 22,11015,3370
 15/04/2015 08h32 11,61015,3570
 15/04/2015 07h32 10,31015,3620
 15/04/2015 06h32 8,81015,4620
 15/04/2015 05h32 9,11015,4630
 15/04/2015 04h32 9,41015,9630
 15/04/2015 03h32 9,41016,7670
 15/04/2015 02h32 9,81017,1670
 15/04/2015 01h32 11,11017,8620
 15/04/2015 00h32 12,31018,2610
 14/04/2015 23h32 13,61018,2530
 14/04/2015 22h32 16,71018,6410
 14/04/2015 21h32 20,51018,3290
 14/04/2015 20h32 24,31017,8340
 14/04/2015 19h32 30,71018,1240
 14/04/2015 18h32 31,91018,3210
 14/04/2015 17h32 35,11018,7190
 14/04/2015 16h32 36,61019,4180
 14/04/2015 15h32 35,91020,5200
 14/04/2015 14h32 32,91021,5220
 14/04/2015 13h32 32,11022,2250
 14/04/2015 12h32 32,61023270
 14/04/2015 11h32 29,91023,8330
 14/04/2015 10h32 24,91023,9420
 14/04/2015 09h32 18,41024570
 14/04/2015 08h32 14,11024,2710
 14/04/2015 07h32 7,21023,9880
 14/04/2015 06h32 7,11023,8850
 14/04/2015 05h32 7,91023,7840
 14/04/2015 04h32 7,61023,9830
 14/04/2015 03h32 8,91024,4810
 14/04/2015 02h32 10,31024,5770
 14/04/2015 01h32 10,91024,7730
 14/04/2015 00h32 11,91024,7680
 13/04/2015 23h32 13,61024,7620
 13/04/2015 22h32 15,51024,4520
 13/04/2015 21h32 18,41023,9450
 13/04/2015 20h32 24,41023,5310
 13/04/2015 19h32 30,11023,6230
 13/04/2015 18h32 30,91023,8220
 13/04/2015 17h32 35,41024190
 13/04/2015 16h32 35,41024,3190
 13/04/2015 15h32 35,21025210
 13/04/2015 14h32 32,91025,6250
 13/04/2015 13h32 31,11026,2240
 13/04/2015 12h32 30,51026,6260
 13/04/2015 11h32 29,11027,1310
 13/04/2015 10h32 24,41027,1400
 13/04/2015 09h32 20,51027,2490
 13/04/2015 08h32 121026,7730
 13/04/2015 07h32 5,41026,4870
 13/04/2015 06h32 5,31025,7840
 13/04/2015 05h32 6,81025,6820
 13/04/2015 04h32 7,61025,5780
 13/04/2015 03h32 8,31025,4770
 13/04/2015 02h32 9,11025,7740
 13/04/2015 01h32 11,11025,6680
 13/04/2015 00h32 121025,2620
 12/04/2015 23h32 13,71025,1560
 12/04/2015 22h32 15,91024,6500
 12/04/2015 21h32 17,61024,2470
 12/04/2015 20h32 22,41023,6390
 12/04/2015 19h32 28,61023,2300
 12/04/2015 18h32 29,31023,4290
 12/04/2015 17h32 31,21023,3270
 12/04/2015 16h32 34,41023,6230
 12/04/2015 15h32 33,11024,3260
 12/04/2015 14h32 29,81024,8300
 12/04/2015 13h32 27,81025,4350
 12/04/2015 12h32 281026,1350
 12/04/2015 11h32 26,41026,3400
 12/04/2015 10h32 23,31026,2460
 12/04/2015 09h32 15,41026,1660
 12/04/2015 08h32 10,21025,8840
 12/04/2015 07h32 4,81025,3910
 12/04/2015 06h32 4,91025,1890
 12/04/2015 05h32 5,81025890
 12/04/2015 04h32 6,11025,2870
 12/04/2015 03h32 6,91025,2870
 12/04/2015 02h32 7,81025,5850
 12/04/2015 01h32 8,41025,7820
 12/04/2015 00h32 10,11025,3770
 11/04/2015 23h32 11,51025,2730
 11/04/2015 22h32 13,21024,8680
 11/04/2015 21h32 14,91024,4620
 11/04/2015 20h32 17,81023,6520
 11/04/2015 19h32 23,31023,1390
 11/04/2015 18h32 251022,9370
 11/04/2015 17h32 27,51022,8340
 11/04/2015 16h32 28,91022,9270
 11/04/2015 15h32 30,11023,3270
 11/04/2015 14h32 25,31023,6340
 11/04/2015 13h32 23,61023,9380
 11/04/2015 12h32 22,51024,4370
 11/04/2015 11h32 21,31024,6390
 11/04/2015 10h32 23,21024,1380
 11/04/2015 09h32 15,61023,5490
 11/04/2015 08h32 8,11022,8700
 11/04/2015 07h32 3,21021,9780
 11/04/2015 06h32 3,41021,6750
 11/04/2015 05h32 4,91021,1710
 11/04/2015 04h32 41021,2710
 11/04/2015 03h32 4,61020,8650
 11/04/2015 02h32 5,41020,9640
 11/04/2015 01h32 6,11020,9560
 11/04/2015 00h32 7,91020,7520
 10/04/2015 23h32 10,31020,3450
 10/04/2015 22h32 11,91020400
 10/04/2015 21h32 12,81019,6400
 10/04/2015 20h32 14,31019,4400
 10/04/2015 19h32 19,11018,6350
 10/04/2015 18h32 21,21018,2330
 10/04/2015 17h32 25,91018,2270
 10/04/2015 16h32 28,91018,5220
 10/04/2015 15h32 251018,7270
 10/04/2015 14h32 23,31018,9300
 10/04/2015 13h32 22,81019,5330
 10/04/2015 12h32 22,11019,8340
 10/04/2015 11h32 24,21020,2370
 10/04/2015 10h32 20,91020,3440
 10/04/2015 09h32 14,91020,3580
 10/04/2015 08h32 7,61020790
 10/04/2015 07h32 2,41019,9860
 10/04/2015 06h32 2,91019,1840
 10/04/2015 05h32 2,71019,2830
 10/04/2015 04h32 3,81019,3800
 10/04/2015 03h32 3,61019,2780
 10/04/2015 02h32 4,91019,8730
 10/04/2015 01h32 5,61020,1690
 10/04/2015 00h32 6,71020,1640
 09/04/2015 23h32 7,51020,1590
 09/04/2015 22h32 8,81020,2540
 09/04/2015 21h32 11,31020,1460
 09/04/2015 20h32 14,61020380
 09/04/2015 19h32 21,41019,6270
 09/04/2015 18h32 22,91019,5250
 09/04/2015 17h32 26,51019,7200
 09/04/2015 16h32 25,91019,9210
 09/04/2015 15h32 28,61020,4190
 09/04/2015 14h32 26,11020,6220
 09/04/2015 13h32 23,41020,9240
 09/04/2015 12h32 22,41021,3230
 09/04/2015 11h32 21,31021,6230
 09/04/2015 10h32 22,21021,4330
 09/04/2015 09h32 14,11021,4460
 09/04/2015 08h32 7,11021,5660
 09/04/2015 07h32 -0,11021,3800
 09/04/2015 06h32 0,11021,2790
 09/04/2015 05h32 0,71020,9760
 09/04/2015 04h32 1,61021,3720
 09/04/2015 03h32 1,61021,6700
 09/04/2015 02h32 3,31021,9660
 09/04/2015 01h32 4,41022,1590
 09/04/2015 00h32 8,31022,3450
 08/04/2015 23h32 10,81022,5390
 08/04/2015 22h32 10,41022,5400
 08/04/2015 21h32 11,91022,5400
 08/04/2015 20h32 15,91021,8310
 08/04/2015 19h32 22,61021,7230
 08/04/2015 18h32 24,81021,5230
 08/04/2015 17h32 28,91021,7190
 08/04/2015 16h32 29,91022,3180
 08/04/2015 15h32 26,11023,2220
 08/04/2015 14h32 23,91023,7250
 08/04/2015 13h32 22,61024,3240
 08/04/2015 12h32 22,41024,7260
 08/04/2015 08h32 7,81025,2710
 08/04/2015 07h32 1,71025,1820
 08/04/2015 06h32 0,71025800
 08/04/2015 05h32 2,21024,9780
 08/04/2015 04h32 3,11025,2750
 08/04/2015 03h32 3,31025,4750
 08/04/2015 02h32 4,41026720
 08/04/2015 01h32 4,91026,2680
 08/04/2015 00h32 6,91026,2620
 07/04/2015 23h32 9,11026570
 07/04/2015 22h32 10,11025,9580
 07/04/2015 21h32 111025,4530
 07/04/2015 20h32 13,31024,6450
 07/04/2015 19h32 18,81024,3350
 07/04/2015 18h32 20,11024,1330
 07/04/2015 17h32 23,41024280
 07/04/2015 16h32 251024270
 07/04/2015 15h32 24,91024,3250
 07/04/2015 14h32 21,81024,6300
 07/04/2015 13h32 20,41024,5330
 07/04/2015 12h32 20,31024,8320
 07/04/2015 11h32 20,31025340
 07/04/2015 10h32 16,21024,5420
 07/04/2015 09h32 12,81024,6480
 07/04/2015 08h32 8,21023,8640
 07/04/2015 07h32 1,21023,2780
 07/04/2015 06h32 1,31022,5730
 07/04/2015 05h32 31022690
 07/04/2015 04h32 4,21022660
 07/04/2015 03h32 4,91022,1610
 07/04/2015 02h32 5,51022,1620
 07/04/2015 01h32 5,61022620
 07/04/2015 00h32 5,81021,5600
 06/04/2015 23h32 7,61021530
 06/04/2015 22h32 9,31020,3490
 06/04/2015 21h32 11,21019,5460
 06/04/2015 20h32 14,61018,8380
 06/04/2015 19h32 19,71018,3300
 06/04/2015 18h32 20,81018,3290
 06/04/2015 17h32 25,11018,4250
 06/04/2015 16h32 25,81018,5240
 06/04/2015 15h32 24,31019260
 06/04/2015 14h32 20,21019,5310
 06/04/2015 13h32 18,81019,5330
 06/04/2015 12h32 191019,3320
 06/04/2015 11h32 17,11019,3360
 06/04/2015 10h32 13,31019460
 06/04/2015 09h32 9,61018,8560
 06/04/2015 08h32 4,41018,5740
 06/04/2015 07h32 -2,41017,7850
 06/04/2015 06h32 -0,71017830
 06/04/2015 05h32 -1,21017840
 06/04/2015 04h32 -1,21016,7820
 06/04/2015 03h32 0,11016,8800
 06/04/2015 02h32 1,31016,6730
 06/04/2015 01h32 3,31016,3660
 06/04/2015 00h32 5,41016600
 05/04/2015 23h32 6,81015,8540
 05/04/2015 22h32 7,91015,3550
 05/04/2015 21h32 9,61014,8520
 05/04/2015 20h32 11,51013,9470
 05/04/2015 19h32 16,21013,3390
 05/04/2015 18h32 17,41012,7390
 05/04/2015 17h32 19,31012,6360
 05/04/2015 16h32 20,61012,7330
 05/04/2015 15h32 20,81012,8370
 05/04/2015 14h32 17,41013,3440
 05/04/2015 13h32 161013,8470
 05/04/2015 12h32 14,41014,2530
 05/04/2015 11h32 16,11014,5470
 05/04/2015 10h32 141014,4540
 05/04/2015 09h32 10,31014,2620
 05/04/2015 08h32 7,61013,7750
 05/04/2015 07h32 3,91012,8870
 05/04/2015 06h32 4,81012,5870
 05/04/2015 05h32 6,81012,3900
 05/04/2015 04h32 7,41012,3900
 05/04/2015 03h32 8,11012,7910
 05/04/2015 02h32 8,31012,8910
 05/04/2015 01h32 9,41013,4900
 05/04/2015 00h32 9,21013,3910
 04/04/2015 23h32 9,41013,2900,5
 04/04/2015 22h32 9,91013,1860
 04/04/2015 21h32 9,91013860
 04/04/2015 20h32 10,11012,8870
 04/04/2015 19h32 10,41012,7860
 04/04/2015 18h32 10,51012,9870
 04/04/2015 17h32 11,61012,8810
 04/04/2015 16h32 11,81013,1790
 04/04/2015 15h32 11,91013,7770,5
 04/04/2015 14h32 12,31014,4760
 04/04/2015 13h32 11,51014,7830
 04/04/2015 12h32 11,91015,1800
 04/04/2015 11h32 10,11015,2850
 04/04/2015 10h32 9,91015,2850
 04/04/2015 09h32 10,11015,2870
 04/04/2015 08h32 8,91014,9890
 04/04/2015 07h32 7,91014,6910
 04/04/2015 06h32 8,21014,3900
 04/04/2015 05h32 8,51014,3890,6
 04/04/2015 04h32 8,71014,8870
 04/04/2015 03h32 101015,2810
 04/04/2015 02h32 10,41015,4800
 04/04/2015 01h32 10,71015,5770
 04/04/2015 00h32 10,91015,6750
 03/04/2015 23h32 11,21016730
 03/04/2015 22h32 10,91015,8720
 03/04/2015 21h32 10,51015,6720
 03/04/2015 20h32 12,11015,4670
 03/04/2015 19h32 16,71015,2560
 03/04/2015 18h32 18,21014,8540
 03/04/2015 17h32 21,51015470
 03/04/2015 16h32 22,91015,3450
 03/04/2015 15h32 23,11016,4450
 03/04/2015 14h32 21,11017,1490
 03/04/2015 13h32 201017,9530
 03/04/2015 12h32 201018,9520
 03/04/2015 11h32 19,91019,5560
 03/04/2015 10h32 17,81019,8600
 03/04/2015 09h32 11,71019,9800
 03/04/2015 08h32 101020,4830
 03/04/2015 07h32 9,31020,1830
 03/04/2015 06h32 9,51020,3820
 03/04/2015 05h32 9,81020,9800
 03/04/2015 04h32 10,41021,3780
 03/04/2015 03h32 10,81021,8770
 03/04/2015 02h32 11,61022,4710
 03/04/2015 01h32 11,31022,5740
 03/04/2015 00h32 11,31022,9750
 02/04/2015 23h32 11,81023,2730
 02/04/2015 22h32 12,31023,3690
 02/04/2015 21h32 12,91023660
 02/04/2015 20h32 13,61022,5620
 02/04/2015 19h32 14,71022,5580
 02/04/2015 18h32 18,21022,3510
 02/04/2015 17h32 20,81022,7450
 02/04/2015 16h32 20,11023,4480
 02/04/2015 15h32 19,31024,1510
 02/04/2015 14h32 16,51024,8550
 02/04/2015 13h32 16,41025,6570
 02/04/2015 12h32 14,61026,6590
 02/04/2015 11h32 13,31026,9640
 02/04/2015 10h32 10,51027,2690
 02/04/2015 09h32 11,91026,9710
 02/04/2015 08h32 5,61027910
 02/04/2015 07h32 2,61026,5900
 02/04/2015 06h32 3,11026,2890
 02/04/2015 05h32 3,21026,2880
 02/04/2015 04h32 3,51026,6860
 02/04/2015 03h32 4,31027,1840
 02/04/2015 02h32 4,81027,7820
 02/04/2015 01h32 5,41027,9790
 02/04/2015 00h32 6,91028750
 01/04/2015 23h32 6,81027,9760
 01/04/2015 22h32 6,91027,7750
 01/04/2015 21h32 8,11027,7700
 01/04/2015 20h32 10,51027,4620
 01/04/2015 19h32 12,81027,1570
 01/04/2015 18h32 13,31027,1530
 01/04/2015 17h32 13,31027,2540
 01/04/2015 16h32 15,31027,3500
 01/04/2015 15h32 13,61027,7530
 01/04/2015 14h32 14,51028,4510
 01/04/2015 13h32 15,31028,7530
 01/04/2015 12h32 14,51029570
 01/04/2015 11h32 12,51029,4630
 01/04/2015 10h32 13,11028,7690
 01/04/2015 09h32 10,51028,6800
 01/04/2015 08h32 6,41028,3920
 01/04/2015 07h32 5,81027,6900
 01/04/2015 06h32 6,41027,3890
 01/04/2015 05h32 7,11026,9880
 01/04/2015 04h32 81026,9860
 01/04/2015 03h32 8,61026,5840
 01/04/2015 02h32 9,31026,4840
 01/04/2015 01h32 9,91026,1880
 01/04/2015 00h32 9,81025,7890
 31/03/2015 23h32 9,91025,3900
 31/03/2015 22h32 9,81025,2900
 31/03/2015 21h32 10,31024,5920,5
 31/03/2015 20h32 11,41023,7920,5
 31/03/2015 19h32 11,81023,2920,5
 31/03/2015 18h32 12,31023,5900
 31/03/2015 17h32 12,91023,4880
 31/03/2015 16h32 13,91023,4820
 31/03/2015 15h32 13,61024,1860
 31/03/2015 14h32 14,61024,3780
 31/03/2015 13h32 14,91024,7820,5
 31/03/2015 12h32 13,51024,9810
 31/03/2015 11h32 13,51024,6790
 31/03/2015 10h32 11,11024,5890
 31/03/2015 09h32 11,61023,8890
 31/03/2015 08h32 10,81023,3940
 31/03/2015 07h32 10,81022,2940,5
 31/03/2015 06h32 10,71022940
 31/03/2015 05h32 10,51022,3940
 31/03/2015 04h32 10,51023,1930
 31/03/2015 03h32 10,61023,3940,6
 31/03/2015 02h32 10,91024930,5
 31/03/2015 01h32 11,11023,8932120,7
 31/03/2015 01h03 10,61023,3940,5
 31/03/2015 00h03 10,91024930,5
 30/03/2015 23h03 11,11023,8930
 30/03/2015 22h03 11,31023,6940
 30/03/2015 21h03 11,31023,3941,1
 30/03/2015 20h03 11,61022,9940,5
 30/03/2015 19h03 11,81022,3940,5
 30/03/2015 18h03 121021,8940,5
 30/03/2015 17h03 12,41021,4930,5
 30/03/2015 16h03 12,81020,6930,5
 30/03/2015 15h03 131020,4921,6
 30/03/2015 14h03 13,11020,5921
 30/03/2015 13h03 13,11020,4910,5
 30/03/2015 12h03 12,61020,6910,6
 30/03/2015 11h03 12,41020,7910,5
 30/03/2015 10h03 11,81020,9910
 30/03/2015 09h03 11,11020,4910
 30/03/2015 08h03 10,31020900,5
 30/03/2015 07h03 10,31019,3860
 30/03/2015 06h03 12,31018,4680
 29/03/2015 09h03 12,11022,1911,6
 29/03/2015 08h03 12,91022900,5
 29/03/2015 07h03 10,61022,1930,5
 29/03/2015 06h03 10,11021,8940
 29/03/2015 05h03 9,81021,8930
 28/03/2015 16h03 13,81023,1860
 28/03/2015 15h03 13,91023,2840,5
 28/03/2015 11h03 11,91024,1910
 28/03/2015 10h03 11,81024,4930
 28/03/2015 09h03 11,61024,3930
 28/03/2015 08h03 11,31023,8940
 28/03/2015 07h03 10,81023,4930,5
 28/03/2015 06h03 10,41023,2930
 28/03/2015 05h03 10,21022,9930,5
 28/03/2015 04h03 9,41022,8921,1
 28/03/2015 03h03 8,81022,7910,5
 28/03/2015 02h03 8,61023910,5
 28/03/2015 00h03 9,41023,7850
 27/03/2015 23h03 9,31023,8860
 27/03/2015 22h03 9,91024,4830
 27/03/2015 21h03 11,21024,3720
 27/03/2015 20h03 11,41024690
 27/03/2015 19h03 11,91023,8670
 27/03/2015 18h03 12,71023,1640
 27/03/2015 17h03 13,91022,4580
 27/03/2015 16h03 14,81021,8560
 27/03/2015 15h03 16,91021,8500
 27/03/2015 14h03 16,41021,7530
 27/03/2015 13h03 17,81021,9500
 27/03/2015 12h03 15,61022,2600
 27/03/2015 11h03 15,11022,1640
 27/03/2015 10h03 14,81022,3670
 27/03/2015 09h03 12,31022,8800
 27/03/2015 08h03 9,61022,5870
 27/03/2015 07h03 7,61021,4900,5
 27/03/2015 06h03 7,21020,9890
 27/03/2015 05h03 7,31019,8900
 27/03/2015 04h03 7,31019,5890
 27/03/2015 03h03 7,81018,7860
 27/03/2015 02h03 8,61018,2860
 27/03/2015 01h03 8,81017,8880
 27/03/2015 00h03 8,91017,2900
 26/03/2015 23h03 9,51016,4920,6
 26/03/2015 22h03 91015,5910
 26/03/2015 21h03 8,61014,8890
 26/03/2015 20h03 8,61014,3860
 26/03/2015 19h03 10,11013,8760
 26/03/2015 18h03 10,81012,5680
 26/03/2015 17h03 11,61012640
 26/03/2015 16h03 14,41011,4550
 26/03/2015 15h03 13,61011,3560
 26/03/2015 14h03 151011,4500
 26/03/2015 13h03 15,61011,5460
 26/03/2015 12h03 14,61011,9500
 26/03/2015 11h03 13,11012,6570
 26/03/2015 10h03 11,61013,5630
 26/03/2015 09h03 10,41013,7690
 26/03/2015 08h03 6,41013,8820
 26/03/2015 07h03 3,51013,5910
 26/03/2015 06h03 1,21013,3920
 26/03/2015 05h03 0,41012,7910
 26/03/2015 04h03 0,61012,1910
 26/03/2015 03h03 0,91011,9900
 25/03/2015 21h03 3,21010,5780
 25/03/2015 20h03 41009,9730
 25/03/2015 19h03 5,21009,1690
 25/03/2015 18h03 7,11008,4620
 25/03/2015 17h03 10,41008,1550
 25/03/2015 16h03 11,11007,6560
 25/03/2015 15h03 13,81007,2500
 25/03/2015 14h03 10,81007,1590
 25/03/2015 13h03 9,91007,2630
 25/03/2015 12h03 9,61007,3620
 25/03/2015 11h03 10,21007,3650
 25/03/2015 10h03 7,61007,5760
 25/03/2015 09h03 6,41007,4800
 25/03/2015 08h03 6,61007,2820
 25/03/2015 03h03 4,11006,6910
 25/03/2015 02h03 3,91007920
 25/03/2015 01h03 4,31007,5920,5
 25/03/2015 00h03 4,61007,7920,5
 24/03/2015 23h03 4,61007,9910
 24/03/2015 22h03 4,91007,9910,5
 24/03/2015 21h03 5,31007,2910,5
 24/03/2015 20h03 6,11006,6911,1
 24/03/2015 19h03 8,11005,1901,5
 24/03/2015 18h03 101004,2892,1
 24/03/2015 17h03 11,11004,2840
 24/03/2015 16h03 11,61004,2820
 24/03/2015 15h03 15,11004,3720
 24/03/2015 14h03 13,81004,6800
 24/03/2015 13h03 12,21005810
 24/03/2015 12h03 11,51005,4850
 24/03/2015 11h03 12,11005,6840
 24/03/2015 10h03 10,31006,1840
 24/03/2015 09h03 10,41006,1790
 24/03/2015 08h03 10,11005,6800
 24/03/2015 07h03 7,81005,5840
 24/03/2015 06h03 6,91005,1850
 24/03/2015 05h03 6,11004,8870
 24/03/2015 04h03 6,31004,7830
 24/03/2015 03h03 8,21004,9810
 24/03/2015 02h03 81005810
 24/03/2015 01h03 6,51005,3850
 24/03/2015 00h03 7,61005,7830
 23/03/2015 23h03 8,41006,1800
 23/03/2015 22h03 9,61006,4770
 23/03/2015 21h03 9,81006,6770
 23/03/2015 20h03 10,11006,5740
 23/03/2015 19h03 10,81006,3710
 23/03/2015 18h03 11,71005,7670
 23/03/2015 17h03 13,91005,8600
 23/03/2015 16h03 15,91005,8540
 23/03/2015 15h03 18,11006510
 23/03/2015 14h03 19,41006,7500
 23/03/2015 13h03 18,41007,4550
 23/03/2015 12h03 17,31008,4600
 23/03/2015 11h03 16,11008,8640
 23/03/2015 10h03 16,81009,5630
 23/03/2015 09h03 13,61010,1690
 23/03/2015 08h03 14,51009,9670
 23/03/2015 07h03 11,11010880
 23/03/2015 06h03 5,61009,9930
 23/03/2015 05h03 4,51010,1930,5
 23/03/2015 04h03 4,11009,9930
 23/03/2015 03h03 3,51010,1930
 23/03/2015 02h03 41010,5920
 23/03/2015 01h03 4,91010,8920
 23/03/2015 00h03 5,81011,3920
 22/03/2015 23h03 6,91011,8920
 22/03/2015 22h03 6,81012,2920
 22/03/2015 21h03 6,31012,2900
 22/03/2015 20h03 7,81012890
 22/03/2015 19h03 8,21011,7880
 22/03/2015 18h03 8,81010,9850
 22/03/2015 17h03 11,41010,1680
 22/03/2015 16h03 12,81009,5660
 22/03/2015 15h03 14,41009,4630
 22/03/2015 14h03 13,61009,4660
 22/03/2015 13h03 13,41009,4650
 22/03/2015 12h03 14,81009,6640,5
 22/03/2015 11h03 12,91009,7690
 22/03/2015 10h03 14,11010,1680
 22/03/2015 09h03 13,31010,3710
 22/03/2015 08h03 9,11010,2870
 22/03/2015 07h03 7,31010,2920
 22/03/2015 06h03 71009,9930
 22/03/2015 05h03 7,21009,5920,5
 22/03/2015 04h03 7,41009,6920
 22/03/2015 03h03 8,11009,6930,6
 22/03/2015 02h03 8,21009,9920
 22/03/2015 01h03 8,21010,4920
 22/03/2015 00h03 8,41010,8920,5
 21/03/2015 23h03 8,41011,2920,5
 21/03/2015 22h03 8,71011,5910,5
 21/03/2015 21h03 8,91011,7910
 21/03/2015 20h03 8,91012900,5
 21/03/2015 19h03 9,31011,9890
 21/03/2015 18h03 9,61011,5870,5
 21/03/2015 17h03 11,11010,9810
 21/03/2015 16h03 11,41010,8800
 21/03/2015 15h03 11,61010,6790
 21/03/2015 14h03 131011680
 21/03/2015 13h03 14,11011,2610
 21/03/2015 12h03 15,91011,7570
 21/03/2015 11h03 15,81012,1570
 21/03/2015 10h03 13,91012,5620
 21/03/2015 09h03 13,21012,8680
 21/03/2015 08h03 121012,8700
 21/03/2015 07h03 11,41012,3700
 21/03/2015 06h03 11,31012,2710
 21/03/2015 05h03 10,71012,1740
 21/03/2015 04h03 10,41012,1780
 21/03/2015 03h03 8,41012,4830
 21/03/2015 02h03 9,21012,5790
 21/03/2015 01h03 9,91013760
 21/03/2015 00h03 10,51012,9740
 20/03/2015 23h03 11,61013,5710
 20/03/2015 22h03 11,41013,8720
 20/03/2015 21h03 10,61014,3740
 20/03/2015 20h03 10,91014,5720
 20/03/2015 19h03 10,61014,1690
 20/03/2015 18h03 12,51013,5640
 20/03/2015 17h03 14,11013,2610
 20/03/2015 16h03 14,91013,4580
 20/03/2015 15h03 16,61013,9550
 20/03/2015 14h03 17,81013,7550
 20/03/2015 13h03 17,81013,3530
 20/03/2015 12h03 17,31014550
 20/03/2015 11h03 19,81014,7500
 20/03/2015 10h03 16,21014,9600
 20/03/2015 09h03 12,31015740
 20/03/2015 08h03 11,81015,2760
 20/03/2015 07h03 10,61015,1810
 20/03/2015 06h03 9,21015,1830
 20/03/2015 05h03 9,11015,2830
 20/03/2015 04h03 8,71015,4850
 20/03/2015 03h03 8,91015,2840
 20/03/2015 02h03 8,81015,6840
 20/03/2015 01h03 8,81016,1850
 20/03/2015 00h03 8,91016,6850
 19/03/2015 23h03 8,91016,9850
 19/03/2015 22h03 9,61016,9810
 19/03/2015 21h03 10,51016,7790
 19/03/2015 20h03 11,91016,8730
 19/03/2015 19h03 12,91016,4700
 19/03/2015 18h03 15,11015,7640
 19/03/2015 17h03 19,21015,3530
 19/03/2015 16h03 23,61015,1440
 19/03/2015 15h03 25,81015,2400
 19/03/2015 14h03 26,11015,7420
 19/03/2015 13h03 26,11016,3420
 19/03/2015 12h03 24,81017,3450
 19/03/2015 11h03 23,31017,8490
 19/03/2015 10h03 20,11018,2550
 19/03/2015 09h03 20,31018,5560
 19/03/2015 08h03 14,41018,3730
 18/03/2015 23h03 6,71019880
 18/03/2015 22h03 8,11018,8860
 18/03/2015 21h03 8,11018,7850
 18/03/2015 20h03 9,31018,5810
 18/03/2015 19h03 11,31018,1750
 18/03/2015 18h03 12,61018,1720
 18/03/2015 17h03 14,21017,9660
 18/03/2015 16h03 15,41018650
 18/03/2015 15h03 15,71018,3650
 18/03/2015 14h03 15,81018,6660
 18/03/2015 13h03 16,81018,4620
 18/03/2015 12h03 17,21018,8570
 18/03/2015 11h03 16,41019,2630
 18/03/2015 10h03 151019,3690
 18/03/2015 08h03 13,21019,1730
 18/03/2015 07h03 12,31018,7770
 18/03/2015 06h03 11,41018,5790
 18/03/2015 05h03 10,91018,3820
 18/03/2015 04h03 9,91017,8840
 18/03/2015 03h03 9,51017,6850
 18/03/2015 02h03 9,71018,1860
 18/03/2015 01h03 8,11018,5860
 18/03/2015 00h03 9,41018,6850
 17/03/2015 23h03 9,51018,6850
 17/03/2015 22h03 9,31018,7870
 17/03/2015 21h03 7,21018,6870
 17/03/2015 20h03 8,61018,5830
 17/03/2015 19h03 10,41018790
 17/03/2015 18h03 11,61017,9760
 17/03/2015 17h03 13,61017,3690
 17/03/2015 16h03 15,41016,8630
 17/03/2015 15h03 17,91016,4570
 17/03/2015 14h03 19,21016,2520
 17/03/2015 13h03 18,91016,6530
 17/03/2015 12h03 17,81016,7560
 17/03/2015 11h03 16,61017,1600
 17/03/2015 10h03 16,11017,2610
 17/03/2015 09h03 13,61017,6660
 17/03/2015 08h03 10,81017,4770
 17/03/2015 07h03 51017,2920
 17/03/2015 06h03 -0,71016,9930
 16/03/2015 19h03 5,11017,4860
 16/03/2015 18h03 6,41017,4790
 16/03/2015 17h03 11,41017,1650
 16/03/2015 16h03 11,91017630
 16/03/2015 15h03 14,91017580
 16/03/2015 14h03 14,91017,3610
 16/03/2015 13h03 15,81017600
 16/03/2015 12h03 12,91017,6710
 16/03/2015 11h03 11,61017,41100
 16/03/2015 10h03 9,810171100
 16/03/2015 09h03 91016,7920
 16/03/2015 08h03 6,41016,1940
 16/03/2015 07h03 5,81015,4940
 16/03/2015 06h03 5,41015,3940
 16/03/2015 05h03 5,21014,7940
 16/03/2015 04h03 5,31014,6940,5
 16/03/2015 03h03 5,31014,5931
 16/03/2015 02h03 5,21014,5931
 16/03/2015 01h03 5,11014,7930,6
 16/03/2015 00h03 5,21015,1930,5
 15/03/2015 23h03 51015,1931
 15/03/2015 22h03 5,11015,3931
 15/03/2015 21h03 5,31015,4931,1
 15/03/2015 20h03 5,51015,5921
 15/03/2015 19h03 5,91015,4923,1
 15/03/2015 18h03 6,11015,2911,1
 15/03/2015 17h03 6,61014,9911
 15/03/2015 16h03 7,11014,5900,5
 15/03/2015 15h03 71014,4891,1
 15/03/2015 14h03 7,51014,4860,5
 15/03/2015 13h03 81014,7840,5
 15/03/2015 12h03 8,41015800
 15/03/2015 11h03 9,21015,7810
 15/03/2015 10h03 8,51016,1810
 15/03/2015 09h03 7,31016,4850
 15/03/2015 08h03 5,61016,8910
 15/03/2015 07h03 4,61017920
 15/03/2015 06h03 4,51017920
 15/03/2015 05h03 4,41016,9920
 15/03/2015 04h03 4,21017920
 15/03/2015 03h03 4,11017920
 15/03/2015 02h03 4,11017,2920
 15/03/2015 01h03 3,61017,8910
 15/03/2015 00h03 3,61018,1910
 14/03/2015 23h03 4,21018,4900
 14/03/2015 22h03 3,81018,7890
 14/03/2015 21h03 4,11018,8890
 14/03/2015 20h03 4,21018,5870
 14/03/2015 19h03 5,51018,4830
 14/03/2015 18h03 6,31018,1800
 14/03/2015 17h03 8,91017,7720
 14/03/2015 16h03 9,71017,2700
 14/03/2015 15h03 7,31017,2840,5
 14/03/2015 14h03 7,51017,6780
 14/03/2015 13h03 10,11017,5730
 14/03/2015 12h03 10,31017,9720
 14/03/2015 11h03 12,61018,3721
 14/03/2015 10h03 7,41018,6840
 14/03/2015 09h03 8,31018,6830
 14/03/2015 08h03 5,21018,8910,6
 14/03/2015 07h03 4,91018,8900
 14/03/2015 06h03 4,81018,7910
 14/03/2015 05h03 3,91018,5900,5
 14/03/2015 04h03 4,61018,6900,5
 14/03/2015 03h03 4,61018,5890
 14/03/2015 02h03 5,21018,6860
 14/03/2015 01h03 51019870
 14/03/2015 00h03 5,61019,1820
 13/03/2015 23h03 5,61019,5820
 13/03/2015 22h03 4,31020,1850
 13/03/2015 21h03 4,31020,4830
 13/03/2015 20h03 6,41020,1800
 13/03/2015 19h03 7,21019,8790
 13/03/2015 18h03 8,31019,6750
 13/03/2015 17h03 9,51019,7760
 13/03/2015 13h03 9,31019,2881
 13/03/2015 12h03 10,41018,7911,1
 13/03/2015 11h03 10,41019,7900
 13/03/2015 10h03 9,91019,9910
 13/03/2015 09h03 9,41020900
 13/03/2015 08h03 8,81020,2900
 13/03/2015 07h03 8,31020,4890
 13/03/2015 06h03 8,21020,7860
 13/03/2015 05h03 8,41020,3850
 13/03/2015 04h03 8,61020,6840
 13/03/2015 03h03 8,81020,2840
 13/03/2015 02h03 9,11020,1840
 13/03/2015 01h03 9,41020860
 13/03/2015 00h03 10,21019,7860
 12/03/2015 23h03 10,41019,7860
 12/03/2015 22h03 9,61019,5870
 12/03/2015 21h03 9,81019850
 12/03/2015 20h03 10,91018,6790
 12/03/2015 19h03 11,81017,8740
 12/03/2015 18h03 13,51016,9700
 12/03/2015 17h03 16,91016,3550
 12/03/2015 16h03 23,31016,1400
 12/03/2015 15h03 27,41015,9360
 12/03/2015 14h03 25,31016,3400
 12/03/2015 13h03 25,11016,8430
 12/03/2015 12h03 221017,8500
 12/03/2015 11h03 18,41018,7600
 12/03/2015 10h03 16,11019,5660
 12/03/2015 09h03 13,91020,1790
 12/03/2015 08h03 11,21020,5860
 12/03/2015 07h03 9,31020,8900
 12/03/2015 06h03 8,91020,7890
 12/03/2015 05h03 9,31020,9880
 12/03/2015 04h03 9,61021870
 12/03/2015 03h03 9,81021,4860
 12/03/2015 02h03 9,91021,7850
 12/03/2015 01h03 10,21022,3840
 12/03/2015 00h03 10,51022,8830
 11/03/2015 23h03 10,91023830
 11/03/2015 22h03 11,21023,4830
 11/03/2015 21h03 11,31023,4820
 11/03/2015 20h03 11,81022,8800
 11/03/2015 19h03 13,41022,1760
 11/03/2015 18h03 15,41021,3620
 11/03/2015 17h03 17,21021,2580
 11/03/2015 16h03 21,21020,9460
 11/03/2015 15h03 24,91020,9390
 11/03/2015 14h03 26,11021380
 11/03/2015 13h03 251021,1430
 11/03/2015 12h03 23,11021,9470
 11/03/2015 11h03 191022,4540
 11/03/2015 10h03 19,41022,5550
 11/03/2015 09h03 17,51022,5560
 11/03/2015 08h03 16,71022,8630
 11/03/2015 06h03 4,71021,8900
 11/03/2015 05h03 5,61021,4890
 11/03/2015 04h03 5,41021,1890
 11/03/2015 03h03 5,61021,2890
 11/03/2015 02h03 4,91021,6900
 11/03/2015 01h03 51021,8900
 11/03/2015 00h03 4,91022,1890
 10/03/2015 23h03 5,71022,4870
 10/03/2015 22h03 5,71022,7860
 10/03/2015 21h03 6,51022,9850
 10/03/2015 20h03 7,81022,8800
 10/03/2015 19h03 9,11022,5740
 10/03/2015 18h03 11,31022,1670
 10/03/2015 17h03 15,61021,9540
 10/03/2015 16h03 20,51022410
 10/03/2015 15h03 22,41022,2410
 10/03/2015 14h03 24,41022,3400
 10/03/2015 13h03 23,21022,6470
 10/03/2015 12h03 20,61023,4530
 10/03/2015 11h03 17,91024,1600
 10/03/2015 10h03 16,71024,5630
 10/03/2015 09h03 14,91025660
 10/03/2015 08h03 10,81025,2820
 10/03/2015 07h03 4,51024,9940
 10/03/2015 06h03 1,31024,4930
 10/03/2015 05h03 1,31024920
 10/03/2015 04h03 1,41023,9920
 10/03/2015 03h03 1,81023,7920
 10/03/2015 02h03 2,11023,4910
 10/03/2015 01h03 3,31023,7910
 10/03/2015 00h03 4,21023,7890
 09/03/2015 23h03 5,51023,7890
 09/03/2015 22h03 6,11023,6890
 09/03/2015 21h03 6,21023,2880
 09/03/2015 20h03 6,91023,1840
 09/03/2015 19h03 8,31022,7810
 09/03/2015 18h03 9,11022,6790
 09/03/2015 17h03 10,71022,6750
 09/03/2015 16h03 12,51022,2690
 09/03/2015 15h03 13,61022,4650
 09/03/2015 14h03 16,31022,7580
 09/03/2015 13h03 18,11022,6560
 09/03/2015 12h03 15,21023,2610
 09/03/2015 11h03 12,91023,6690
 09/03/2015 10h03 10,81024,1760
 09/03/2015 09h03 8,51024,4810
 09/03/2015 08h03 7,51024,6850
 09/03/2015 07h03 6,91024,5860
 09/03/2015 06h03 7,11024870
 09/03/2015 05h03 7,41023,8870
 09/03/2015 04h03 7,61023,7870
 09/03/2015 03h03 7,71023,3870
 09/03/2015 02h03 8,21023,1870
 09/03/2015 01h03 9,11022,9840
 09/03/2015 00h03 10,21022,4820
 08/03/2015 23h03 10,81022,1800
 08/03/2015 22h03 11,11021,9760
 08/03/2015 21h03 11,51021,5710
 08/03/2015 20h03 12,11021,4660
 08/03/2015 19h03 13,11021590
 08/03/2015 18h03 13,81021570
 08/03/2015 17h03 15,41020,5530
 08/03/2015 16h03 17,91020,2480
 08/03/2015 15h03 22,41020,4400
 08/03/2015 14h03 22,51020,4410
 08/03/2015 13h03 21,91020,7410
 08/03/2015 12h03 19,61021,3460
 08/03/2015 11h03 18,51022,3490
 08/03/2015 10h03 16,81022,6540
 08/03/2015 09h03 16,11022,8550
 08/03/2015 08h03 11,21022,4760
 08/03/2015 07h03 4,11022,3930
 08/03/2015 06h03 0,21022920
 08/03/2015 05h03 0,31022,1920
 08/03/2015 04h03 0,81022,1910
 08/03/2015 03h03 11022,1900
 08/03/2015 02h03 1,31022,8900
 08/03/2015 01h03 2,21023,1890
 08/03/2015 00h03 2,81023880
 07/03/2015 23h03 3,41023840
 07/03/2015 22h03 4,51023,3810
 07/03/2015 21h03 5,91023,7790
 07/03/2015 20h03 7,61023,6740
 07/03/2015 19h03 9,31023,6680
 07/03/2015 18h03 11,61024,1620
 07/03/2015 17h03 14,51023,6560
 07/03/2015 16h03 18,61024480
 07/03/2015 15h03 21,51023,9370
 07/03/2015 14h03 23,41024,3350
 07/03/2015 13h03 21,11024,7420
 07/03/2015 12h03 20,21025,4430
 07/03/2015 11h03 17,11026,2520
 07/03/2015 10h03 16,61026,6500
 07/03/2015 09h03 13,91027,1540
 07/03/2015 08h03 10,81026,6690
 07/03/2015 07h03 3,91026,4920
 07/03/2015 06h03 -1,61025,9910
 07/03/2015 05h03 -1,91025,9900
 07/03/2015 04h03 -0,91026,5900
 07/03/2015 03h03 -0,41026,8890
 07/03/2015 02h03 0,11027,1890
 07/03/2015 01h03 11027,4870
 07/03/2015 00h03 1,31027,6860
 06/03/2015 23h03 2,51027,7840
 06/03/2015 22h03 2,81028800
 06/03/2015 21h03 4,91028,2730
 06/03/2015 20h03 6,41028,4680
 06/03/2015 19h03 8,61028,3590
 06/03/2015 18h03 10,11028,4560
 06/03/2015 17h03 13,61027,9470
 06/03/2015 16h03 20,41027,5330
 06/03/2015 15h03 22,11028330
 06/03/2015 13h03 19,81029,1380
 06/03/2015 12h03 15,61029,8450
 06/03/2015 11h03 13,91030,6470
 06/03/2015 10h03 13,31031,6490
 06/03/2015 09h03 10,81032,1550
 06/03/2015 08h03 11,21032,6580
 06/03/2015 07h03 2,81032,2850
 06/03/2015 06h03 0,11031,7840
 06/03/2015 05h03 -0,11031,8830
 06/03/2015 04h03 0,61031,9830
 06/03/2015 03h03 -0,11032,2810
 06/03/2015 02h03 1,11032770
 06/03/2015 01h03 2,31032,1760
 06/03/2015 00h03 2,41032,9740
 05/03/2015 23h03 3,11033690
 05/03/2015 22h03 3,41033,2670
 05/03/2015 21h03 3,21033,2660
 05/03/2015 20h03 4,91033,1610
 05/03/2015 19h03 6,11032,8560
 05/03/2015 18h03 7,11032,5530
 05/03/2015 17h03 9,51031,3470
 05/03/2015 16h03 13,61030,9400
 05/03/2015 15h03 15,11030,6410
 05/03/2015 14h03 14,91031440
 05/03/2015 13h19 11,61031,2510
 05/03/2015 12h18 11,41031,8530
 05/03/2015 11h17 9,11032,6620
 05/03/2015 10h16 10,41032,9610
 05/03/2015 09h15 6,31033,4690
 05/03/2015 08h14 7,31033,2690
 05/03/2015 07h13 4,51032,9780
 05/03/2015 06h12 1,21032,2870
 05/03/2015 05h11 1,41031,9860
 05/03/2015 04h10 1,61031,3850
 05/03/2015 03h09 2,21030,7830
 05/03/2015 02h08 2,71030,8820
 05/03/2015 01h07 2,81031820
 05/03/2015 00h06 2,81031820
 04/03/2015 23h05 3,21030,8800
 04/03/2015 22h04 3,81031770
 04/03/2015 21h03 3,91030,8760
 04/03/2015 20h02 4,51030,3760
 04/03/2015 19h01 6,41029,9680
 04/03/2015 18h00 6,21028,9660
 04/03/2015 16h59 8,41027,7570
 04/03/2015 15h58 10,41027500
 04/03/2015 14h57 10,61026,5510
 04/03/2015 13h56 14,31026,2480,5
 04/03/2015 12h55 12,71026,6600
 04/03/2015 11h54 8,91027,2770
 04/03/2015 10h53 10,51028,1770
 04/03/2015 09h52 7,91028,5870
 04/03/2015 08h51 6,61028910
 04/03/2015 07h50 6,21027,5920,5
 04/03/2015 07h38 6,21027,3929,3
 02/03/2015 02h32 12,21015,6940,5
 02/03/2015 01h32 12,31015,9940
 02/03/2015 00h32 12,31015,9941,1
 01/03/2015 23h32 12,31015,8940,5
 01/03/2015 22h32 12,41016940
 01/03/2015 21h32 12,31016,2930,5
 01/03/2015 20h32 121016,1930,5
 01/03/2015 19h32 12,11015,7920,6
 01/03/2015 13h32 13,41016,2900
 01/03/2015 12h32 12,61017910,5
 01/03/2015 11h32 12,41017,5920
 01/03/2015 10h32 11,91017,2930,5
 01/03/2015 09h32 11,41016,9942,1
 01/03/2015 08h32 11,11016,6941
 01/03/2015 07h32 111015,9941
 01/03/2015 06h32 10,91015,4941,1
 01/03/2015 05h32 9,91015,3932
 01/03/2015 04h32 7,91015,3931,1
 01/03/2015 03h32 7,51014,9921
 01/03/2015 02h32 7,31015,3920,5
 01/03/2015 01h32 71016,1920
 01/03/2015 00h32 6,91016,8920
 28/02/2015 23h32 6,71017910,6
 28/02/2015 22h32 6,81017,5900,5
 28/02/2015 21h32 6,91017,8890,5
 27/02/2015 14h32 12,21019,5490
 27/02/2015 13h32 10,31019,7570
 27/02/2015 12h32 8,21019,9660
 27/02/2015 10h32 9,21019,2620
 27/02/2015 09h32 9,21018,7690
 27/02/2015 07h32 4,61017890
 27/02/2015 05h32 5,51015,5901
 27/02/2015 04h32 6,51014,3910,5
 27/02/2015 03h32 7,81012,9930
 27/02/2015 02h32 9,21011,8941,1
 27/02/2015 01h32 10,11011,5952,1
 27/02/2015 00h32 9,81011,8941,5
 26/02/2015 23h32 9,71012,2941,6
 26/02/2015 22h32 9,81012,9941,5
 26/02/2015 21h32 9,81013,8941
 26/02/2015 20h32 9,81014,5940
 26/02/2015 19h32 9,81015,3930
 26/02/2015 18h32 9,91015,9920
 26/02/2015 17h32 10,31016,1930,6
 26/02/2015 16h32 10,81015,7931,5
 26/02/2015 15h32 11,21016,2920
 26/02/2015 14h32 11,31016,6920
 26/02/2015 13h32 111017,2920
 26/02/2015 12h32 10,81017,5920,5
 26/02/2015 11h32 10,31018,4930,6
 26/02/2015 10h32 101019941
 26/02/2015 09h32 9,41019,1941
 26/02/2015 08h32 9,21019,2940,5
 26/02/2015 07h32 8,61019,2940,6
 26/02/2015 06h32 8,41019,3940,5
 26/02/2015 05h32 8,41019,2940
 26/02/2015 04h32 8,71019930,5
 26/02/2015 03h32 8,91018,8940,5
 26/02/2015 02h32 8,91019,1930
 26/02/2015 01h32 91019,4930
 26/02/2015 00h32 9,31019,5920
 25/02/2015 22h32 91019,2930
 25/02/2015 21h32 8,91018,8930,5
 25/02/2015 20h32 8,91018,3930
 25/02/2015 19h32 8,91017,8930
 25/02/2015 18h32 8,71017,5920
 25/02/2015 17h32 8,91017,1890
 25/02/2015 16h32 9,51016,9870,6
 25/02/2015 15h32 8,91017,1880,5
 25/02/2015 11h32 8,21019,4830
 25/02/2015 10h32 7,41020840
 25/02/2015 09h32 5,31020,3890
 25/02/2015 08h32 4,31020,5910
 25/02/2015 07h32 3,31020,8920
 24/02/2015 20h32 4,31018,4860
 24/02/2015 19h32 4,11017,9850
 24/02/2015 17h32 6,11016,1830,5
 24/02/2015 16h32 9,91014,5670
 24/02/2015 15h32 9,31014,6740,5
 24/02/2015 14h32 8,91014,4750
 24/02/2015 12h32 6,41014,5860,5
 24/02/2015 11h32 7,11015850,5
 24/02/2015 10h32 5,61015850
 24/02/2015 09h32 5,91014,3860
 24/02/2015 08h32 4,11013,7900
 24/02/2015 07h32 3,61012,7920
 24/02/2015 04h32 3,21011920
 24/02/2015 03h32 3,81010,4910,6
 24/02/2015 02h32 4,41009,9912
 24/02/2015 01h32 4,91009,2921,1
 24/02/2015 00h32 5,31008,8920
 23/02/2015 23h32 5,31008,7930
 23/02/2015 22h32 5,11008,8910,5
 23/02/2015 21h32 5,51008,9901
 23/02/2015 20h32 7,31008,1911,6
 23/02/2015 19h32 8,11007,3880
 23/02/2015 18h32 8,81006,5870
 23/02/2015 17h32 9,41006880
 23/02/2015 16h32 11,41006,1810
 23/02/2015 15h32 12,91005,7780,5
 23/02/2015 14h32 13,91005,7791
 23/02/2015 13h32 14,31005,7810
 23/02/2015 12h32 12,41006,1870
 23/02/2015 11h32 12,61006,3860
 23/02/2015 10h32 10,81006,8920,5
 23/02/2015 09h32 7,61006,9910,6
 23/02/2015 08h32 5,21006,9920,5
 23/02/2015 07h32 3,91006,9921
 23/02/2015 06h32 3,31007,1910
 23/02/2015 05h32 2,81007,8910,5
 23/02/2015 04h32 2,41007,9900,6
 23/02/2015 03h32 2,21008880,5
 23/02/2015 02h32 2,11008,7860
 23/02/2015 01h32 1,81009,7850
 23/02/2015 00h32 1,51010,3850
 22/02/2015 23h32 0,91010,4860
 22/02/2015 22h32 -0,31010,7860
 22/02/2015 21h32 0,11011,2850
 22/02/2015 20h32 0,11011,1820
 22/02/2015 19h32 1,31011,2790
 22/02/2015 18h32 2,21011,5730
 22/02/2015 17h32 5,11011,5650
 22/02/2015 16h32 8,81011,7530
 22/02/2015 15h32 11,81011,6520
 22/02/2015 14h32 111011,6520
 22/02/2015 13h32 91011,7590
 22/02/2015 12h32 9,81011,5620,5
 22/02/2015 11h32 7,61011,6680
 22/02/2015 10h32 6,51011,7720
 22/02/2015 09h32 51011,1770
 22/02/2015 08h32 1,91010,4870
 22/02/2015 07h32 0,21009,6920
 22/02/2015 06h32 0,31008,6910
 22/02/2015 05h32 1,11008,1910
 22/02/2015 04h32 0,91007,5920
 22/02/2015 03h32 0,11006,6920
 22/02/2015 02h32 -0,11006,5910
 22/02/2015 01h32 11006,3910
 22/02/2015 00h32 1,91006,4910
 21/02/2015 23h32 0,91005,7910
 21/02/2015 22h32 0,91005,7900
 21/02/2015 21h32 2,41005,8890
 21/02/2015 20h32 2,51005,4880
 21/02/2015 19h32 2,31005,2900
 21/02/2015 18h32 2,31004,4891
 21/02/2015 17h32 5,41003,4870
 21/02/2015 16h32 5,51002,6810,5
 21/02/2015 15h32 10,11002,3680
 21/02/2015 14h32 71002,2750
 21/02/2015 13h32 12,81002570
 21/02/2015 12h32 13,61002,3550
 21/02/2015 11h32 13,31002,9640
 21/02/2015 10h32 8,71003,5790
 21/02/2015 09h32 7,81003,3850
 21/02/2015 08h32 5,91003,3910,6
 21/02/2015 07h32 5,41003,3911,5
 21/02/2015 06h32 5,91002,3913,1
 21/02/2015 05h32 5,81002,5911,6
 21/02/2015 04h32 5,61003,1901
 21/02/2015 03h32 5,91002,9860
 21/02/2015 02h32 6,11003,7850
 21/02/2015 01h32 6,41004,6840
 21/02/2015 00h32 7,31005,5810
 20/02/2015 23h32 7,51006,3780
 20/02/2015 22h32 8,41007,4760
 20/02/2015 21h32 8,81008,5750
 20/02/2015 20h32 9,11008,9730
 20/02/2015 19h32 8,91009,4720
 20/02/2015 18h32 8,91010700
 20/02/2015 17h32 9,61010,5650
 20/02/2015 16h32 11,41011,2580
 20/02/2015 15h32 16,81012,2440
 20/02/2015 14h32 18,11013410
 20/02/2015 13h32 20,11013,8420
 20/02/2015 12h32 18,41015,7470
 20/02/2015 11h32 15,61017510
 20/02/2015 10h32 12,11018,2610
 20/02/2015 09h32 9,51019,1670
 20/02/2015 08h32 5,31019,8840
 20/02/2015 07h32 -1,71019,9930
 20/02/2015 06h32 -2,61020,2920
 20/02/2015 05h32 -2,41020,4920
 20/02/2015 04h32 -2,41021,4920
 20/02/2015 03h32 -1,91021,8910
 20/02/2015 02h32 -1,91022,4910
 20/02/2015 01h32 -0,71023,2900
 20/02/2015 00h32 -0,11023,6900
 19/02/2015 23h32 -0,11023,8890
 19/02/2015 22h32 1,11024,1850
 19/02/2015 21h32 1,91024,7850
 19/02/2015 20h32 3,61025,1820
 19/02/2015 19h32 5,91024,8760
 19/02/2015 18h32 7,71025760
 19/02/2015 17h32 10,31024,7660
 19/02/2015 16h32 15,41024,7510
 19/02/2015 15h32 19,91025,4440
 19/02/2015 14h32 20,31025,9450
 19/02/2015 13h32 18,61026,6480
 19/02/2015 12h32 161027,9550
 19/02/2015 11h32 13,51029,1620
 19/02/2015 10h32 10,61029,6710
 19/02/2015 09h32 8,31030,3800
 19/02/2015 08h32 3,51030,6910
 19/02/2015 07h32 -2,11030,4920
 19/02/2015 06h32 -2,71030,1920
 19/02/2015 05h32 -2,71030,1920
 19/02/2015 04h32 -2,21030,6920
 19/02/2015 03h32 -21030,7920
 19/02/2015 02h32 -1,41031,2920
 19/02/2015 01h32 -1,41031,6910
 19/02/2015 00h32 -0,91031,9910
 18/02/2015 23h32 -0,11032,3900
 18/02/2015 22h32 0,11032,5890
 18/02/2015 21h32 1,11032,8880
 18/02/2015 20h32 1,81032,6860
 18/02/2015 19h32 3,31032,2830
 18/02/2015 18h32 4,81031,9790
 18/02/2015 17h32 7,11031,4710
 18/02/2015 16h32 11,41031570
 18/02/2015 15h32 16,11031,2480
 18/02/2015 14h32 16,11031,5490
 18/02/2015 13h32 14,21031,8590
 18/02/2015 12h32 13,41032,1640
 18/02/2015 11h32 10,11032,8730
 18/02/2015 10h32 6,81033,2840
 18/02/2015 09h32 4,61033880
 18/02/2015 08h32 3,31033,1920
 18/02/2015 07h32 2,41032,8920
 18/02/2015 06h32 1,51032,5920
 18/02/2015 05h32 2,11032,4910
 18/02/2015 04h32 2,81032,3910
 18/02/2015 03h32 2,81031,9900
 18/02/2015 02h32 2,71032,2890
 18/02/2015 01h32 2,91032,5900
 18/02/2015 00h32 2,41032,5890
 17/02/2015 23h32 3,11032,6880
 17/02/2015 22h32 4,11032,4860
 17/02/2015 21h32 5,31032,3830
 17/02/2015 20h32 5,91031,6810
 17/02/2015 19h32 7,21031,2790
 17/02/2015 18h32 8,11030,4820
 17/02/2015 17h32 9,31029,6770
 17/02/2015 16h32 111028,7700
 17/02/2015 15h32 14,61028,5590
 17/02/2015 14h32 12,91028,4650
 17/02/2015 13h32 14,61028,3620
 17/02/2015 12h32 14,11028,3660
 17/02/2015 11h32 11,81028,4740
 17/02/2015 10h32 9,91027,9780
 17/02/2015 09h32 7,91027,1830
 17/02/2015 08h32 4,11026,4900
 17/02/2015 07h32 3,11025920
 17/02/2015 06h32 2,11023,4910
 17/02/2015 05h32 3,31022,1900
 17/02/2015 04h32 3,81021,1900
 17/02/2015 03h32 3,61020,1900
 17/02/2015 02h32 3,31019,7910
 17/02/2015 01h32 3,41019,1910
 17/02/2015 00h32 2,81018,3900
 16/02/2015 23h32 31017,8900
 16/02/2015 22h32 3,51017,2880
 16/02/2015 21h32 4,11017,1870
 16/02/2015 20h32 4,51016,6850
 16/02/2015 19h32 4,91016,5840
 16/02/2015 18h32 5,91016,3800
 16/02/2015 17h32 7,61016,2750
 16/02/2015 16h32 10,41015,9650
 16/02/2015 15h32 16,81015,8490
 16/02/2015 14h32 14,91016,4550
 16/02/2015 13h32 13,11016,7590
 16/02/2015 12h32 15,31017,4590
 16/02/2015 11h32 11,41017,9700
 16/02/2015 10h32 10,31018,2760
 16/02/2015 09h32 5,91018,2900
 16/02/2015 08h32 3,91017,9930
 16/02/2015 07h32 3,11017,7930
 16/02/2015 06h32 2,21017,1920
 16/02/2015 05h32 1,31016,6910
 16/02/2015 04h32 1,61016910
 16/02/2015 03h32 2,21015,3890
 16/02/2015 02h32 41014,9870
 16/02/2015 01h32 5,21014,6860
 16/02/2015 00h32 5,51014,58520,7
 06/02/2015 23h32 -0,71013,2900
 06/02/2015 22h32 -0,71013890
 06/02/2015 21h32 -0,71012,8890
 06/02/2015 20h32 -0,71012,8890
 06/02/2015 19h32 -0,71011,8890
 06/02/2015 18h32 -0,61011,4880
 06/02/2015 17h32 -0,61011,3870
 06/02/2015 16h32 -0,21010,2860
 06/02/2015 15h32 0,91009,9830
 06/02/2015 14h32 0,21009860
 06/02/2015 13h32 0,31009,2850
 06/02/2015 12h32 0,91009,5810
 06/02/2015 11h32 0,71009,7810
 06/02/2015 10h32 0,21009,5820
 06/02/2015 09h32 -0,21009,6840
 06/02/2015 08h32 -0,81009860
 06/02/2015 07h32 -1,61008,6870
 06/02/2015 06h32 -1,71008,6880
 06/02/2015 05h32 -1,61008,4880
 06/02/2015 04h32 -1,91008,1880
 06/02/2015 03h32 -1,81007,9880
 06/02/2015 02h32 -1,71007,9870
 06/02/2015 01h32 -0,91008,2830
 06/02/2015 00h32 -0,91008,1820
 05/02/2015 23h32 -0,71008,6810
 05/02/2015 22h32 -0,41008,8780
 05/02/2015 21h32 01009,2750
 05/02/2015 20h32 01009,5760
 05/02/2015 19h32 01009,4770
 05/02/2015 18h32 -0,11009,2760
 05/02/2015 17h32 01009,3770
 05/02/2015 16h32 1,91008,8650
 05/02/2015 15h32 2,51008,7690
 05/02/2015 14h32 3,11008,7630,6
 05/02/2015 13h32 4,51008,8640
 05/02/2015 12h32 4,51009,5560
 05/02/2015 11h32 3,31010,3610
 05/02/2015 10h32 2,81010,2670
 05/02/2015 09h32 0,21010,5800
 05/02/2015 08h32 -1,61010,2840
 05/02/2015 07h32 -3,11009,7870
 05/02/2015 06h32 -2,91009850
 05/02/2015 05h32 -2,71008,1840,5
 05/02/2015 04h32 -2,21008,2820
 05/02/2015 03h32 -2,11008,2820
 05/02/2015 02h32 -2,41008,1830
 05/02/2015 01h32 -1,91008,2820
 05/02/2015 00h32 -1,91007,5820
 04/02/2015 23h32 -1,41007810
 04/02/2015 22h32 -0,71007800
 04/02/2015 21h32 0,41007770
 04/02/2015 20h32 0,61006,8790
 04/02/2015 19h32 -0,21006,3850
 04/02/2015 18h32 0,31005,5860
 04/02/2015 17h32 0,61005850
 04/02/2015 16h32 0,91004850
 04/02/2015 15h32 1,21003,9850
 04/02/2015 14h32 1,91003820
 04/02/2015 13h32 4,11002,8760
 04/02/2015 12h32 2,91003,1780
 04/02/2015 11h32 4,11003,1760,5
 04/02/2015 10h32 2,91003,2840
 04/02/2015 09h32 -0,71002,7930
 04/02/2015 08h32 -2,11002,6930
 04/02/2015 07h32 -2,71002,3930
 04/02/2015 06h32 -2,51001,7930
 04/02/2015 05h32 -2,81001,2930
 04/02/2015 04h32 -3,11000,7930
 04/02/2015 03h32 -2,71000,5930
 04/02/2015 02h32 -2,31000,3930
 04/02/2015 01h32 -1,91000,3930
 04/02/2015 00h32 -2,11000,3920
 03/02/2015 23h32 -3,11000920
 03/02/2015 22h32 -2,8999,8920
 03/02/2015 21h32 -2,5999,7910
 03/02/2015 20h32 -1,4999,9920
 03/02/2015 19h32 -0,8999,6920
 03/02/2015 18h32 0,1999,5910
 03/02/2015 17h32 0,3999,4910
 03/02/2015 16h32 0,9999,2900,5
 03/02/2015 15h32 1,5999,1891
 03/02/2015 14h32 1,4999,2880
 03/02/2015 13h32 2,5999,4860
 03/02/2015 12h32 2,1999,5880
 03/02/2015 11h32 1,4999,9890
 03/02/2015 10h32 0,7999,7900
 03/02/2015 09h32 -0,1998,7910
 03/02/2015 08h32 0,1998,1910
 03/02/2015 07h32 0,1996,8900
 03/02/2015 06h32 0,6995,2870
 03/02/2015 05h32 0,8994,8860
 03/02/2015 04h32 0,6994,8870
 03/02/2015 03h32 0,4995,4880
 03/02/2015 02h32 -0,1996,2900
 03/02/2015 01h32 -0,7996,7910
 03/02/2015 00h32 -1,1997,7900
 02/02/2015 23h32 0,4998,7890
 02/02/2015 22h32 0,7999,4890
 02/02/2015 21h32 0,41000,3890
 02/02/2015 20h32 -0,21000,9890
 02/02/2015 19h32 -0,11001,2880
 02/02/2015 18h32 0,41001,6840
 02/02/2015 17h32 1,91002820
 02/02/2015 16h32 5,31002,5730
 02/02/2015 15h32 6,91003,1700
 02/02/2015 14h32 11,41003,8620
 02/02/2015 13h32 8,41004,4720
 02/02/2015 12h32 8,11005,2720
 02/02/2015 11h32 71006,2790
 02/02/2015 10h32 4,61006,8830
 02/02/2015 09h32 4,21007900
 02/02/2015 08h32 1,91007,2940
 02/02/2015 07h32 1,11007930
 02/02/2015 06h32 0,71007,2930
 02/02/2015 05h32 0,61007,7930
 02/02/2015 04h32 01007,7930
 02/02/2015 03h32 -1,21007,7930
 02/02/2015 02h32 -0,91007,7930
 02/02/2015 01h32 -1,11007,8920
 02/02/2015 00h32 -0,11007,8920
 01/02/2015 23h32 0,91007,9900
 01/02/2015 22h32 1,81007,6900
 01/02/2015 21h32 1,810071100
 01/02/2015 20h32 1,41006,5900
 01/02/2015 19h32 1,31006890
 01/02/2015 18h32 2,41005,2860
 01/02/2015 17h32 3,51004,5790
 01/02/2015 16h32 5,31003,6640
 01/02/2015 15h32 8,61003580
 01/02/2015 14h32 7,81002,9600
 01/02/2015 13h32 6,91002,8640
 01/02/2015 12h32 6,31002,7700
 01/02/2015 11h32 5,51002,7760
 01/02/2015 10h32 4,11002,6800
 01/02/2015 09h32 3,81001,8840,6
 01/02/2015 08h32 3,31000,6890
 01/02/2015 06h32 3,1998,3910,5
 01/02/2015 03h32 3,6996,1910
 01/02/2015 02h32 3,2996,2920,5
 01/02/2015 01h32 3,3995,6920
 31/01/2015 23h32 3,3995890
 31/01/2015 22h32 3,1995,2890
 31/01/2015 21h32 3,3995880
 31/01/2015 20h32 3,6994,6880
 31/01/2015 19h32 3,4994890
 31/01/2015 18h32 3,3993,5880
 31/01/2015 17h32 4,4992,2870
 31/01/2015 16h32 4,9991,4840
 31/01/2015 15h32 6,3990,9800
 31/01/2015 14h32 6,8989,7790
 31/01/2015 13h32 11,4988,9690,5
 31/01/2015 12h32 6,5989,1810
 31/01/2015 11h32 6,4988,7850
 31/01/2015 10h32 5,4988910
 31/01/2015 08h32 4,4986,2940,5
 31/01/2015 07h32 3,9985,3940
 31/01/2015 06h32 3,8984,7941,6
 30/01/2015 23h32 3,6986,1930
 30/01/2015 22h32 3,9986,2930
 30/01/2015 19h32 4,2987,1930
 30/01/2015 18h32 3,1987,6913,1
 30/01/2015 17h32 5,3987,8910,5
 30/01/2015 16h32 5,9987,2890
 30/01/2015 15h32 5,6987,8883,1
 30/01/2015 13h32 7,5988,7820
 30/01/2015 12h32 7,3990,2820
 30/01/2015 11h32 6,7991,3790
 30/01/2015 10h32 5,8992,2830
 30/01/2015 09h32 4,9992,4860
 30/01/2015 08h32 3,8992,9890
 30/01/2015 07h32 3,3992,3890
 30/01/2015 06h32 3,2991,9900
 30/01/2015 05h32 3,9991,2870
 30/01/2015 04h32 4,7991,3840
 30/01/2015 03h32 5,1990,2891,1
 30/01/2015 01h32 6,7988,8910
 30/01/2015 00h32 7,8988,9870
 29/01/2015 23h32 8,1988,7910
 29/01/2015 22h32 8,9988,4893,1
 29/01/2015 19h32 10,4987,9930,5
 29/01/2015 18h32 8,1989,3922,6
 29/01/2015 15h32 7,8995,5910,5
 29/01/2015 14h32 8,4997,6910,5
 29/01/2015 13h32 8,1999,3920,6
 29/01/2015 12h32 8,41001921,5
 29/01/2015 11h32 8,41003912,6
 29/01/2015 08h32 7,81006,61100
 29/01/2015 07h32 7,51007,1931,6
 29/01/2015 06h32 7,41007,9920,5
 29/01/2015 05h32 7,61008,6931,5
 29/01/2015 04h32 7,81009,8920
 29/01/2015 03h32 8,41010,5910
 29/01/2015 02h32 8,41010,7930,5
 29/01/2015 01h32 8,81010,8940,6
 29/01/2015 00h32 8,91010,7940,5
 28/01/2015 23h32 8,41011,3930
 28/01/2015 22h32 7,91012,5910,5
 28/01/2015 21h32 8,31013,5870
 28/01/2015 20h32 7,81014,5880
 28/01/2015 19h32 6,91015,3910
 28/01/2015 18h32 6,81016,3900
 28/01/2015 17h32 6,91016,7880
 28/01/2015 16h32 7,81017,7830
 28/01/2015 15h32 8,41018,5780
 28/01/2015 14h32 10,41018,5680
 28/01/2015 13h32 11,91019,5590
 28/01/2015 12h32 11,81020,9630
 28/01/2015 11h32 10,11021,9680
 28/01/2015 09h32 4,41022,31100
 28/01/2015 08h32 3,81022,8920
 27/01/2015 14h32 6,91023,2860
 27/01/2015 13h32 6,11023,7900,5
 27/01/2015 12h32 6,61024,4870
 27/01/2015 11h32 6,91024,8880
 27/01/2015 10h32 6,61024,8910
 27/01/2015 09h32 6,61024,3940
 27/01/2015 08h32 6,31023,7940
 27/01/2015 07h32 6,41023,1940
 27/01/2015 06h32 6,41023940,5
 27/01/2015 05h32 6,11023,1940
 27/01/2015 04h32 5,81023,1940,6
 27/01/2015 03h32 5,61023,5941
 27/01/2015 02h32 5,31024,1930
 27/01/2015 01h32 4,81024,9930
 27/01/2015 00h32 4,41026930,5
 26/01/2015 23h32 4,11026,2920
 26/01/2015 22h32 3,91026,7920
 26/01/2015 21h32 3,81027910
 26/01/2015 20h32 3,81027,4890
 26/01/2015 19h32 4,41027,5850
 26/01/2015 18h32 4,31027,6820
 26/01/2015 17h32 4,41027,7800
 26/01/2015 16h32 51027,6770
 26/01/2015 15h32 5,51027,5770
 26/01/2015 14h32 6,11027,4760
 26/01/2015 13h32 6,11027,7760
 26/01/2015 12h32 6,31028,1770
 26/01/2015 11h32 4,71028,7830
 26/01/2015 10h32 4,41029,4830
 26/01/2015 09h32 4,11029,3840
 26/01/2015 08h32 2,71028,9860
 26/01/2015 07h32 2,11028,7870
 26/01/2015 06h32 1,91028,4860
 26/01/2015 05h32 2,11028,1860
 26/01/2015 04h32 2,11028,1860
 26/01/2015 03h32 1,91028,4860
 26/01/2015 02h32 1,91028,1860
 26/01/2015 01h32 1,81028,6860
 26/01/2015 00h32 1,91028,5850
 25/01/2015 23h32 2,11028,9840
 25/01/2015 22h32 2,71029820
 25/01/2015 21h32 2,91028,8810
 25/01/2015 20h32 3,11028,3800
 25/01/2015 19h32 3,41028,2790
 25/01/2015 18h32 3,51028,1790
 25/01/2015 17h32 3,91027,7770
 25/01/2015 16h32 4,81027,3740
 25/01/2015 15h32 6,11027690
 25/01/2015 14h32 6,61027,3680
 25/01/2015 13h32 6,61027,4680
 25/01/2015 12h32 5,31027,9720
 25/01/2015 11h32 4,31028,9760
 25/01/2015 10h32 4,11028,9800
 25/01/2015 09h32 2,11028,9890
 25/01/2015 08h32 0,41029,1920
 25/01/2015 07h32 -0,51028,5920
 25/01/2015 06h32 01028920
 25/01/2015 05h32 0,51027,4920
 25/01/2015 04h32 0,61027910
 25/01/2015 03h32 0,71026,8920
 25/01/2015 02h32 0,81026,5920
 25/01/2015 01h32 0,51026,3920
 25/01/2015 00h32 0,51025,6930
 24/01/2015 23h32 0,31025,4930
 24/01/2015 22h32 -0,41025,1930
 24/01/2015 21h32 -0,91024,8920
 24/01/2015 20h32 -0,41024,4920
 24/01/2015 19h32 -0,11024,1920
 24/01/2015 18h32 1,71023,2920
 24/01/2015 17h32 1,11022,7921
 24/01/2015 16h32 11022,3911,1
 24/01/2015 15h32 1,31021,9901
 24/01/2015 14h32 1,81022,7870
 24/01/2015 13h32 2,11023,8830
 24/01/2015 12h32 1,51024,9830
 24/01/2015 11h32 2,11025,6770
 24/01/2015 10h32 1,81026,3790
 24/01/2015 09h32 -0,11026,4830
 24/01/2015 08h32 -0,51026,1850
 24/01/2015 07h32 -0,61025,6850
 24/01/2015 06h32 -0,41025,2840
 24/01/2015 05h32 -0,41024,6830
 24/01/2015 04h32 -0,11024,5820
 24/01/2015 03h32 0,11024,5820
 24/01/2015 02h32 0,31024,5830
 24/01/2015 01h32 0,31024,5850
 24/01/2015 00h32 0,21024,5870
 23/01/2015 23h32 0,21024,6870
 23/01/2015 22h32 01024,6870
 23/01/2015 21h32 -0,21024,5870
 23/01/2015 20h32 -0,21024,3870
 23/01/2015 19h32 0,21023,9850
 23/01/2015 18h32 0,71023,3820
 23/01/2015 17h32 0,61022,6830
 23/01/2015 16h32 0,41022,6830
 23/01/2015 15h32 1,11022800
 23/01/2015 14h32 1,61021,4790
 23/01/2015 13h32 2,21020,9780
 23/01/2015 12h32 2,11020,8790
 23/01/2015 11h32 21021810
 23/01/2015 10h32 2,21021,1820
 23/01/2015 09h32 2,31020,5840
 23/01/2015 08h32 1,91019,6890
 23/01/2015 07h32 1,61018,9910
 23/01/2015 06h32 1,51018,4920
 23/01/2015 05h32 1,41018920
 23/01/2015 04h32 1,21017,7910
 23/01/2015 03h32 0,91017,7890
 23/01/2015 02h32 0,71017,6890
 23/01/2015 01h32 0,81017,2890
 23/01/2015 00h32 0,91017,2890
 22/01/2015 23h32 1,51016,8850
 22/01/2015 22h32 3,51016,2870
 22/01/2015 21h32 3,91015,8900
 22/01/2015 20h32 4,51015,1900
 22/01/2015 19h32 4,81014,8890
 22/01/2015 18h32 4,71014,3880
 22/01/2015 17h32 4,81013,4870
 22/01/2015 16h32 5,61012,5840
 22/01/2015 15h32 6,41011,8820
 22/01/2015 14h32 71011,3820
 22/01/2015 13h32 6,91010,7820
 22/01/2015 12h32 7,11010,5820
 22/01/2015 11h32 6,91010,4840
 22/01/2015 10h32 6,51010,2860
 22/01/2015 09h32 5,11009,5930
 22/01/2015 08h32 3,11008,5930
 22/01/2015 07h32 2,11007,6930
 22/01/2015 06h32 1,81006,8930
 22/01/2015 05h32 1,21006,1930
 22/01/2015 04h32 1,91005,6930
 22/01/2015 03h32 2,31005,1920,5
 22/01/2015 02h32 2,61005920
 22/01/2015 01h32 2,31004,5920
 22/01/2015 00h32 1,81004,2910
 21/01/2015 23h32 1,81004,2900
 21/01/2015 22h32 31004890
 21/01/2015 21h32 3,61003,9860
 21/01/2015 20h32 4,21003,7820
 21/01/2015 19h32 4,41003,4780
 21/01/2015 18h32 4,61003,1760
 21/01/2015 17h32 5,71002,6680
 21/01/2015 16h32 6,91002,2640
 21/01/2015 15h32 8,81001,9590
 21/01/2015 14h32 11,51002,1520
 21/01/2015 13h32 8,81002,4590
 21/01/2015 12h32 7,61003,2650
 21/01/2015 11h32 4,91003,9870
 21/01/2015 10h32 1,41005,1930
 21/01/2015 09h32 -2,11006940
 21/01/2015 08h32 -3,81005,7930
 21/01/2015 06h32 -5,81006,3920
 21/01/2015 05h32 -5,31006,4920
 21/01/2015 04h32 -5,41006,6920
 20/01/2015 17h32 0,31007,8860
 20/01/2015 16h32 3,11007,3790
 20/01/2015 15h32 6,41007680
 20/01/2015 14h32 10,91007,1590
 20/01/2015 12h32 5,41007,8790
 20/01/2015 11h32 5,11008,2800
 20/01/2015 00h32 3,91009,3930
 19/01/2015 23h32 3,91009,3931,1
 19/01/2015 22h32 4,31009,1931
 19/01/2015 16h32 6,11008,2860
 19/01/2015 14h32 7,11008,1840
 19/01/2015 13h32 7,51008,1800
 19/01/2015 10h32 5,91008,7880
 19/01/2015 09h32 5,51008,5930
 19/01/2015 08h32 2,41008940
 19/01/2015 07h32 1,91007,4940
 18/01/2015 18h32 5,81005,9810
 18/01/2015 17h32 5,91005,8810
 18/01/2015 16h32 6,81006,1790
 18/01/2015 15h32 8,81006,3720
 18/01/2015 14h32 9,31007700
 18/01/2015 13h32 10,31007,7690
 18/01/2015 12h32 10,91008,8710
 18/01/2015 11h32 8,11010,2880
 18/01/2015 09h32 2,51012,2950
 18/01/2015 05h32 -0,41013,2940
 18/01/2015 04h32 0,11013,4940
 18/01/2015 03h32 11014,2940
 18/01/2015 02h32 1,91015,1940
 18/01/2015 01h32 1,61015,6940
 18/01/2015 00h32 31016,2940
 17/01/2015 23h32 3,81016,6940
 17/01/2015 22h32 3,61017,4941
 17/01/2015 03h32 4,91015,6940
 17/01/2015 02h32 4,91014,9940,6
 17/01/2015 01h32 4,81014,2940
 17/01/2015 00h32 4,71013,2940,5
 16/01/2015 23h32 4,61012,7940
 16/01/2015 22h32 4,61012,3940
 16/01/2015 21h32 4,51011,7940,5
 16/01/2015 20h32 4,71011,1930
 16/01/2015 19h32 5,21010,4930,5
 16/01/2015 18h32 5,41009,7930,5
 16/01/2015 17h32 5,51009931,1
 16/01/2015 16h32 6,31008930
 16/01/2015 15h32 71007,4930,5
 16/01/2015 14h32 6,91007931
 16/01/2015 13h32 6,91006,8931,6
 16/01/2015 12h32 7,31006,5931
 16/01/2015 11h32 7,21006,4930
 16/01/2015 10h32 7,41006,4930,5
 16/01/2015 09h32 7,41005,8921,6
 16/01/2015 08h32 7,11005,3920
 16/01/2015 07h32 7,31004,6910
 15/01/2015 17h32 10,51007770
 15/01/2015 15h32 171006,3580
 15/01/2015 14h32 23,51005,9410
 15/01/2015 13h32 21,31006,1480
 15/01/2015 12h32 17,41006,7620
 15/01/2015 11h32 13,51008,1740
 15/01/2015 10h32 10,81009,4810
 15/01/2015 09h32 4,71010,1940
 15/01/2015 08h32 0,81010,5930
 15/01/2015 07h32 -0,11011930
 15/01/2015 06h32 -0,61011,3930
 15/01/2015 05h32 -0,41012930
 15/01/2015 04h32 0,91012,4930
 15/01/2015 03h32 0,11013,4920
 15/01/2015 02h32 1,31013,8920
 15/01/2015 01h32 1,11014,4920
 15/01/2015 00h32 1,51015,1920
 14/01/2015 20h32 3,91019,2870
 14/01/2015 19h32 5,31019,8850
 14/01/2015 18h32 6,11020,1810
 14/01/2015 17h32 7,81020,6770
 14/01/2015 16h32 9,91020,4690
 14/01/2015 15h32 12,81020,9630
 14/01/2015 14h32 16,51021540
 14/01/2015 13h32 14,51021,4630
 14/01/2015 12h32 13,51021,7670
 14/01/2015 10h32 10,61023,1860
 14/01/2015 09h32 8,91022,9920
 14/01/2015 08h32 5,81022,5930
 14/01/2015 06h32 6,41021,9920
 14/01/2015 05h32 6,51021,5920
 14/01/2015 04h32 5,91021,2910
 14/01/2015 03h32 6,21020,8910
 14/01/2015 02h32 5,91020,8910
 14/01/2015 01h32 5,61020,8920
 14/01/2015 00h32 5,21020,5920
 13/01/2015 23h32 5,11020910
 13/01/2015 22h32 4,61019,8900
 13/01/2015 21h32 5,91018,7880
 13/01/2015 20h32 6,41018,3870
 13/01/2015 19h32 7,31017,8870
 13/01/2015 18h32 6,81017,8860
 13/01/2015 17h32 8,11017,7820
 13/01/2015 16h32 10,81017,4740
 13/01/2015 15h32 13,81017,3660
 13/01/2015 14h32 191017520
 13/01/2015 13h32 17,61016,5560
 13/01/2015 12h32 14,61016,7640
 13/01/2015 11h32 11,41018,4830
 13/01/2015 10h32 6,21019,3930
 13/01/2015 09h32 1,21019,7940
 13/01/2015 08h32 -0,51019,6940
 13/01/2015 07h32 -0,41019,6940
 13/01/2015 06h32 -0,91019,7930
 13/01/2015 05h32 -0,71019,8930
 13/01/2015 04h32 -0,61020,1940
 13/01/2015 03h32 -0,11020,5930
 13/01/2015 02h32 -0,41021930
 13/01/2015 01h32 -0,41021,3930
 13/01/2015 00h32 -0,61021,3930
 12/01/2015 23h32 -1,11022,1920
 12/01/2015 22h32 0,41022,8910
 12/01/2015 21h32 0,21023,6910
 12/01/2015 20h32 0,91023,8890
 12/01/2015 19h32 2,31024,3890
 12/01/2015 18h32 3,41024,2870
 12/01/2015 17h32 5,41024,3820
 12/01/2015 16h32 8,11024,4760
 12/01/2015 15h32 10,81024,4680
 12/01/2015 14h32 18,21024,4500
 12/01/2015 13h32 16,51024,6550
 12/01/2015 12h32 12,91025,9650
 12/01/2015 11h32 9,91027,4830
 12/01/2015 10h32 4,81028,1930
 12/01/2015 09h32 -0,61028,6940
 12/01/2015 08h32 -1,71028,2930
 12/01/2015 02h32 -1,61031,4930
 12/01/2015 01h32 -0,91032,1930
 12/01/2015 00h32 -0,61032,8920
 11/01/2015 23h32 -0,31033,5920
 11/01/2015 22h32 0,21033,9910
 11/01/2015 21h32 0,81034,1900
 11/01/2015 20h32 2,11034,5880
 11/01/2015 19h32 3,81034,2870
 11/01/2015 18h32 4,31033,6850
 11/01/2015 17h32 5,11033,3830
 11/01/2015 16h32 71032,6770
 11/01/2015 15h32 8,51031,3720
 11/01/2015 14h32 10,31030,6650
 11/01/2015 13h32 12,31030,7620
 11/01/2015 12h32 11,11030,9700
 11/01/2015 11h32 11,21030,5720
 11/01/2015 10h32 11,31030,1750
 11/01/2015 09h32 10,21028,4900,5
 11/01/2015 08h32 9,91026,7950,5
 11/01/2015 07h32 9,81025,7950,5
 11/01/2015 06h32 9,61025,5950
 11/01/2015 05h32 9,61025,2940
 11/01/2015 04h32 9,51025,5940
 11/01/2015 03h32 9,41025,5940
 11/01/2015 02h32 9,41025,7940
 11/01/2015 01h32 9,41026940
 11/01/2015 00h32 9,41026,3940,6
 10/01/2015 23h32 9,51026,7940
 10/01/2015 22h32 9,81027,5930
 10/01/2015 21h32 9,91027,9930
 10/01/2015 20h32 10,11028,4930
 10/01/2015 19h32 10,31028,9930
 10/01/2015 18h32 10,31029,1930
 10/01/2015 17h32 10,41029930
 10/01/2015 16h32 10,71028,9920
 10/01/2015 15h32 11,61028,6900
 10/01/2015 14h32 12,11028,5890
 10/01/2015 13h32 12,31029,4900
 10/01/2015 12h32 12,71030,3910
 10/01/2015 11h32 12,41031,4930
 10/01/2015 10h32 10,61032,4950
 10/01/2015 09h32 101032,8950
 10/01/2015 08h32 9,21032,5950
 10/01/2015 07h32 8,91032,9950
 10/01/2015 06h32 9,11032,9950
 10/01/2015 05h32 91033,4950
 10/01/2015 04h32 8,91033,8950
 10/01/2015 03h32 8,11034,2950
 10/01/2015 02h32 7,91034,9950
 10/01/2015 01h32 8,11034,8950
 10/01/2015 00h32 8,41035,6940
 09/01/2015 23h32 8,51035,8940
 09/01/2015 22h32 8,61036,2930
 09/01/2015 21h32 9,61036,5930
 09/01/2015 20h32 10,11037,4930
 09/01/2015 19h32 10,81038,1920
 09/01/2015 18h32 10,91037,6920
 09/01/2015 17h32 11,31038,1910
 09/01/2015 16h32 11,91037,8890
 09/01/2015 15h32 13,11037,5860
 09/01/2015 14h32 13,91037,7850
 09/01/2015 13h32 13,61038850
 09/01/2015 12h32 14,11038,2880
 09/01/2015 11h32 11,41038,1940
 09/01/2015 10h32 10,21038,5950
 09/01/2015 09h32 9,51038,2950
 09/01/2015 08h32 8,91039,2950
 09/01/2015 07h32 8,21038,6950
 09/01/2015 06h32 8,11038,3950
 09/01/2015 05h32 8,11038,2950
 09/01/2015 04h32 7,81038950
 09/01/2015 03h32 7,91038,3950
 09/01/2015 02h32 8,71038,1940
 09/01/2015 01h32 8,41038,4940
 09/01/2015 00h32 7,51038,3940,5
 08/01/2015 23h32 61038,1930,5
 08/01/2015 22h32 61038,3930
 08/01/2015 21h32 5,81037,8920
 08/01/2015 20h32 5,81037,1920
 08/01/2015 19h32 5,51037930
 08/01/2015 18h32 5,41036,5920
 08/01/2015 17h32 5,41035,8920
 08/01/2015 16h32 5,91035,1890
 08/01/2015 15h32 8,21034,5860
 08/01/2015 14h32 10,41034,7820
 08/01/2015 13h32 8,31035880
 08/01/2015 12h32 7,61035900
 08/01/2015 11h32 6,71035,1930
 08/01/2015 10h32 5,31034,8950
 08/01/2015 09h32 4,31033,7950
 08/01/2015 08h32 3,81033,1950
 08/01/2015 07h32 3,81032,4950
 08/01/2015 06h32 4,11032,1950
 08/01/2015 05h32 4,41031,8950
 08/01/2015 04h32 4,51031,7950
 08/01/2015 03h32 4,51032950
 08/01/2015 02h32 4,41032,1950
 08/01/2015 01h32 4,11031,8950
 08/01/2015 00h32 4,31031,2950
 07/01/2015 23h32 4,31031,2940
 07/01/2015 22h32 4,11031,1940
 07/01/2015 21h32 2,81030,5940
 07/01/2015 20h32 3,71030,3940
 07/01/2015 19h32 4,41030,2940
 07/01/2015 18h32 4,91030930
 07/01/2015 17h32 4,51029,5920
 07/01/2015 16h32 6,11029,1910
 07/01/2015 15h32 9,11028,6870
 07/01/2015 14h32 10,41028,4850
 07/01/2015 13h32 9,41028,3870
 07/01/2015 12h32 9,31028,7870
 07/01/2015 11h32 8,91029,2890
 07/01/2015 10h32 7,31029,6920
 07/01/2015 09h32 6,51029,3940
 07/01/2015 08h32 5,31029,2950
 07/01/2015 07h32 4,51028,6940
 07/01/2015 06h32 4,61028,1940
 07/01/2015 05h32 4,81027,3940
 07/01/2015 04h32 4,61027,2940
 07/01/2015 03h32 4,61027,2940
 07/01/2015 02h32 4,81027,7940
 07/01/2015 01h32 4,91027,3930
 07/01/2015 00h32 4,91027,3930,5
 06/01/2015 23h32 51027,5920
 06/01/2015 22h32 4,91027,6920
 06/01/2015 21h32 4,91027,5920
 06/01/2015 16h32 5,51025,6900
 06/01/2015 15h32 6,91025,4870
 06/01/2015 14h32 8,11025,1860
 06/01/2015 13h32 8,51025,1850
 06/01/2015 12h32 7,21025,1900
 06/01/2015 11h32 4,51025,7940
 06/01/2015 10h32 3,31026,4950
 06/01/2015 09h32 1,91026,3950
 06/01/2015 08h32 0,91025,6950
 06/01/2015 07h32 0,11025,3940
 06/01/2015 06h32 -0,61024,9940
 06/01/2015 05h32 -1,31024,6950
 06/01/2015 04h32 -1,11023,8940
 06/01/2015 03h32 -0,21023,8940
 06/01/2015 02h32 -0,71023,7940
 06/01/2015 01h32 -0,51023,5940
 06/01/2015 00h32 0,11023940
 05/01/2015 23h32 1,11023940
 05/01/2015 22h32 2,31023940
 05/01/2015 21h32 2,51023,2940
 05/01/2015 20h32 2,91023,4940
 05/01/2015 19h32 3,51023,8940
 05/01/2015 16h32 5,91023,8930
 05/01/2015 14h32 8,31024,4860
 05/01/2015 13h32 9,41025,1860
 05/01/2015 12h32 8,31025,6890
 05/01/2015 11h32 6,91026,6940
 05/01/2015 10h32 5,31027,5950
 05/01/2015 09h32 4,41027,8950
 05/01/2015 08h32 4,11028950
 05/01/2015 07h32 3,91028,2950
 05/01/2015 06h32 4,41028950
 05/01/2015 05h32 4,91028,4940
 05/01/2015 04h32 5,31029950
 05/01/2015 03h32 5,81029,6950
 04/01/2015 22h32 5,31031,5930
 04/01/2015 21h32 6,61031,4930,5
 04/01/2015 20h32 91032940
 04/01/2015 19h32 9,51032,4940
 04/01/2015 18h32 9,81032,2930
 04/01/2015 17h32 9,81032920
 04/01/2015 16h32 10,61032910
 04/01/2015 15h32 11,81032910
 04/01/2015 14h32 12,11031,5910
 04/01/2015 13h32 11,41031,4920
 04/01/2015 12h32 12,31031,7900
 04/01/2015 10h32 111032,8950,5
 04/01/2015 09h32 10,11032,7950,6
 04/01/2015 08h32 9,51032,1950
 04/01/2015 07h32 9,41031,7950,5
 04/01/2015 06h32 9,21031,5950
 04/01/2015 05h32 9,21031,3950,5
 04/01/2015 04h32 9,21031950
 04/01/2015 03h32 9,11031,2950
 04/01/2015 02h32 8,91031,7950
 04/01/2015 01h32 8,41031,8940
 04/01/2015 00h32 7,81031,8950
 03/01/2015 23h32 7,41032,2940
 03/01/2015 22h32 5,51032,4940
 03/01/2015 21h32 4,91032,5930,5
 03/01/2015 20h32 4,51032,8930
 03/01/2015 18h32 4,41032,8930
 03/01/2015 17h32 4,51032,9920
 03/01/2015 16h32 4,61033,1920
 03/01/2015 15h32 5,21033,1920
 03/01/2015 14h32 5,51033920
 03/01/2015 13h32 5,61033920
 03/01/2015 12h32 4,91033,3940
 03/01/2015 11h32 4,61033,7940
 03/01/2015 10h32 2,41034,4940
 03/01/2015 09h32 -0,11034,6940
 03/01/2015 08h32 -0,91034,4940
 03/01/2015 07h32 -1,81034940
 03/01/2015 06h32 -1,71033,6940
 03/01/2015 05h32 -3,31033,5930
 03/01/2015 04h32 -3,11033,7930
 03/01/2015 03h32 -2,71034,1940
 03/01/2015 02h32 -2,81034,7930
 03/01/2015 01h32 -2,51034,9930
 03/01/2015 00h32 -2,51035,1930
 02/01/2015 23h32 -1,81035,7930
 02/01/2015 22h32 -1,91036930
 02/01/2015 21h32 -1,61036,1930
 02/01/2015 20h32 -1,71036,2920
 02/01/2015 19h32 -11036,9920
 02/01/2015 18h32 -0,21036,6910
 02/01/2015 17h32 0,81036,2890
 02/01/2015 16h32 1,81036,1870
 02/01/2015 15h32 5,41035,2790
 02/01/2015 14h32 9,11035,4720
 02/01/2015 13h32 9,71035,8710
 02/01/2015 12h32 61036,1780
 02/01/2015 11h32 2,91037,2870
 02/01/2015 10h32 -0,51037,6940
 02/01/2015 09h32 -3,21037,5930
 02/01/2015 08h32 -3,71037,3930
 02/01/2015 07h32 -3,71036,7930
 02/01/2015 06h32 -3,81036930
 02/01/2015 05h32 -3,81035,5940
 02/01/2015 04h32 -3,31035,2930
 02/01/2015 03h32 -3,11035930
 02/01/2015 02h32 -3,11035,2930
 02/01/2015 01h32 -2,81034,8930
 02/01/2015 00h32 -2,61034,9940
 01/01/2015 23h32 -2,21035,1940
 01/01/2015 22h32 -2,21035,2930
 01/01/2015 21h32 -2,11035,3930
 01/01/2015 20h32 -1,91035,2930
 01/01/2015 19h32 -1,61035,2930
 01/01/2015 18h32 -1,61035930
 01/01/2015 17h32 -1,31034,6930
 01/01/2015 16h32 -0,91034,1930
 01/01/2015 15h32 -0,21034,2930
 01/01/2015 14h32 0,11034930
 01/01/2015 13h32 0,11033,7930
 01/01/2015 12h32 0,11034,1930
 01/01/2015 11h32 -0,41034,4940
 01/01/2015 10h32 -1,41034,5930
 01/01/2015 09h32 -2,71034,8930
 01/01/2015 08h32 -3,51034,4930
 01/01/2015 07h32 -41033,6930
 01/01/2015 06h32 -4,51033,3920
 01/01/2015 05h32 -3,91032,8930
 01/01/2015 04h32 -4,71032,7920
 01/01/2015 03h32 -6,71032,8920
 01/01/2015 02h32 -6,21032,8920
 01/01/2015 01h32 -6,41032,6920
 01/01/2015 00h32 -6,21032,3920
 31/12/2014 23h32 -5,91032920
 31/12/2014 22h32 -6,11031,9920
 31/12/2014 21h32 -5,61031,8920
 31/12/2014 20h32 -4,61031,7920
 31/12/2014 19h32 -4,71031,3920
 31/12/2014 18h32 -4,21030,9920
 31/12/2014 17h32 -3,71030,5910
 31/12/2014 16h32 -3,11030,1900
 31/12/2014 15h32 -0,91029,6880
 31/12/2014 14h32 2,61029,4840
 31/12/2014 13h32 0,31029,4900
 31/12/2014 12h32 -0,71030,1920
 31/12/2014 11h32 -0,71030,9920
 31/12/2014 10h32 -1,81031,2930
 31/12/2014 09h32 -2,41031,6920
 31/12/2014 08h32 -31031,4930
 31/12/2014 07h32 -3,41031,3920
 31/12/2014 06h32 -3,41031,3920
 31/12/2014 05h32 -3,41031,2920
 31/12/2014 04h32 -3,61031,3920
 31/12/2014 03h32 -4,11031,5920
 31/12/2014 02h32 -5,51032920
 31/12/2014 01h32 -5,21032,2920
 31/12/2014 00h32 -5,11032,4920
 30/12/2014 23h32 -4,71032,9920
 30/12/2014 22h32 -4,21033,4920
 30/12/2014 21h32 -4,41033,5920
 30/12/2014 20h32 -3,61034,1920
 30/12/2014 19h32 -3,31034,3910
 30/12/2014 18h32 -3,21034,3900
 30/12/2014 17h32 -2,11034,2890
 30/12/2014 16h32 -1,61034,5850
 30/12/2014 15h32 11034,5800
 30/12/2014 14h32 4,91034,9710
 30/12/2014 13h32 3,41035,2760
 30/12/2014 12h32 2,81035,9800
 30/12/2014 11h32 1,31036,9830
 30/12/2014 10h32 1,81037810
 30/12/2014 09h32 0,51037,1840
 30/12/2014 08h32 -0,41036,8850
 30/12/2014 07h32 -1,11036860
 30/12/2014 06h32 -0,91035,9850
 30/12/2014 05h32 -1,11035,6840
 30/12/2014 04h32 -1,11035,5840
 30/12/2014 03h32 -1,61035,4840
 30/12/2014 02h32 -1,41035,5830
 30/12/2014 01h32 -2,11035,6830
 30/12/2014 00h32 -1,91035,58121,3
 21/12/2014 06h32 1,81032,8930
 21/12/2014 05h32 1,81032,5920
 21/12/2014 04h32 3,11032,3920
 21/12/2014 03h32 5,31032,4900
 21/12/2014 02h32 5,51032,5890
 21/12/2014 01h32 5,51032,6890
 21/12/2014 00h32 5,81032,8880
 20/12/2014 23h32 5,81032,8880
 20/12/2014 22h32 6,51032,6860
 20/12/2014 21h32 6,11032880
 20/12/2014 20h32 6,91031,8850
 20/12/2014 19h32 8,81031,7870
 20/12/2014 18h32 9,31031,3860
 20/12/2014 17h32 9,81030,3870
 20/12/2014 16h32 10,41029,4910
 20/12/2014 15h32 11,61029,1920,5
 20/12/2014 13h32 11,81028,7930
 20/12/2014 09h32 10,61029,6890
 20/12/2014 06h32 8,41028,7940
 20/12/2014 05h32 8,81028,7940
 20/12/2014 04h32 8,81028,6940
 20/12/2014 01h32 8,91029,4950
 20/12/2014 00h32 9,11029,7940
 19/12/2014 23h32 9,31030950,5
 19/12/2014 22h32 9,41030940
 19/12/2014 21h32 9,61029,7940
 19/12/2014 20h32 9,61029,2940
 19/12/2014 19h32 9,81028,8940,5
 19/12/2014 18h32 9,91028,3940
 19/12/2014 17h32 10,11027,9930
 19/12/2014 16h32 10,31027,2920,5
 19/12/2014 15h32 11,31027,1880
 19/12/2014 14h32 12,81027,1840
 19/12/2014 13h32 12,51027,5850
 19/12/2014 12h32 12,41027,6870
 19/12/2014 11h32 12,31027,9880
 19/12/2014 10h32 11,61028,1930
 19/12/2014 09h32 111028,1950
 19/12/2014 08h32 9,91027,5950
 19/12/2014 07h32 9,31027,1950
 19/12/2014 06h32 9,41026,7950
 19/12/2014 05h32 9,31026,4950
 19/12/2014 04h32 101026,5950
 19/12/2014 03h32 10,21026,7950
 19/12/2014 02h32 10,31027,1950
 19/12/2014 01h32 10,41027,1950
 19/12/2014 00h32 10,51027,2950
 18/12/2014 23h32 10,81027,4950
 18/12/2014 22h32 10,91027,2950
 18/12/2014 21h32 11,11027,1950
 18/12/2014 20h32 11,21027950
 18/12/2014 19h32 11,31026,8950
 18/12/2014 18h32 11,41026,4950
 18/12/2014 17h32 11,51025,9950,5
 18/12/2014 16h32 11,61025,5940,6
 18/12/2014 14h32 11,91025,2930
 18/12/2014 13h32 12,41024,8930
 18/12/2014 12h32 12,21025,1930
 18/12/2014 10h32 10,91025,2950,5
 18/12/2014 09h32 10,61024,8950,5
 18/12/2014 08h32 10,41024,1950
 18/12/2014 07h32 10,31022,9950,5
 18/12/2014 06h32 10,21022950
 18/12/2014 05h32 10,11021,5950,5
 18/12/2014 04h32 101021,3950
 18/12/2014 03h32 10,11021,1950,6
 18/12/2014 02h32 10,11020,9950
 18/12/2014 01h32 10,11020,6950,5
 18/12/2014 00h32 9,91020,7940,5
 17/12/2014 23h32 9,91020,9940
 17/12/2014 22h32 9,81020,6940,5
 17/12/2014 21h32 9,91020,2941
 17/12/2014 20h32 9,91019,9941,1
 17/12/2014 19h32 10,11019,3920
 17/12/2014 18h32 10,51018,6900
 17/12/2014 17h32 10,51018,6910
 17/12/2014 16h32 10,81018,5920
 17/12/2014 15h32 10,81018940
 17/12/2014 14h32 10,61017,6940,5
 17/12/2014 13h32 10,11017,4940
 17/12/2014 12h32 9,61017,4930,5
 17/12/2014 11h32 9,81017,8920
 17/12/2014 10h32 9,21019920,5
 17/12/2014 09h32 8,91019,5920
 17/12/2014 08h32 7,91019,4930
 17/12/2014 07h32 7,91019,6920
 17/12/2014 06h32 81019920
 17/12/2014 05h32 8,31018,7920
 17/12/2014 04h32 81018,7920
 17/12/2014 03h32 7,91018,6920
 17/12/2014 02h32 7,61018,7910
 17/12/2014 01h32 7,61018,8900
 17/12/2014 00h32 7,91018,5890
 16/12/2014 23h32 8,11018,1890
 16/12/2014 22h32 7,91017,8900
 16/12/2014 21h32 7,91016,8880
 16/12/2014 20h32 7,91016,3870
 16/12/2014 19h32 8,41015,9860
 16/12/2014 18h32 8,51015,4860
 16/12/2014 17h32 8,81014,6870
 16/12/2014 16h32 8,91013,9860
 16/12/2014 15h32 10,31013,4800
 16/12/2014 14h32 131013,1740
 16/12/2014 13h32 11,61013,2790
 16/12/2014 12h32 11,21013,4790
 16/12/2014 11h32 10,41013,7840
 16/12/2014 10h32 9,41014,1940
 16/12/2014 09h32 6,81014950
 16/12/2014 07h32 4,41013,3950
 16/12/2014 05h32 3,71013,6950
 16/12/2014 04h32 3,11013,7950
 15/12/2014 19h32 5,81017,3940
 15/12/2014 18h32 5,81017,2940,5
 15/12/2014 17h32 6,21017,1941,6
 15/12/2014 16h32 7,21016,8940
 15/12/2014 15h32 7,41016,8940
 15/12/2014 14h32 7,91016,5940
 15/12/2014 13h32 8,31016,3940
 15/12/2014 12h32 8,91017940
 15/12/2014 11h32 91017,5940
 15/12/2014 10h32 8,41017,8950
 15/12/2014 09h32 7,91017,8950
 15/12/2014 08h32 7,61017,5940
 15/12/2014 07h32 7,71016,6950
 15/12/2014 06h32 7,81016,2950
 15/12/2014 05h32 7,81015,9950
 15/12/2014 04h32 7,61015,6950
 15/12/2014 03h32 7,51015,4940
 15/12/2014 02h32 7,11015,6940
 15/12/2014 01h32 6,71015,4940
 15/12/2014 00h32 6,71015,4940
 14/12/2014 23h32 7,31015,6940
 14/12/2014 22h32 7,31015,5940
 14/12/2014 21h32 7,61015,3940
 14/12/2014 20h32 7,81014,8940
 14/12/2014 19h32 7,81014,8930
 14/12/2014 18h32 6,91014,4930
 14/12/2014 17h32 7,91013,7920
 14/12/2014 16h32 8,91013,2910
 14/12/2014 15h32 10,11012,9890
 14/12/2014 14h32 12,21012,8850
 14/12/2014 13h32 13,11012,6820
 14/12/2014 12h32 11,91012,9850
 14/12/2014 11h32 10,91013,5880
 14/12/2014 10h32 9,31013,8940
 14/12/2014 09h32 6,91014950
 14/12/2014 08h32 5,61013,6950
 14/12/2014 07h32 4,31013,2950
 14/12/2014 06h32 4,41012,7940
 14/12/2014 05h32 4,61012,5940
 14/12/2014 04h32 4,41012,1940
 14/12/2014 03h32 4,41012,1940
 14/12/2014 02h32 4,31012,4940
 14/12/2014 01h32 4,91011,9940
 14/12/2014 00h32 4,91011,4940
 13/12/2014 23h32 4,71011,3940
 13/12/2014 22h32 4,31011,4940
 13/12/2014 21h32 4,41010,9940
 13/12/2014 20h32 4,81011,1940
 13/12/2014 19h32 4,81011930
 13/12/2014 18h32 5,61010,7930
 13/12/2014 17h32 5,71010,8920
 13/12/2014 16h32 6,91010,4910
 13/12/2014 15h32 8,51010890
 13/12/2014 14h32 9,81009,4870
 13/12/2014 13h32 9,91009,1880
 13/12/2014 12h32 8,31009,5930
 13/12/2014 11h32 7,31009,9940
 13/12/2014 10h32 5,61010950
 13/12/2014 09h32 4,11009,7950
 13/12/2014 08h32 2,41009,3940
 13/12/2014 07h32 1,61008,4940
 13/12/2014 06h32 1,11007,9940
 13/12/2014 05h32 1,41007,2940,5
 13/12/2014 04h32 0,91007,3940
 13/12/2014 03h32 1,31007930
 13/12/2014 02h32 0,81007,1940
 13/12/2014 01h32 1,51007,1930
 13/12/2014 00h32 1,31007,8930
 12/12/2014 23h32 1,81008,5930
 12/12/2014 22h32 2,61008,7930
 12/12/2014 21h32 4,21009,3930
 12/12/2014 20h32 4,41009,8930
 12/12/2014 19h32 4,91010920
 12/12/2014 18h32 6,11010,4920
 12/12/2014 17h32 6,71010,8900
 12/12/2014 16h32 81011,2870
 12/12/2014 15h32 10,11011,9820
 12/12/2014 14h32 11,91012,1770
 12/12/2014 13h32 13,11012,9740
 12/12/2014 12h32 11,31013,6800
 12/12/2014 11h32 10,11015860
 12/12/2014 10h32 7,91015,6950
 12/12/2014 09h32 3,81015,9950
 12/12/2014 08h32 3,21015,7950
 12/12/2014 07h32 2,11015,7940
 12/12/2014 06h32 2,21016,2940
 12/12/2014 05h32 2,81016,7940
 12/12/2014 04h32 4,41016,9940
 12/12/2014 03h32 51018,7940
 12/12/2014 02h32 5,71019,3940
 12/12/2014 01h32 5,41019,8940
 12/12/2014 00h32 4,61020,6940
 11/12/2014 23h32 4,61021,2940
 11/12/2014 22h32 4,21021,9930
 11/12/2014 21h32 51022,9930
 11/12/2014 20h32 7,11023,6940
 11/12/2014 19h32 8,11024,1940
 11/12/2014 18h32 7,81024,5930
 11/12/2014 17h32 8,21024,6930
 11/12/2014 16h32 8,41024,4910,5
 11/12/2014 15h32 10,11024,5880
 11/12/2014 13h32 9,91024,5900,6
 11/12/2014 12h32 11,21025,1860
 11/12/2014 11h32 10,11025,8890
 11/12/2014 10h32 9,31026,2930
 11/12/2014 09h32 9,11026,2940
 11/12/2014 08h32 8,61025,4940
 11/12/2014 07h32 8,11025940,5
 11/12/2014 06h32 8,31024,7940
 11/12/2014 05h32 7,91024,4940
 11/12/2014 04h32 8,61024,4940,5
 11/12/2014 03h32 8,51024,7940
 11/12/2014 02h32 8,31024,8940
 11/12/2014 01h32 8,11024,4940
 11/12/2014 00h32 7,91024,5940
 10/12/2014 23h32 7,61023,1930
 10/12/2014 22h32 6,51024,1931
 10/12/2014 21h32 6,21023,7930,5
 10/12/2014 20h32 5,91023,6931,1
 10/12/2014 19h32 5,71023,9920,5
 10/12/2014 18h32 5,61024,1911,6
 10/12/2014 17h32 5,81024,4910,5
 10/12/2014 16h32 5,91024,8880
 10/12/2014 15h32 6,91025,2810
 10/12/2014 14h32 7,91025,5760
 10/12/2014 13h32 7,81026,2760
 10/12/2014 12h32 7,41026,7770
 10/12/2014 11h32 6,31027,8820
 10/12/2014 10h32 3,61028,5910
 10/12/2014 09h32 2,41029,6940
 10/12/2014 08h32 0,21029,3930
 10/12/2014 07h32 -0,61029,1940
 10/12/2014 06h32 -0,51030940
 10/12/2014 05h32 -11030,1930
 10/12/2014 04h32 -1,71030,3930
 10/12/2014 03h32 -11029,9930
 10/12/2014 02h32 -1,71030,3930
 10/12/2014 01h32 -1,91029,8920
 10/12/2014 00h32 -11030920
 09/12/2014 23h32 0,31030920
 09/12/2014 22h32 0,11029,7910
 09/12/2014 21h32 0,41029,5900
 09/12/2014 20h32 1,11029,4880
 09/12/2014 19h32 1,21029,7850
 09/12/2014 18h32 2,11029,8830
 09/12/2014 17h32 2,41029,2810
 09/12/2014 16h32 3,91028,7760
 09/12/2014 15h32 5,81028,1710
 09/12/2014 14h32 7,91027,2620
 09/12/2014 13h32 7,91026,8650
 09/12/2014 12h32 6,91026,4690
 09/12/2014 11h32 6,61026,4730
 09/12/2014 10h32 5,31026,4810
 09/12/2014 09h32 2,71026890
 09/12/2014 08h32 1,61025,1920
 09/12/2014 07h32 1,11024,9920
 09/12/2014 06h32 1,21024,1920
 09/12/2014 05h32 1,41023,8920
 09/12/2014 04h32 1,91023,7910
 09/12/2014 03h32 2,41023,2910
 09/12/2014 02h32 2,41023,1900
 09/12/2014 01h32 3,51023870
 09/12/2014 00h32 4,71022,7860
 08/12/2014 23h32 5,31022870
 08/12/2014 22h32 5,61021,4890,5
 08/12/2014 21h32 6,21020,9900
 08/12/2014 20h32 7,11020,3900
 08/12/2014 19h32 7,21020,3910
 08/12/2014 18h32 6,91019,7911
 08/12/2014 17h32 7,21019,5881,6
 08/12/2014 16h32 7,51019,3850
 08/12/2014 15h32 91019,5810
 08/12/2014 14h32 10,51019,9790
 08/12/2014 13h32 11,41020,3760
 08/12/2014 12h32 11,81021,1760
 08/12/2014 11h32 10,41021,8830
 08/12/2014 10h32 8,81022,5880
 08/12/2014 09h32 7,91022,8920
 08/12/2014 08h32 6,21022,8930
 08/12/2014 07h32 5,21022,7920,5
 08/12/2014 06h32 51022,4910,5
 08/12/2014 05h32 4,91022,5900
 08/12/2014 04h32 4,91023900
 08/12/2014 03h32 4,81023,5890
 08/12/2014 02h32 4,61024,1880
 08/12/2014 01h32 4,71024,2850
 08/12/2014 00h32 4,91024,1830
 07/12/2014 23h32 4,91024,5830
 07/12/2014 22h32 4,91025830
 07/12/2014 21h32 4,71025,5810
 07/12/2014 20h32 4,61025,6780
 07/12/2014 19h32 4,51025,5770
 07/12/2014 18h32 3,91025,4780
 07/12/2014 17h32 3,21025,2780
 07/12/2014 16h32 3,61025,3790
 07/12/2014 15h32 5,91024,8690
 07/12/2014 14h32 7,81024,7700
 07/12/2014 13h32 10,51024,7650
 07/12/2014 12h32 7,11024,7790
 07/12/2014 11h32 5,81025840
 07/12/2014 10h32 4,61025,3860
 07/12/2014 09h32 4,11024,9870
 07/12/2014 08h32 3,51024,4890
 07/12/2014 07h32 3,41023,7900
 07/12/2014 06h32 3,31022,8910,5
 07/12/2014 05h32 3,31022,2900
 07/12/2014 04h32 41022,1870
 07/12/2014 03h32 4,11021,7870
 07/12/2014 02h32 4,21021,6870
 07/12/2014 01h32 4,11021,3880
 07/12/2014 00h32 4,31021,1860
 06/12/2014 23h32 4,41021,2870
 06/12/2014 22h32 4,41020,7870
 06/12/2014 21h32 4,31020,3870
 06/12/2014 19h32 3,91019,9920,6
 06/12/2014 18h32 4,11019,7921
 06/12/2014 17h32 4,51019,4921,5
 06/12/2014 16h32 4,91018,9920,6
 06/12/2014 15h32 5,31018,7920
 06/12/2014 14h32 5,31018,6920
 06/12/2014 13h32 5,11018,7920,5
 06/12/2014 12h32 4,81019,2920
 06/12/2014 11h32 4,51019,6921
 06/12/2014 10h32 4,41019,9921,1
 06/12/2014 09h32 4,31019,8930,5
 06/12/2014 08h32 4,11019,5930,5
 06/12/2014 07h32 4,11019,1930,5
 06/12/2014 06h32 4,21018,9931
 06/12/2014 05h32 4,31018,5931,1
 06/12/2014 04h32 4,31018,1930
 06/12/2014 03h32 4,61018920
 06/12/2014 02h32 4,91017,9920,5
 06/12/2014 01h32 5,61018900
 05/12/2014 21h32 5,81017,6910
 05/12/2014 20h32 5,51017,5910
 05/12/2014 19h32 5,81017,7900
 05/12/2014 18h32 5,81017,5910
 05/12/2014 17h32 4,91017,1900
 05/12/2014 16h32 6,21016,9880
 05/12/2014 15h32 7,31016,7880
 05/12/2014 14h32 8,21016,4850
 05/12/2014 13h32 8,71016,2830
 05/12/2014 12h32 8,21016,2850
 05/12/2014 11h32 8,51016,9830
 05/12/2014 10h32 7,11016,7890
 05/12/2014 09h32 5,51016,3940
 05/12/2014 08h32 3,91016940
 05/12/2014 07h32 3,31015,5940
 05/12/2014 06h32 3,41015,4940
 05/12/2014 05h32 3,11014,8940
 05/12/2014 04h32 2,81014,3940
 05/12/2014 03h32 2,71013,8930
 05/12/2014 02h32 2,61013,7930
 05/12/2014 01h32 2,61013,2930
 05/12/2014 00h32 2,51013,1920
 04/12/2014 23h32 3,21013,1920
 04/12/2014 22h32 3,31013,1920
 04/12/2014 21h32 4,11012,8910
 04/12/2014 20h32 4,11012,6910
 04/12/2014 19h32 3,91012,7910
 04/12/2014 18h32 3,81012,3900
 04/12/2014 17h32 3,91011,9880
 04/12/2014 16h32 4,11011,3850
 04/12/2014 15h32 7,31010,8800
 04/12/2014 14h32 6,91010,5820
 04/12/2014 13h32 6,81010,3820
 04/12/2014 12h32 7,21010,6810
 04/12/2014 11h32 10,51010,7730
 04/12/2014 10h32 7,91010,9850
 04/12/2014 09h32 5,61011940
 04/12/2014 08h32 4,31010,8940
 04/12/2014 07h32 2,71010,4940
 04/12/2014 06h32 2,61009,7940
 04/12/2014 05h32 2,61009,6940
 04/12/2014 04h32 2,41009,4940
 04/12/2014 03h32 2,11009,3940
 04/12/2014 02h32 11009,6940
 04/12/2014 01h32 2,11009,6940
 04/12/2014 00h32 1,81009,8940
 03/12/2014 23h32 11010,2930
 03/12/2014 22h32 0,91010,2930
 03/12/2014 21h32 1,81010,4930
 03/12/2014 20h32 1,61010,4920
 03/12/2014 19h32 3,21010,5900
 03/12/2014 18h32 3,81010,5900
 03/12/2014 17h32 3,81010,6900
 03/12/2014 16h32 4,11010,5890
 03/12/2014 15h32 4,91010,3860
 03/12/2014 14h32 5,51010,3860
 03/12/2014 12h32 4,41010,8900
 03/12/2014 11h32 4,21011,3920,5
 03/12/2014 10h32 4,81011,7930
 03/12/2014 09h32 3,61011,9930
 03/12/2014 08h32 3,81011,6930
 03/12/2014 07h32 3,81011,2931,1
 03/12/2014 06h32 4,11011,2941
 03/12/2014 05h32 4,11011930,5
 03/12/2014 04h32 3,91011,1930
 03/12/2014 03h32 3,61011,2920
 03/12/2014 02h32 3,61011,3920
 03/12/2014 01h32 3,81011,5910
 03/12/2014 00h32 3,61011,4910
 02/12/2014 23h32 3,41011,8910
 02/12/2014 22h32 3,31012910
 02/12/2014 21h32 3,11011,5920
 02/12/2014 20h32 2,91011,5920
 02/12/2014 19h32 2,81011,5910
 02/12/2014 18h32 31011,4900
 02/12/2014 17h32 3,31010,8890
 02/12/2014 16h32 3,61010,4890
 02/12/2014 14h32 4,21009,4890
 02/12/2014 13h32 4,51009890,5
 02/12/2014 12h32 4,91009,1870
 02/12/2014 11h32 5,61009,2860
 02/12/2014 10h32 5,71009,2870
 02/12/2014 09h32 5,51009,2880
 02/12/2014 08h32 5,61008,5900
 02/12/2014 07h32 5,51008,1910
 02/12/2014 06h32 5,91007,7890
 02/12/2014 05h32 5,91007,1900
 02/12/2014 04h32 5,91007,2910
 02/12/2014 03h32 5,91006,9910
 02/12/2014 02h32 5,81006,6910
 02/12/2014 01h32 5,91006,4910
 02/12/2014 00h32 6,11006,4910
 01/12/2014 23h32 6,41006,5910
 01/12/2014 22h32 6,91006,1900
 01/12/2014 21h32 7,51005,5910
 01/12/2014 20h32 7,61004,9910
 01/12/2014 19h32 7,61004,5910
 01/12/2014 18h32 7,51004920
 01/12/2014 17h32 7,41003,7910
 01/12/2014 16h32 7,11003920
 01/12/2014 15h32 6,91002,3910
 01/12/2014 14h32 7,51001,7870
 01/12/2014 13h32 7,61001,2870
 01/12/2014 12h32 7,11001900
 01/12/2014 11h32 6,51001,4900
 01/12/2014 10h32 6,21001,6890
 01/12/2014 09h32 6,11001,4890
 01/12/2014 08h32 5,51001,4890
 01/12/2014 07h32 5,81000,8900
 01/12/2014 06h32 6,71000,1900
 01/12/2014 05h32 8,3999,1920
 01/12/2014 04h32 10,1998,8940
 01/12/2014 03h32 11,5998,9940
 01/12/2014 02h32 11,9998,8940
 01/12/2014 01h32 11,4999940
 01/12/2014 00h32 11,6998,9940,6
 30/11/2014 23h32 12,1999,7940
 30/11/2014 22h32 12,3999,5940
 30/11/2014 21h32 12,3999,8930
 30/11/2014 20h32 12,41000930
 30/11/2014 19h32 12,81000,2930
 30/11/2014 18h32 12,91000,3931
 30/11/2014 17h32 13,21000,2931
 30/11/2014 16h32 13,51000,7921,6
 30/11/2014 15h32 13,91000,7911
 30/11/2014 14h32 13,91000,7911,1
 30/11/2014 13h32 14,41000,6891
 30/11/2014 12h32 161000,9790
 30/11/2014 11h32 16,91001760
 30/11/2014 10h32 16,81001,6790
 30/11/2014 09h32 15,31001,8870
 30/11/2014 08h32 14,21001,3890
 30/11/2014 07h32 13,11000,9930
 30/11/2014 06h32 13,21000,9930,5
 30/11/2014 05h32 13,21000,4930,5
 30/11/2014 04h32 13,11000,3920,5
 30/11/2014 03h32 131000,1922,6
 30/11/2014 02h32 13,3999,7921,6
 30/11/2014 01h32 13,4999,6913,6
 30/11/2014 00h32 13,6999,7891,1
 29/11/2014 23h32 13,9999,4890,5
 29/11/2014 22h32 14,3999,7830
 29/11/2014 21h32 14,8999,5800
 29/11/2014 20h32 15,3999,7780
 29/11/2014 19h32 16,4999,6740
 29/11/2014 18h32 16,4999,3730
 29/11/2014 17h32 16,9998,8720
 29/11/2014 16h32 16,8998,3740
 29/11/2014 15h32 17,4997,8720
 29/11/2014 14h32 17,9997,6690
 29/11/2014 13h32 18,4997,2660
 29/11/2014 12h32 18,3997,4680
 29/11/2014 11h32 18,1997,9700
 29/11/2014 10h32 17,8998,4690
 29/11/2014 09h32 17,5998,5690
 29/11/2014 08h32 17,2998,3690
 29/11/2014 07h32 16,8997,7690
 29/11/2014 06h32 16,8997,4690
 29/11/2014 05h32 16,4997,3710
 29/11/2014 04h32 16,8997,1710
 29/11/2014 03h32 16,3997,1740
 29/11/2014 02h32 16,3997,3740
 29/11/2014 01h32 16,1997,3760
 29/11/2014 00h32 16,3997,2750
 28/11/2014 23h32 14,7997,2830
 28/11/2014 22h32 15,4996,9800,5
 28/11/2014 21h32 15,4996,5820
 28/11/2014 20h32 14,2995,6880,5
 28/11/2014 19h32 15,4995,2790
 28/11/2014 18h32 14,9994,6810,5
 28/11/2014 17h32 17,1993,2680
 28/11/2014 16h32 17,3992,4640
 28/11/2014 15h32 18,1990,6600
 28/11/2014 14h32 19,6990600
 28/11/2014 13h32 19,3989,6520
 28/11/2014 12h32 21989560
 28/11/2014 11h32 20,6989,1610
 28/11/2014 10h32 16,8989,2700
 28/11/2014 09h32 16,3988,9680
 28/11/2014 08h32 15,5989740
 28/11/2014 07h32 15,9989,5740
 28/11/2014 06h32 15,3990770
 28/11/2014 05h32 16,3990,5740
 28/11/2014 04h32 16,4990,7730
 28/11/2014 03h32 15,9991,4740
 28/11/2014 02h32 15,6991,4730
 28/11/2014 01h32 15,4991,5710
 28/11/2014 00h32 15,4992,2730
 27/11/2014 23h32 14,9993,2720
 27/11/2014 22h32 14,9993,7740
 27/11/2014 21h32 14,9994,3740
 27/11/2014 20h32 14,7994,3720
 27/11/2014 19h32 14,4994,8750
 27/11/2014 18h32 14,6995740
 27/11/2014 17h32 14,4995,5750
 27/11/2014 16h32 14,4996750
 27/11/2014 15h32 15,7996,6710
 27/11/2014 14h32 18,2997630
 27/11/2014 13h32 18,9997,8620
 27/11/2014 12h32 17998,9700
 27/11/2014 11h32 14,91000,2790
 27/11/2014 10h32 14,61001,4850
 27/11/2014 09h32 13,31002,3950
 27/11/2014 08h32 11,31002,8940
 27/11/2014 07h32 11,61003,3940
 27/11/2014 06h32 11,61003,2940
 27/11/2014 05h32 11,71003,6940
 27/11/2014 04h32 11,81004940
 27/11/2014 03h32 11,81004,2940
 27/11/2014 02h32 11,91004,5940
 27/11/2014 00h32 12,51004,9940
 26/11/2014 23h32 12,81005,2940
 26/11/2014 22h32 12,91005,5940
 26/11/2014 21h32 12,91005,4940
 26/11/2014 20h32 13,11005,8932,1
 26/11/2014 19h32 13,41005,9936,7
 26/11/2014 18h32 13,71006921,1
 26/11/2014 17h32 13,91005,8911
 26/11/2014 16h32 14,81005,9890
 26/11/2014 15h32 15,21006860
 26/11/2014 14h32 17,51006,3760
 26/11/2014 13h32 19,41006,9720
 26/11/2014 12h32 21,81007,3670
 26/11/2014 11h32 18,91008,3760
 26/11/2014 10h32 16,41009,1830
 26/11/2014 09h32 15,51009,9920
 26/11/2014 08h32 13,51010,1950
 26/11/2014 07h32 11,91010,2950
 26/11/2014 06h32 12,21010,3940
 26/11/2014 05h32 12,51010,6950
 26/11/2014 04h32 12,61010,6950
 26/11/2014 03h32 12,71011,1950
 26/11/2014 02h32 12,51011,5950
 26/11/2014 01h32 12,41012,1940
 26/11/2014 00h32 12,31012,4940
 25/11/2014 23h32 12,41012,9940
 25/11/2014 22h32 11,61013,2940
 25/11/2014 21h32 11,81013,1940
 25/11/2014 20h32 131013,3930
 25/11/2014 19h32 131013,4930
 25/11/2014 18h32 12,61013,2920
 25/11/2014 17h32 14,31013,1920
 25/11/2014 16h32 14,81013,1910
 25/11/2014 15h32 15,41013,1900
 25/11/2014 14h32 15,81013,2890
 25/11/2014 13h32 16,31013,7880
 25/11/2014 12h32 16,11014890
 25/11/2014 11h32 15,81014,5890
 25/11/2014 10h32 15,91015,1900
 25/11/2014 09h32 15,61015,1930
 25/11/2014 08h32 14,31014,7940
 25/11/2014 07h32 13,61014,7940
 25/11/2014 06h32 13,51014,6940
 25/11/2014 05h32 13,41014,5940
 25/11/2014 04h32 13,31014,8940
 25/11/2014 03h32 13,31015,1940,5
 25/11/2014 02h32 13,41015,2930
 25/11/2014 01h32 13,31015,5930
 25/11/2014 00h32 13,11015,7930
 24/11/2014 23h32 13,61016930
 24/11/2014 22h32 14,41016,3930
 24/11/2014 21h32 14,61016,3920
 24/11/2014 20h32 151016,5920
 24/11/2014 19h32 15,21016,7910,5
 24/11/2014 18h32 15,51016,4900
 24/11/2014 17h32 15,61016,1900,6
 24/11/2014 16h32 15,91015,4871,5
 24/11/2014 15h32 18,51015,3750
 24/11/2014 14h32 20,11015690
 24/11/2014 13h32 20,91015,1670
 24/11/2014 12h32 22,61015,4620
 24/11/2014 11h32 20,51015,7690
 24/11/2014 10h32 22,11015,9640
 24/11/2014 09h32 19,81015,4700
 24/11/2014 08h32 18,11015,1750
 24/11/2014 07h32 17,11014,7780
 24/11/2014 06h32 17,41014,6760
 24/11/2014 05h32 17,41014,5760
 24/11/2014 04h32 16,91014,6780
 24/11/2014 03h32 17,11014,5770
 24/11/2014 02h32 16,91014,2770
 24/11/2014 01h32 17,11014,1770
 24/11/2014 00h32 17,31014770
 23/11/2014 23h32 16,81014,4770
 23/11/2014 22h32 17,21014,1760
 23/11/2014 21h32 17,21014760
 23/11/2014 20h32 17,51013,9750
 23/11/2014 19h32 17,61013,5770
 23/11/2014 18h32 17,91013,2750
 23/11/2014 17h32 17,91013750
 23/11/2014 16h32 18,11013,1750
 23/11/2014 15h32 18,21012,8750
 23/11/2014 14h32 19,11012,4720
 23/11/2014 13h32 19,51012,9700
 23/11/2014 12h32 19,81012,9690
 23/11/2014 11h32 19,61013,5680
 23/11/2014 10h32 18,71014,5720
 23/11/2014 09h32 18,61014740
 23/11/2014 08h32 18,21013,4750
 23/11/2014 07h32 17,91012,6760
 23/11/2014 06h32 17,41012,1770
 23/11/2014 05h32 17,41012,2780
 23/11/2014 04h32 17,51011,9780
 23/11/2014 03h32 17,51011,8780
 23/11/2014 02h32 17,51012780
 23/11/2014 01h32 17,61012,2790
 23/11/2014 00h32 171012,4820
 22/11/2014 23h32 16,91012,5820
 22/11/2014 22h32 16,81012,4810
 22/11/2014 21h32 16,51012,6810
 22/11/2014 20h32 15,91012,9820
 22/11/2014 19h32 16,21012,6820
 22/11/2014 18h32 15,61012,8840
 22/11/2014 17h32 16,61012,4810
 22/11/2014 16h32 16,91013810
 22/11/2014 15h32 18,31012,9770
 22/11/2014 14h32 20,11013,2720
 22/11/2014 13h32 21,21012,7690
 22/11/2014 12h32 20,91012,7700
 22/11/2014 11h32 20,61013,3710
 22/11/2014 10h32 20,31013,5730
 22/11/2014 09h32 19,11013,5760
 22/11/2014 08h32 17,81012,8790
 22/11/2014 07h32 16,71012,7810
 22/11/2014 06h32 16,11012830
 22/11/2014 05h32 15,61011,7840
 22/11/2014 04h32 15,91012830
 22/11/2014 03h32 16,11012,4830
 22/11/2014 02h32 16,11012,4830
 22/11/2014 01h32 15,91012,6830
 22/11/2014 00h32 15,31012,8860
 21/11/2014 23h32 10,81013,1910
 21/11/2014 22h32 9,81013,3920
 21/11/2014 21h32 9,81013,4900
 21/11/2014 20h32 10,71013,8890
 21/11/2014 19h32 11,11014890
 21/11/2014 18h32 11,41014,2870
 21/11/2014 17h32 13,91013,9810
 21/11/2014 16h32 15,51013,8770
 21/11/2014 15h32 17,41013,8720
 21/11/2014 14h32 20,31013,6620
 21/11/2014 13h32 21,51013,7600
 21/11/2014 12h32 21,61014,3600
 21/11/2014 11h32 19,91015650
 21/11/2014 10h32 18,61015,5710
 21/11/2014 09h32 13,31016950
 21/11/2014 08h32 9,11015,6940
 21/11/2014 07h32 6,81015,5940
 21/11/2014 06h32 6,41015940
 21/11/2014 05h32 6,41015,2940
 21/11/2014 04h32 7,41015,4930
 21/11/2014 03h32 6,61015,4930
 21/11/2014 02h32 6,91015,7930
 21/11/2014 01h32 7,61015,5930
 21/11/2014 00h32 7,41015,9920
 20/11/2014 23h32 8,31016,3920
 20/11/2014 22h32 8,21016,5920
 20/11/2014 21h32 8,51016,7910
 20/11/2014 20h32 8,81016,4900
 20/11/2014 19h32 9,51016,4880
 20/11/2014 18h32 111016,2840
 20/11/2014 17h32 131015,9800
 20/11/2014 16h32 14,61015,9750
 20/11/2014 15h32 16,51016690
 20/11/2014 14h32 20,41015,7570
 20/11/2014 13h32 20,61015,5560
 20/11/2014 12h32 20,61015,7580
 20/11/2014 11h32 18,41015,9640
 20/11/2014 10h32 16,11016,5740
 20/11/2014 09h32 10,71016,4950
 20/11/2014 08h32 5,81016,3930
 20/11/2014 07h32 4,11015,8930
 20/11/2014 06h32 4,31015,3930
 20/11/2014 05h32 4,41015,2930
 20/11/2014 04h32 4,11015,5930
 20/11/2014 03h32 4,11015,5930
 20/11/2014 02h32 3,91015,8930
 20/11/2014 01h32 4,91016920
 20/11/2014 00h32 5,21016,1930
 19/11/2014 23h32 4,91015,7920
 19/11/2014 22h32 5,91015,8910
 19/11/2014 21h32 6,81015,8910
 19/11/2014 20h32 7,31015,6900
 19/11/2014 19h32 7,91015,2880
 19/11/2014 18h32 9,61014,9840
 19/11/2014 17h32 10,41014,8810
 19/11/2014 16h32 12,91014,9740
 19/11/2014 15h32 16,11014,3620
 19/11/2014 14h32 19,91014,1530
 19/11/2014 13h32 21,11014,2550
 19/11/2014 12h32 19,51014,1610
 19/11/2014 11h32 16,61014,4690
 19/11/2014 10h32 12,91014,8800
 19/11/2014 09h32 9,91014,4950
 19/11/2014 08h32 4,51013,5940
 19/11/2014 07h32 2,21012,7930
 19/11/2014 06h32 2,11011,6930
 19/11/2014 05h32 2,11011930
 19/11/2014 04h32 2,91010,4930
 19/11/2014 03h32 3,31010,2930
 19/11/2014 02h32 3,61010,2930
 19/11/2014 01h32 3,61010,2930
 19/11/2014 00h32 3,91010,1930
 18/11/2014 23h32 4,31010,2920
 18/11/2014 22h32 4,81010,1920
 18/11/2014 21h32 4,71010,1920
 18/11/2014 20h32 5,81009,7910
 18/11/2014 19h32 5,91009,5910
 18/11/2014 18h32 6,91009,3880
 18/11/2014 17h32 8,51008,8860
 18/11/2014 16h32 10,91008800
 18/11/2014 15h32 14,51007,8680
 18/11/2014 14h32 19,91007,5540
 18/11/2014 13h32 20,21007,5550
 18/11/2014 12h32 17,91007,7640
 18/11/2014 11h32 15,91007,9740
 18/11/2014 10h32 13,91008,5820
 18/11/2014 09h32 11,41008,3880
 18/11/2014 08h32 9,91008930
 18/11/2014 07h32 8,11007,8941
 18/11/2014 06h32 8,11007,4930,6
 18/11/2014 05h32 7,81007,1930,5
 18/11/2014 04h32 7,11006,9930
 18/11/2014 03h32 7,71006,9930
 18/11/2014 02h32 8,21006,7920
 18/11/2014 01h32 8,41006,5910
 18/11/2014 00h32 8,81006,7900
 17/11/2014 23h32 8,61006,7910
 17/11/2014 22h32 7,61006,5910
 17/11/2014 21h32 9,11006,5900
 17/11/2014 20h32 9,61006,2900
 17/11/2014 19h32 9,61005,7900
 17/11/2014 18h32 9,41005,3900
 17/11/2014 17h32 9,91004,7880
 17/11/2014 16h32 9,91004,2890
 17/11/2014 15h32 10,21003,6880
 17/11/2014 14h32 9,51003891
 17/11/2014 13h32 11,11003,1800
 17/11/2014 12h32 11,81003,2780
 17/11/2014 11h32 11,21003,3780
 17/11/2014 10h32 11,11003,6790
 17/11/2014 09h32 10,51003,5810
 17/11/2014 08h32 8,91003,3900
 17/11/2014 07h32 6,41003930
 17/11/2014 06h32 6,41002,3920
 17/11/2014 05h32 6,81002,4920
 17/11/2014 04h32 7,61002,7930
 17/11/2014 03h32 7,31002,5930,5
 17/11/2014 02h32 7,61003,1930
 17/11/2014 01h32 7,61003,5930,6
 17/11/2014 00h32 7,61003,6931
 16/11/2014 23h32 7,61003,7930
 16/11/2014 22h32 7,81003,8932,6
 16/11/2014 21h32 7,71004,1931,5
 16/11/2014 20h32 7,61004922,1
 16/11/2014 19h32 8,31004,6922,1
 16/11/2014 18h32 8,51005922,6
 16/11/2014 17h32 8,91005,2922
 16/11/2014 16h32 9,51004,6910,6
 16/11/2014 15h32 9,81003,8891
 16/11/2014 14h32 10,81003,6850,5
 16/11/2014 13h32 13,31003,8730
 16/11/2014 12h32 16,41004,3650
 16/11/2014 11h32 15,61005670
 16/11/2014 10h32 11,61005,8800
 16/11/2014 09h32 12,11005,9900
 16/11/2014 08h32 8,91005,9940
 16/11/2014 07h32 6,51005,3940
 16/11/2014 06h32 61005930
 16/11/2014 05h32 5,61004,6930
 16/11/2014 04h32 51003,9930
 16/11/2014 03h32 4,81003,8930
 16/11/2014 02h32 4,81003,7930
 16/11/2014 01h32 6,11003,8930
 16/11/2014 00h32 6,51003,8930
 15/11/2014 23h32 7,41004,8930,5
 15/11/2014 22h32 5,91003,7920
 15/11/2014 21h32 71003,7920
 15/11/2014 20h32 7,81003,9920
 15/11/2014 19h32 7,11003,3910
 15/11/2014 18h32 7,51002,9900
 15/11/2014 17h32 8,91002,5870
 15/11/2014 16h32 10,51002,7820
 15/11/2014 15h32 13,81002,1710
 15/11/2014 14h32 18,31002,1590
 15/11/2014 13h32 14,11002,4750
 15/11/2014 12h32 15,91002,6780
 15/11/2014 11h32 13,11003,3870
 15/11/2014 10h32 11,91003,3930
 15/11/2014 09h32 9,81003,4940
 15/11/2014 08h32 8,11003940
 15/11/2014 07h32 7,21002,9940
 15/11/2014 06h32 6,91002,3940
 15/11/2014 05h32 7,11002,1930
 15/11/2014 04h32 7,11002930
 15/11/2014 03h32 7,41001,7930,5
 15/11/2014 02h32 71001,8930
 15/11/2014 01h32 8,51002930
 15/11/2014 00h32 9,31002930
 14/11/2014 23h32 9,51002,3920
 14/11/2014 22h32 10,21002,5930
 14/11/2014 21h32 10,41002,7920,6
 14/11/2014 20h32 10,61002,9922,6
 14/11/2014 19h32 111002,1911
 14/11/2014 18h32 10,91002,1891,5
 14/11/2014 17h32 13,81000,6880
 14/11/2014 16h32 14,1998,9830
 14/11/2014 15h32 15,8999,1770
 14/11/2014 14h32 16,1999,8780
 14/11/2014 13h32 17,31000,2700
 14/11/2014 12h32 19,11000,3650
 14/11/2014 11h32 15,21000,6760
 14/11/2014 10h32 14,91001790
 14/11/2014 09h32 13,41001,6820
 14/11/2014 08h32 12,41001,7810
 14/11/2014 07h32 12,91001,5780
 14/11/2014 06h32 12,71001,2770
 14/11/2014 05h32 13,21001,3730
 14/11/2014 04h32 13,71001,4730
 14/11/2014 03h32 131002,1700
 14/11/2014 02h32 11,91002,8690
 14/11/2014 01h32 12,61002,9680
 14/11/2014 00h32 13,41003,1660
 13/11/2014 23h32 13,31003,3650
 13/11/2014 22h32 11,41003,6690
 13/11/2014 21h32 10,11004,8740
 13/11/2014 20h32 10,91005,1720
 13/11/2014 19h32 12,51005,2670
 13/11/2014 18h32 13,81005,3610
 13/11/2014 17h32 14,91005,3580
 13/11/2014 16h32 15,61005,4560
 13/11/2014 15h32 21,51005,6410
 13/11/2014 14h32 23,91005,7380
 13/11/2014 13h32 25,11006370
 13/11/2014 12h32 22,51006,2430
 13/11/2014 11h32 191006,8530
 13/11/2014 10h32 15,41007,5760
 13/11/2014 09h32 11,51008940
 13/11/2014 08h32 6,31007,9940
 13/11/2014 07h32 2,91008,2930
 13/11/2014 06h32 1,91008930
 13/11/2014 05h32 2,31008920
 13/11/2014 04h32 2,81008,1930
 13/11/2014 03h32 2,81008,9930
 13/11/2014 02h32 3,11009,2930
 13/11/2014 01h32 2,91009,4920
 13/11/2014 00h32 3,91009,5920
 12/11/2014 23h32 3,81009,4910
 12/11/2014 22h32 4,11008,9910
 12/11/2014 21h32 4,91009900
 12/11/2014 20h32 5,41008,7890
 12/11/2014 19h32 61008,1870
 12/11/2014 18h32 7,51007,7840
 12/11/2014 17h32 9,41007800
 12/11/2014 16h32 12,21006,4710
 12/11/2014 15h32 15,81006610
 12/11/2014 14h32 17,11005,2570
 12/11/2014 13h32 17,11005,1560
 12/11/2014 12h32 18,21004,6550
 12/11/2014 11h32 19,11004,5590
 12/11/2014 10h32 15,61004,6720
 12/11/2014 09h32 12,31004,5900
 12/11/2014 08h32 6,91003,9930
 12/11/2014 07h32 5,21003,1930
 12/11/2014 06h32 5,11002,6920
 12/11/2014 05h32 4,41001,6920
 12/11/2014 04h32 4,91000,7910
 12/11/2014 03h32 5,9999,7900
 12/11/2014 02h32 6,3999,3890
 12/11/2014 01h32 8,1999,1900
 12/11/2014 00h32 7,6998,5880
 11/11/2014 23h32 9,8998,2820
 11/11/2014 22h32 11,8997,9780
 11/11/2014 21h32 12,9997,5750
 11/11/2014 20h32 12,9997,1730
 11/11/2014 19h32 13,3996,2720
 11/11/2014 18h32 13,5996,4700
 11/11/2014 17h32 13,6996,2670
 11/11/2014 16h32 14,4995,7630
 11/11/2014 15h32 14,9996,1590
 11/11/2014 14h32 15,5995,8550
 11/11/2014 13h32 16,8995,7520
 11/11/2014 12h32 16,9996500
 11/11/2014 11h32 17,8996,3470
 11/11/2014 10h32 16,8996,8480
 11/11/2014 09h32 14,9997,4590
 11/11/2014 08h32 12,2998,2710
 11/11/2014 07h32 5,1998,5910
 11/11/2014 06h32 3,6998,9880
 11/11/2014 05h32 5,5998,8870
 11/11/2014 04h32 6,9999,1850
 11/11/2014 03h32 9,8999,5780
 11/11/2014 02h32 11,31000,1750
 11/11/2014 01h32 11,61000,8760
 11/11/2014 00h32 11,91001770
 10/11/2014 23h32 11,61002790
 10/11/2014 22h32 11,51002,7810
 10/11/2014 21h32 10,21003,3860
 10/11/2014 20h32 5,81004,4900
 10/11/2014 19h32 5,51005,1880
 10/11/2014 18h32 7,41005,9850
 10/11/2014 17h32 8,91006,3800
 10/11/2014 16h32 111006,5720
 10/11/2014 15h32 15,81007580
 10/11/2014 14h32 17,91007,4530
 10/11/2014 13h32 18,31008,2530
 10/11/2014 12h32 18,61009,2540
 10/11/2014 11h32 16,11009,9680
 10/11/2014 10h32 15,81010,7730
 10/11/2014 09h32 12,81011840
 10/11/2014 08h32 9,61011,3940
 10/11/2014 07h32 8,21011,5940
 10/11/2014 06h32 7,81011,1940
 10/11/2014 05h32 7,71010,8940
 10/11/2014 04h32 7,81010,6940
 10/11/2014 03h32 7,61010,5940
 10/11/2014 02h32 7,41010,7940
 10/11/2014 01h32 6,61010,5930
 10/11/2014 00h32 7,41010,3930
 09/11/2014 23h32 6,81010,3930
 09/11/2014 22h32 5,91010,1930
 09/11/2014 21h32 7,31009,5930
 09/11/2014 20h32 8,41009,3930
 09/11/2014 19h32 9,21008,8930
 09/11/2014 18h32 9,41008,6920
 09/11/2014 17h32 9,81007,8920
 09/11/2014 16h32 10,51007900
 09/11/2014 15h32 11,31006,6890
 09/11/2014 14h32 11,11006,5910
 09/11/2014 13h32 10,61005,9910,6
 09/11/2014 12h32 10,11006,4910,5
 09/11/2014 11h32 9,91005,8900,5
 09/11/2014 10h32 9,91005,5890
 09/11/2014 09h32 8,41005,5930
 09/11/2014 08h32 8,21005,1940
 09/11/2014 07h32 6,41005,1940
 09/11/2014 06h32 5,91004,2930
 09/11/2014 05h32 5,31003,6930
 09/11/2014 04h32 4,91003,2930
 09/11/2014 03h32 5,11003,2930
 09/11/2014 02h32 5,11003,1930
 09/11/2014 01h32 3,91003,6930
 09/11/2014 00h32 4,31004920
 08/11/2014 23h32 4,51004,7920
 08/11/2014 22h32 4,91005,2910
 08/11/2014 21h32 5,51005,7910
 08/11/2014 20h32 5,81005,7900
 08/11/2014 19h32 7,31005,8890
 08/11/2014 18h32 8,61005,7860
 08/11/2014 17h32 10,81005,2830
 08/11/2014 16h32 13,41005,3770
 08/11/2014 15h32 15,51006710
 08/11/2014 14h32 17,61006,3640
 08/11/2014 13h32 18,51006,6620
 08/11/2014 12h32 19,31007,3640
 08/11/2014 11h32 17,21009700
 08/11/2014 10h32 16,11010,2810
 08/11/2014 09h32 11,91011940
 08/11/2014 08h32 6,91011,5940
 08/11/2014 07h32 5,31012940
 08/11/2014 06h32 51011,9930
 08/11/2014 05h32 4,91011,9930
 08/11/2014 04h32 51012,6930
 08/11/2014 03h32 6,51012,8940
 08/11/2014 02h32 6,21013,2930
 08/11/2014 01h32 6,51013,5930
 08/11/2014 00h32 6,81013,6930
 07/11/2014 23h32 6,61013,8920
 07/11/2014 22h32 7,61013,6920
 07/11/2014 21h32 8,81013,9920
 07/11/2014 20h32 9,81013,5920
 07/11/2014 19h32 10,41013,1910
 07/11/2014 18h32 10,51012,8900
 07/11/2014 17h32 10,41012,1880,5
 07/11/2014 16h32 11,91012,1850
 07/11/2014 15h32 13,11011,2800
 07/11/2014 14h32 13,61011770
 07/11/2014 13h32 13,61010,7770
 07/11/2014 12h32 12,11011790
 07/11/2014 11h32 12,61010,3750
 07/11/2014 10h32 9,51010,6860
 07/11/2014 09h32 7,81009,6940
 07/11/2014 08h32 5,61009940
 07/11/2014 07h32 3,91008,6930
 07/11/2014 06h32 2,31006,5940
 06/11/2014 06h20 7,11011,1910
 06/11/2014 05h20 7,31010,7910
 06/11/2014 04h20 7,51010,9910
 06/11/2014 03h20 7,61010,4920
 06/11/2014 02h20 7,61010,3920
 06/11/2014 01h20 7,51010,1920
 06/11/2014 00h20 6,81010920
 05/11/2014 23h20 5,91009,9910
 05/11/2014 22h20 5,61009,3910
 05/11/2014 21h20 5,21009,3910
 05/11/2014 20h20 5,41008,7890
 05/11/2014 19h20 6,41008860
 05/11/2014 18h20 5,61007,4850
 05/11/2014 17h20 6,81006,9800
 05/11/2014 16h20 9,91006710
 05/11/2014 15h20 14,41005,2580
 05/11/2014 14h20 16,61004,9550
 05/11/2014 13h20 15,91004,6640
 05/11/2014 12h20 12,61004,6800
 05/11/2014 11h20 9,91004,5870
 05/11/2014 10h20 91004,4890
 05/11/2014 09h20 8,61004,1920
 05/11/2014 08h20 8,41003,7920
 05/11/2014 07h20 8,11002,7930
 05/11/2014 06h20 7,91002930
 05/11/2014 05h20 7,91001,3940
 05/11/2014 04h20 7,91000,9940
 05/11/2014 03h20 7,91000,6940
 05/11/2014 02h20 7,91000,7940
 05/11/2014 01h20 7,91000,3940
 05/11/2014 00h20 7,8999,8940
 04/11/2014 23h20 7,6999,5940
 04/11/2014 22h20 6,7998,6940
 04/11/2014 21h20 7,3997,7940,5
 04/11/2014 20h20 8,6997,2930
 04/11/2014 19h20 8,9996,7930
 04/11/2014 18h20 9,3995,8930,6
 04/11/2014 17h20 9,4995,2920
 04/11/2014 16h20 9,9994,6920
 04/11/2014 15h20 10,2994,3920,5
 04/11/2014 14h20 10,2994,1920
 04/11/2014 13h20 10,1994,5921,5
 04/11/2014 12h20 9,8995922,1
 04/11/2014 11h20 9,8995,2912,6
 04/11/2014 10h20 10,2995,2910,5
 04/11/2014 09h20 10,4994,9920
 04/11/2014 08h20 10,1995,3920
 04/11/2014 07h20 10,4994,1920
 04/11/2014 06h20 10,5993,9910,5
 04/11/2014 05h20 10,8994900,5
 04/11/2014 04h20 12,1994900
 04/11/2014 03h20 12,3993,1870
 04/11/2014 02h20 12,4993840
 04/11/2014 01h20 12,8993,8830
 04/11/2014 00h20 13,7995,4760
 03/11/2014 23h20 14,6996,1710
 03/11/2014 22h20 15,9996,1700
 03/11/2014 21h20 16,9996,2590
 03/11/2014 20h20 17,4996590
 03/11/2014 19h20 17,4996,8600
 03/11/2014 18h20 17,9997,1620
 03/11/2014 17h20 19997,4610
 03/11/2014 16h20 20,1997,6610
 03/11/2014 15h20 23,6998,9520
 03/11/2014 14h20 27,6999,9470
 03/11/2014 13h20 26,91001,5520
 03/11/2014 12h20 22,81003,1630
 03/11/2014 11h20 22,91004,8640
 03/11/2014 10h20 19,21006,7760
 03/11/2014 09h20 15,61007,6900
 03/11/2014 08h20 12,61008,1920
 03/11/2014 07h20 10,91007,9930
 03/11/2014 06h20 10,21007,8920
 03/11/2014 05h20 10,91008,3920
 03/11/2014 04h20 111009,2910
 03/11/2014 03h20 11,41009,7910
 03/11/2014 02h20 11,61010,4910
 03/11/2014 01h20 12,51011900
 03/11/2014 00h20 12,51011,9900
 02/11/2014 23h20 131012,5880
 02/11/2014 22h20 13,21013,2880
 02/11/2014 21h20 13,81013,4860
 02/11/2014 20h20 14,11013,5840
 02/11/2014 19h20 15,41013,5790
 02/11/2014 18h20 17,61013,5740
 02/11/2014 17h20 17,91013,1710
 02/11/2014 16h20 19,61012,9630
 02/11/2014 15h20 22,71013540
 02/11/2014 14h20 25,71013,1490
 02/11/2014 13h20 251013,2500
 02/11/2014 12h20 24,31014520
 02/11/2014 11h20 22,71014,8560
 02/11/2014 10h20 21,11015,7670
 02/11/2014 09h20 17,31016,7870
 02/11/2014 08h20 11,11016,9930
 02/11/2014 07h20 7,21017930
 02/11/2014 06h20 6,51016,9920
 02/11/2014 05h20 7,31017,2920
 02/11/2014 04h20 7,11017,7920
 02/11/2014 03h20 7,31017,9920
 02/11/2014 02h20 8,61018,2910
 02/11/2014 01h20 8,31018,7910
 02/11/2014 00h20 9,11019,2910
 01/11/2014 23h20 9,81019,6900
 01/11/2014 22h20 10,81019,6890
 01/11/2014 21h20 11,81020,1860
 01/11/2014 20h20 12,61020,2830
 01/11/2014 19h20 13,91020800
 01/11/2014 18h20 15,61019,9760
 01/11/2014 17h20 17,61019,4690
 01/11/2014 16h20 20,91019,1590
 01/11/2014 15h20 27,91019,1420
 01/11/2014 14h20 30,11018,9390
 01/11/2014 13h20 29,61019,2420
 01/11/2014 12h20 26,61020480
 01/11/2014 11h20 23,61020,5550
 01/11/2014 10h20 20,91020,7640
 01/11/2014 09h20 15,71020,4830
 01/11/2014 08h20 10,31020,4930
 01/11/2014 07h20 6,41019,9920
 01/11/2014 06h20 5,91019,3920
 01/11/2014 05h20 5,91019,1920
 01/11/2014 04h20 6,21018,8910
 01/11/2014 03h20 6,81018,6910
 01/11/2014 02h20 7,61018,9900
 01/11/2014 01h20 7,21019,3900
 01/11/2014 00h20 7,91019,4890
 31/10/2014 23h20 8,51019,5890
 31/10/2014 22h20 9,21019,5870
 31/10/2014 21h20 10,11019,6850
 31/10/2014 20h20 11,81019,3800
 31/10/2014 19h20 13,91019740
 31/10/2014 18h20 15,91018,9690
 31/10/2014 17h20 17,11018,8630
 31/10/2014 16h20 20,71018,4540
 31/10/2014 15h20 28,21018,4400
 31/10/2014 14h20 30,61018,6370
 31/10/2014 13h20 30,81018,7370
 31/10/2014 12h20 28,81019,3400
 31/10/2014 11h20 24,61020480
 31/10/2014 10h20 22,11020,7560
 31/10/2014 09h20 17,31020,7730
 31/10/2014 08h20 11,31020,7910
 31/10/2014 07h20 7,21020,3920
 31/10/2014 06h20 6,11019,8920
 31/10/2014 05h20 6,11019,8920
 31/10/2014 04h20 6,41020910
 31/10/2014 03h20 6,91020910
 31/10/2014 02h20 71020,2900
 31/10/2014 01h20 7,61020,4900
 31/10/2014 00h20 8,11020,4890
 30/10/2014 23h20 8,11020,3880
 30/10/2014 22h20 9,21020,5870
 30/10/2014 21h20 9,61020,2830
 30/10/2014 20h20 10,61020,1800
 30/10/2014 19h20 12,11019,8750
 30/10/2014 18h20 13,91019,5700
 30/10/2014 17h20 171019,2610
 30/10/2014 16h20 21,11018,8500
 30/10/2014 15h20 25,61018,6400
 30/10/2014 14h20 30,31018,5330
 30/10/2014 13h20 30,61018,6330
 30/10/2014 12h20 27,51019,1390
 30/10/2014 11h20 23,11019,5480
 30/10/2014 10h20 19,11020,1590
 30/10/2014 09h20 13,61019,9800
 30/10/2014 08h20 10,11019,8910
 30/10/2014 07h20 4,31019,4920
 30/10/2014 06h20 3,81018,6920
 30/10/2014 05h20 4,51018,1920
 30/10/2014 04h20 5,51017,9920
 30/10/2014 03h20 5,71017,7910
 30/10/2014 02h20 6,51017,8920
 30/10/2014 01h20 6,61018910
 30/10/2014 00h20 7,41017,9900
 29/10/2014 23h20 7,61017,9900
 29/10/2014 22h20 8,41017,3890
 29/10/2014 21h20 9,51017,6870
 29/10/2014 20h20 10,41017,4840
 29/10/2014 19h20 11,41016,8800
 29/10/2014 18h20 14,21016,1720
 29/10/2014 17h20 16,21015,3640
 29/10/2014 16h20 20,31014,4520
 29/10/2014 15h20 26,81014,4380
 29/10/2014 14h20 28,61014,3350
 29/10/2014 13h20 28,81014,6380
 29/10/2014 12h20 25,31015450
 29/10/2014 11h20 231015,5530
 29/10/2014 10h20 20,61015,8640
 29/10/2014 09h20 16,31016790
 29/10/2014 08h20 11,91015,9900
 29/10/2014 07h20 6,41015,2920
 29/10/2014 06h20 4,81014,5910
 29/10/2014 05h20 5,31014,5910
 29/10/2014 04h20 61014,4910
 29/10/2014 03h20 6,31014,3900
 29/10/2014 02h20 7,51014900
 29/10/2014 01h20 7,91014,1910
 29/10/2014 00h20 8,21014,5900
 28/10/2014 23h20 8,31014,4890
 28/10/2014 22h20 8,81014,3880
 28/10/2014 21h20 9,91014,3850
 28/10/2014 20h20 11,91014,1810
 28/10/2014 19h20 12,91014770
 28/10/2014 18h20 141014730
 28/10/2014 17h20 15,61013,8670
 28/10/2014 16h20 18,21013,4580
 28/10/2014 15h20 24,31013,2430
 28/10/2014 14h20 25,21013,1390
 28/10/2014 13h20 251013,4420
 28/10/2014 12h20 23,61013,6440
 28/10/2014 11h20 21,61014500
 28/10/2014 10h20 211014,5520
 28/10/2014 09h20 19,41014,5570
 28/10/2014 08h20 17,61014,5650
 28/10/2014 07h20 14,11014,3760
 28/10/2014 06h20 13,51014770
 28/10/2014 05h20 13,61014,2780
 28/10/2014 04h20 131014,3830
 28/10/2014 03h20 11,41014,3900
 28/10/2014 02h20 10,11014,6900
 28/10/2014 01h20 9,91015,2880
 28/10/2014 00h20 10,51015,5880
 27/10/2014 23h20 11,31015,9870
 27/10/2014 22h20 10,81016,2860
 27/10/2014 21h20 11,91016,5840
 27/10/2014 20h20 13,11016,8820
 27/10/2014 19h20 13,61016,7810
 27/10/2014 18h20 14,61016,8770
 27/10/2014 17h20 16,31016,6710
 27/10/2014 16h20 19,31016,5610
 27/10/2014 15h20 24,11016,6490
 27/10/2014 14h20 26,31016,7440
 27/10/2014 13h20 271017430
 27/10/2014 12h20 24,11017,3490
 27/10/2014 11h20 23,41018,3540
 27/10/2014 10h20 21,91019,1610
 27/10/2014 09h20 17,51019,5790
 27/10/2014 08h20 11,61019,7900
 27/10/2014 07h20 6,51019,8930
 27/10/2014 06h20 61019,4920
 27/10/2014 05h20 6,41019,5920
 27/10/2014 04h20 6,91019,5920
 27/10/2014 03h20 6,61019,3920
 27/10/2014 02h20 71019,6910
 27/10/2014 01h20 8,21019,8910
 17/10/2014 21h20 15,21013,8850
 17/10/2014 20h20 17,31013,4790
 17/10/2014 19h20 18,71013,2750
 17/10/2014 18h20 19,61012,7710
 17/10/2014 17h20 22,51012,4600
 17/10/2014 16h20 26,81011,8490
 17/10/2014 15h20 30,81012420
 17/10/2014 14h20 311012,4420
 17/10/2014 13h20 31,61012,8450
 17/10/2014 11h20 28,91014,2520
 17/10/2014 10h20 27,41014,7590
 17/10/2014 09h20 24,51015660
 17/10/2014 08h20 19,31014,8830
 17/10/2014 07h20 131014,4930
 17/10/2014 06h20 12,11013,4930
 17/10/2014 05h20 11,31013,1930
 17/10/2014 04h20 11,81012,7920
 17/10/2014 03h20 12,41012,8920
 17/10/2014 02h20 13,21012,3910
 17/10/2014 01h20 13,21012,1910
 17/10/2014 00h20 12,51011,9900
 16/10/2014 23h20 13,11010,1880
 16/10/2014 22h20 14,21009,7870
 16/10/2014 21h20 14,91009,1840
 16/10/2014 20h20 16,61008,5780
 16/10/2014 19h20 181007,9730
 16/10/2014 18h20 19,51007,3710
 16/10/2014 17h20 21,11007,1710
 16/10/2014 16h20 26,11006,5590
 16/10/2014 15h20 29,21006,5500
 16/10/2014 14h20 32,41006,9450
 16/10/2014 13h20 33,81007,6430
 16/10/2014 12h20 32,11008,2470
 16/10/2014 11h20 28,11008,8570
 16/10/2014 10h20 27,61009,3580
 16/10/2014 09h20 25,31009,4650
 16/10/2014 08h20 19,41009,8800
 16/10/2014 07h20 15,41009,5940
 16/10/2014 06h20 14,11009,4940
 16/10/2014 05h20 14,31008,9930
 16/10/2014 04h20 14,11008,5930
 16/10/2014 03h20 13,91008,2930
 16/10/2014 02h20 13,91008,1930
 16/10/2014 01h20 13,51008,6930
 16/10/2014 00h20 13,21008,2920
 15/10/2014 23h20 13,81007,6910
 15/10/2014 22h20 141007,7910
 15/10/2014 21h20 14,91007,8880
 15/10/2014 20h20 15,81007,3850
 15/10/2014 19h20 17,41007,3810
 15/10/2014 18h20 19,91007,1780
 15/10/2014 17h20 211006,5740
 15/10/2014 16h20 24,11006,4630
 15/10/2014 15h20 25,61006,2570
 15/10/2014 14h20 29,61005,6490
 15/10/2014 13h20 29,91005,7500
 15/10/2014 12h20 25,61006,1610
 15/10/2014 11h20 22,81006,4700
 15/10/2014 10h20 21,31007740
 15/10/2014 09h20 20,41007,1770
 15/10/2014 08h20 16,41006,7900
 15/10/2014 07h20 13,81007,1950,6
 15/10/2014 06h20 11,61006,7940
 15/10/2014 05h20 11,61006,9940
 15/10/2014 04h20 12,11007,1940
 15/10/2014 03h20 12,51007,3930
 15/10/2014 02h20 12,61006,8930
 15/10/2014 01h20 12,81007,5930
 15/10/2014 00h20 14,11007,2920
 14/10/2014 23h20 15,51007,1930
 14/10/2014 22h20 15,81007,4920
 14/10/2014 21h20 15,81007,2910
 14/10/2014 20h20 16,31006,7911,5
 14/10/2014 19h20 16,31006,3888,3
 14/10/2014 18h20 18,11005,5781
 14/10/2014 17h20 21,51004,5610
 14/10/2014 16h20 26,81003,8470
 14/10/2014 15h20 29,31003,7430
 14/10/2014 14h20 32,21003,6400
 14/10/2014 13h20 27,51004,4490
 14/10/2014 12h20 29,61004,1470
 14/10/2014 11h20 26,41004,5530
 14/10/2014 10h20 23,91004,9620
 14/10/2014 09h20 22,41004,9660
 14/10/2014 08h20 16,61005,1860
 14/10/2014 07h20 11,41005,2930
 14/10/2014 06h20 9,81004,4920
 14/10/2014 05h20 10,21004,4920
 14/10/2014 04h20 10,31003,9920
 14/10/2014 03h20 10,81004,2920
 14/10/2014 02h20 111004,7910
 14/10/2014 01h20 11,81005,1910
 14/10/2014 00h20 12,81005,7880
 13/10/2014 23h20 12,61005,8870
 13/10/2014 22h20 12,81005,9860
 13/10/2014 21h20 14,31006,1800
 13/10/2014 20h20 15,31006,1760
 13/10/2014 19h20 17,31006690
 13/10/2014 18h20 18,91005,8640
 13/10/2014 17h20 20,91005,3560
 13/10/2014 16h20 25,31004,6450
 13/10/2014 15h20 28,51004,7380
 13/10/2014 14h20 28,61004,5400
 13/10/2014 13h20 27,81004,7420
 13/10/2014 12h20 24,91005,2480
 13/10/2014 11h20 24,21005,8490
 13/10/2014 10h20 25,41006500
 13/10/2014 09h20 23,41006,2570
 13/10/2014 08h20 18,41005,9750
 13/10/2014 07h20 12,91005,8930
 13/10/2014 06h20 10,41005,3920
 13/10/2014 05h20 10,81005,4920
 13/10/2014 04h20 111005,2910
 13/10/2014 03h20 11,61005,3900
 13/10/2014 02h20 12,31005,5880
 13/10/2014 01h20 13,71005,7870
 13/10/2014 00h20 15,91005,6800
 12/10/2014 23h20 16,41005,1800
 12/10/2014 22h20 18,11004,9730
 12/10/2014 21h20 191004,7770
 12/10/2014 20h20 19,31003,6790
 12/10/2014 19h20 20,21002,6740
 12/10/2014 18h20 21,11001,8720
 12/10/2014 17h20 21,91001,2690
 12/10/2014 16h20 25,91000,4570
 12/10/2014 15h20 28,31000,9510
 12/10/2014 14h20 26,71001,1550
 12/10/2014 13h20 29,11001,2500
 12/10/2014 12h20 28,41001500
 12/10/2014 11h20 27,11001,8550
 12/10/2014 10h20 26,11001,6560
 12/10/2014 09h20 25,61001,5600
 12/10/2014 08h20 21,81001,6720
 12/10/2014 07h20 21,11001,3740
 12/10/2014 06h20 21,51000,9720
 12/10/2014 05h20 21,41001,6720
 12/10/2014 04h20 20,91002730
 12/10/2014 03h20 20,51002,2740
 12/10/2014 02h20 20,41003750
 12/10/2014 01h20 19,41004,5770
 12/10/2014 00h20 18,71005,2780
 11/10/2014 23h20 18,31006730
 11/10/2014 22h20 18,21006,6720
 11/10/2014 21h20 15,61007,3830
 11/10/2014 20h20 15,41007,6820
 11/10/2014 19h20 16,81007,6790
 11/10/2014 18h20 18,11008,1730
 11/10/2014 17h20 20,91008,3620
 11/10/2014 16h20 25,51008,6500
 11/10/2014 15h20 29,31009440
 11/10/2014 14h20 29,41009,4450
 11/10/2014 13h20 29,61010510
 11/10/2014 12h20 26,81010,9610
 11/10/2014 11h20 23,91011,9660
 11/10/2014 10h20 22,11012,6730
 11/10/2014 09h20 17,61012,9860
 11/10/2014 08h20 15,31013,4930
 11/10/2014 07h20 14,31013,2940
 11/10/2014 06h20 13,41012,9940
 11/10/2014 05h20 14,11012,3940
 11/10/2014 04h20 14,31012,5940
 11/10/2014 03h20 14,31012,2940
 11/10/2014 02h20 13,11012,2930
 11/10/2014 01h20 13,91012,3920
 11/10/2014 00h20 14,61012,1920
 10/10/2014 23h20 15,81011,7910
 10/10/2014 22h20 16,41011,5910
 10/10/2014 21h20 16,71011,2910
 10/10/2014 20h20 16,81011910
 10/10/2014 19h20 17,61010,5890
 10/10/2014 18h20 17,91010880
 10/10/2014 17h20 18,21009,5870
 10/10/2014 16h20 19,21009,3800
 10/10/2014 15h20 20,91009,3760
 10/10/2014 14h20 22,41009,3700
 10/10/2014 13h20 25,11009,1640
 10/10/2014 12h20 23,91009,3690
 10/10/2014 11h20 241010,2700
 10/10/2014 10h20 231010,7740
 10/10/2014 09h20 21,71011,1780
 10/10/2014 08h20 20,31010,9910
 10/10/2014 07h20 16,61010,5940
 10/10/2014 06h20 15,71010,2940
 10/10/2014 05h20 15,81010,1940,6
 10/10/2014 04h20 15,71010,6940
 10/10/2014 03h20 15,81010,9940
 10/10/2014 02h20 15,71010,9930
 10/10/2014 01h20 15,81011,2930
 10/10/2014 00h20 15,91011,6930
 09/10/2014 23h20 15,61011,2930
 09/10/2014 22h20 15,81011,3930
 09/10/2014 21h20 16,11011,3921,5
 09/10/2014 20h20 16,61010,9912,1
 09/10/2014 19h20 17,11010,38912,4
 09/10/2014 18h20 19,71010,1812,6
 09/10/2014 17h20 21,41008,3710
 09/10/2014 16h20 23,21007,6670
 09/10/2014 15h20 26,51007,5590
 09/10/2014 14h20 27,11007,5570
 09/10/2014 13h20 30,11007,2480
 09/10/2014 12h20 32,51007,3450
 09/10/2014 11h20 31,31007,9480
 09/10/2014 10h20 25,51007,4640
 09/10/2014 09h20 21,11007,3790
 09/10/2014 08h20 20,51007,2770
 09/10/2014 07h20 20,41005,8780
 09/10/2014 06h20 15,41005,1900
 09/10/2014 05h20 15,51004,8900
 09/10/2014 04h20 15,51005900
 09/10/2014 03h20 15,81005,5890
 09/10/2014 02h20 15,81006,1890
 09/10/2014 01h20 16,11006,2880
 09/10/2014 00h20 15,61006,3890
 08/10/2014 23h20 15,61006870
 08/10/2014 22h20 16,91005,8840
 08/10/2014 21h20 18,21005,8800
 08/10/2014 20h20 18,71005,6780
 08/10/2014 19h20 201005,3740
 08/10/2014 18h20 20,91005,1710
 08/10/2014 17h20 22,91004,5640
 08/10/2014 16h20 28,11004,2500
 08/10/2014 15h20 29,81003,9450
 08/10/2014 14h20 33,41004,4360
 08/10/2014 13h20 32,91004,9380
 08/10/2014 12h20 32,81005,5360
 08/10/2014 11h20 31,21006,3410
 08/10/2014 10h20 29,11006,5460
 08/10/2014 09h20 27,61007550
 08/10/2014 08h20 21,81007730
 08/10/2014 07h20 16,41006,8930
 08/10/2014 06h20 11,11006,7930
 08/10/2014 05h20 11,91006,3930
 08/10/2014 04h20 11,51006,1920
 08/10/2014 03h20 12,11006,1920
 08/10/2014 02h20 12,61006,5910
 08/10/2014 01h20 13,41007910
 08/10/2014 00h20 14,11007,8890
 07/10/2014 23h20 14,51008,3880
 07/10/2014 22h20 15,21008,9850
 07/10/2014 21h20 16,71009810
 07/10/2014 20h20 17,61009,2780
 07/10/2014 19h20 19,81009,3710
 07/10/2014 18h20 20,31009,1700
 07/10/2014 17h20 21,91008,6630
 07/10/2014 16h20 23,61008,3590
 07/10/2014 15h20 24,91007,8560
 07/10/2014 14h20 28,31007,8480
 07/10/2014 13h20 29,21008,1460
 07/10/2014 12h20 29,31008,5480
 07/10/2014 11h20 26,91009,1560
 07/10/2014 10h20 26,61009,2600
 07/10/2014 09h20 211009,4780
 07/10/2014 08h20 16,91009,5890
 07/10/2014 07h20 15,71008,8900
 07/10/2014 06h20 14,51008,2920
 07/10/2014 05h20 14,51007,9930
 07/10/2014 04h20 12,91007,5920
 07/10/2014 03h20 12,61006,5910
 07/10/2014 02h20 13,81006,2910
 07/10/2014 01h20 12,91006,7910
 07/10/2014 00h20 13,31006,6900
 06/10/2014 23h20 13,81007880
 06/10/2014 22h20 14,71007,2860
 06/10/2014 21h20 16,31007,4820
 06/10/2014 20h20 16,91007,7790
 06/10/2014 19h20 17,81008760
 06/10/2014 18h20 18,81008,1720
 06/10/2014 17h20 19,91007,5680
 06/10/2014 16h20 24,41007530
 06/10/2014 15h20 27,91007,1440
 06/10/2014 14h20 29,31007,4430
 06/10/2014 13h20 26,81007,9470
 06/10/2014 12h20 26,41008,8480
 06/10/2014 11h20 25,11009,5510
 06/10/2014 10h20 20,81010,1590
 06/10/2014 09h20 17,71010,2680
 06/10/2014 08h20 14,31010,4810
 06/10/2014 07h20 9,61010,2940
 06/10/2014 06h20 6,11010930
 06/10/2014 05h20 5,31010,2930
 06/10/2014 04h20 5,61010,4920
 06/10/2014 03h20 5,81010,9920
 06/10/2014 02h20 5,91011,5920
 06/10/2014 01h20 6,31011,8910
 06/10/2014 00h20 6,61012,3910
 05/10/2014 23h20 6,91013900
 05/10/2014 22h20 7,91013,8880
 05/10/2014 21h20 8,21014,3870
 05/10/2014 20h20 8,91014,7830
 05/10/2014 19h20 10,31014,6780
 05/10/2014 18h20 11,81014,5730
 05/10/2014 17h20 151014,3620
 05/10/2014 16h20 20,51014,4460
 05/10/2014 15h20 25,41014,6360
 05/10/2014 14h20 23,11015,2410
 05/10/2014 13h20 22,61015,6430
 05/10/2014 12h20 20,71016,3490
 05/10/2014 11h20 21,11016,8510
 05/10/2014 10h20 17,31017,4630
 05/10/2014 09h20 16,21017,5700
 05/10/2014 08h20 14,91017,5750
 05/10/2014 07h20 12,71017,5820
 05/10/2014 06h20 11,61017860
 05/10/2014 05h20 13,21016,9820
 05/10/2014 04h20 14,11016,5830
 05/10/2014 03h20 15,11016800
 05/10/2014 02h20 16,21015,4850
 05/10/2014 01h20 16,91015,6850
 05/10/2014 00h20 17,11015,3830
 04/10/2014 23h20 17,91015,3800
 04/10/2014 22h20 18,51015,4780
 04/10/2014 21h20 18,41015,2780
 04/10/2014 20h20 18,21015760
 04/10/2014 19h20 18,71014,3700
 04/10/2014 18h20 20,71013,7650
 04/10/2014 17h20 22,91013,7560
 04/10/2014 16h20 25,91013,4460
 04/10/2014 15h20 31,81013,3350
 04/10/2014 14h20 31,71013,4350
 04/10/2014 13h20 29,91013,8390
 04/10/2014 12h20 311014,1410
 04/10/2014 11h20 28,21015460
 04/10/2014 10h20 26,61015,4520
 04/10/2014 09h20 23,71015,8600
 04/10/2014 08h20 19,61015,7780
 04/10/2014 07h20 14,11015,5920
 04/10/2014 06h20 9,11015,3930
 04/10/2014 05h20 9,61015930
 04/10/2014 04h20 9,51015,1930
 04/10/2014 03h20 10,51015,3930
 04/10/2014 02h20 10,71015,7930
 04/10/2014 01h20 10,81016,1920
 04/10/2014 00h20 11,41016,4910
 03/10/2014 23h20 12,11016,8900
 03/10/2014 22h20 12,61017,2890
 03/10/2014 21h20 13,61017,4850
 03/10/2014 20h20 14,41017,4820
 03/10/2014 19h20 16,31017,3760
 03/10/2014 18h20 18,41017,3700
 03/10/2014 17h20 22,81017,1540
 03/10/2014 16h20 28,41017,1410
 03/10/2014 15h20 32,91017,4350
 03/10/2014 14h20 31,81017,7400
 03/10/2014 13h20 29,61018,4450
 03/10/2014 12h20 30,31019,1450
 03/10/2014 11h20 28,21019,9480
 03/10/2014 10h20 25,91020,6550
 03/10/2014 09h20 23,61021,1620
 03/10/2014 08h20 21,11021,3740
 03/10/2014 07h20 14,21021,1920
 03/10/2014 06h20 9,91020,8930
 03/10/2014 05h20 9,31020,6930
 03/10/2014 04h20 9,61020,5930
 03/10/2014 03h20 10,11020,5930
 03/10/2014 02h20 10,31020,6930
 03/10/2014 01h20 10,61021920
 03/10/2014 00h20 11,31021,2910
 02/10/2014 23h20 11,51021,3910
 02/10/2014 22h20 12,41021,4900
 02/10/2014 21h20 13,11021,6870
 02/10/2014 20h20 14,41021,5850
 02/10/2014 19h20 15,91021,3800
 02/10/2014 18h20 18,21021,2710
 02/10/2014 17h20 22,51021570
 02/10/2014 16h20 27,61020,9440
 02/10/2014 15h20 31,61021,1380
 02/10/2014 14h20 321021,5410
 02/10/2014 13h20 29,71021,7520
 02/10/2014 12h20 27,91022,3600
 02/10/2014 11h20 23,81023690
 02/10/2014 10h20 20,71023,7780
 02/10/2014 09h20 17,61024870
 02/10/2014 08h20 15,61024930
 02/10/2014 07h20 13,31023,8940
 02/10/2014 06h20 12,51023,5940
 02/10/2014 05h20 12,21023940
 02/10/2014 04h20 12,41023940
 02/10/2014 03h20 12,61023,3940
 02/10/2014 02h20 12,41023,5930
 02/10/2014 01h20 12,51023,5930
 02/10/2014 00h20 131023,7930
 01/10/2014 23h20 141023,7920
 01/10/2014 22h20 14,91023,7920
 01/10/2014 21h20 15,61023,8910
 01/10/2014 20h20 16,81023,7890
 01/10/2014 19h20 17,51023,4870
 01/10/2014 18h20 18,71023,1830
 01/10/2014 17h20 21,41022,7730
 01/10/2014 16h20 25,91022,6600
 01/10/2014 15h20 30,41022,6510
 01/10/2014 14h20 29,41022,8540
 01/10/2014 13h20 26,31023,3640
 01/10/2014 12h20 25,31023,8670
 01/10/2014 11h20 25,21024,3700
 01/10/2014 10h20 22,91024,8780
 01/10/2014 09h20 20,91024,9850
 01/10/2014 08h20 18,51024,6930
 01/10/2014 07h20 181024,2940
 01/10/2014 06h20 17,61023,6940
 01/10/2014 05h20 17,61023,3940
 01/10/2014 04h20 17,61023,1940
 01/10/2014 03h20 17,61023,1940
 01/10/2014 02h20 17,51023,3940
 01/10/2014 01h20 17,41023,5940
 01/10/2014 00h20 17,31023,2940
 30/09/2014 23h20 17,31023,3930
 30/09/2014 22h20 16,81023,1930,5
 30/09/2014 21h20 171023,3920
 30/09/2014 20h20 17,61023920
 30/09/2014 19h20 18,51022,9910
 30/09/2014 18h20 18,81022,5890
 30/09/2014 17h20 20,21022,1850
 30/09/2014 16h20 22,21021,9770
 30/09/2014 15h20 27,71021,6610
 30/09/2014 14h20 29,51021,9600
 30/09/2014 13h20 21,81022,3831,6
 30/09/2014 12h20 19,41022,8883,1
 30/09/2014 11h20 23,61022,8740
 30/09/2014 10h20 23,61023750
 30/09/2014 09h20 221023,1790
 30/09/2014 08h20 20,11022,6880
 30/09/2014 07h20 18,21022,5930
 30/09/2014 06h20 17,51022930
 30/09/2014 05h20 17,41021,7930
 30/09/2014 04h20 17,61021,6923,1
 30/09/2014 03h20 17,81021,5921,5
 30/09/2014 02h20 17,91021,3910
 30/09/2014 01h20 18,11021,6910
 30/09/2014 00h20 18,11021,7900
 29/09/2014 23h20 18,41021,5880
 29/09/2014 22h20 191021,6850
 29/09/2014 21h20 19,41021,5840
 29/09/2014 20h20 19,81021,3830
 29/09/2014 19h20 20,61020,7800
 29/09/2014 18h20 21,61020,4750
 29/09/2014 17h20 23,91020670
 29/09/2014 16h20 26,91020570
 29/09/2014 15h20 26,11019,6590
 29/09/2014 14h20 33,81019,4420
 29/09/2014 13h20 31,31020,2490
 29/09/2014 12h20 27,51020,3550
 29/09/2014 11h20 27,31020,4570
 29/09/2014 10h20 25,91020,7610
 29/09/2014 09h20 28,31020,9590
 29/09/2014 08h20 20,41020,6820
 29/09/2014 07h20 18,61020,2870
 29/09/2014 06h20 17,11019,5890
 29/09/2014 05h20 17,41019860
 29/09/2014 04h20 17,51018,5870
 29/09/2014 03h20 16,81018,6910
 29/09/2014 02h20 16,31018,5930
 29/09/2014 01h20 16,21018,3930
 29/09/2014 00h20 16,21018,8930,6
 28/09/2014 23h20 16,41018,9931
 28/09/2014 22h20 16,61019,5921
 28/09/2014 21h20 16,91020,2911,1
 28/09/2014 20h20 17,11020,2903,6
 28/09/2014 19h20 17,31020,2881
 28/09/2014 18h20 18,11019,9840
 28/09/2014 17h20 19,61019,8780
 28/09/2014 16h20 22,31019,4670
 28/09/2014 15h20 23,51019,4620
 28/09/2014 14h20 26,41019,1540
 28/09/2014 13h20 281019490
 28/09/2014 12h20 27,61019,3490
 28/09/2014 11h20 27,71019,5480
 28/09/2014 10h20 26,61019,4510
 28/09/2014 09h20 26,11019,5540
 28/09/2014 08h20 21,51019,3670
 28/09/2014 07h20 19,71019,2780
 28/09/2014 06h20 12,61018,9910
 28/09/2014 05h20 12,11018,3910
 28/09/2014 04h20 121018,5890
 28/09/2014 03h20 12,41018,6880
 28/09/2014 02h20 13,11018,8860
 28/09/2014 01h20 13,21019,3860
 28/09/2014 00h20 13,11019,3850
 27/09/2014 23h20 13,21019,5820
 27/09/2014 22h20 14,11019,7790
 27/09/2014 21h20 13,61019,9720
 27/09/2014 20h20 15,71019,9650
 27/09/2014 19h20 18,21019,7580
 27/09/2014 18h20 19,61019,2540
 27/09/2014 17h20 22,91019470
 27/09/2014 16h20 26,91018,7360
 27/09/2014 15h20 30,81018,6310
 27/09/2014 14h20 32,21018,6270
 27/09/2014 13h20 301019,1280
 27/09/2014 12h20 28,31019,5310
 27/09/2014 11h20 27,11020,3350
 27/09/2014 10h20 26,61020,9420
 27/09/2014 09h20 23,91021,2510
 27/09/2014 08h20 20,31021,3650
 27/09/2014 07h20 12,61021,1880
 27/09/2014 06h20 7,11020,9920
 27/09/2014 05h20 6,81020,8920
 27/09/2014 04h20 6,81020,8910
 27/09/2014 03h20 7,11021910
 27/09/2014 02h20 7,51021900
 27/09/2014 01h20 8,71021,3890
 27/09/2014 00h20 8,41021,3860
 26/09/2014 23h20 9,11021,4840
 26/09/2014 22h20 9,91021,6780
 26/09/2014 21h20 11,21021,5730
 26/09/2014 20h20 12,21021,2660
 26/09/2014 19h20 14,11021,1590
 26/09/2014 18h20 16,71020,5510
 26/09/2014 17h20 23,61020,4350
 26/09/2014 16h20 27,61020,4280
 26/09/2014 15h20 31,11020,7250
 26/09/2014 14h20 32,11021250
 26/09/2014 13h20 301021,5280
 26/09/2014 12h20 25,51021,9350
 26/09/2014 11h20 24,51022410
 26/09/2014 10h20 23,81022,6450
 26/09/2014 09h20 22,21022,9500
 26/09/2014 08h20 18,31022,8650
 26/09/2014 07h20 13,11022,4870
 26/09/2014 06h20 6,11021,6920
 26/09/2014 05h20 5,81020,9920
 26/09/2014 04h20 5,91021910
 26/09/2014 03h20 6,51020,9910
 26/09/2014 02h20 7,81021,2910
 26/09/2014 01h20 7,91021,3890
 26/09/2014 00h20 8,71021,3880
 25/09/2014 23h20 9,81021,2850
 25/09/2014 22h20 10,81021,1830
 25/09/2014 21h20 12,11020,9760
 25/09/2014 20h20 131020,7720
 25/09/2014 19h20 14,41020670
 25/09/2014 18h20 16,11019,6610
 25/09/2014 17h20 19,91019,3490
 25/09/2014 16h20 23,21019,1430
 25/09/2014 15h20 26,31018,8370
 25/09/2014 14h20 27,41019360
 25/09/2014 13h20 27,41019,3370
 25/09/2014 12h20 23,61019,8440
 25/09/2014 11h20 24,11020,4460
 25/09/2014 10h20 21,41020,5550
 25/09/2014 09h20 20,91020,7570
 25/09/2014 08h20 18,31021680
 25/09/2014 07h20 12,91020,6890
 25/09/2014 06h20 8,81019,5910
 25/09/2014 05h20 8,41018,9900
 25/09/2014 04h20 9,61018,6870
 25/09/2014 03h20 10,61018,7870
 25/09/2014 02h20 9,81018,7860
 25/09/2014 01h20 10,51018,7840
 25/09/2014 00h20 11,11018,3820
 24/09/2014 23h20 11,11018,1780
 24/09/2014 22h20 13,21017,7730
 24/09/2014 21h20 14,11017,4690
 24/09/2014 20h20 13,91016,7680
 24/09/2014 19h20 14,91016,1640
 24/09/2014 18h20 15,81015,1580
 24/09/2014 17h20 19,31014,5490
 24/09/2014 16h20 22,31014,3410
 24/09/2014 15h20 25,51014,1350
 24/09/2014 14h20 24,11014,3390
 24/09/2014 13h20 25,81014,4410
 24/09/2014 12h20 24,71014,6410
 24/09/2014 11h20 24,41015440
 24/09/2014 10h20 23,11015,1530
 24/09/2014 09h20 19,91015,3620
 24/09/2014 08h20 18,61015,2690
 24/09/2014 07h20 141014,9810
 24/09/2014 06h20 13,61014,4800
 24/09/2014 05h20 13,71013,7790
 24/09/2014 04h20 13,91013,5810
 24/09/2014 03h20 13,91013,3810
 24/09/2014 02h20 13,51013860
 24/09/2014 01h20 13,11013,1870
 24/09/2014 00h20 13,31013,1860
 23/09/2014 23h20 13,91012,9840
 23/09/2014 22h20 14,91013,1810
 23/09/2014 21h20 15,71013770
 23/09/2014 20h20 15,91013,2740
 23/09/2014 19h20 16,61013,3670
 23/09/2014 18h20 17,61013620
 23/09/2014 17h20 19,61012,5530
 23/09/2014 16h20 21,81011,9450
 23/09/2014 15h20 22,91012400
 23/09/2014 14h20 24,71011,9370
 23/09/2014 13h20 25,31011,9370
 23/09/2014 12h20 24,31012380
 23/09/2014 11h20 22,11012,2500
 23/09/2014 10h20 19,31012,3570
 23/09/2014 09h20 18,81012,6550
 23/09/2014 08h20 18,11012,4630
 23/09/2014 07h20 11,81012,4840
 23/09/2014 06h20 7,91012,2900
 23/09/2014 05h20 7,91011,8880
 23/09/2014 04h20 8,61011,9850
 23/09/2014 03h20 9,91011,6820
 23/09/2014 02h20 10,31011,8820
 23/09/2014 01h20 10,51012,6790
 23/09/2014 00h20 12,11012,4750
 22/09/2014 23h20 131012,4720
 22/09/2014 22h20 14,71012,7680
 22/09/2014 21h20 14,11012,5710
 22/09/2014 20h20 14,91012,7690
 22/09/2014 19h20 16,71012,8620
 22/09/2014 18h20 17,81012,5570
 22/09/2014 17h20 21,81011,9440
 22/09/2014 16h20 25,61011,7400
 22/09/2014 15h20 27,81012,1400
 22/09/2014 14h20 28,11011,9420
 22/09/2014 13h20 29,51012,6400
 22/09/2014 12h20 28,41013,2450
 22/09/2014 11h20 26,81013,9550
 22/09/2014 10h20 23,51014,5680
 22/09/2014 09h20 20,91015,2750
 22/09/2014 08h20 191015,1820
 22/09/2014 07h20 15,11014,8930
 22/09/2014 06h20 12,61015,1930
 22/09/2014 05h20 11,61014,5930
 22/09/2014 04h20 12,41014,3920
 22/09/2014 03h20 12,51014,5920
 22/09/2014 02h20 12,91014,8910
 22/09/2014 01h20 13,41015,2910
 22/09/2014 00h20 14,31015,4890
 21/09/2014 23h20 15,41015,7850
 21/09/2014 22h20 16,91016820
 21/09/2014 21h20 17,61016,3790
 21/09/2014 20h20 18,41016,1780
 21/09/2014 19h20 19,91015,7740
 21/09/2014 18h20 22,11015,3650
 21/09/2014 17h20 25,41014,8540
 21/09/2014 16h20 29,31014,9430
 21/09/2014 15h20 33,91015,2360
 21/09/2014 14h20 34,31015,4380
 21/09/2014 13h20 31,31016,1420
 21/09/2014 12h20 29,61016,5450
 21/09/2014 11h20 29,31016,8550
 21/09/2014 10h20 26,31017,2650
 21/09/2014 09h20 23,21017,1740
 21/09/2014 08h20 22,41016,9840
 21/09/2014 07h20 16,81016,8940
 21/09/2014 06h20 14,91016,6930
 21/09/2014 05h20 15,31016,4930
 21/09/2014 04h20 15,71016,6930
 21/09/2014 03h20 14,91016,8920
 21/09/2014 02h20 15,61017,3920
 21/09/2014 01h20 16,41016,9900
 21/09/2014 00h20 16,91017900,6
 20/09/2014 23h20 17,41017,1893,1
 20/09/2014 22h20 20,31016,5740
 20/09/2014 21h20 20,51014,3700
 20/09/2014 20h20 20,91014650
 20/09/2014 19h20 22,31013,9600
 20/09/2014 18h20 24,51013,3540
 20/09/2014 17h20 31,61012,6370
 20/09/2014 16h20 34,31012,6330
 20/09/2014 15h20 36,11012,6300
 20/09/2014 14h20 36,81012,5300
 20/09/2014 13h20 37,71013330
 20/09/2014 12h20 33,51013,6440
 20/09/2014 11h20 32,41013,8470
 20/09/2014 10h20 31,41014,2520
 20/09/2014 09h20 29,21014,2580
 20/09/2014 08h20 23,11013,7750
 20/09/2014 07h20 18,31013,4930
 20/09/2014 06h20 151013920
 20/09/2014 05h20 14,71012920
 20/09/2014 04h20 15,51011,9910
 20/09/2014 03h20 15,91011,8890
 20/09/2014 02h20 17,51011,5870
 20/09/2014 01h20 17,31011,9880
 20/09/2014 00h20 17,31011,5860
 19/09/2014 23h20 18,71011,1810
 19/09/2014 22h20 19,11010,7800
 19/09/2014 21h20 19,61010,5780
 19/09/2014 20h20 20,91009,7740
 19/09/2014 19h20 23,11009,4670
 19/09/2014 18h20 24,11008,7640
 19/09/2014 17h20 28,41008500
 19/09/2014 16h20 32,21007,6410
 19/09/2014 15h20 36,31007,3340
 19/09/2014 14h20 34,41007,3370
 19/09/2014 13h20 37,51007,5320
 19/09/2014 12h20 32,61007,9410
 19/09/2014 11h20 31,11008,3440
 19/09/2014 10h20 30,41008,7500
 19/09/2014 09h20 28,31009620
 19/09/2014 08h20 22,31009,1830
 19/09/2014 07h20 22,41008,2770
 19/09/2014 06h20 21,11007,8820
 19/09/2014 05h20 19,31006,6820
 19/09/2014 04h20 21,41006,2760
 19/09/2014 03h20 22,11005,8760
 19/09/2014 02h20 21,81005,9780
 19/09/2014 01h20 20,91006,2810
 19/09/2014 00h20 20,41006,9800
 18/09/2014 23h20 211007790
 18/09/2014 22h20 22,41006,9750
 18/09/2014 21h20 22,11007,2760
 18/09/2014 20h20 21,31007770
 18/09/2014 19h20 22,81006,4740
 18/09/2014 18h20 23,71005,6710
 18/09/2014 17h20 26,31005,5610
 18/09/2014 16h20 29,11005,4530
 18/09/2014 15h20 31,91005,3460
 18/09/2014 14h20 33,91005,2410
 18/09/2014 13h20 33,41005,2430
 18/09/2014 12h20 30,61005,8500
 18/09/2014 11h20 29,21005,8550
 18/09/2014 10h20 29,31006,2540
 18/09/2014 09h20 27,21006,2570
 18/09/2014 08h20 27,11006,2590
 18/09/2014 07h20 24,31005,7690
 18/09/2014 06h20 17,11005,6890
 18/09/2014 05h20 15,51005,1890
 18/09/2014 04h20 16,11005870
 18/09/2014 03h20 17,81004,8830
 18/09/2014 02h20 19,41004,8800
 18/09/2014 01h20 20,21005770
 18/09/2014 00h20 20,91004,6780
 17/09/2014 23h20 211004,8810
 17/09/2014 22h20 19,91005,6810
 17/09/2014 21h20 20,91004,9790
 17/09/2014 20h20 21,81004,8750
 17/09/2014 19h20 22,61004,1730
 17/09/2014 18h20 23,71004,1700
 17/09/2014 17h20 25,41003,4640
 17/09/2014 16h20 27,21003,1580
 17/09/2014 15h20 32,81003,1440
 17/09/2014 14h20 32,11003,7430
 17/09/2014 13h20 31,81004,1420
 17/09/2014 12h20 31,21004,4460
 17/09/2014 11h20 30,51004,2490
 17/09/2014 10h20 29,21004,4530
 17/09/2014 09h20 28,61005550
 17/09/2014 08h20 26,41004,7660
 17/09/2014 07h20 22,31004,6790
 17/09/2014 06h20 16,31004,5930
 17/09/2014 05h20 16,11004,1920
 17/09/2014 04h20 16,91004,1910
 17/09/2014 03h20 17,41004,4900
 17/09/2014 02h20 17,81005890
 17/09/2014 01h20 18,61005,5880,5
 17/09/2014 00h20 21,21006,9800
 16/09/2014 23h20 22,91005,2720
 16/09/2014 22h20 22,71005,1730
 16/09/2014 21h20 22,41003,9760
 16/09/2014 20h20 22,31004,8770
 16/09/2014 19h20 22,11004,9760
 16/09/2014 18h20 22,31005720
 16/09/2014 17h20 23,41005,6670
 16/09/2014 16h20 25,91006580
 16/09/2014 15h20 29,51006,6500
 16/09/2014 14h20 28,61006,7510
 16/09/2014 13h20 28,11007,7520
 16/09/2014 12h20 28,31008,1500
 16/09/2014 11h20 29,81008,3460
 16/09/2014 10h20 28,81009,1490
 16/09/2014 09h20 27,31009,5540
 16/09/2014 08h20 24,91009,6620
 16/09/2014 07h20 19,61009,8800
 16/09/2014 06h20 14,41009,7920
 16/09/2014 05h20 13,51009,6910
 16/09/2014 04h20 14,11009,9900
 16/09/2014 03h20 14,41010,1890
 16/09/2014 02h20 14,91010,6890
 16/09/2014 01h20 15,11010,6880
 16/09/2014 00h20 15,81011,1860
 15/09/2014 23h20 16,61011,3840
 15/09/2014 22h20 18,21011,3790
 15/09/2014 21h20 19,81011,1740
 15/09/2014 20h20 21,61010,7690
 15/09/2014 19h20 22,91010,9640
 15/09/2014 18h20 24,61010,2590
 15/09/2014 17h20 27,31010,1500
 15/09/2014 16h20 30,41009,6420
 15/09/2014 15h20 35,31009,9340
 15/09/2014 14h20 32,61010,3370
 15/09/2014 13h20 33,11010,7380
 15/09/2014 12h20 31,71011,2410
 15/09/2014 11h20 311011,4420
 15/09/2014 10h20 30,21012450
 15/09/2014 09h20 31,21011,9460
 15/09/2014 08h20 25,31011,9630
 15/09/2014 07h20 18,51011,7810
 15/09/2014 06h20 13,91011,3920
 15/09/2014 05h20 13,61011,1910
 15/09/2014 04h20 14,31011,1900
 15/09/2014 03h20 14,91010,9890
 15/09/2014 02h20 15,51011,2880
 15/09/2014 01h20 15,61011,5880
 15/09/2014 00h20 15,61010,9870
 14/09/2014 23h20 171010,3830
 14/09/2014 22h20 17,91010,4790
 14/09/2014 21h20 19,31010,2740
 14/09/2014 20h20 19,91010,5690
 14/09/2014 19h20 22,11010,3620
 14/09/2014 18h20 23,81010,1560
 14/09/2014 17h20 26,51009,8470
 14/09/2014 16h20 30,91009,9330
 14/09/2014 15h20 32,41009,8290
 14/09/2014 14h20 35,51010,3260
 14/09/2014 13h20 36,31010,5270
 14/09/2014 12h20 33,91011,1310
 14/09/2014 11h20 32,51011,4340
 14/09/2014 10h20 31,11011,8380
 14/09/2014 09h20 28,41012,4450
 14/09/2014 08h20 25,51012,4550
 14/09/2014 07h20 17,51012,6810
 14/09/2014 06h20 10,91012,5920
 14/09/2014 05h20 9,81012,6910
 14/09/2014 04h20 10,11012,9910
 14/09/2014 03h20 10,81012,9900
 14/09/2014 02h20 11,31013,1890
 14/09/2014 01h20 11,61013,3860
 14/09/2014 00h20 131013,6850
 13/09/2014 23h20 14,11013,7800
 13/09/2014 22h20 14,71013,8730
 13/09/2014 21h20 15,61013,8680
 13/09/2014 20h20 17,71013,8620
 13/09/2014 19h20 20,21013,5530
 13/09/2014 18h20 23,61012,9440
 13/09/2014 17h20 30,61012,8310
 13/09/2014 16h20 31,91012,8290
 13/09/2014 15h20 35,61013250
 13/09/2014 14h20 36,91013,4240
 13/09/2014 13h20 33,61013,8300
 13/09/2014 12h20 31,81014,1320
 13/09/2014 11h20 29,31014,6350
 13/09/2014 10h20 28,61015,2400
 13/09/2014 09h20 27,21015,5420
 13/09/2014 08h20 23,61015,6540
 13/09/2014 07h20 16,41015,5780
 13/09/2014 06h20 9,61015,4920
 13/09/2014 05h20 7,81015,1910
 13/09/2014 04h20 8,11014,8900
 13/09/2014 03h20 8,61014,8890
 13/09/2014 02h20 9,31014,7880
 13/09/2014 01h20 10,11014,9860
 13/09/2014 00h20 10,81015,1840
 12/09/2014 23h20 12,51014,7810
 12/09/2014 22h20 13,41014,8780
 12/09/2014 21h20 15,21014,4730
 12/09/2014 20h20 16,61014660
 12/09/2014 19h20 18,91013,8580
 12/09/2014 18h20 22,61012,8450
 12/09/2014 17h20 29,11012,7340
 12/09/2014 16h20 30,31012,5290
 12/09/2014 15h20 33,91012,3250
 12/09/2014 14h20 34,61012,4250
 12/09/2014 13h20 33,61012,5280
 12/09/2014 12h20 31,91012,7330
 12/09/2014 11h20 29,11012,5420
 12/09/2014 10h20 28,91012,8440
 12/09/2014 09h20 27,11013,1460
 12/09/2014 08h20 24,91013550
 12/09/2014 07h20 19,21012,7730
 12/09/2014 06h20 11,91012,3920
 12/09/2014 05h20 9,91011,7900
 12/09/2014 04h20 11,11011,1900
 12/09/2014 03h20 11,31011,2890
 12/09/2014 02h20 12,11011,4880
 12/09/2014 01h20 12,91011,4860
 12/09/2014 00h20 13,51011,4820
 11/09/2014 23h20 14,81011,2760
 11/09/2014 22h20 16,81011,2670
 11/09/2014 21h20 18,81011,1570
 11/09/2014 20h20 21,11011490
 11/09/2014 19h20 21,71010,5460
 11/09/2014 18h20 23,61009,8400
 11/09/2014 17h20 30,31009,5300
 11/09/2014 16h20 30,91009,1300
 11/09/2014 15h20 341009,1240
 11/09/2014 14h20 34,61009,2260
 11/09/2014 13h20 34,11009,3280
 11/09/2014 12h20 32,31009,7370
 11/09/2014 11h20 30,71009,9430
 11/09/2014 10h20 30,61010,2420
 11/09/2014 09h20 31,31010,2470
 11/09/2014 08h20 28,81010570
 11/09/2014 07h20 22,81009,5750
 11/09/2014 06h20 15,71009,1940
 11/09/2014 05h20 13,41008,8920
 11/09/2014 04h20 13,81008,5920
 11/09/2014 03h20 14,11008,4910
 11/09/2014 02h20 14,71008,6900
 11/09/2014 01h20 15,11008,8890
 11/09/2014 00h20 16,41009890
 10/09/2014 23h20 17,11009860
 10/09/2014 22h20 17,61008,9820
 10/09/2014 21h20 18,91008,9770
 10/09/2014 20h20 20,41008,8720
 10/09/2014 19h20 22,71008,7640
 10/09/2014 18h20 26,81008,3520
 10/09/2014 17h20 32,81008,2400
 10/09/2014 16h20 331008,4390
 10/09/2014 15h20 39,11008,6300
 10/09/2014 14h20 39,61009,2300
 10/09/2014 13h20 38,21009,9330
 10/09/2014 12h20 33,81010,7410
 10/09/2014 11h20 32,31011470
 10/09/2014 10h20 31,51011,6510
 10/09/2014 09h20 30,81012530
 10/09/2014 08h20 27,21012,3650
 10/09/2014 07h20 23,11012,2750
 10/09/2014 06h20 16,21012,2940
 10/09/2014 05h20 14,11012,2930
 10/09/2014 04h20 14,51012,1930
 10/09/2014 03h20 14,91012,3920
 10/09/2014 02h20 15,51012,5920
 10/09/2014 01h20 15,91012,8920
 10/09/2014 00h20 16,41013,2910
 09/09/2014 23h20 17,11013,4890
 09/09/2014 22h20 17,51013,7870
 09/09/2014 21h20 18,51013,6830
 09/09/2014 20h20 201013,5790
 09/09/2014 19h20 21,91013,3720
 09/09/2014 18h20 25,61012,6600
 09/09/2014 17h20 31,21012,8460
 09/09/2014 16h20 31,91012,8440
 09/09/2014 15h20 36,11012,9380
 09/09/2014 14h20 37,81013,2370
 09/09/2014 13h20 36,31014400
 09/09/2014 12h20 33,21014,5480
 09/09/2014 11h20 29,41015,1570
 09/09/2014 10h20 31,11015,4540
 09/09/2014 09h20 30,11015,8560
 09/09/2014 08h20 26,41015,7670
 09/09/2014 07h20 20,81015,2870
 09/09/2014 06h20 14,91015,2940
 09/09/2014 05h20 13,91014,8940
 09/09/2014 04h20 14,11014,6940
 09/09/2014 03h20 14,11014,9940
 09/09/2014 02h20 14,11014,9940
 09/09/2014 01h20 14,71014,5940
 09/09/2014 00h20 15,41015,1940
 08/09/2014 23h20 15,61015,1930,5
 08/09/2014 22h20 16,11015,4930
 08/09/2014 21h20 15,91015,2930
 08/09/2014 20h20 16,51014,9920
 08/09/2014 19h20 17,31014,7910
 08/09/2014 18h20 19,31014,4870
 08/09/2014 17h20 21,11014,2840
 08/09/2014 16h20 22,71014,2780
 08/09/2014 15h20 18,61014,3910
 08/09/2014 14h20 18,41013,7911,6
 08/09/2014 13h20 18,71014,2912
 08/09/2014 12h20 18,61014,2884,2
 08/09/2014 11h20 20,91013,4770
 08/09/2014 10h20 26,41012,9680
 08/09/2014 09h20 29,41012,9630
 08/09/2014 08h20 25,11012,6770
 08/09/2014 07h20 21,81012,1870
 08/09/2014 06h20 19,81011,7930
 08/09/2014 05h20 18,11011,1910
 08/09/2014 04h20 18,61010,3900
 08/09/2014 03h20 191010,7890
 08/09/2014 02h20 20,11010,8870
 08/09/2014 01h20 21,21011,1840
 08/09/2014 00h20 20,41010,5810
 07/09/2014 23h20 20,31009,2770
 07/09/2014 22h20 20,91009760
 07/09/2014 21h20 22,11008,2700
 07/09/2014 20h20 24,11008660
 07/09/2014 19h20 25,71008,4590
 07/09/2014 18h20 27,61008500
 07/09/2014 17h20 33,61007,6360
 07/09/2014 16h20 35,81006,9320
 07/09/2014 15h20 40,11007260
 07/09/2014 14h20 39,41007,3260
 07/09/2014 13h20 41,81008270
 07/09/2014 12h20 37,11008,6320
 07/09/2014 11h20 34,51009,2360
 07/09/2014 10h20 34,31009,7380
 07/09/2014 09h20 32,31010,3460
 07/09/2014 08h20 27,51010,5560
 07/09/2014 07h20 18,81010,2790
 07/09/2014 06h20 16,71010,4860
 07/09/2014 05h20 15,61009,9870
 07/09/2014 04h20 15,41009,8870
 07/09/2014 03h20 15,61009,8840
 07/09/2014 02h20 15,51009,7850
 07/09/2014 01h20 14,71009,5840
 07/09/2014 00h20 14,91009,7810
 06/09/2014 23h20 15,61009,9780
 06/09/2014 22h20 16,51009,9750
 06/09/2014 21h20 17,41009,8680
 06/09/2014 20h20 18,81009,7640
 06/09/2014 19h20 21,21009580
 06/09/2014 18h20 25,51008,7450
 06/09/2014 17h20 32,21008,4310
 06/09/2014 16h20 33,41008,6320
 06/09/2014 15h20 32,41008,4330
 06/09/2014 14h20 36,11009,1290
 06/09/2014 13h20 37,41009,4280
 06/09/2014 12h20 34,51009,7330
 06/09/2014 11h20 33,91010,3340
 06/09/2014 10h20 32,91010,8370
 06/09/2014 09h20 28,91011,2470
 06/09/2014 08h20 26,31011,5560
 06/09/2014 07h20 19,41011,5770
 06/09/2014 06h20 14,51011,4920
 06/09/2014 05h20 11,41011,1920
 06/09/2014 04h20 12,11011,1920
 06/09/2014 03h20 12,31011,2900
 06/09/2014 02h20 12,91011,4900
 06/09/2014 01h20 13,91011,5880
 06/09/2014 00h20 14,41012870
 05/09/2014 23h20 15,31012,4840
 05/09/2014 22h20 15,91012,7810
 05/09/2014 21h20 16,91012,6770
 05/09/2014 20h20 18,41012,3710
 05/09/2014 19h20 20,31012630
 05/09/2014 18h20 23,41011,7530
 05/09/2014 17h20 28,31011,4410
 05/09/2014 16h20 29,91011,4380
 05/09/2014 15h20 33,81011,8330
 05/09/2014 14h20 35,41012330
 05/09/2014 13h20 32,41012,7400
 05/09/2014 12h20 33,11013,1410
 05/09/2014 11h20 30,71013,5480
 05/09/2014 10h20 27,21014580
 05/09/2014 09h20 23,91014,3690
 05/09/2014 08h20 211014,1800
 05/09/2014 07h20 191013,8870
 05/09/2014 06h20 17,21013,6900
 05/09/2014 05h20 16,51013,5910
 05/09/2014 04h20 15,81013,2910
 05/09/2014 03h20 15,61013,1910
 05/09/2014 02h20 15,41013,1900
 05/09/2014 01h20 16,21012,9880
 05/09/2014 00h20 17,11013,2860
 04/09/2014 23h20 17,81013,3850
 04/09/2014 22h20 18,11013,6830
 04/09/2014 21h20 17,91013,5830
 04/09/2014 20h20 18,11012,7810
 04/09/2014 19h20 19,61012,4780
 04/09/2014 18h20 21,61011,6690
 04/09/2014 17h20 26,91011,4560
 04/09/2014 16h20 231011,3660
 04/09/2014 15h20 27,51011,2440
 04/09/2014 14h20 33,31011,2280
 04/09/2014 13h20 36,21011,3250
 04/09/2014 12h20 331011,5280
 04/09/2014 11h20 30,91011,6330
 04/09/2014 10h20 31,21011,7340
 04/09/2014 09h20 28,91011,9360
 04/09/2014 08h20 26,71011,6430
 04/09/2014 07h20 20,91011,1620
 04/09/2014 06h20 13,91011,2860
 04/09/2014 05h20 8,51010,8900
 04/09/2014 04h20 9,11010,5900
 04/09/2014 03h20 9,91010,5890
 04/09/2014 02h20 10,51010,4880
 04/09/2014 01h20 10,91010,3850
 04/09/2014 00h20 12,81010,4840
 03/09/2014 23h20 13,41010,4810
 03/09/2014 22h20 14,61010,2740
 03/09/2014 21h20 16,71010660
 03/09/2014 20h20 17,61010,1610
 03/09/2014 19h20 20,31009,5520
 03/09/2014 18h20 27,81008,8360
 03/09/2014 17h20 33,41008,6250
 03/09/2014 16h20 33,41008,7240
 03/09/2014 15h20 37,81008,8190
 03/09/2014 14h20 39,41008,9190
 03/09/2014 13h20 35,71009,3230
 03/09/2014 12h20 32,91009,6260
 03/09/2014 11h20 31,41010,1290
 03/09/2014 10h20 29,81010,5340
 03/09/2014 09h20 28,91011370
 03/09/2014 08h20 25,51011,2460
 03/09/2014 07h20 18,61011,4660
 03/09/2014 06h20 131011,4850
 03/09/2014 05h20 8,81011,4900
 03/09/2014 04h20 8,91011,4890
 03/09/2014 03h20 9,91011,2870
 03/09/2014 02h20 11,41011,5840
 03/09/2014 01h20 12,41011,6820
 03/09/2014 00h20 131012,1790
 02/09/2014 23h20 14,41012,2740
 02/09/2014 22h20 15,31012,5710
 02/09/2014 21h20 16,11012,7700
 02/09/2014 20h20 18,11012,7640
 02/09/2014 19h20 20,41012,4540
 02/09/2014 18h20 26,41011,9380
 02/09/2014 17h20 30,71011,7290
 02/09/2014 16h20 30,51012290
 02/09/2014 15h20 35,41011,8210
 02/09/2014 14h20 36,11012,2270
 02/09/2014 13h20 34,61012,8270
 02/09/2014 11h20 28,41013,6380
 02/09/2014 08h20 24,11014,8530
 02/09/2014 07h20 18,31014,5710
 02/09/2014 06h20 13,41014,6890
 02/09/2014 05h20 8,21014,2910
 02/09/2014 04h20 8,81014900
 02/09/2014 03h20 9,81014,3900
 02/09/2014 02h20 10,61014,6890
 02/09/2014 01h20 11,11014,7860
 02/09/2014 00h20 12,21015,2840
 01/09/2014 23h20 13,91015,5790
 01/09/2014 22h20 14,91015,3750
 01/09/2014 21h20 16,41015,5700
 01/09/2014 20h20 17,51015,5640
 01/09/2014 19h20 19,81015550
 01/09/2014 18h20 24,61014,5420
 01/09/2014 17h20 28,81014,5360
 01/09/2014 16h20 29,11014,6330
 01/09/2014 15h20 33,31015,1270
 01/09/2014 14h20 33,51015,3290
 01/09/2014 13h20 32,11015,8330
 01/09/2014 12h20 29,91016,3370
 01/09/2014 11h20 28,91016,9380
 01/09/2014 10h20 28,41017,3410
 01/09/2014 09h20 281017,7440
 01/09/2014 08h20 25,11017,6560
 01/09/2014 07h20 21,41017,5680
 01/09/2014 06h20 17,61017,5840
 01/09/2014 05h20 12,31017,3900
 01/09/2014 04h20 12,51016,9900
 01/09/2014 03h20 12,91016,9880
 01/09/2014 02h20 14,31016,8880
 01/09/2014 01h20 151016,6870
 01/09/2014 00h20 15,81016,8850
 31/08/2014 23h20 16,71016,7830
 31/08/2014 22h20 17,61016,5790
 31/08/2014 21h20 18,51016,6760
 31/08/2014 20h20 19,91016,7700
 31/08/2014 19h20 20,81016670
 31/08/2014 18h20 24,41015,3550
 31/08/2014 17h20 28,11015,3460
 31/08/2014 16h20 291015,4440
 31/08/2014 15h20 331015,5360
 31/08/2014 14h20 33,31015,8360
 31/08/2014 13h20 32,11016,2390
 31/08/2014 12h20 29,91016,7440
 31/08/2014 11h20 28,31017,2470
 31/08/2014 10h20 28,21017,7480
 31/08/2014 09h20 29,21017,8480
 31/08/2014 08h20 25,21017,7580
 31/08/2014 07h20 21,91017,8700
 31/08/2014 06h20 15,71017,6930
 31/08/2014 05h20 11,31016,9920
 31/08/2014 04h20 11,81016,4910
 31/08/2014 03h20 11,91016,4900
 31/08/2014 02h20 12,91016,5900
 31/08/2014 01h20 13,61016,6870
 31/08/2014 00h20 15,11016,7840
 30/08/2014 23h20 16,11017,1820
 30/08/2014 22h20 16,61016,9790
 30/08/2014 21h20 17,81016,8750
 30/08/2014 20h20 18,81016,8740
 30/08/2014 19h20 19,81016,6720
 30/08/2014 18h20 23,91016,2600
 30/08/2014 17h20 29,61015,7420
 30/08/2014 16h20 29,11015,2440
 30/08/2014 15h20 30,21015,2420
 30/08/2014 14h20 33,41015,5390
 30/08/2014 13h20 31,91016420
 30/08/2014 12h20 32,31016,7420
 30/08/2014 11h20 29,71017,5470
 30/08/2014 10h20 29,51017,7530
 30/08/2014 09h20 301018,1550
 30/08/2014 08h20 26,61018670
 30/08/2014 07h20 21,61018,1870
 30/08/2014 06h20 16,41017,8940
 30/08/2014 05h20 14,61017,3940
 30/08/2014 04h20 15,11017,1930
 30/08/2014 03h20 15,11017,4930
 30/08/2014 02h20 14,41017,5920
 30/08/2014 01h20 15,11017,6920
 30/08/2014 00h20 15,81017,7910
 29/08/2014 23h20 16,11018910
 29/08/2014 22h20 17,61018880
 29/08/2014 21h20 19,11018,2860
 29/08/2014 20h20 19,41017,9850
 29/08/2014 19h20 19,91017,6820
 29/08/2014 18h20 21,11017,3790
 29/08/2014 17h20 22,11017,2750
 29/08/2014 16h20 23,61017,2710
 29/08/2014 15h20 23,81017,3730
 29/08/2014 14h20 23,31017,6760
 29/08/2014 13h20 21,31017,8800
 29/08/2014 12h20 21,61017,9800
 29/08/2014 11h20 22,81017,8770
 29/08/2014 10h20 22,61017,8780
 29/08/2014 09h20 19,61017,9870
 29/08/2014 08h20 18,81017,7921,5
 29/08/2014 07h20 18,21017,3901,6
 29/08/2014 06h20 19,51016,8880
 29/08/2014 05h20 191015,9910
 29/08/2014 04h20 17,81014910
 29/08/2014 03h20 17,91013,8890
 29/08/2014 02h20 18,31014890
 29/08/2014 01h20 18,61013,4860
 29/08/2014 00h20 19,61013,8830
 28/08/2014 23h20 21,51014,1780
 28/08/2014 22h20 22,11013,9750
 28/08/2014 21h20 23,41013,8690
 28/08/2014 20h20 24,91013,5630
 28/08/2014 19h20 25,31013610
 28/08/2014 18h20 30,21012,5490
 28/08/2014 17h20 32,31012,3440
 28/08/2014 16h20 35,41012,1330
 28/08/2014 15h20 35,21012,1340
 28/08/2014 14h20 39,41012,3300
 28/08/2014 13h20 39,11012,7310
 28/08/2014 12h20 34,91013,3390
 28/08/2014 11h20 341013,5410
 28/08/2014 10h20 32,71013,9440
 28/08/2014 09h20 30,81014,5460
 28/08/2014 08h20 26,11014,9600
 28/08/2014 07h20 20,11015760
 28/08/2014 06h20 15,61014,9920
 28/08/2014 05h20 12,51014,8930
 28/08/2014 04h20 12,51014,6920
 28/08/2014 03h20 13,21014,6920
 28/08/2014 02h20 13,41014,6920
 28/08/2014 01h20 13,91014,4910
 28/08/2014 00h20 14,31014,3910
 27/08/2014 23h20 14,91014,5890
 27/08/2014 22h20 15,61014,4860
 27/08/2014 21h20 16,31014,6830
 27/08/2014 20h20 17,81014,6780
 27/08/2014 19h20 20,11014,1690
 27/08/2014 18h20 26,81013,8510
 27/08/2014 17h20 29,41013,6430
 27/08/2014 16h20 29,21013,7470
 27/08/2014 15h20 32,11014,1420
 27/08/2014 14h20 33,81014,2400
 27/08/2014 13h20 28,61014,5540
 27/08/2014 12h20 29,11014,7570
 27/08/2014 07h20 20,61014,9850
 27/08/2014 06h20 18,11014,6920
 27/08/2014 05h20 17,91014,1920,5
 27/08/2014 04h20 18,41013,6930
 27/08/2014 03h20 18,81013,3930
 27/08/2014 02h20 18,91012,9930
 27/08/2014 01h20 19,61012,7930
 27/08/2014 00h20 19,81012,5921
 26/08/2014 23h20 19,81012,2920,5
 26/08/2014 22h20 19,31012,5912,6
 26/08/2014 21h20 19,31012,4881,1
 26/08/2014 20h20 19,41011,7860,5
 26/08/2014 19h20 22,31011,6700
 26/08/2014 18h20 23,51010,7630
 26/08/2014 17h20 26,31010,6560
 26/08/2014 16h20 29,91011,1470
 26/08/2014 15h20 28,41011,3490
 26/08/2014 14h20 28,91011,5500
 26/08/2014 13h20 27,11011,9560
 26/08/2014 12h20 23,81011,9640
 26/08/2014 11h20 23,81012660
 26/08/2014 10h20 25,11011,8590
 26/08/2014 09h20 28,61011480
 26/08/2014 08h20 25,21010,4590
 26/08/2014 07h20 25,41010,5580
 26/08/2014 06h20 19,21010,5800
 26/08/2014 05h20 14,91009,9870
 26/08/2014 04h20 13,61009,8880
 26/08/2014 03h20 13,91009,8870
 26/08/2014 02h20 14,51009,9850
 26/08/2014 01h20 15,51010,2820
 26/08/2014 00h20 15,91010,5810
 25/08/2014 23h20 17,31010740
 25/08/2014 22h20 19,61010,1670
 25/08/2014 21h20 20,81010,3610
 25/08/2014 20h20 21,81010,2580
 25/08/2014 19h20 23,81010460
 25/08/2014 18h20 29,31010,3390
 25/08/2014 17h20 34,61010,4290
 25/08/2014 16h20 34,71010,8280
 25/08/2014 15h20 36,91011,2250
 25/08/2014 14h20 39,51011,8230
 25/08/2014 13h20 39,51012,4240
 25/08/2014 12h20 35,31013,4290
 25/08/2014 11h20 32,71014,2360
 25/08/2014 10h20 31,41014,8370
 25/08/2014 09h20 29,11015,2420
 25/08/2014 08h20 24,31015,4570
 25/08/2014 07h20 17,61015,2750
 25/08/2014 06h20 15,51015,1820
 25/08/2014 05h20 14,51015,1820
 25/08/2014 04h20 14,81014,6790
 25/08/2014 03h20 14,81014,7800
 25/08/2014 02h20 14,91014,6790
 25/08/2014 01h20 14,91014,9800
 25/08/2014 00h20 14,51015,2800
 24/08/2014 23h20 15,31015,9760
 24/08/2014 22h20 15,41016,3720
 24/08/2014 21h20 15,61016,2690
 24/08/2014 20h20 18,41016,5610
 24/08/2014 19h20 20,41015,7540
 24/08/2014 18h20 23,11015,8460
 24/08/2014 17h20 25,41015,4370
 24/08/2014 16h20 30,31015,7300
 24/08/2014 15h20 33,11016,1290
 24/08/2014 14h20 351016,2260
 24/08/2014 13h20 33,41016,9280
 24/08/2014 12h20 29,81017,5340
 24/08/2014 11h20 28,21018340
 24/08/2014 10h20 28,91018,7360
 24/08/2014 09h20 25,31019,2460
 24/08/2014 08h20 251019,3500
 24/08/2014 07h20 19,81019,1710
 24/08/2014 04h20 11,81018,7880
 24/08/2014 03h20 12,41018,7870
 24/08/2014 02h20 13,71018,7850
 24/08/2014 01h20 14,51018,7830
 24/08/2014 00h20 14,91019,2820
 23/08/2014 23h20 15,41019,3810
 23/08/2014 22h20 14,81019,3800
 23/08/2014 21h20 16,21018,9760
 23/08/2014 20h20 16,31018,6720
 23/08/2014 19h20 17,41017,8670
 23/08/2014 18h20 22,41017,2530
 23/08/2014 17h20 25,81017450
 23/08/2014 16h20 25,61017,1450
 23/08/2014 15h20 28,91017,3390
 23/08/2014 14h20 25,11017,6480
 23/08/2014 13h20 23,21018510
 23/08/2014 12h20 251018,2480
 23/08/2014 11h20 25,81018,1460
 23/08/2014 10h20 26,21018,1470
 23/08/2014 09h20 27,21017,8490
 23/08/2014 08h20 22,71017,6650
 23/08/2014 07h20 16,71017,5850
 23/08/2014 06h20 13,91017,2910
 23/08/2014 05h20 13,91017910
 23/08/2014 04h20 14,11016,6910
 23/08/2014 03h20 14,31016,5920
 23/08/2014 02h20 14,51016,4920
 23/08/2014 01h20 14,51016,3920
 23/08/2014 00h20 14,61016,5920
 22/08/2014 23h20 14,81016,8920
 22/08/2014 22h20 151016,6920
 22/08/2014 21h20 15,31016,5910
 22/08/2014 20h20 15,41016,3900,5
 22/08/2014 19h20 15,81015,6890
 22/08/2014 18h20 16,31015,4880,5
 22/08/2014 17h20 17,61015,1800
 22/08/2014 16h20 20,91015,4710
 22/08/2014 15h20 19,91015,2760
 22/08/2014 14h20 21,31015,1640
 22/08/2014 13h20 24,51014,8490
 22/08/2014 12h20 26,41015460
 22/08/2014 11h20 28,51014,9390
 22/08/2014 10h20 27,31015440
 22/08/2014 09h20 22,51015,1610
 22/08/2014 08h20 23,21014,7570
 22/08/2014 07h20 17,41014,6790
 22/08/2014 06h20 12,91014,3880
 22/08/2014 05h20 10,41014,1920
 22/08/2014 04h20 10,21014920
 22/08/2014 03h20 10,61014,1910
 22/08/2014 02h20 10,91014,3900
 22/08/2014 01h20 11,41014,5880
 22/08/2014 00h20 12,41014,98691,7
 09/07/2014 09h20 17,11016,5760
 09/07/2014 08h20 19,31016,4710
 09/07/2014 07h20 19,41016,5720
 09/07/2014 06h20 15,41016,2870
 09/07/2014 05h20 15,31016,1870
 09/07/2014 04h20 14,31015,9910
 09/07/2014 03h20 13,91015,9910
 09/07/2014 02h20 14,61016,2890
 09/07/2014 01h20 15,41016,4890
 09/07/2014 00h20 15,61016,7880
 08/07/2014 23h20 15,61016,9870
 08/07/2014 22h20 15,81017860
 08/07/2014 21h20 16,11016,8850
 08/07/2014 20h20 16,31016,7850
 08/07/2014 19h20 17,41016800
 08/07/2014 18h20 18,91015,9740
 08/07/2014 17h20 19,31015,5760
 08/07/2014 16h20 21,51015,5630
 08/07/2014 15h20 23,61015,8570
 08/07/2014 14h20 25,81015,5540
 08/07/2014 13h20 26,51015,6500
 08/07/2014 12h20 24,91016540
 08/07/2014 11h20 23,21016,3590
 08/07/2014 10h20 20,91016,6600
 08/07/2014 09h20 19,91016,4690
 08/07/2014 08h20 18,91016,8760
 08/07/2014 07h20 18,31016,9790
 08/07/2014 06h20 14,41016,9870
 08/07/2014 05h20 13,81016,6910
 08/07/2014 04h20 12,61016,4900
 08/07/2014 03h20 13,51016,4900
 08/07/2014 02h20 13,31016,5900
 08/07/2014 01h20 13,31016,4900
 08/07/2014 00h20 13,61016,8890
 07/07/2014 23h20 14,71016,7850
 07/07/2014 22h20 14,91016,8830
 07/07/2014 21h20 14,81016,9820
 07/07/2014 20h20 15,31016,4830
 07/07/2014 19h20 18,11015,9710
 07/07/2014 18h20 21,91015,3610
 07/07/2014 17h20 20,31015,1680
 07/07/2014 16h20 22,21014,9610
 07/07/2014 15h20 24,71014,7570
 07/07/2014 14h20 23,31015550
 07/07/2014 13h20 24,41015,2550
 07/07/2014 12h20 23,81015610
 07/07/2014 11h20 18,71015,7760
 07/07/2014 10h20 21,11015,4770
 07/07/2014 09h20 16,41015,3890,5
 07/07/2014 08h20 151015,1920
 07/07/2014 07h20 14,41014,7930,5
 07/07/2014 06h20 14,21014,3942,1
 07/07/2014 05h20 14,31014,7942,6
 07/07/2014 04h20 14,31013,8940
 07/07/2014 03h20 14,41013,9930,5
 07/07/2014 02h20 14,41013,9922,1
 07/07/2014 01h20 15,61014,4931,6
 07/07/2014 00h20 16,11014,5890
 06/07/2014 23h20 16,81014,3920
 06/07/2014 22h20 16,91014,1920
 06/07/2014 21h20 17,11013,8920
 06/07/2014 20h20 17,91013,4920
 06/07/2014 19h20 18,21012,8911
 06/07/2014 18h20 17,61011,78812,4
 06/07/2014 17h20 21,91010,6800
 06/07/2014 16h20 22,21009,7790,5
 06/07/2014 15h20 19,71008,4790,6
 06/07/2014 14h20 28,61008500
 06/07/2014 13h20 28,21007,8490
 06/07/2014 12h20 32,31007,9480
 06/07/2014 11h20 35,41007,7420
 06/07/2014 10h20 31,31007,3500
 06/07/2014 09h20 29,11006,9540
 06/07/2014 08h20 31,31006,7510
 06/07/2014 07h20 24,61006,4650
 06/07/2014 06h20 24,21006,4670
 06/07/2014 05h20 19,21005,4830
 06/07/2014 04h20 16,81005,2910
 06/07/2014 03h20 17,81005,6890
 06/07/2014 02h20 17,51006,3890
 06/07/2014 01h20 17,41006,9880
 06/07/2014 00h20 18,41008,1880
 05/07/2014 23h20 18,71009860
 05/07/2014 22h20 19,41009,6850
 05/07/2014 21h20 20,51010800
 05/07/2014 20h20 22,51010,4720
 05/07/2014 19h20 26,61010,2600
 05/07/2014 18h20 29,11010,3520
 05/07/2014 17h20 311010,3470
 05/07/2014 16h20 32,41010,4460
 05/07/2014 15h20 31,61010,9490
 05/07/2014 14h20 32,91011,4470
 05/07/2014 13h20 34,31012,1450
 05/07/2014 12h20 31,11012,6520
 05/07/2014 11h20 31,41013,3510
 05/07/2014 10h20 31,81013,7540
 05/07/2014 09h20 27,91013,8600
 05/07/2014 08h20 26,61013,8660
 05/07/2014 06h20 19,61013,9950
 05/07/2014 05h20 141013,8940
 05/07/2014 04h20 13,11013,8940,5
 05/07/2014 03h20 13,31013,8940
 05/07/2014 02h20 13,91014940
 05/07/2014 01h20 14,41014,3940
 05/07/2014 00h20 14,81014,4930
 04/07/2014 23h20 15,31014,5920
 04/07/2014 22h20 16,51014,5930
 04/07/2014 21h20 17,51014,3920
 04/07/2014 20h20 18,51013,7930
 04/07/2014 19h20 18,81013,2910
 04/07/2014 18h20 19,31012,8911
 04/07/2014 17h20 19,41012894,7
 04/07/2014 16h20 18,41012895,2
 04/07/2014 15h20 211011,4800
 04/07/2014 14h20 27,81010,8530
 04/07/2014 13h20 27,21010,9570
 04/07/2014 12h20 24,91010,6700
 04/07/2014 11h20 22,91010,3750
 04/07/2014 10h20 21,61009,9770
 04/07/2014 09h20 23,71009,3710
 04/07/2014 08h20 20,61009,2830
 04/07/2014 07h20 18,41008,9900
 04/07/2014 06h20 18,11008,8880
 04/07/2014 05h20 17,61008,9880
 04/07/2014 04h20 16,21009,1910
 04/07/2014 03h20 15,81010,1900
 04/07/2014 02h20 16,71010,5890
 04/07/2014 01h20 16,71011,2900
 04/07/2014 00h20 16,31012,2900
 03/07/2014 23h20 17,11013,1890
 03/07/2014 22h20 17,21014,4900
 03/07/2014 21h20 18,41014,5880
 03/07/2014 20h20 19,11014,4880
 03/07/2014 19h20 20,31014,5840
 03/07/2014 18h20 21,51015,1800
 03/07/2014 17h20 21,91016800
 03/07/2014 16h20 22,91017800
 03/07/2014 15h20 211018,3850
 03/07/2014 14h20 20,31019,1850
 03/07/2014 13h20 20,51019,8841
 03/07/2014 12h20 21,41019,6780
 03/07/2014 11h20 29,11019,2490
 03/07/2014 10h20 30,41018,8460
 03/07/2014 09h20 30,91018,7440
 03/07/2014 08h20 28,41019,2530
 03/07/2014 07h20 25,81019,4580
 03/07/2014 06h20 20,31019,4780
 03/07/2014 05h20 16,41019,3940
 03/07/2014 04h20 12,71018,7940
 03/07/2014 03h20 13,11018,9930
 03/07/2014 02h20 13,61019,2930
 03/07/2014 01h20 14,11019,3920
 03/07/2014 00h20 14,61019,2920
 02/07/2014 23h20 14,91019,1910
 02/07/2014 22h20 16,31018,8890
 02/07/2014 21h20 16,81019860
 02/07/2014 20h20 18,41018,5820
 02/07/2014 19h20 20,71017,6740
 02/07/2014 18h20 23,41017680
 02/07/2014 17h20 23,91016,3690
 02/07/2014 16h20 231016,2710
 02/07/2014 15h20 25,61015,9620
 02/07/2014 14h20 34,51015,4440
 02/07/2014 13h20 24,41015,5690,5
 02/07/2014 12h20 31,21015,2510
 02/07/2014 11h20 30,41015,2540
 02/07/2014 10h20 28,91015,2620
 02/07/2014 09h20 25,81014,9690
 02/07/2014 08h20 21,21014,7860
 02/07/2014 07h20 19,31014,4860
 02/07/2014 06h20 18,41013,9910
 02/07/2014 05h20 17,11013,4920
 02/07/2014 04h20 16,91012,9920,5
 02/07/2014 03h20 17,11012,7910,5
 02/07/2014 02h20 17,51012,6900,6
 02/07/2014 01h20 17,91012,5870
 02/07/2014 00h20 17,91012840
 01/07/2014 23h20 17,81012,1850
 01/07/2014 22h20 18,81011,8800
 01/07/2014 21h20 19,11011,7790
 01/07/2014 20h20 191010,6790
 01/07/2014 19h20 21,11010,5740
 01/07/2014 18h20 22,31009,3690
 01/07/2014 17h20 23,81009630
 01/07/2014 16h20 26,81008,3560
 01/07/2014 15h20 28,91008,2510
 01/07/2014 14h20 28,41008,3480
 01/07/2014 13h20 32,61008,3360
 01/07/2014 12h20 29,71008,4420
 01/07/2014 11h20 28,81009430
 01/07/2014 10h20 29,31009,2430
 01/07/2014 09h20 27,41009,6460
 01/07/2014 08h20 24,41010,3530
 01/07/2014 07h20 20,11010,8690
 01/07/2014 06h20 18,91011,1690
 01/07/2014 05h20 13,51011,3860
 01/07/2014 04h20 12,91011,4890
 01/07/2014 03h20 12,91011,8880
 01/07/2014 02h20 13,11012,1880
 01/07/2014 01h20 13,51012,6870
 01/07/2014 00h20 13,91013,1850
 30/06/2014 23h20 14,31013,5820
 30/06/2014 22h20 15,31013,6760
 30/06/2014 21h20 16,61014700
 30/06/2014 20h20 18,91014620
 30/06/2014 19h20 21,21013,9520
 30/06/2014 18h20 27,71014390
 30/06/2014 17h20 29,81014,1370
 30/06/2014 16h20 30,11014,1360
 30/06/2014 15h20 28,91014,7410
 30/06/2014 14h20 26,51015,5440
 30/06/2014 13h20 32,11016410
 30/06/2014 12h20 27,41016,4470
 30/06/2014 11h20 261016,9500
 30/06/2014 10h20 25,41017,4500
 30/06/2014 09h20 24,31017,8550
 30/06/2014 08h20 21,41018,4630
 30/06/2014 07h20 20,41018,3680
 30/06/2014 06h20 181018,6800
 30/06/2014 05h20 13,51018,3930
 30/06/2014 04h20 12,91018,2930
 30/06/2014 03h20 12,51018,2930
 30/06/2014 02h20 12,51018,1930
 30/06/2014 01h20 12,71018920
 30/06/2014 00h20 13,21018,3920
 29/06/2014 23h20 13,81018,4910
 29/06/2014 22h20 14,21018,3890
 29/06/2014 21h20 15,21018860
 29/06/2014 20h20 15,51017,1820
 29/06/2014 19h20 17,31016,3780
 29/06/2014 18h20 191015,9710
 29/06/2014 17h20 20,41015,5640
 29/06/2014 16h20 20,31015,2620
 29/06/2014 15h20 181014,7750
 29/06/2014 14h20 251014,5523,1
 29/06/2014 13h20 25,11014,2570
 29/06/2014 12h20 24,91013,8510
 29/06/2014 11h20 23,21014,3670
 29/06/2014 10h20 231014,4620
 29/06/2014 09h20 21,51014,3620
 29/06/2014 08h20 20,81014,3660
 29/06/2014 07h20 17,51014,3810
 29/06/2014 06h20 16,41014910
 29/06/2014 05h20 14,61013,6930
 29/06/2014 04h20 14,51013,6931,5
 29/06/2014 03h20 14,61013,4920
 29/06/2014 02h20 15,11013,4910
 29/06/2014 01h20 15,61014,3910
 29/06/2014 00h20 15,81014,4910
 28/06/2014 23h20 16,21014,3900
 28/06/2014 22h20 16,91013,9870,5
 28/06/2014 21h20 17,51013,1860
 28/06/2014 20h20 18,91011,5890
 28/06/2014 19h20 19,11009,5885,2
 28/06/2014 18h20 18,71008849,3
 28/06/2014 17h20 29,91003,5410
 28/06/2014 16h20 36,11004,2370
 28/06/2014 15h20 37,61005,4360
 28/06/2014 14h20 42,61005,9300
 28/06/2014 13h20 40,31006,5320
 28/06/2014 12h20 36,91007,5380
 28/06/2014 11h20 33,91008,3450
 28/06/2014 10h20 31,61008,8520
 28/06/2014 09h20 29,91009,6560
 28/06/2014 08h20 25,41010,1670
 28/06/2014 07h20 21,41010,5760
 28/06/2014 06h20 24,91010,5690
 28/06/2014 05h20 19,81010,3830
 28/06/2014 04h20 15,11010,2870
 28/06/2014 03h20 15,91010,1830
 28/06/2014 02h20 17,21010,5780
 28/06/2014 01h20 18,31011,2760
 28/06/2014 00h20 18,11011,5770
 27/06/2014 23h20 18,31011,5760
 27/06/2014 22h20 20,51012,2690
 27/06/2014 21h20 21,11012,7690
 27/06/2014 20h20 21,31012,6660
 27/06/2014 19h20 25,41012,2570
 27/06/2014 18h20 28,61012450
 27/06/2014 17h20 30,11012,1380
 27/06/2014 16h20 32,81012,3330
 27/06/2014 15h20 33,31012,8330
 27/06/2014 14h20 35,21013,2330
 27/06/2014 13h20 33,91013,7380